GFSGBSN_sfc_wetblb_000.txt.gz
Wetbulb
57.16 57.18 57.10 56.76 56.54 56.77 56.68 56.10 55.71 55.61 55.53 55.53 55.45 55.53 55.57 55.82 56.11 56.22 56.19 55.91 55.85 55.45 55.41 55.51 56.33 56.57 58.96 55.39 53.49 59.89 62.53 63.84 59.88 58.49 55.62 54.14 52.83 52.64 49.02 49.95 50.97 49.25 49.68 50.87 51.57 51.56 51.03
57.26 57.13 56.99 56.64 56.42 56.39 56.35 56.05 55.72 55.85 55.55 55.36 55.38 55.43 55.27 55.47 55.83 56.18 56.31 56.23 55.93 55.57 55.33 55.37 56.03 55.56 58.18 50.28 59.36 60.41 60.03 59.70 58.98 58.11 56.06 55.86 53.89 54.47 52.31 51.37 50.58 51.37 51.11 50.95 51.68 51.30 51.03
57.00 57.05 57.34 56.72 56.57 56.27 56.05 56.08 55.85 55.77 55.54 55.50 55.63 55.32 55.16 55.39 55.59 55.88 56.22 56.11 55.73 55.66 55.57 55.51 55.96 58.67 57.06 53.17 59.66 60.81 60.10 58.99 59.10 57.95 54.81 55.79 56.56 54.68 54.41 51.77 52.95 51.60 48.84 50.98 51.07 49.90 48.18
56.88 56.90 56.78 56.62 56.15 55.98 55.96 55.77 55.45 55.43 55.35 55.12 55.37 55.30 55.12 54.90 55.15 55.43 55.75 55.67 55.50 55.65 55.65 55.69 55.77 59.38 53.31 59.42 61.05 59.31 60.10 58.72 59.43 59.19 57.21 56.86 57.36 54.74 54.10 53.67 52.31 49.16 49.45 44.61 48.72 49.17 49.54
56.55 56.76 56.91 56.59 56.19 56.12 55.87 55.89 55.20 55.15 54.76 55.02 55.20 55.28 55.02 54.71 54.86 55.46 55.52 55.33 55.16 55.69 55.73 55.98 59.12 59.58 52.40 60.41 57.01 58.90 59.50 56.90 58.09 58.76 58.68 57.56 56.22 53.08 53.45 50.15 47.68 47.99 42.87 44.43 46.51 49.89 48.18
56.31 56.66 56.85 56.61 56.55 56.49 56.61 56.28 55.18 54.73 54.65 54.73 55.03 55.16 54.83 54.96 55.21 55.36 55.34 55.32 55.91 56.34 58.14 60.63 60.95 54.43 55.18 53.21 56.45 57.68 59.50 58.68 56.53 56.41 55.85 54.57 53.44 50.69 49.78 46.95 40.06 42.56 43.31 45.39 45.36 48.33 48.44
56.05 55.93 56.61 56.65 56.74 57.02 57.35 56.73 55.32 54.44 54.42 54.71 54.81 54.91 54.78 54.82 55.65 55.19 57.27 60.69 56.60 56.46 56.81 53.09 52.91 52.66 53.20 56.09 58.17 55.33 56.34 56.48 56.45 54.39 49.34 51.41 49.07 45.08 46.22 47.75 47.37 46.27 45.42 44.83 47.29 48.99 47.59
56.21 55.76 56.00 56.35 56.80 57.09 57.31 56.75 55.22 54.38 54.38 54.44 54.38 54.49 54.41 54.50 55.61 56.16 60.13 59.30 58.34 60.16 50.97 54.18 53.75 53.20 54.21 55.52 51.98 53.88 55.92 52.59 51.60 48.22 49.93 48.55 46.89 48.11 48.62 48.73 46.95 45.69 44.95 44.81 46.86 48.76 47.97
55.12 54.73 55.00 56.24 56.74 56.68 56.62 56.50 55.32 54.63 54.12 53.88 53.92 54.26 53.83 53.61 55.08 60.47 61.81 59.58 63.47 63.49 54.52 50.94 53.25 52.17 52.53 54.57 50.58 50.97 53.20 51.77 49.56 47.41 47.18 45.12 47.83 48.75 47.59 47.03 45.11 44.83 44.76 44.01 43.65 47.12 49.17
54.28 53.56 54.51 55.98 56.16 55.89 55.84 55.76 55.48 54.79 53.96 53.80 53.88 53.75 53.46 53.11 56.28 62.71 59.89 62.75 65.26 65.20 50.32 47.81 50.56 52.59 53.36 52.82 50.14 54.41 53.64 51.39 50.73 46.61 46.60 47.18 48.89 46.84 46.40 45.85 45.69 41.93 47.48 46.04 45.40 44.35 40.06
53.98 53.43 54.54 55.37 55.44 54.93 54.83 54.83 54.97 54.75 53.98 53.59 53.44 53.77 53.83 53.53 63.80 59.07 60.74 63.37 65.04 64.31 41.19 48.96 49.99 55.50 53.58 50.33 50.68 51.58 54.88 52.54 47.87 47.12 47.21 46.50 46.36 44.56 44.95 45.21 46.90 44.29 47.76 46.60 46.83 45.31 44.14
54.05 53.89 54.70 55.16 54.97 54.65 54.71 54.57 54.49 54.49 53.94 53.35 53.21 53.79 55.30 60.45 64.89 61.35 63.15 64.96 63.91 52.32 40.71 46.55 49.88 49.19 49.63 50.37 50.00 51.68 51.92 53.58 51.58 47.75 47.76 46.33 48.96 47.68 46.40 47.81 48.75 49.17 47.66 47.53 48.27 44.80 38.96
53.87 54.45 54.74 55.06 54.83 54.73 54.69 54.49 54.06 54.01 53.64 52.82 53.05 53.86 59.76 63.57 60.24 63.59 65.42 62.58 49.77 43.77 48.93 45.87 46.86 48.50 47.78 47.26 48.19 48.60 48.10 48.04 45.88 43.32 44.52 47.38 46.77 48.37 48.73 46.14 49.41 47.81 44.26 38.97 37.92 40.24 38.01
55.26 55.10 54.74 55.12 55.01 54.91 54.63 54.37 53.90 53.76 53.50 52.62 52.86 52.71 59.71 63.10 64.37 65.47 63.31 55.10 42.11 45.87 46.25 49.06 47.94 47.34 45.96 47.20 47.83 47.49 47.73 46.18 48.18 46.75 44.44 41.97 41.06 45.83 48.81 46.08 43.80 44.85 43.65 38.96 30.46 32.71 35.04
55.68 55.18 55.08 55.06 54.97 54.77 54.33 54.08 53.78 53.46 53.20 52.38 52.10 64.74 63.56 64.30 65.27 65.13 57.52 48.18 45.08 46.97 47.98 47.19 47.17 44.87 46.10 46.75 45.74 46.95 46.32 45.35 46.42 47.27 41.76 41.65 42.09 49.08 48.18 48.12 47.19 44.45 41.82 45.72 38.26 36.60 34.47
55.24 55.30 55.04 55.14 54.87 54.43 54.01 53.76 53.46 53.34 53.08 52.35 62.23 62.06 59.36 64.47 65.35 62.74 56.95 45.76 47.13 48.74 49.08 48.11 43.81 45.27 43.41 45.03 44.88 45.82 45.55 46.92 46.13 48.33 49.44 45.93 38.88 47.28 47.94 49.91 49.59 46.11 48.03 39.27 41.11 31.33 29.75
55.02 54.87 54.93 55.01 54.75 54.21 53.82 53.60 53.36 52.91 52.86 52.20 63.07 57.89 60.84 63.63 63.68 57.35 50.97 47.24 47.15 49.01 50.01 47.73 46.09 44.72 44.78 44.19 45.44 44.71 44.60 46.96 48.12 47.75 49.36 47.97 44.08 43.11 46.80 46.09 43.96 44.18 42.72 43.93 43.09 40.23 33.13
53.95 54.30 54.61 54.91 54.90 54.39 53.86 53.66 53.38 52.77 52.11 54.26 63.16 54.61 62.20 63.61 54.53 54.24 49.28 48.69 44.58 48.83 50.59 49.32 49.43 47.89 46.12 46.39 45.06 44.81 43.89 46.67 49.59 48.85 45.27 47.88 43.59 38.08 41.51 47.90 48.76 46.44 44.50 44.38 36.23 35.47 37.86
53.26 53.39 54.03 54.80 54.92 54.57 53.97 53.70 53.26 52.68 52.28 57.25 56.30 55.88 63.17 61.93 50.12 49.20 49.70 48.33 49.73 48.61 48.70 48.59 47.48 48.70 48.92 46.31 43.33 45.78 46.34 49.40 49.74 47.94 45.61 46.55 42.83 35.77 39.35 44.79 46.75 44.34 45.30 45.43 44.13 38.97 35.19
52.51 52.58 53.50 54.54 54.92 54.75 54.39 53.91 53.42 52.96 52.64 57.33 56.46 50.22 56.91 57.77 55.82 51.09 48.54 47.95 46.59 50.49 48.88 49.62 48.44 49.39 47.92 46.22 48.00 45.00 45.74 48.85 49.82 49.13 46.88 47.19 42.73 39.54 34.83 39.00 43.27 39.94 42.72 44.17 42.54 35.94 36.67
52.59 52.21 52.87 54.02 54.46 54.49 54.49 53.93 53.32 52.71 52.38 58.16 56.12 52.18 53.01 50.54 52.51 51.46 50.80 48.97 47.09 46.63 49.86 49.97 48.02 47.50 46.26 41.02 43.15 43.20 46.55 47.50 49.63 47.56 48.78 46.66 39.62 41.58 42.37 42.91 42.46 40.92 40.72 41.93 40.74 40.97 35.91
52.22 52.27 52.67 53.41 53.94 53.91 54.35 53.75 53.01 52.53 51.78 59.54 54.21 53.26 53.80 50.88 50.52 49.97 46.60 47.52 46.75 47.62 47.43 46.83 45.89 47.81 47.75 44.99 44.69 43.07 45.79 45.95 44.97 48.37 47.43 47.63 38.05 38.47 36.47 41.31 41.61 38.35 40.52 41.58 41.37 41.65 41.63
52.50 52.53 52.39 52.76 53.16 53.51 54.93 53.53 52.78 52.12 53.15 58.13 57.68 56.67 55.28 48.17 49.92 49.28 49.14 47.51 47.10 48.50 49.43 49.16 48.75 47.82 43.60 47.63 50.31 50.23 50.08 49.20 48.49 46.33 44.77 43.89 39.37 34.34 32.82 38.37 36.44 32.21 37.04 40.45 42.02 43.49 42.70
52.31 52.58 52.64 52.70 52.91 52.99 51.70 51.17 52.97 52.05 52.12 60.30 58.76 57.05 47.42 48.06 51.27 48.08 48.40 48.73 48.05 48.63 47.40 49.78 50.40 45.27 50.57 54.25 53.05 50.84 49.22 48.06 47.55 46.89 48.14 41.29 36.58 34.54 32.55 32.94 27.63 40.11 45.65 44.20 42.17 43.87 44.81
51.73 51.99 52.48 52.62 52.78 52.59 50.88 52.10 53.70 52.83 52.54 59.63 59.78 56.93 50.39 36.77 50.08 48.77 48.91 48.50 49.54 49.93 48.75 49.07 50.35 52.42 54.59 50.88 44.60 36.59 39.80 37.32 39.16 45.77 46.19 47.31 39.17 35.32 31.88 32.76 35.87 38.92 42.30 41.67 39.77 39.44 45.05
51.36 51.75 51.97 52.01 51.91 51.70 51.38 52.27 52.84 52.01 52.62 57.39 60.54 60.69 55.75 38.93 46.50 50.37 48.94 49.69 47.98 48.37 49.24 49.89 53.37 54.56 52.18 48.15 39.86 32.74 33.65 36.80 36.95 39.70 46.30 43.40 40.56 39.84 36.41 30.54 27.28 38.31 43.63 47.01 46.13 34.68 45.07
50.79 51.25 51.48 51.60 51.28 51.20 50.85 50.76 51.23 51.56 52.13 56.41 60.36 62.36 56.82 49.19 51.92 51.92 48.92 49.35 51.18 49.97 47.51 49.67 49.40 46.34 50.73 40.94 35.14 34.36 35.26 40.62 34.60 33.27 33.96 37.57 36.84 33.86 34.06 31.86 34.93 43.23 46.03 47.50 33.70 35.94 44.04
50.43 50.54 50.64 50.95 50.93 50.95 50.53 50.26 50.52 50.49 51.08 54.70 59.82 62.30 58.10 50.94 52.35 53.98 53.89 51.04 50.85 50.58 47.81 49.15 47.56 49.80 44.50 36.59 35.69 37.44 35.14 39.09 38.57 39.70 37.78 35.90 34.45 33.30 32.97 31.46 30.20 47.27 46.22 36.80 42.50 46.72 45.98
49.77 50.09 50.11 50.23 50.38 50.32 50.23 49.97 50.22 50.31 50.58 51.73 55.04 61.40 60.29 54.87 52.91 57.15 57.10 57.80 55.76 54.27 51.11 51.25 47.62 47.91 47.75 42.93 39.38 38.77 34.96 36.05 34.96 32.19 41.91 34.51 38.99 37.15 37.95 37.65 45.53 47.77 46.28 48.35 47.74 46.05 46.04

GFSGBSN_sfc_wetblb_003.txt.gz
Wetbulb
57.25 57.18 57.16 56.81 56.49 56.61 56.70 56.11 56.03 55.94 55.81 55.71 55.84 55.64 55.58 55.79 56.11 56.37 56.23 55.99 55.89 55.93 55.52 55.07 55.60 55.82 55.99 52.82 50.92 56.79 61.54 61.31 59.60 56.50 53.77 52.81 50.61 49.18 45.24 46.12 47.84 44.96 45.78 47.56 48.35 48.32 46.65
57.51 57.30 57.52 56.89 56.60 56.03 56.15 55.93 55.78 55.73 55.79 55.73 55.71 55.71 55.61 55.54 55.92 56.38 56.33 56.09 55.77 55.63 55.23 54.82 55.45 54.44 54.29 48.07 56.55 57.41 57.73 57.35 55.94 54.57 52.38 52.36 50.93 51.79 49.51 47.86 46.09 48.46 48.15 47.30 47.81 47.81 47.91
57.12 57.48 57.26 56.70 56.50 56.29 56.32 55.82 55.50 55.45 55.43 55.53 55.51 55.31 55.23 55.41 55.68 56.02 56.07 55.95 55.45 55.35 55.25 54.50 55.01 56.46 54.84 50.47 54.59 55.50 57.97 55.76 55.59 55.32 52.38 52.88 53.32 50.52 50.66 48.72 50.60 49.21 44.30 46.59 47.23 46.81 43.69
57.27 57.24 57.04 56.72 56.33 56.18 56.02 55.82 55.39 55.37 55.35 55.35 55.49 55.23 54.94 54.74 54.99 55.13 55.43 55.23 55.06 55.45 55.27 54.66 54.70 54.74 50.39 57.70 55.11 57.01 56.22 55.80 57.12 56.90 54.55 53.74 53.67 51.70 50.26 50.65 49.38 45.82 43.98 39.02 46.09 46.43 46.13
57.02 56.93 56.90 56.72 56.33 56.44 56.24 56.06 55.10 55.04 55.06 55.04 55.25 55.06 54.86 54.62 54.58 54.93 55.00 54.95 55.08 55.55 55.35 54.98 53.55 54.14 48.63 58.23 55.23 55.94 55.95 55.36 56.40 56.69 55.43 56.40 53.21 49.13 49.31 44.32 41.21 42.18 36.06 40.04 43.37 45.66 43.90
56.72 56.47 56.58 56.68 56.77 56.80 56.72 56.12 55.06 54.64 54.62 54.78 55.02 55.02 54.78 54.66 54.86 55.56 55.23 55.14 56.20 55.28 55.64 57.17 58.21 50.88 53.46 52.12 54.40 55.33 54.11 54.99 54.36 53.94 53.07 52.05 48.44 44.75 42.69 39.67 32.94 37.06 37.74 41.30 39.13 42.89 43.76
56.09 56.23 56.30 56.84 57.05 57.15 57.26 56.55 55.18 54.43 54.33 54.64 54.76 54.96 54.66 54.49 55.29 54.62 55.74 56.30 50.50 50.69 52.64 47.94 48.87 50.43 51.58 54.22 55.89 52.16 53.33 52.53 52.77 51.13 45.30 46.49 42.79 37.97 39.51 42.60 43.92 42.10 40.24 38.47 41.33 45.67 43.16
55.26 55.09 55.93 56.86 57.09 57.05 57.11 56.67 55.16 54.47 54.37 54.39 54.31 54.45 54.45 54.29 54.93 55.37 54.91 54.53 54.14 54.46 46.95 52.98 52.09 51.71 53.85 53.25 50.19 50.93 53.00 48.73 48.40 43.96 46.04 43.02 40.52 44.48 46.10 45.69 44.01 42.24 40.27 39.40 42.49 45.78 44.44
54.30 54.04 55.63 56.64 56.77 56.68 56.64 56.30 55.26 54.62 54.09 53.84 54.01 54.29 54.19 53.63 53.99 57.00 55.19 54.51 60.22 59.88 49.92 50.09 52.52 51.29 51.72 52.69 49.62 48.54 49.94 48.68 46.60 44.76 43.22 40.12 44.35 47.53 45.78 44.33 42.57 40.53 40.34 39.71 39.87 43.54 44.86
53.77 53.33 55.11 56.04 55.99 55.81 55.65 55.79 55.41 55.08 54.23 53.75 53.66 53.86 53.70 53.12 53.51 57.58 53.95 58.07 60.94 59.84 45.56 45.67 49.34 50.92 52.67 52.17 49.50 51.77 51.25 49.25 48.48 44.12 43.34 43.59 47.18 44.85 43.38 43.54 42.77 38.03 44.46 43.66 42.29 39.35 34.54
53.33 53.56 54.80 55.27 55.16 54.76 54.60 54.66 54.66 54.86 54.33 53.75 53.46 53.70 53.82 53.28 57.39 54.50 56.64 58.93 59.51 58.89 30.59 48.58 48.45 52.18 51.29 48.49 48.43 49.85 51.17 50.14 44.31 44.17 43.63 42.37 41.78 41.19 42.36 42.54 44.24 41.48 45.53 43.51 42.96 39.72 36.66
53.22 53.89 54.66 55.00 54.86 54.80 54.60 54.36 54.31 54.13 53.97 53.45 53.26 53.76 53.77 56.96 57.55 55.96 59.63 60.51 58.29 43.02 31.75 45.78 49.46 48.47 48.74 49.06 48.91 49.81 50.44 51.40 49.89 46.71 45.11 43.35 45.85 44.30 43.02 45.78 45.88 46.69 44.24 43.33 43.36 39.32 30.41
53.70 54.27 54.50 54.74 54.84 54.82 54.66 54.36 53.89 53.81 53.59 53.02 52.82 53.30 55.20 60.54 54.53 58.42 60.15 57.49 42.73 33.66 48.47 44.05 45.76 47.97 46.83 45.50 47.31 47.01 46.62 44.08 40.80 37.22 37.99 44.48 43.38 44.56 47.32 42.75 45.89 43.41 38.94 28.62 27.56 27.41 27.52
54.72 54.51 54.45 54.82 54.98 54.82 54.50 54.11 53.49 53.35 53.19 52.70 52.43 52.14 58.67 60.52 60.02 60.15 58.85 48.01 33.54 44.72 44.33 48.20 46.96 46.35 44.12 44.67 45.64 46.07 44.82 41.50 44.54 43.12 38.72 37.10 34.00 43.57 46.85 43.44 40.55 40.59 39.35 28.70 24.41 23.13 27.58
55.26 54.70 54.47 54.70 54.94 54.64 54.17 53.95 53.55 53.08 52.78 52.52 52.45 57.53 57.71 59.08 60.86 59.29 53.32 38.33 36.27 43.88 46.65 45.35 46.11 42.73 43.16 45.75 43.69 44.65 42.18 41.97 43.39 44.06 38.23 36.32 38.69 46.39 46.63 46.20 44.24 41.02 35.89 41.64 32.70 26.45 25.16
54.84 54.74 54.53 54.66 54.60 54.24 53.79 53.67 53.45 53.10 52.78 52.44 54.85 57.91 54.33 58.94 59.57 58.19 47.32 41.11 43.69 47.58 47.44 47.41 41.87 43.47 40.40 42.40 42.27 42.69 42.08 44.96 44.58 46.30 45.80 43.00 35.88 44.72 46.86 46.87 46.09 43.03 44.50 33.20 31.13 25.01 24.43
54.21 54.33 54.63 54.62 54.56 53.83 53.91 53.77 53.29 53.00 52.76 51.99 57.80 52.99 55.97 58.57 58.97 52.89 39.86 38.98 44.95 47.96 48.69 45.70 44.09 43.32 43.56 42.07 43.05 42.06 42.28 44.72 46.24 45.69 46.01 44.25 39.77 38.11 43.34 42.70 40.02 39.37 36.79 38.78 40.93 33.61 29.12
53.35 53.42 53.95 54.36 54.50 54.14 53.95 53.87 53.19 52.69 52.51 55.13 55.91 48.88 56.09 58.50 48.80 47.69 40.94 46.01 45.19 47.89 49.63 48.22 47.29 46.10 43.99 44.47 42.50 42.63 42.63 44.76 47.37 46.14 42.79 43.77 38.41 30.17 38.36 44.83 46.13 43.16 42.04 41.93 32.83 32.42 30.95
52.68 52.81 53.55 53.88 54.33 54.32 53.85 53.63 53.08 52.55 52.26 49.67 51.83 50.72 57.55 56.47 37.04 37.20 45.37 47.23 47.88 47.56 47.38 47.46 46.13 46.79 46.66 43.64 37.44 43.57 44.62 47.75 47.14 46.09 42.11 42.84 34.37 28.10 33.37 39.36 42.70 40.75 42.49 41.63 38.28 32.25 31.13
52.38 52.38 53.14 53.82 54.43 54.26 54.03 53.61 53.31 52.59 52.44 51.95 51.47 39.18 50.72 52.66 50.52 45.56 44.03 45.19 44.90 48.72 47.79 48.64 47.29 47.69 45.59 43.15 45.17 40.81 43.26 47.19 47.93 47.02 46.17 44.74 39.23 33.25 28.90 34.15 39.54 36.59 39.49 40.46 37.83 24.79 31.12
52.35 52.51 52.47 53.23 53.85 53.94 53.86 53.61 53.09 52.47 52.17 53.86 50.85 43.84 47.35 39.34 43.03 45.58 46.06 46.94 45.09 44.46 48.41 48.22 46.19 46.24 44.00 36.61 38.57 39.45 44.48 46.30 47.11 45.83 45.49 43.63 33.35 37.70 38.99 40.56 41.05 40.19 38.88 39.00 37.08 36.41 31.81
52.26 52.38 52.31 52.82 53.17 53.24 53.54 53.24 52.34 52.06 51.74 54.46 47.47 45.85 49.14 44.61 47.37 45.44 42.24 44.25 44.83 45.75 45.69 45.54 43.64 46.06 45.25 39.84 42.80 38.84 42.85 42.15 40.97 44.42 42.32 44.01 32.86 34.66 35.10 39.52 40.00 35.97 36.86 38.14 37.71 37.50 37.46
52.16 52.35 52.53 52.49 52.55 52.84 53.18 50.85 51.11 51.96 52.47 53.84 51.81 50.65 49.47 43.78 42.66 38.16 39.69 45.17 45.69 46.82 46.66 47.83 46.05 43.87 38.03 44.89 45.90 45.82 45.66 45.62 44.85 42.55 38.37 37.94 32.31 30.87 33.14 36.35 34.36 27.53 33.82 36.25 37.79 39.09 37.98
51.94 52.29 52.71 52.88 52.86 52.59 51.35 50.83 52.42 51.74 51.80 53.86 53.72 52.01 39.89 36.02 36.70 42.01 46.95 47.22 45.82 46.30 44.15 47.73 46.82 39.47 47.50 50.88 47.93 44.37 42.48 43.59 43.15 43.55 43.56 33.14 30.22 29.34 30.92 29.24 26.49 35.86 42.24 41.33 38.62 39.83 40.36
51.55 51.69 52.31 52.72 52.97 52.47 50.62 50.52 52.31 51.81 51.80 53.54 55.15 51.92 41.43 33.73 41.18 44.02 45.80 45.53 46.19 46.21 44.43 46.23 48.07 49.61 49.68 45.19 35.99 33.01 30.99 31.16 34.39 42.26 41.81 41.73 32.59 31.70 31.18 29.12 32.11 35.77 39.23 36.33 35.04 35.73 41.93
51.45 51.39 51.84 51.68 51.76 51.84 51.88 51.56 52.11 51.80 51.88 53.80 56.15 55.17 46.06 36.32 38.08 48.85 44.27 45.28 37.89 37.07 39.13 44.46 50.00 49.83 48.12 34.95 34.65 29.86 22.45 29.90 30.94 36.45 42.73 39.65 36.01 31.87 27.92 24.66 24.60 31.78 40.08 44.13 42.88 31.94 42.02
50.93 51.09 51.41 51.30 51.10 51.10 51.28 50.92 51.23 51.35 51.72 52.93 54.40 57.90 52.29 42.05 46.89 47.55 42.11 41.26 46.62 41.60 38.10 40.79 43.32 39.96 45.36 34.97 32.72 32.36 28.57 36.03 27.89 26.58 26.84 29.18 26.82 25.25 19.43 27.27 30.05 38.25 42.49 44.91 29.48 33.83 41.03
50.55 50.54 50.50 50.80 50.75 50.58 50.60 50.69 50.65 50.63 51.20 52.98 54.38 57.95 53.14 43.37 47.39 50.25 51.16 46.88 46.53 43.18 35.33 42.13 40.74 38.55 35.69 33.08 33.34 31.69 32.68 30.94 29.98 34.65 29.57 28.16 25.81 28.92 28.22 30.19 25.42 42.97 41.26 32.33 37.89 41.04 43.67
50.06 50.18 50.14 50.11 50.23 50.36 50.36 50.14 50.21 50.48 50.82 51.46 51.36 57.14 56.74 48.76 48.37 54.03 54.14 54.07 52.47 50.89 46.98 44.05 41.65 42.84 40.79 33.59 33.11 33.65 32.99 33.52 32.64 31.38 38.09 31.41 33.84 29.16 32.18 30.80 39.56 43.02 41.85 43.56 44.69 43.36 42.73

GFSGBSN_sfc_wetblb_006.txt.gz
Wetbulb
57.26 57.18 57.08 56.59 56.33 56.54 56.57 56.01 55.88 55.74 55.56 55.54 55.64 55.80 55.79 56.00 56.14 56.59 56.06 55.86 55.84 55.90 55.40 54.98 55.89 56.24 54.28 49.81 49.44 55.87 61.39 59.96 55.77 54.98 52.30 50.71 49.33 47.47 44.51 44.69 45.48 42.83 43.74 45.49 46.59 46.35 44.64
57.60 57.45 57.26 56.88 56.46 56.48 56.59 56.06 55.71 55.32 55.38 55.36 55.22 55.42 55.46 55.82 56.11 56.31 56.12 55.64 55.52 55.38 55.44 54.98 55.79 55.38 52.16 45.18 55.17 55.96 56.18 56.04 54.80 53.27 51.57 51.01 48.96 49.97 47.74 46.22 44.59 46.86 46.03 45.72 46.12 45.59 45.67
56.96 57.22 57.12 56.62 56.70 56.54 56.54 55.97 55.52 55.44 55.16 55.22 55.26 55.01 54.95 55.26 55.56 55.78 55.93 55.70 55.28 55.17 55.24 54.98 55.50 56.36 54.35 49.04 53.05 53.45 55.03 54.48 54.14 53.85 51.23 51.09 51.09 49.59 48.36 46.93 49.20 47.28 43.36 45.02 45.79 44.61 43.54
57.24 56.97 57.07 56.66 56.48 56.45 56.37 56.01 55.34 55.22 55.14 55.20 55.38 54.95 54.50 54.65 54.75 54.89 55.05 54.87 54.83 55.10 54.95 55.00 55.13 54.81 48.22 56.12 54.10 55.40 54.87 54.54 56.05 55.81 53.85 52.78 52.16 49.55 48.20 49.04 48.42 44.27 41.54 37.57 44.03 45.42 44.40
56.80 56.51 56.78 56.85 56.58 56.47 56.33 55.98 55.24 54.89 54.87 54.89 54.95 54.81 54.32 54.34 54.20 54.33 54.50 54.52 54.71 55.38 55.58 55.01 53.42 52.51 49.05 57.23 53.59 54.27 53.99 53.80 54.61 55.21 54.36 55.07 52.07 47.63 47.22 40.89 37.82 39.12 34.48 36.70 41.58 44.45 42.55
56.40 56.17 56.40 57.02 56.90 56.79 56.71 56.11 55.19 54.61 54.63 54.75 54.79 54.77 54.40 54.22 54.08 53.54 53.46 54.52 55.59 54.87 54.75 55.98 56.63 48.64 52.15 50.38 52.60 53.69 52.37 52.90 51.16 51.93 51.62 50.31 46.41 42.16 40.46 37.70 31.66 34.83 35.41 38.08 36.53 41.68 42.33
55.66 55.66 56.51 57.17 57.12 57.10 57.26 56.61 55.24 54.57 54.45 54.71 54.69 54.59 54.28 54.18 54.20 53.83 54.79 54.99 51.62 48.09 50.95 46.22 47.38 48.65 49.55 52.35 53.88 51.10 51.93 51.35 50.62 49.53 43.46 45.08 40.70 36.63 38.52 40.04 41.96 39.73 37.59 36.37 39.28 42.69 42.15
54.38 54.67 56.39 57.09 57.18 57.12 57.10 56.71 55.34 54.57 54.47 54.38 54.38 54.36 54.22 53.93 53.81 54.10 56.16 52.77 52.96 53.15 46.21 50.72 50.31 50.17 51.79 51.42 48.37 49.88 50.99 47.09 46.83 41.58 43.56 42.09 38.29 42.73 44.36 44.11 41.74 40.45 38.11 37.13 40.51 43.67 42.05
53.52 54.08 55.86 56.62 56.64 56.53 56.54 56.33 55.36 54.81 54.33 53.82 53.86 54.12 54.08 53.26 52.95 55.40 53.70 53.80 59.28 57.66 47.72 47.84 50.50 49.58 50.01 51.06 47.71 47.41 48.42 47.03 44.66 43.04 40.81 39.28 42.42 45.67 43.64 42.01 40.73 38.59 38.00 37.71 38.43 41.20 41.67
52.79 53.64 54.94 55.72 55.84 55.70 55.58 55.54 55.38 54.87 54.43 53.78 53.57 53.60 53.43 53.40 52.64 54.82 53.08 56.34 57.83 57.37 40.46 43.95 47.52 49.71 50.80 50.20 47.49 50.43 49.74 47.99 45.49 41.97 41.54 41.81 44.25 42.65 42.31 41.22 40.49 36.38 41.96 41.74 40.36 37.52 32.96
52.77 53.68 54.49 54.97 55.26 54.69 54.47 54.51 54.73 54.59 54.37 53.80 53.31 53.41 53.39 54.68 55.08 52.98 55.32 57.44 58.15 54.65 27.94 46.36 46.81 50.99 49.71 47.03 46.81 48.15 50.04 48.34 42.52 42.53 41.85 40.60 40.04 40.22 40.52 40.54 42.40 39.79 43.09 41.85 40.88 36.94 34.80
52.73 53.92 54.37 54.69 54.55 54.53 54.37 54.14 53.94 53.88 53.74 53.38 53.09 53.15 53.43 56.44 53.97 53.70 57.43 57.90 55.71 40.40 30.63 43.79 47.46 46.64 46.53 47.37 47.15 48.46 49.15 50.18 48.65 45.49 44.24 41.85 43.79 42.49 41.42 44.16 44.22 44.80 42.42 40.84 39.98 36.90 29.07
53.01 53.73 54.18 54.34 54.61 54.33 54.21 53.98 53.66 53.52 53.40 53.16 52.38 52.61 56.13 58.74 53.03 56.55 58.06 53.43 40.84 31.21 46.89 42.20 43.85 45.78 45.32 43.60 45.54 45.78 44.41 42.42 39.15 35.38 36.09 42.48 41.69 43.35 45.40 41.26 43.76 41.41 36.71 27.61 26.33 25.69 26.38
53.95 53.77 53.91 54.26 54.57 54.29 54.07 53.86 53.42 53.15 52.87 52.79 52.10 52.37 57.14 58.90 57.92 57.43 54.15 44.87 33.51 42.27 42.52 45.98 44.98 44.66 42.38 43.16 43.45 44.27 42.50 39.37 43.10 41.29 36.91 36.01 33.23 42.36 45.23 41.74 38.91 39.22 37.69 27.63 23.57 22.09 27.04
54.47 53.97 53.93 54.08 54.25 53.98 53.70 53.60 53.40 53.09 52.65 52.43 52.54 56.28 54.50 55.88 58.47 58.03 49.07 34.99 33.57 41.29 44.62 43.59 44.64 40.91 41.22 44.13 42.03 42.74 40.38 40.20 41.84 42.45 36.55 34.40 36.68 44.69 45.20 44.87 43.15 40.03 34.40 39.63 31.17 24.15 24.18
54.28 54.00 53.83 53.59 53.65 53.34 53.36 53.38 53.26 53.07 52.80 52.03 53.12 54.37 51.44 56.38 56.91 54.09 41.73 37.66 41.27 45.50 45.90 46.17 39.94 41.99 38.07 40.73 40.84 40.89 39.94 43.32 42.77 44.46 43.71 41.07 34.94 42.63 44.71 45.44 44.32 41.09 42.57 32.81 30.32 20.87 25.10
53.42 53.62 53.74 53.49 53.29 53.12 53.22 53.18 52.96 52.67 52.59 51.94 56.81 48.43 51.96 56.62 55.91 47.75 35.65 35.90 43.04 46.28 47.18 44.52 42.62 41.60 41.68 40.50 41.43 40.13 40.35 43.28 44.60 43.96 44.93 41.33 38.07 37.06 41.14 40.66 38.36 37.47 35.50 37.52 38.19 31.77 26.44
52.71 52.78 52.79 53.06 53.44 53.29 53.26 53.14 52.82 52.33 52.17 52.30 52.69 41.90 51.24 54.65 45.00 42.61 38.41 43.93 44.56 45.97 48.29 46.61 45.72 44.12 42.12 42.25 40.80 40.98 40.93 43.00 45.66 44.83 40.87 42.23 35.66 29.70 36.34 42.18 43.77 40.87 38.72 37.97 27.40 30.61 29.36
52.30 52.14 52.58 53.29 53.18 53.07 53.04 52.81 52.62 52.03 51.76 49.78 48.23 47.74 54.12 53.53 34.70 33.95 43.23 45.55 46.28 46.14 45.49 45.80 44.15 45.10 45.11 41.92 36.51 41.70 42.68 46.19 45.37 44.54 40.62 40.96 32.61 27.08 31.67 36.64 40.55 38.67 40.32 39.17 36.27 30.16 28.45
51.93 51.96 52.73 52.90 53.15 53.01 52.88 52.80 52.56 52.08 51.88 51.65 46.47 39.28 45.96 48.07 46.44 42.75 41.83 42.97 43.05 47.09 46.12 46.71 45.36 46.08 43.47 41.43 42.98 38.78 41.78 45.87 46.23 45.30 45.50 43.47 37.23 31.95 27.30 31.76 36.88 35.49 38.54 39.27 35.11 23.43 30.81
51.83 52.02 52.37 52.50 52.73 52.69 52.81 52.54 51.81 51.90 51.71 52.50 46.76 41.27 45.29 36.74 40.85 42.40 44.07 44.97 43.32 42.51 46.35 46.18 44.28 44.15 41.97 35.34 36.93 38.14 42.45 43.23 45.14 45.13 43.55 40.84 32.42 35.28 36.82 38.28 38.67 38.69 38.04 38.40 36.00 35.06 29.30
51.67 51.38 51.57 52.24 52.40 52.35 52.15 49.66 50.22 51.52 51.91 49.57 45.04 44.58 45.49 43.06 45.87 42.89 39.78 42.04 43.11 43.89 44.62 43.20 42.24 44.01 43.58 38.93 39.65 36.61 40.98 39.94 39.84 42.38 39.91 41.42 31.70 32.93 34.38 38.14 38.07 35.71 37.98 37.26 36.61 36.77 35.19
51.75 51.80 51.61 52.32 52.31 52.31 50.38 49.69 51.55 51.29 52.93 49.71 49.76 48.68 45.67 39.73 39.15 35.92 37.03 42.83 43.80 45.46 45.00 46.14 44.48 41.84 36.40 42.80 44.71 44.84 44.91 44.36 43.53 40.91 35.97 36.09 30.59 27.40 30.03 33.81 32.77 30.68 33.43 34.73 35.96 37.18 35.31
51.44 51.78 52.05 52.28 52.39 52.13 49.88 49.57 50.97 50.78 51.32 52.56 50.92 47.02 38.47 33.71 32.76 38.28 44.80 45.07 44.07 44.17 42.70 45.48 44.72 38.85 45.43 48.36 45.51 42.94 40.24 40.01 40.55 40.49 42.16 31.55 29.05 28.63 26.52 30.27 25.25 35.61 39.66 39.50 36.43 37.69 38.33
51.26 51.48 51.83 52.34 52.43 51.96 49.13 50.47 51.01 50.69 51.40 52.24 52.22 48.81 39.89 33.04 37.37 41.20 43.17 43.39 43.49 43.23 42.52 44.01 46.29 47.26 47.31 41.22 33.12 29.04 29.03 29.91 31.47 40.92 40.32 39.71 33.12 30.17 26.94 28.60 31.38 35.12 37.89 34.65 32.46 34.56 39.82
50.91 51.18 51.44 51.54 51.72 51.43 51.30 51.49 51.46 50.98 51.37 52.95 53.76 51.14 43.78 35.75 36.91 46.43 42.64 43.00 36.09 34.62 37.75 42.19 47.82 47.91 43.73 34.39 28.71 21.20 20.82 27.84 30.29 34.52 40.83 37.34 31.93 26.90 28.66 26.13 24.19 31.04 37.53 41.96 40.80 30.26 41.12
50.57 50.81 51.09 50.98 50.66 50.78 50.88 51.00 51.44 51.09 51.59 52.34 52.18 54.47 48.45 39.15 44.71 46.34 40.86 39.84 44.01 38.57 36.61 37.41 42.40 38.55 41.90 34.42 28.53 27.68 25.61 33.87 27.58 24.01 24.26 26.76 30.55 23.91 18.85 25.07 26.35 35.85 39.71 42.10 25.46 30.04 38.06
50.21 50.29 50.36 50.32 50.23 50.34 50.64 50.75 50.58 50.86 51.05 52.41 52.63 55.14 50.72 42.42 45.88 49.00 49.64 45.34 44.99 41.19 34.57 40.37 39.71 36.82 35.10 32.75 30.86 28.66 31.28 29.40 28.70 33.01 29.82 28.12 24.89 27.76 27.01 25.84 25.52 40.38 40.70 33.47 36.83 38.25 41.41
49.82 49.88 49.89 49.88 50.00 49.96 50.11 50.29 50.50 50.56 50.63 51.77 49.42 54.80 54.08 47.24 45.96 51.64 52.39 53.15 51.24 48.17 44.98 41.58 40.60 39.41 37.92 33.52 33.31 28.48 32.02 32.75 27.44 30.26 36.07 31.84 32.98 28.81 30.01 29.69 37.49 40.32 41.27 41.42 43.25 41.88 41.18

GFSGBSN_sfc_wetblb_009.txt.gz
Wetbulb
57.01 56.98 56.80 56.63 56.46 56.53 56.74 56.37 55.81 55.35 55.20 55.36 55.40 55.61 55.73 55.68 55.80 55.89 55.95 55.62 55.69 55.71 55.95 55.72 55.97 56.93 52.33 47.47 48.23 54.76 60.83 58.84 53.86 52.94 50.18 49.57 48.01 45.81 43.52 43.63 44.00 41.89 42.46 43.77 44.53 44.35 42.64
57.09 56.90 56.96 56.72 56.64 56.91 56.77 56.08 55.25 55.34 55.04 54.96 54.96 55.12 55.42 55.69 55.91 56.23 55.83 55.46 55.26 55.54 55.65 55.37 56.11 56.44 50.51 43.79 53.78 54.02 54.43 54.77 53.38 52.49 50.96 49.90 48.05 48.22 46.12 45.14 43.04 45.31 44.46 44.63 44.35 44.24 43.67
56.65 56.88 56.86 56.66 56.82 56.79 56.58 55.97 55.12 55.26 54.90 54.88 54.96 54.94 54.94 55.16 55.31 55.51 55.59 55.34 55.28 55.10 55.26 55.31 56.18 55.84 51.65 48.03 52.01 52.95 54.43 52.97 52.34 52.73 50.79 50.02 49.82 48.30 47.03 45.34 47.96 45.84 42.43 43.55 43.51 43.27 43.16
56.67 56.61 56.79 56.74 56.68 56.44 56.33 55.89 55.10 55.10 54.96 55.04 55.12 54.82 54.53 54.51 54.61 54.66 54.74 54.55 54.88 55.16 55.04 55.15 55.82 55.02 46.89 54.86 52.92 53.93 53.62 53.27 54.24 53.62 52.84 52.14 51.19 48.44 46.48 47.14 45.36 41.75 39.65 36.26 42.43 42.58 42.63
56.29 56.11 56.78 56.95 56.56 56.35 56.29 55.81 54.86 54.80 54.76 54.80 54.78 54.57 54.27 54.04 54.00 54.08 54.10 54.17 54.43 55.37 55.45 55.03 53.76 50.76 47.08 56.74 52.21 52.62 51.36 50.45 51.55 52.85 52.88 54.39 50.79 45.56 44.91 38.55 36.48 37.34 32.20 34.38 39.35 43.10 42.47
55.91 55.94 56.78 57.11 56.82 56.74 56.79 55.99 54.92 54.53 54.63 54.65 54.74 54.53 54.17 54.14 53.90 53.61 53.57 54.33 55.32 54.69 54.93 55.41 55.20 46.79 50.65 48.80 51.34 51.57 51.11 51.37 49.39 50.36 49.97 48.76 44.10 40.48 38.64 37.19 30.75 32.91 33.10 36.48 35.32 40.69 41.78
54.92 55.49 56.92 57.05 57.02 57.06 57.22 56.45 55.34 54.39 54.35 54.61 54.59 54.55 54.20 53.92 53.77 53.53 52.87 52.11 50.55 47.52 50.70 44.73 45.56 46.92 47.88 51.19 52.42 50.30 50.14 50.13 49.44 46.96 41.75 43.80 39.54 35.76 36.27 38.33 39.81 37.85 36.00 34.42 37.43 41.01 40.98
53.95 55.11 56.47 56.95 57.12 56.90 56.95 56.40 55.30 54.48 54.35 54.31 54.25 54.27 54.14 53.77 53.58 53.94 54.55 52.00 51.25 51.26 43.63 49.90 48.53 48.29 50.13 49.79 46.89 48.90 50.26 46.30 45.74 40.52 41.72 41.10 36.85 40.81 42.56 42.26 40.08 38.55 36.27 35.17 39.10 41.81 40.27
53.12 54.45 55.62 56.40 56.44 56.40 56.26 56.09 55.12 54.66 54.23 53.86 53.92 54.15 54.13 53.49 53.17 54.48 53.31 53.75 58.12 55.55 43.60 46.57 48.62 47.79 48.49 49.48 45.81 46.29 47.60 45.62 43.31 40.78 39.90 37.95 40.58 43.55 42.27 39.94 38.83 36.97 35.90 35.63 37.01 39.73 39.46
52.53 53.87 54.86 55.65 56.05 55.75 55.34 55.42 55.14 54.78 54.29 53.70 53.45 53.66 53.20 54.08 54.59 53.36 52.00 54.76 56.48 53.95 37.50 42.47 45.84 48.33 49.13 48.51 46.02 48.85 48.86 46.55 44.20 39.79 39.87 40.34 42.18 41.47 40.37 39.25 38.89 34.81 40.00 39.25 38.67 36.17 32.02
52.23 53.72 54.33 54.98 55.14 54.61 54.29 54.37 54.45 54.47 54.17 53.66 53.03 53.28 53.09 56.05 53.63 51.82 54.56 56.45 57.29 52.07 25.31 44.39 45.11 49.99 47.89 45.51 45.19 47.82 49.83 46.84 41.49 42.05 40.64 39.05 38.66 39.42 39.11 39.84 40.67 39.12 42.04 39.46 38.94 35.52 33.40
52.26 53.64 54.21 54.61 54.62 54.31 54.07 54.07 53.79 53.89 53.65 53.34 52.83 52.95 53.30 56.60 52.27 52.23 55.87 55.19 53.99 38.13 28.48 41.77 45.67 44.75 44.84 46.09 45.85 47.89 47.67 48.84 47.03 43.66 43.17 41.12 42.49 41.48 40.62 42.40 42.81 43.76 40.15 38.76 37.52 34.98 28.28
52.46 53.59 54.06 54.41 54.33 54.07 53.97 53.81 53.44 53.46 53.26 52.90 52.49 52.76 55.72 57.54 50.11 55.25 56.10 51.35 38.83 29.34 44.79 40.34 41.81 43.87 43.47 41.89 43.73 44.33 42.76 41.27 37.95 33.69 34.46 41.07 41.31 43.27 43.83 40.29 42.65 40.77 35.36 26.34 25.24 24.71 25.70
53.53 53.61 53.84 54.09 54.27 53.99 53.81 53.67 53.23 52.94 52.80 52.58 52.11 54.01 56.66 57.37 56.32 55.83 51.72 43.33 31.63 39.94 40.25 44.40 43.12 43.04 40.53 41.73 41.95 42.56 40.70 37.97 41.44 39.51 35.49 34.20 31.47 40.94 44.49 40.18 37.62 37.68 35.94 26.34 21.87 20.93 25.71
54.12 53.76 53.63 53.88 53.87 53.69 53.63 53.41 53.19 52.92 52.37 52.10 53.43 55.77 52.18 53.99 56.68 55.68 46.18 32.56 32.62 38.89 42.70 41.70 42.58 39.58 39.52 42.57 41.11 40.80 39.00 38.61 40.16 40.80 35.22 33.41 35.17 42.94 43.63 43.56 41.26 38.40 33.36 37.79 29.09 22.76 23.18
54.08 53.80 53.59 53.42 53.22 53.07 52.97 53.07 52.93 52.92 52.59 52.38 54.33 50.44 49.50 54.96 55.87 49.55 39.89 36.36 39.50 43.57 44.11 44.15 38.07 40.04 36.25 39.67 39.41 38.93 38.42 41.76 41.04 43.37 42.16 39.43 33.92 40.76 42.83 43.50 43.19 40.36 41.02 31.98 29.91 19.67 23.31
53.14 53.48 53.52 53.22 52.82 52.79 52.89 52.91 52.73 52.52 52.29 51.87 55.44 44.69 49.87 55.50 53.20 44.86 34.02 34.09 41.18 44.96 45.42 43.11 40.87 40.13 40.16 38.75 39.57 38.15 38.80 41.56 42.88 42.69 43.29 39.34 36.55 35.52 39.09 38.56 36.40 36.89 34.63 35.46 35.85 30.70 26.64
52.25 52.70 52.61 52.81 52.91 52.75 52.68 52.89 52.45 52.21 51.85 53.84 48.87 40.97 50.17 52.19 44.66 39.48 36.98 41.91 43.87 44.94 47.03 45.26 44.33 42.63 40.68 40.46 39.35 39.18 39.22 41.43 44.05 43.34 39.02 40.30 34.46 28.90 34.58 40.31 41.94 39.84 37.17 36.11 30.16 28.74 28.02
51.88 52.09 52.28 53.06 52.75 52.41 52.38 52.53 52.15 51.86 51.85 50.84 47.11 46.04 51.79 49.99 35.32 31.89 41.56 43.94 44.79 44.33 44.05 43.77 42.35 43.59 43.86 39.82 35.66 40.03 40.87 44.52 44.19 42.79 39.10 39.66 31.95 26.10 30.35 34.93 38.02 36.84 37.78 37.41 33.20 29.29 28.40
51.50 51.80 51.87 52.10 52.74 52.63 52.43 51.84 50.63 51.63 51.69 51.69 44.49 38.06 44.94 45.52 43.40 41.10 40.28 40.86 41.48 45.47 44.56 45.05 43.59 44.53 41.90 39.72 41.23 37.49 40.56 44.38 45.38 43.82 44.41 42.55 35.30 30.97 26.85 30.58 34.94 34.19 36.57 37.22 34.53 26.88 28.57
51.53 51.46 51.51 51.70 52.62 52.31 51.39 49.40 50.79 51.34 51.44 51.48 44.41 39.54 44.00 35.86 39.53 41.43 42.29 43.04 41.36 40.65 44.36 44.82 42.86 42.48 40.14 34.15 35.68 36.54 40.80 41.88 43.47 44.15 42.25 39.49 32.26 33.92 35.04 36.39 36.57 36.91 36.27 37.48 35.18 34.41 31.15
51.46 51.14 50.95 51.50 52.51 51.85 49.00 49.92 51.36 51.32 51.82 48.07 44.87 43.36 43.18 42.25 44.23 40.68 38.52 40.03 41.84 42.26 42.84 41.39 41.12 42.23 42.06 37.75 38.51 35.80 39.70 38.65 38.95 41.07 38.76 39.67 30.24 32.04 31.47 36.01 36.53 34.64 36.75 36.40 36.52 36.06 34.64
51.56 50.68 50.11 51.36 52.17 50.41 48.66 48.89 50.88 51.18 52.12 48.27 47.61 46.41 43.73 37.33 36.34 35.09 35.61 40.92 42.31 43.81 43.86 44.58 43.39 40.27 34.91 42.02 43.77 43.46 43.83 43.03 41.69 39.31 35.64 35.32 30.09 27.83 25.03 32.63 30.99 26.20 31.24 33.96 34.90 35.71 34.50
51.38 51.59 51.42 51.80 52.21 49.38 48.49 48.77 50.52 50.80 51.68 50.89 48.63 44.10 38.37 32.92 30.90 36.86 42.62 43.10 42.27 42.38 41.78 43.53 43.14 38.02 42.95 46.13 43.50 41.09 38.56 37.73 37.48 38.38 40.56 31.07 28.99 27.47 22.29 30.96 21.82 34.02 37.71 37.91 35.42 36.58 36.65
50.92 51.28 51.58 52.10 52.13 50.25 48.35 49.56 50.32 50.51 51.34 52.53 50.24 45.78 39.14 32.52 35.71 39.00 42.21 42.25 41.97 42.22 40.93 42.61 44.73 44.84 44.76 39.72 32.48 28.33 28.42 28.84 29.28 39.72 37.60 36.45 32.20 28.62 27.18 26.74 28.87 34.16 36.36 33.65 31.83 32.96 38.17
50.84 50.95 51.32 51.41 51.57 51.39 51.29 51.09 50.63 50.69 51.18 52.93 51.33 46.69 42.65 35.57 36.30 44.27 41.70 41.64 34.88 33.41 35.42 40.61 46.16 45.55 41.82 30.65 28.38 21.70 21.23 26.98 29.67 32.40 37.95 35.14 29.43 26.63 28.19 25.78 23.48 30.85 35.67 39.18 38.94 29.58 38.77
50.51 50.93 51.01 50.94 50.97 51.17 51.12 51.36 51.13 50.80 51.22 51.93 51.95 50.63 46.76 36.88 42.50 44.98 39.21 38.51 41.66 37.00 35.43 35.25 40.05 37.85 40.36 33.07 28.46 22.33 24.53 32.16 26.80 23.33 24.31 26.19 29.94 25.76 25.42 24.95 26.94 34.48 37.83 39.25 28.18 30.37 37.09
50.06 50.20 50.37 50.32 50.04 50.29 50.74 51.07 51.01 50.90 50.76 51.98 50.60 52.59 48.87 40.36 44.02 47.55 47.94 44.09 43.01 39.72 34.60 39.67 38.40 35.67 35.16 32.21 26.22 27.48 20.05 28.22 27.97 31.29 28.53 27.90 26.13 23.55 26.47 25.56 22.16 38.41 39.40 33.07 37.29 37.74 39.65
49.68 49.95 49.94 49.89 49.71 49.74 50.13 50.51 50.60 50.83 51.10 51.77 49.35 52.98 52.16 46.98 45.77 50.33 51.55 50.86 48.89 46.83 42.99 39.91 39.83 38.08 37.16 34.09 32.54 25.60 28.69 30.53 30.28 30.19 34.70 31.06 32.53 28.69 29.63 30.18 36.77 38.36 40.27 40.66 41.29 39.39 38.60

GFSGBSN_sfc_wetblb_012.txt.gz
Wetbulb
56.83 56.60 56.48 56.59 56.81 56.99 56.95 56.82 56.04 55.49 55.14 55.32 55.36 55.49 55.65 55.56 54.89 55.53 55.48 55.48 55.71 55.97 56.11 56.16 56.27 56.58 51.75 46.17 46.76 52.94 60.13 58.13 53.32 52.62 49.25 48.39 47.30 44.91 42.45 42.49 42.99 41.30 40.85 43.03 43.33 43.50 41.65
56.65 56.47 56.70 56.67 56.92 56.97 56.96 56.41 55.45 55.32 55.04 54.96 54.88 54.98 55.28 55.51 55.75 56.09 55.89 55.52 55.20 55.34 55.65 55.90 56.21 56.56 48.20 43.65 52.04 52.77 53.10 53.31 51.71 51.12 49.52 48.83 46.77 46.72 45.14 43.86 42.45 43.76 42.66 42.29 42.52 42.34 42.38
56.40 56.47 56.65 56.86 56.82 56.66 56.62 55.99 55.14 55.14 54.96 54.82 54.82 54.67 54.71 55.10 55.42 55.40 55.63 55.26 55.02 55.08 55.45 55.96 56.21 54.79 48.23 46.79 51.22 51.91 53.30 51.28 50.65 51.14 49.65 48.61 48.48 47.01 45.35 43.59 46.23 44.20 41.15 41.29 42.84 41.83 41.04
56.17 56.25 56.59 56.96 56.58 56.31 56.29 55.95 54.94 54.94 54.94 54.80 54.84 54.61 54.27 54.49 54.71 54.67 54.80 54.39 54.55 55.02 55.34 55.59 56.00 52.99 45.58 53.64 52.44 52.46 51.24 50.13 51.37 52.15 51.52 50.90 50.14 47.44 45.19 45.07 43.00 39.69 37.95 35.08 41.50 41.72 40.77
56.00 56.05 56.82 57.08 56.60 56.39 56.37 55.83 54.90 54.76 54.76 54.74 54.74 54.41 54.00 53.82 53.82 53.92 53.92 53.84 54.43 55.02 55.43 55.23 52.19 50.22 44.85 55.84 51.20 51.28 49.98 48.90 50.12 51.22 51.85 52.81 49.17 43.55 42.96 37.67 35.49 36.10 31.63 32.96 37.84 41.32 41.46
55.48 55.89 57.01 57.19 56.78 56.67 56.75 56.11 55.12 54.57 54.47 54.71 54.70 54.53 54.12 54.00 53.71 53.35 53.37 54.25 54.80 54.23 54.05 53.77 53.03 45.37 49.07 47.04 49.62 50.45 49.44 50.33 48.54 48.94 48.33 46.75 42.61 38.99 37.89 36.68 29.84 31.53 31.53 34.79 33.27 39.68 40.82
54.60 55.57 56.90 57.16 56.98 56.92 57.08 56.35 55.12 54.49 54.23 54.51 54.63 54.49 54.06 53.79 53.63 53.21 52.37 50.84 47.99 46.32 49.14 43.63 44.08 45.18 46.31 49.86 50.31 49.14 48.45 48.80 47.76 45.16 39.77 42.64 38.73 34.49 35.30 36.69 37.54 36.21 34.16 32.95 34.95 39.04 39.25
53.72 55.23 56.29 56.84 56.88 56.84 56.64 55.97 55.08 54.39 54.45 54.21 54.25 54.45 54.27 53.90 53.63 53.63 52.09 51.27 49.83 50.11 42.09 47.84 46.83 46.73 48.42 48.29 46.14 48.29 49.18 45.70 44.23 39.00 40.21 39.97 35.76 38.99 41.14 40.26 38.28 37.01 34.48 33.42 37.61 39.54 38.65
52.78 54.11 55.63 56.24 56.52 56.48 56.06 55.71 54.98 54.44 54.11 53.70 53.86 54.27 54.02 53.57 53.26 53.57 52.82 52.65 57.44 53.27 41.67 45.30 47.14 46.65 47.26 48.50 44.67 45.86 47.20 44.71 42.19 39.52 38.91 37.10 38.45 42.27 40.81 38.77 38.51 36.33 34.12 33.91 35.55 38.23 37.55
52.36 53.41 54.70 55.63 56.09 55.63 55.14 54.94 55.02 54.56 54.05 53.56 53.41 53.50 53.14 53.31 53.79 52.19 50.53 54.07 56.13 50.16 36.44 41.00 44.90 46.79 47.76 46.87 43.97 47.42 48.54 45.14 43.29 38.20 38.74 38.97 40.64 40.46 39.72 38.33 37.60 33.96 38.48 37.63 36.84 34.66 31.22
52.04 53.27 54.12 54.88 55.06 54.35 54.24 54.24 54.27 54.33 53.89 53.66 53.11 53.37 54.22 54.68 53.39 51.20 53.24 55.93 55.75 49.61 23.58 42.26 44.33 48.80 47.32 44.82 43.80 47.61 48.62 45.70 40.86 40.60 39.68 36.69 37.47 38.80 38.88 38.15 39.24 38.01 40.34 37.72 37.05 34.00 32.51
52.18 53.33 54.08 54.49 54.49 53.99 54.20 53.92 53.65 53.73 53.45 53.35 52.80 53.35 53.53 54.65 51.49 50.99 55.07 53.08 52.38 35.23 26.94 40.00 44.08 43.63 43.67 44.67 44.74 46.59 46.11 47.63 45.23 41.97 42.19 39.77 41.66 40.41 39.27 41.00 40.77 42.31 38.51 36.89 35.57 33.53 27.55
52.10 53.32 53.75 54.11 54.19 53.87 53.95 53.67 53.41 53.09 52.92 52.90 52.37 54.74 56.04 55.74 48.47 53.92 53.86 50.05 37.05 28.64 42.84 38.51 40.14 42.54 41.74 40.66 42.79 43.16 41.34 39.58 36.99 32.83 33.70 39.48 39.76 42.44 42.30 39.42 41.68 39.81 33.35 25.07 24.68 23.99 24.85
53.08 53.32 53.49 53.94 54.09 53.87 53.73 53.45 53.09 52.79 52.56 52.48 52.99 54.68 55.04 55.94 54.64 54.21 49.92 42.46 30.49 37.94 38.27 42.32 41.20 41.72 38.90 39.85 40.72 41.33 39.39 36.98 40.27 38.26 34.06 33.35 30.24 39.69 43.46 38.82 35.98 36.44 34.38 25.57 21.16 19.97 24.65
53.96 53.55 53.37 53.68 53.73 53.57 53.41 53.29 52.95 52.79 52.12 52.25 54.33 52.71 50.52 53.26 55.30 52.17 45.45 31.68 32.15 37.42 40.82 40.12 41.05 38.18 37.79 40.95 40.11 39.41 37.56 37.24 38.95 39.58 34.00 32.39 33.71 41.71 42.30 41.84 39.84 36.76 32.26 36.11 28.60 21.31 22.16
53.41 53.64 53.52 53.11 53.04 52.79 52.72 52.95 52.74 52.58 52.34 52.56 54.16 47.17 49.39 54.06 54.10 47.61 39.23 35.28 37.82 42.23 42.49 42.41 36.37 38.32 34.62 38.50 37.67 37.34 36.88 40.16 39.17 41.93 40.74 37.54 32.91 38.69 41.28 41.72 41.92 39.17 39.73 30.47 29.11 19.45 21.34
52.69 53.15 53.08 52.88 52.66 52.53 52.74 52.72 52.44 52.28 52.07 52.64 51.87 43.71 49.17 54.15 50.56 43.15 33.11 33.01 39.89 43.98 44.47 41.71 39.46 38.55 38.41 37.47 38.10 36.57 37.14 40.33 41.44 41.29 41.81 37.78 34.94 33.98 37.37 36.67 34.72 36.15 33.16 34.07 34.09 29.67 21.63
52.01 52.32 52.24 52.44 52.67 52.57 52.45 52.47 52.24 52.00 51.72 52.62 45.28 39.67 50.18 51.22 42.68 37.09 35.86 40.12 43.11 43.47 45.70 43.93 42.96 41.27 39.31 39.11 37.79 37.52 37.72 39.85 43.14 41.79 37.79 38.53 33.25 28.09 32.99 37.86 39.83 37.58 35.35 34.33 25.43 25.94 26.97
51.55 51.81 52.02 51.84 52.54 52.34 52.15 51.13 49.76 50.97 51.83 50.16 45.77 44.65 49.91 49.18 34.41 30.73 39.90 42.53 43.52 42.89 42.85 42.10 40.95 42.41 42.35 38.48 34.96 38.56 39.58 42.89 43.39 41.44 38.15 38.50 31.32 25.06 28.75 33.47 36.53 35.61 36.39 35.75 31.43 29.49 29.38
51.27 51.51 51.63 51.52 52.22 52.46 51.09 49.53 50.30 51.42 51.83 48.51 43.87 38.88 44.01 44.95 41.57 39.78 39.01 39.09 40.42 44.39 43.08 43.69 42.13 43.08 40.69 38.08 40.18 37.01 38.71 42.70 44.05 42.55 43.99 41.91 33.85 30.09 25.21 29.56 32.66 31.55 34.90 35.58 34.00 29.80 29.33
51.27 51.54 51.14 51.15 51.80 51.80 49.16 49.74 51.29 51.40 51.46 49.38 42.88 39.70 42.06 35.39 38.45 40.64 41.14 40.63 40.11 39.05 43.03 43.52 41.52 41.19 38.79 33.71 35.21 35.69 39.42 40.63 42.04 43.52 41.05 38.68 32.26 32.72 33.75 35.18 34.97 35.08 34.80 35.22 33.16 33.03 31.21
51.11 51.23 50.60 50.48 50.38 50.41 49.02 49.22 49.94 51.08 51.53 47.12 43.92 42.86 42.22 40.46 42.55 39.49 37.47 38.45 40.64 40.89 41.27 40.02 40.07 40.67 40.52 36.55 37.51 35.41 38.84 37.02 37.70 40.02 36.98 37.89 29.94 30.89 29.93 33.04 33.61 31.50 34.31 35.09 34.83 34.72 34.38
51.27 51.14 50.17 49.97 50.85 49.41 48.84 48.86 49.54 50.87 51.36 47.63 45.74 44.55 43.83 36.49 34.91 34.38 34.87 39.80 40.76 42.51 42.19 42.94 42.50 39.04 34.58 40.63 42.34 41.98 42.71 41.69 39.97 36.96 35.14 34.53 28.96 28.01 23.95 30.10 29.69 23.42 29.55 32.25 33.81 35.14 34.05
51.00 51.33 50.42 51.10 51.91 48.73 49.04 49.40 49.96 50.67 51.35 49.47 47.07 43.08 37.93 32.55 30.28 36.02 40.65 41.49 40.90 40.79 40.40 41.96 41.84 36.75 41.31 44.89 42.16 39.68 37.27 35.19 36.17 36.79 39.36 31.11 27.47 27.10 22.76 29.79 18.13 33.12 36.15 37.04 34.40 35.17 36.06
50.59 50.89 51.45 51.82 52.02 49.28 48.96 49.81 50.23 50.58 51.72 51.09 47.88 44.51 38.21 32.11 34.73 37.57 41.01 41.12 40.58 41.28 40.11 41.51 44.09 43.18 43.16 38.98 32.46 28.22 28.34 27.73 28.72 36.84 35.47 35.23 30.95 28.75 28.37 27.48 27.90 34.18 34.58 32.70 31.10 31.74 36.05
50.38 50.63 51.05 51.40 51.40 51.24 51.40 50.78 50.45 50.62 51.49 52.19 49.47 45.04 42.02 35.39 36.02 42.27 40.75 39.93 34.20 32.69 34.34 38.92 44.10 43.96 40.43 29.77 28.04 21.34 21.42 26.43 28.92 31.16 35.79 33.55 28.66 25.59 27.80 24.91 22.14 30.52 34.22 36.82 37.95 28.58 37.31
50.21 50.57 50.72 50.81 50.78 50.80 51.08 51.42 50.66 50.64 51.27 52.50 50.54 48.46 45.29 36.25 40.58 43.27 37.86 38.08 40.06 35.39 34.70 33.89 39.00 36.87 38.94 30.48 25.12 21.55 24.74 30.48 26.09 22.32 21.60 26.01 29.01 25.42 26.33 26.41 28.61 34.14 36.46 38.38 27.79 30.42 36.55
50.09 50.20 50.12 50.12 50.19 50.17 50.38 51.36 51.15 50.51 51.00 52.10 50.14 51.02 47.71 38.90 42.18 46.01 45.97 42.43 41.32 38.54 34.03 38.40 37.71 34.62 34.86 32.28 27.34 28.33 18.84 27.54 27.52 30.69 27.86 27.12 23.39 21.46 25.13 25.54 22.73 36.22 36.77 32.78 37.38 37.63 38.68
49.78 49.79 49.76 49.76 49.74 49.74 49.95 50.30 50.91 50.61 50.53 50.65 49.27 51.02 49.89 45.11 43.65 47.46 48.74 48.29 46.71 45.20 42.12 37.74 38.79 37.07 36.03 32.71 31.32 25.94 24.85 28.28 28.96 27.06 33.02 28.02 32.05 30.73 32.26 29.08 35.79 38.77 40.10 40.23 39.53 38.67 38.10

GFSGBSN_sfc_wetblb_015.txt.gz
Wetbulb
56.66 56.82 56.53 56.70 57.13 57.09 57.31 57.31 56.69 55.81 55.37 55.31 55.39 55.55 55.88 55.15 55.43 55.41 55.29 55.26 55.71 56.05 56.16 56.27 56.60 56.73 54.31 50.82 51.01 55.18 59.65 58.22 55.21 54.83 51.40 51.47 50.51 49.40 46.47 47.43 47.75 45.98 45.69 46.10 47.03 45.71 46.53
56.51 56.59 56.47 56.86 57.08 57.09 57.11 56.67 55.98 55.45 55.12 55.10 54.92 55.06 55.27 55.59 55.83 56.01 56.05 55.65 55.35 55.59 55.73 56.18 56.74 56.50 54.33 47.26 54.57 54.40 53.35 54.60 54.40 54.55 52.25 52.44 50.76 50.62 49.12 47.48 47.66 47.79 47.14 46.70 47.39 47.06 47.31
56.34 56.41 56.58 56.93 57.08 56.76 56.68 56.17 55.39 55.16 55.18 54.92 54.66 54.70 54.96 55.22 55.57 55.77 55.73 55.31 55.12 55.08 55.55 56.21 56.42 55.28 51.76 51.77 55.29 54.12 53.07 54.73 53.62 55.29 52.98 52.33 52.37 51.28 50.23 48.19 48.80 46.61 44.70 45.11 45.72 46.21 46.03
56.25 56.07 56.65 56.98 56.66 56.41 56.37 56.09 55.27 55.06 55.15 54.90 54.97 54.64 54.37 54.62 54.80 54.84 54.86 54.68 54.51 54.96 55.47 55.90 56.03 54.61 50.55 55.52 55.84 53.53 53.20 53.41 53.58 54.77 54.82 54.32 53.59 50.81 49.05 49.15 45.96 43.58 43.54 41.98 45.05 46.69 46.24
56.23 55.99 56.84 57.11 56.48 56.47 56.39 56.03 55.26 54.80 54.88 54.66 54.60 54.35 54.11 53.80 53.76 53.92 53.76 53.86 54.27 55.11 55.49 55.58 55.57 54.77 50.11 56.28 52.52 53.16 52.72 51.83 52.56 54.20 53.61 52.50 51.56 47.23 47.34 43.40 41.93 42.22 38.94 39.93 42.51 45.24 46.07
55.45 56.01 56.87 57.06 56.94 56.80 56.81 56.07 55.00 54.51 54.49 54.49 54.52 54.54 54.11 53.90 53.74 53.43 53.37 54.11 54.89 54.88 54.65 54.70 52.28 50.22 50.84 48.81 50.77 51.65 52.61 52.84 51.23 53.15 51.85 50.26 46.92 44.90 44.12 43.47 36.86 38.71 38.86 39.75 40.15 43.98 45.65
54.31 55.65 56.59 57.00 56.86 56.96 56.92 56.11 54.94 54.27 54.31 54.41 54.74 54.48 53.87 53.63 53.39 53.28 53.79 53.83 49.24 49.44 50.95 47.10 48.09 47.15 48.00 51.15 52.05 50.64 51.01 52.27 50.70 48.48 44.90 46.27 43.96 40.62 41.50 42.55 42.27 41.37 39.82 39.32 41.47 43.60 44.16
53.49 55.23 56.03 56.77 56.81 56.79 56.44 55.97 54.96 54.33 54.31 54.43 54.55 54.53 54.49 53.96 53.57 53.64 53.88 52.72 51.17 52.88 45.64 49.08 48.43 48.85 49.92 50.52 47.72 50.26 52.19 48.71 47.26 43.06 44.77 44.28 40.56 43.13 43.50 43.09 42.13 41.44 39.56 39.24 41.85 43.05 43.63
52.78 54.26 55.47 56.32 56.61 56.40 55.77 55.63 55.11 54.44 54.17 53.78 53.78 54.07 54.05 53.51 53.60 54.28 55.15 55.68 58.04 55.98 45.17 46.97 48.65 49.00 49.44 50.59 47.10 47.97 49.82 48.84 44.59 42.79 42.06 41.37 42.09 44.33 43.51 42.13 41.69 41.13 39.93 39.35 39.45 41.98 42.90
52.19 53.56 54.66 55.67 55.85 55.43 55.08 55.02 54.84 54.64 54.11 53.70 53.41 53.58 53.52 52.98 53.36 54.61 53.65 56.49 57.65 54.43 39.20 42.07 46.12 48.91 49.58 49.59 46.41 50.67 50.30 48.95 46.38 42.11 42.95 42.10 43.66 43.09 42.78 41.36 41.78 38.80 41.94 41.73 40.25 40.05 38.16
52.08 53.41 54.06 54.78 54.90 54.32 54.10 54.26 54.22 54.20 53.95 53.68 53.08 53.55 53.26 53.73 54.44 52.87 55.21 56.81 58.62 51.25 28.40 43.80 46.26 51.37 49.05 46.79 47.02 49.25 50.66 49.48 44.23 42.97 44.21 40.72 42.38 42.27 42.11 41.70 43.02 41.66 42.79 41.27 40.87 39.73 39.17
52.09 53.35 54.07 54.47 54.30 53.92 54.01 53.88 53.74 53.46 53.46 53.31 53.19 53.82 53.67 54.10 54.09 55.00 56.53 56.19 53.74 37.79 28.73 42.21 46.04 45.36 45.70 45.94 46.24 47.92 47.28 49.52 47.89 44.42 44.91 42.88 45.73 44.26 43.54 44.20 44.31 44.25 41.94 40.12 39.48 38.77 34.78
52.27 53.18 53.74 53.97 54.06 53.98 53.97 53.66 53.21 52.96 52.88 52.84 54.11 54.53 55.94 54.70 51.31 55.95 55.01 51.33 39.10 31.63 43.74 40.32 42.13 44.39 42.90 42.40 44.02 44.43 42.80 42.06 40.40 38.29 37.68 41.78 42.77 45.32 44.93 43.10 44.97 43.61 38.55 33.99 33.93 33.66 33.32
53.04 53.23 53.35 53.68 53.98 53.80 53.67 53.45 52.97 52.64 52.39 52.65 53.62 53.98 54.21 55.66 55.86 55.60 52.04 44.41 33.20 38.75 40.47 43.99 42.98 43.02 40.92 42.60 42.79 42.53 41.78 39.87 43.03 40.89 38.12 36.60 35.39 42.45 45.17 42.94 40.43 40.72 39.05 33.93 27.04 29.25 31.85
53.56 53.50 53.24 53.31 53.58 53.51 53.35 53.21 52.93 52.73 52.17 52.44 53.86 51.84 52.54 54.46 56.22 52.81 47.48 35.46 34.94 38.63 42.79 42.07 43.05 40.43 40.57 43.32 41.96 41.69 40.16 39.83 41.71 42.74 37.93 36.60 36.73 44.00 44.67 44.62 43.53 40.53 37.69 39.53 32.23 25.96 30.94
53.14 53.38 53.06 52.94 52.92 52.76 52.75 52.81 52.49 52.42 52.15 52.44 51.55 49.52 51.37 53.99 54.71 49.16 41.93 36.96 40.69 43.39 44.20 44.14 39.24 41.27 38.34 40.37 40.09 40.13 39.84 43.06 41.73 43.37 44.28 40.53 35.77 41.15 43.10 44.71 44.58 42.52 42.45 36.07 36.04 28.41 26.38
52.57 52.81 52.72 52.41 52.52 52.38 52.71 52.50 51.81 51.69 51.88 52.33 49.15 47.03 51.41 54.68 51.33 44.49 36.65 36.58 41.85 45.28 45.98 43.73 41.72 40.76 40.86 40.46 40.56 39.30 39.53 42.75 44.05 43.76 44.25 41.29 38.30 37.93 40.70 39.89 38.72 40.34 38.32 37.73 37.50 34.74 30.02
51.84 51.87 51.96 51.82 51.89 52.41 52.41 50.82 50.37 50.41 51.70 50.85 45.84 43.79 52.15 52.77 43.35 38.85 38.27 41.97 43.39 44.71 46.42 45.11 44.65 43.43 41.78 41.50 40.17 40.25 39.92 42.08 44.33 45.53 41.20 41.82 37.29 33.40 36.72 41.14 42.96 41.49 38.70 37.32 32.35 29.64 32.92
51.33 51.44 51.63 50.86 50.58 52.24 50.97 50.35 50.37 51.28 51.82 50.82 46.36 46.96 50.97 50.78 37.49 35.13 42.77 43.67 44.13 44.28 43.36 43.75 43.15 44.48 43.98 40.77 37.97 41.23 42.16 45.40 44.89 44.88 42.55 42.22 36.27 30.57 32.48 37.42 40.15 39.25 39.74 37.27 35.64 34.25 32.33
51.32 51.29 51.52 51.09 51.00 52.05 49.88 50.17 50.23 51.25 51.89 48.87 44.94 41.83 45.46 45.17 43.09 41.74 41.08 41.53 41.98 44.93 44.11 44.31 43.42 44.76 42.38 39.92 42.28 40.29 41.50 45.03 45.76 44.67 43.64 43.62 36.84 33.99 30.39 33.08 36.70 34.73 36.89 37.81 37.73 33.48 32.53
51.23 51.37 50.99 50.49 50.72 49.42 49.83 49.83 50.08 50.98 51.33 49.27 44.51 42.06 44.08 38.26 41.22 42.08 42.81 42.41 41.32 40.62 44.71 44.85 43.12 42.70 41.16 36.73 38.72 39.60 41.94 42.89 43.92 44.38 43.61 42.37 36.27 35.86 36.47 37.48 36.77 36.44 36.16 36.76 35.80 36.70 33.17
51.04 51.12 50.40 50.11 50.47 49.54 49.52 49.78 49.92 50.99 50.94 47.69 44.82 43.77 42.88 40.75 42.81 42.09 38.81 41.72 41.76 42.31 43.00 42.59 41.66 43.27 43.08 39.31 39.76 38.60 41.87 41.38 40.85 43.14 41.62 40.09 35.66 35.50 32.87 34.77 34.88 33.01 35.78 36.09 36.59 37.05 36.63
51.10 51.21 50.20 49.87 50.21 48.85 49.18 49.60 49.88 50.92 51.05 48.03 46.53 45.95 45.38 37.05 37.08 38.04 37.98 41.86 42.44 43.48 43.37 44.59 43.66 41.60 37.85 42.93 45.26 45.54 44.81 43.08 43.29 41.54 39.21 38.19 35.29 32.03 29.30 31.79 32.05 29.29 33.33 35.35 36.78 38.15 37.76
50.87 50.64 49.65 49.69 51.01 49.48 49.04 49.78 50.22 50.55 50.90 50.17 47.78 44.00 40.70 35.70 34.43 38.02 42.23 43.06 42.25 43.12 41.89 43.66 44.11 39.82 44.01 46.28 44.53 41.72 38.41 38.58 39.92 39.42 40.94 33.50 32.98 31.41 30.82 29.75 25.93 36.18 39.43 39.54 37.19 38.20 38.67
50.52 50.87 51.05 51.49 51.80 48.87 49.72 50.44 50.27 50.61 51.56 50.55 47.78 45.16 40.13 32.96 36.68 39.02 41.77 41.81 42.20 42.36 41.98 43.52 45.28 44.30 45.15 41.97 36.79 32.43 32.34 30.64 32.68 37.31 37.48 37.62 33.83 30.86 29.48 29.21 31.82 35.84 37.67 37.44 36.02 35.97 40.04
50.17 50.63 51.10 51.29 51.20 51.19 50.97 50.66 50.39 50.63 51.48 52.34 50.05 46.02 42.96 36.14 38.56 43.16 41.77 41.82 37.96 37.26 38.66 41.91 45.41 44.85 42.40 34.82 33.68 29.30 28.71 29.82 32.12 33.27 36.32 35.06 32.91 34.31 30.08 27.22 25.54 34.97 38.02 40.15 40.77 33.04 40.71
49.92 50.39 50.54 51.05 50.79 50.79 51.29 50.84 50.45 50.67 51.42 52.88 51.56 49.59 45.71 38.74 42.33 44.34 41.06 40.88 41.56 39.37 37.82 38.00 42.58 40.08 41.59 33.85 32.01 31.63 32.59 32.09 30.88 26.76 26.22 30.01 31.08 30.11 30.38 28.27 31.63 37.84 38.95 40.54 31.56 34.52 40.13
49.61 49.83 49.85 50.15 50.31 50.42 50.60 50.99 50.42 50.37 50.68 53.01 52.37 51.32 48.41 40.04 44.14 47.42 46.62 42.92 42.65 40.87 38.40 40.54 40.50 38.52 36.64 33.50 32.96 32.60 30.69 32.80 32.16 33.15 30.73 31.56 30.56 28.37 28.85 26.83 25.85 38.90 39.13 36.22 40.48 42.09 42.02
49.44 49.60 49.73 49.70 49.79 49.84 50.20 50.75 50.67 50.21 49.76 51.45 50.87 51.15 50.11 46.50 45.08 49.45 51.31 50.66 48.88 46.75 43.37 40.18 41.41 39.16 39.94 34.80 32.89 31.39 31.66 29.81 31.36 32.25 35.32 32.49 35.27 33.51 33.84 34.21 39.92 40.61 42.23 43.78 42.66 40.51 41.35

GFSGBSN_sfc_wetblb_018.txt.gz
Wetbulb
56.21 56.89 56.87 56.57 57.14 57.57 57.57 57.57 57.24 56.64 55.89 55.53 55.35 55.70 56.11 55.74 55.40 55.65 55.83 55.25 55.61 55.81 56.41 56.33 56.87 57.23 58.82 54.76 53.52 58.80 60.61 61.66 59.20 58.37 56.54 55.48 53.02 52.00 48.54 50.10 51.15 49.85 50.16 50.55 50.18 49.70 50.07
56.68 56.97 56.85 56.77 57.20 57.31 57.34 56.81 56.24 55.89 55.41 55.31 55.25 55.43 55.57 56.00 55.88 55.37 55.61 55.61 55.57 55.89 55.88 56.37 56.98 56.40 58.34 50.35 58.08 59.04 57.22 57.95 58.62 58.41 56.93 56.42 54.53 54.91 52.48 51.44 50.82 51.61 51.12 50.67 51.03 50.51 50.49
56.60 56.93 56.71 57.17 57.23 56.91 56.70 56.46 55.71 55.35 55.37 55.27 55.19 55.00 55.21 55.53 55.93 56.13 56.13 55.73 55.41 55.41 55.94 56.26 56.67 58.94 55.78 53.17 59.14 58.96 57.01 57.16 57.32 58.01 56.29 56.62 56.51 54.58 54.61 52.25 52.87 51.46 49.22 50.56 50.26 50.49 49.86
56.35 56.32 56.52 57.23 56.78 56.48 56.61 56.33 55.59 55.13 55.23 55.03 55.17 54.94 54.78 54.96 55.10 55.12 55.18 55.12 54.94 55.31 55.74 55.99 56.11 59.75 52.83 58.40 60.08 57.25 57.24 56.41 57.84 58.50 58.22 57.38 57.70 54.84 53.64 53.17 50.54 48.52 49.15 45.88 49.30 50.40 50.75
56.33 56.20 56.85 57.23 56.82 56.58 56.51 56.17 55.47 54.88 54.81 54.81 54.75 54.66 54.48 54.13 54.29 54.21 54.33 54.33 54.60 55.36 55.93 56.15 60.01 57.79 51.00 59.14 55.09 56.93 56.48 55.05 56.58 57.38 57.49 55.86 55.63 52.94 51.75 49.58 47.11 47.15 44.06 43.63 46.11 49.78 49.86
55.78 55.65 56.86 57.25 56.94 56.80 56.70 56.09 55.35 54.82 54.68 54.95 54.83 54.69 54.44 54.25 54.13 53.92 53.64 54.37 55.12 55.80 57.59 58.33 56.33 53.45 53.53 51.60 54.63 55.02 56.21 55.92 54.97 55.45 54.90 54.27 54.30 50.79 50.61 47.88 42.42 42.62 43.09 44.09 44.00 47.77 48.77
54.93 55.06 56.42 57.13 56.99 57.15 56.78 56.16 55.35 54.48 54.66 54.95 55.03 54.74 54.37 54.10 54.15 53.68 55.66 60.28 55.86 54.49 55.40 51.26 51.29 51.02 51.86 54.84 55.96 55.02 54.80 54.97 54.57 53.61 49.69 51.28 49.86 46.14 46.68 47.74 46.91 45.60 44.29 43.55 45.78 47.89 47.84
53.68 54.85 55.97 56.77 57.03 56.71 56.39 55.81 55.00 54.66 54.51 54.72 54.86 55.20 54.88 54.31 54.17 54.09 60.17 57.59 56.22 57.71 49.78 52.75 51.95 52.34 53.25 54.27 51.78 54.64 57.26 52.03 51.40 47.96 49.99 48.85 45.31 47.32 48.38 47.91 46.14 45.70 43.79 43.90 46.13 47.31 47.34
52.91 54.04 55.38 56.22 56.33 56.25 55.84 55.61 55.11 54.60 54.43 54.19 54.37 54.95 54.62 53.86 53.77 58.44 61.72 59.50 62.78 60.52 50.67 50.78 52.20 51.97 52.20 55.06 51.40 52.46 54.53 51.82 49.75 47.63 48.07 46.31 45.88 47.26 47.03 47.12 46.03 45.81 44.02 43.95 43.67 47.03 47.96
52.87 53.80 54.48 55.73 55.84 55.41 55.06 54.98 54.86 54.68 54.39 54.02 53.78 54.35 54.15 53.15 56.18 60.49 58.64 60.79 63.81 59.39 47.15 45.92 48.89 51.68 52.75 52.68 49.81 54.77 54.74 51.74 49.48 46.62 47.48 46.59 47.71 47.18 46.91 45.34 46.77 43.32 46.09 46.18 44.90 44.59 42.63
52.55 53.70 54.25 54.86 54.92 54.33 54.11 54.24 54.36 54.22 54.17 54.07 53.70 54.52 53.35 54.27 61.37 58.70 59.72 63.32 64.19 59.86 37.55 47.15 49.08 54.97 54.20 50.54 50.54 52.03 55.00 53.43 47.93 46.97 48.12 43.73 46.24 46.35 45.61 44.89 47.40 45.00 47.46 45.88 45.34 44.90 44.34
52.59 53.76 54.09 54.41 54.30 54.07 54.05 53.87 53.56 53.49 53.52 53.64 54.03 54.41 54.07 59.19 63.34 60.57 63.24 62.33 61.78 47.88 34.89 44.89 49.31 48.78 49.63 51.03 50.06 51.97 52.25 54.09 51.62 49.13 49.36 47.21 49.70 48.90 47.72 47.67 47.46 48.43 46.21 45.63 46.30 45.96 40.03
52.71 53.51 53.76 54.09 54.06 54.03 53.91 53.71 53.22 53.13 53.05 53.64 54.09 54.74 59.39 61.44 58.98 63.16 63.34 60.44 46.59 40.83 46.63 43.78 45.60 48.28 48.20 47.02 48.07 48.93 48.55 47.54 45.92 43.04 43.06 45.95 46.47 49.16 49.80 46.69 48.77 48.45 44.67 40.51 38.33 38.89 38.29
53.24 53.45 53.62 53.93 54.00 53.69 53.61 53.51 52.87 52.81 52.65 53.76 53.44 55.12 56.17 60.98 63.76 62.83 61.44 54.05 39.46 43.04 43.82 46.94 47.16 47.54 44.86 46.80 46.80 47.45 46.39 45.42 48.33 46.52 44.72 42.00 40.13 46.63 49.00 46.44 44.57 45.14 44.57 39.53 30.61 35.09 38.41
53.70 53.52 53.32 53.47 53.60 53.49 53.35 53.17 52.60 52.58 52.26 52.73 53.74 61.06 61.69 61.58 62.71 61.85 56.70 46.95 43.46 44.88 46.63 46.02 46.90 44.42 44.22 46.14 46.51 46.35 45.60 44.66 46.38 47.74 42.90 41.69 40.67 47.56 47.51 48.45 47.30 44.56 42.35 44.61 38.02 33.22 36.70
53.53 53.39 53.08 52.83 52.98 52.85 52.79 52.36 50.80 51.07 52.39 53.04 59.66 59.70 59.48 61.05 61.44 60.11 53.98 42.32 45.07 47.20 48.07 47.67 43.16 45.04 42.72 44.46 44.44 45.06 44.29 45.95 45.25 47.69 48.88 44.27 40.04 44.65 46.40 48.27 48.71 46.67 46.61 40.88 42.52 32.69 29.19
52.56 52.90 52.65 51.78 51.71 52.30 52.27 50.57 50.70 50.95 51.96 52.81 59.44 54.74 58.96 61.09 59.78 56.29 48.50 45.45 46.35 48.72 49.47 47.38 45.49 44.54 45.23 44.08 45.22 43.96 43.21 45.75 47.37 46.95 48.71 45.80 42.95 41.90 44.99 44.14 43.38 45.23 44.03 42.38 42.38 40.14 33.46
51.87 52.12 51.85 50.05 50.87 52.31 50.57 50.64 50.72 51.40 52.04 56.22 57.35 51.17 59.05 60.55 52.33 50.98 47.63 47.54 45.94 48.69 50.36 49.21 49.33 47.71 46.04 45.59 44.55 44.12 43.41 45.66 48.18 48.41 44.58 46.06 43.81 38.78 39.68 45.05 46.86 45.80 42.90 41.96 37.60 32.04 37.62
51.57 51.78 51.71 50.62 51.25 51.19 50.19 50.54 50.84 51.16 52.32 59.53 56.27 55.34 59.09 58.52 48.46 48.24 47.89 47.23 48.44 48.24 47.67 47.91 47.13 48.54 48.45 45.65 42.72 45.33 45.44 48.07 48.77 48.28 46.14 46.87 42.07 36.16 37.32 42.29 44.92 43.12 43.62 42.75 40.88 39.50 35.44
51.44 51.54 51.71 50.84 51.49 50.20 50.22 50.55 50.77 51.07 52.20 58.76 55.89 51.72 55.01 55.07 52.06 49.74 47.49 46.66 46.06 49.05 48.10 49.10 47.70 49.28 47.55 45.62 47.06 44.69 45.28 47.32 48.54 48.20 43.78 47.16 43.19 38.73 34.87 37.71 41.03 38.59 40.68 41.92 40.85 35.90 36.17
51.34 51.72 51.37 50.42 51.05 49.98 50.11 50.35 50.57 51.06 51.44 58.55 55.34 51.51 51.26 49.17 49.27 50.15 49.58 48.00 46.08 45.18 48.77 49.64 47.50 47.63 46.54 43.13 44.01 43.83 46.00 46.32 47.10 45.22 47.80 47.38 39.02 41.03 41.60 42.07 41.96 40.63 39.86 40.76 39.11 39.96 35.84
51.31 51.35 50.53 49.85 50.18 49.81 49.81 49.74 50.57 51.12 51.15 56.59 53.61 52.07 51.90 49.17 49.38 49.40 45.35 47.44 46.41 46.01 47.52 46.09 46.63 47.21 47.39 43.81 44.15 42.94 44.68 44.54 43.69 46.92 46.28 45.91 40.00 38.86 36.84 40.35 40.38 38.22 40.81 40.92 40.65 41.03 41.05
51.15 51.19 50.29 50.11 50.49 49.45 50.25 49.81 50.66 50.95 52.71 57.39 54.22 53.12 55.62 43.08 46.72 49.09 47.48 47.61 47.27 49.05 47.84 49.40 49.53 47.83 45.28 47.00 49.70 49.96 49.78 48.85 47.64 45.62 43.53 43.05 41.20 37.27 34.57 37.40 37.11 34.37 38.15 39.97 41.01 42.23 41.42
51.08 50.53 49.66 49.85 49.88 49.24 49.81 50.44 50.38 50.75 53.26 58.91 55.76 54.75 53.61 46.32 48.33 47.89 47.56 48.61 47.95 47.59 47.34 48.22 49.49 48.30 48.08 51.23 50.20 48.97 47.12 45.92 46.13 44.99 46.23 39.35 39.34 36.46 35.04 35.32 30.52 39.04 44.20 43.70 41.32 42.34 43.70
50.55 50.02 49.93 51.27 50.50 49.34 50.26 50.57 50.26 50.55 51.78 56.98 54.78 54.52 51.12 36.79 48.28 46.49 48.29 47.90 48.47 48.82 47.81 48.20 48.47 48.53 52.30 49.75 45.84 40.16 39.49 37.55 38.87 42.18 42.70 44.14 40.64 34.73 32.07 32.90 36.89 39.54 40.95 40.57 39.13 39.48 44.74
50.32 50.74 51.12 51.61 51.79 51.57 50.82 50.54 50.35 50.51 52.15 57.31 55.31 53.63 53.75 41.42 47.44 48.91 48.43 49.31 47.46 47.45 47.41 46.83 48.94 50.28 50.23 47.01 42.41 35.50 36.10 35.73 36.62 37.81 41.32 40.53 40.48 40.47 34.04 29.96 28.79 38.97 42.18 43.78 44.04 35.81 44.62
49.97 50.34 50.90 51.25 51.49 51.45 50.94 50.73 50.44 50.69 51.59 58.54 56.50 55.94 55.16 51.29 49.47 49.98 49.34 48.68 49.78 48.83 47.77 47.59 47.83 46.29 49.06 43.92 37.15 38.67 38.02 38.28 35.63 34.37 33.72 34.51 34.70 33.87 33.58 32.03 35.99 43.03 42.99 44.31 33.57 37.34 44.28
49.45 49.71 50.00 50.43 50.88 51.12 51.06 50.87 50.57 50.21 50.45 57.85 56.66 56.75 55.99 49.57 50.13 51.24 50.55 49.35 48.93 50.56 47.78 47.91 47.65 46.63 44.56 37.69 36.42 38.41 35.88 39.63 37.48 38.96 36.93 37.13 35.98 33.04 33.19 29.71 28.93 44.18 43.25 37.92 43.24 45.42 45.64
49.15 49.35 49.35 49.75 50.09 50.51 50.74 51.11 50.57 49.56 50.42 53.74 56.92 56.67 55.65 54.87 51.62 54.16 54.82 54.31 53.58 52.96 51.09 49.54 48.07 47.59 49.31 43.85 39.83 38.58 34.07 34.60 39.03 36.05 41.68 36.32 40.59 38.88 38.37 39.03 46.07 46.94 45.77 47.94 48.11 45.99 43.44

GFSGBSN_sfc_wetblb_021.txt.gz
Wetbulb
55.62 56.43 56.98 57.06 56.86 57.57 57.88 57.60 56.95 56.80 56.91 56.59 56.17 56.21 56.25 56.45 55.96 55.68 55.73 55.82 56.10 55.97 56.36 56.76 57.08 57.63 60.61 57.23 54.20 59.86 61.87 64.31 61.15 59.86 57.43 55.18 53.09 52.10 48.82 49.78 50.29 49.10 49.43 49.90 50.29 50.13 50.42
56.37 56.85 56.82 57.05 57.08 57.56 57.74 57.64 56.97 56.77 56.24 55.94 55.72 55.82 56.04 56.31 56.46 55.83 56.00 55.80 55.76 56.06 56.43 56.63 57.13 56.92 59.83 52.06 59.16 60.07 59.28 59.21 59.55 58.40 56.13 55.86 54.13 54.39 51.03 50.97 50.93 51.92 51.82 51.87 51.94 51.41 51.47
56.63 56.66 56.85 56.69 57.50 57.62 57.20 57.15 56.89 55.96 55.68 55.80 55.78 55.58 55.64 55.80 56.22 56.44 56.42 56.06 55.78 55.86 56.29 56.68 57.25 60.53 58.96 54.42 59.70 59.95 58.66 58.35 59.27 59.22 55.96 57.48 56.91 54.30 54.49 51.86 53.99 52.68 49.84 51.66 51.98 52.55 51.38
56.37 56.36 56.10 56.95 57.27 57.03 56.84 56.88 56.45 55.73 55.67 55.67 55.60 55.56 55.09 55.40 55.68 55.64 55.60 55.34 55.38 55.78 56.19 56.70 56.73 61.29 54.56 59.02 61.06 58.02 58.54 57.69 59.46 60.25 59.28 59.01 58.57 56.45 55.02 55.48 52.19 50.16 50.80 47.45 50.91 51.66 52.25
56.19 56.37 55.90 57.27 57.19 56.89 56.76 56.74 55.92 55.45 55.39 55.29 55.39 55.33 55.22 54.81 54.66 54.85 54.89 54.93 55.01 55.87 56.45 56.93 60.72 61.54 52.14 58.46 56.21 57.25 58.07 55.95 58.02 59.29 58.93 57.45 57.98 54.64 54.23 50.77 48.58 48.84 45.62 45.30 47.80 51.23 50.70
56.02 55.74 56.21 57.43 57.31 57.05 57.05 56.71 55.54 54.89 54.86 54.67 54.94 55.13 55.07 54.84 54.69 54.63 54.52 54.56 55.47 55.77 57.66 60.70 59.93 54.80 53.95 52.36 55.24 56.41 58.18 58.22 57.01 57.43 56.16 55.64 54.75 51.93 51.08 49.03 43.62 44.77 44.24 45.30 45.36 49.52 49.11
55.56 54.40 55.59 56.91 57.18 57.30 56.82 56.35 55.33 54.81 54.96 54.65 55.02 55.29 55.09 54.98 55.07 54.44 55.49 60.26 56.83 56.68 57.16 53.32 52.96 52.34 52.90 55.45 57.77 55.86 57.14 56.70 56.57 55.38 51.59 53.13 50.36 48.64 48.35 48.82 48.18 46.90 45.75 45.08 47.39 49.60 48.35
55.06 53.69 55.33 56.61 56.92 56.76 56.58 56.13 55.15 55.03 54.92 54.50 54.93 55.48 54.94 54.83 54.79 54.79 60.64 59.41 58.91 59.22 51.02 54.45 54.50 54.78 55.60 56.43 52.30 55.11 58.40 53.90 53.48 49.87 51.16 49.41 48.15 49.27 49.73 49.31 48.05 47.52 46.12 46.01 47.86 49.04 48.61
54.53 53.35 54.97 56.22 56.32 56.32 55.97 55.72 55.11 54.89 55.05 54.88 54.86 55.38 55.41 54.68 54.20 58.96 63.00 61.40 64.56 62.52 51.52 51.69 53.88 53.18 53.72 55.82 52.31 52.90 56.07 53.43 50.48 48.04 48.12 48.23 48.54 49.33 49.05 48.34 47.38 47.78 46.27 46.31 45.74 48.62 50.07
53.98 53.04 54.65 55.64 56.01 55.64 55.17 55.01 55.07 54.91 54.85 54.75 54.65 55.42 54.34 53.47 56.21 63.78 60.92 63.54 65.80 63.74 48.60 46.92 50.25 52.47 54.05 54.56 51.10 56.23 56.45 53.52 50.53 47.40 48.97 48.42 50.10 48.50 48.22 47.06 48.44 45.58 48.43 47.68 47.00 46.01 43.50
53.56 53.29 54.44 55.13 55.17 54.58 54.40 54.40 54.26 54.30 54.60 54.61 54.53 55.65 53.50 54.18 62.52 59.54 61.92 66.06 67.20 63.62 39.18 48.50 50.31 56.90 54.41 52.15 52.45 53.16 57.01 54.16 48.99 48.89 49.78 46.82 47.74 47.96 47.13 47.19 49.09 47.01 49.70 48.06 47.84 46.71 46.43
53.13 53.34 54.26 54.85 54.68 54.36 54.12 54.08 53.76 54.01 54.19 54.38 54.94 55.10 53.81 59.51 65.38 62.95 65.48 66.16 65.24 49.70 37.43 46.20 50.57 50.66 50.94 52.04 51.65 53.68 53.42 55.58 54.59 49.90 50.68 49.28 51.77 50.79 49.49 50.03 49.44 50.66 49.07 48.24 48.78 47.37 41.08
52.78 53.51 54.18 54.64 54.50 54.24 54.16 53.80 53.34 53.51 53.85 54.95 54.68 55.29 56.50 64.17 60.14 65.75 66.87 62.59 46.56 42.42 48.30 45.15 47.44 49.91 49.80 48.99 49.54 51.05 50.07 49.68 48.85 45.43 45.46 47.83 48.13 51.07 51.32 48.76 50.82 50.28 47.35 41.94 39.75 40.28 39.65
53.17 53.83 54.17 54.44 54.28 54.00 53.76 53.36 52.82 53.02 53.91 54.90 54.77 55.78 59.67 64.78 66.93 65.97 63.43 53.41 42.41 45.53 45.88 49.51 49.12 49.46 46.99 49.21 48.75 49.04 48.79 47.53 50.16 49.00 47.39 44.23 42.07 48.14 50.44 48.40 46.33 47.00 46.58 41.23 33.08 36.56 39.85
53.72 53.76 53.99 53.92 53.92 53.59 53.16 51.37 51.54 52.56 53.20 54.21 54.36 64.89 64.06 65.08 66.80 65.14 56.60 47.26 45.98 46.59 48.66 47.82 48.55 46.26 45.93 47.89 48.34 48.63 48.19 46.89 48.03 49.90 45.72 44.02 43.38 49.26 49.58 50.77 49.75 46.74 44.37 47.01 41.06 38.99 37.95
54.01 53.78 53.54 52.43 52.71 52.89 51.79 51.07 51.56 51.79 53.08 54.26 60.70 60.05 60.68 65.11 66.31 63.04 54.55 45.68 47.76 49.92 49.69 49.91 45.08 47.37 44.69 46.51 46.65 47.28 46.70 48.19 47.30 49.56 51.07 46.50 42.60 46.68 48.28 50.15 50.34 48.27 48.92 42.83 44.23 33.37 31.02
53.17 53.23 52.79 50.82 50.94 52.48 50.70 50.89 51.30 52.06 52.61 54.26 60.93 54.86 62.04 66.06 63.98 56.24 49.26 48.17 48.63 51.15 51.62 49.17 47.15 46.26 47.55 46.06 47.46 46.23 45.86 47.83 49.42 48.78 50.46 47.85 44.85 44.54 46.41 45.89 44.76 46.63 46.18 44.68 43.81 41.35 34.62
52.34 52.49 51.93 50.73 51.21 50.98 50.77 50.73 50.93 51.89 52.45 53.84 59.43 52.32 62.96 64.41 52.45 54.45 50.26 49.89 48.72 50.75 52.68 50.98 51.38 49.55 48.27 48.14 46.64 46.34 45.76 48.35 50.62 50.32 46.36 48.01 45.62 40.64 42.01 47.13 49.07 47.50 45.17 44.67 38.71 35.30 39.15
51.92 52.19 52.02 51.11 51.47 51.07 50.71 50.55 50.79 51.51 52.08 62.99 56.06 56.35 62.86 62.15 50.31 51.63 51.20 49.92 51.18 50.46 50.34 50.32 49.27 50.73 51.20 48.58 44.83 47.53 47.92 50.28 50.79 50.06 48.28 48.80 44.90 38.82 40.75 44.65 47.19 44.41 45.65 44.74 42.44 40.88 35.98
51.62 51.90 51.82 50.96 51.31 50.66 50.83 50.95 50.85 51.22 52.56 60.89 57.41 52.45 55.94 57.87 56.74 51.76 49.85 49.07 48.16 51.90 50.53 51.48 50.52 51.70 50.15 47.84 49.74 47.07 47.40 49.36 50.75 50.60 45.14 48.59 45.37 40.45 37.07 40.21 43.47 40.73 42.64 43.75 42.61 37.07 37.92
51.77 51.91 51.32 50.79 51.17 50.51 50.58 50.62 50.97 51.45 52.10 60.48 58.64 54.37 54.96 50.66 52.21 52.56 52.46 50.70 48.45 46.95 51.18 52.09 49.47 49.62 48.79 45.23 47.01 46.17 48.66 48.61 49.42 45.35 48.93 48.56 40.99 43.34 43.68 43.81 43.24 42.30 41.86 42.52 40.99 41.69 37.58
51.60 51.46 50.53 50.49 50.73 50.24 50.21 50.52 51.11 51.50 51.66 60.90 55.20 54.53 56.28 54.74 53.60 52.28 47.93 49.55 48.52 48.37 49.81 48.34 48.73 49.89 49.66 46.56 46.18 45.15 46.97 46.50 45.70 48.58 48.00 47.86 41.51 41.90 39.05 42.86 42.52 40.18 42.26 42.70 42.59 42.53 42.72
51.58 51.14 50.30 50.49 50.56 50.57 50.26 51.00 50.85 51.25 52.58 60.55 59.79 59.51 57.58 47.33 52.51 51.09 50.14 50.18 49.65 51.09 50.36 51.47 51.35 49.70 48.24 49.18 51.92 52.35 51.86 50.66 49.44 47.51 45.63 44.98 43.43 39.06 35.72 40.88 39.59 35.99 40.50 41.58 42.41 43.95 43.02
51.40 50.67 50.17 51.12 50.03 50.36 50.43 50.86 50.53 50.98 52.63 62.26 60.17 59.71 55.68 49.41 51.58 50.93 50.28 51.01 50.27 50.60 49.50 51.68 52.07 49.94 51.34 54.61 53.59 52.06 50.72 49.06 49.10 48.23 49.16 43.90 41.55 39.64 36.06 35.88 31.30 42.16 46.36 45.55 43.16 43.72 45.25
50.61 50.01 50.23 51.96 49.86 50.54 51.06 50.80 50.33 50.86 52.29 61.09 59.54 58.86 54.29 41.68 52.39 50.54 51.20 51.05 51.40 52.17 50.79 50.76 50.90 53.23 55.65 52.32 47.68 41.47 40.42 37.62 41.51 45.33 45.69 47.26 43.33 36.83 34.45 34.92 38.43 41.29 42.82 42.39 40.79 40.65 46.16
50.43 49.48 50.21 51.92 52.11 51.60 51.30 50.87 50.47 50.87 52.42 60.97 58.89 59.68 57.76 45.23 50.34 52.79 51.76 52.37 50.13 50.05 49.95 49.24 52.32 54.58 54.18 50.57 43.91 36.33 37.13 38.99 39.12 40.62 44.56 43.77 44.78 41.36 35.87 31.84 30.14 40.73 45.04 46.09 45.87 36.97 46.98
50.14 50.86 51.52 52.01 51.90 51.71 51.47 51.01 50.71 50.39 51.69 60.88 59.46 60.54 58.45 54.35 53.56 53.91 51.73 51.49 53.78 52.36 50.18 50.55 50.51 49.63 53.17 46.21 39.00 39.84 39.48 42.16 37.57 35.84 34.20 35.71 36.89 35.92 34.92 33.44 37.34 44.62 45.59 47.06 35.16 38.55 46.91
49.83 50.37 50.74 51.21 51.59 51.56 51.45 51.12 49.92 49.70 50.95 58.54 59.45 60.28 59.10 53.62 53.23 54.41 54.12 52.90 52.96 52.95 49.46 51.53 49.84 50.21 49.74 39.56 39.56 42.00 38.42 42.43 40.41 42.04 38.99 37.04 35.99 33.77 36.00 31.82 30.03 46.76 45.23 38.93 44.78 47.33 46.02
49.49 49.72 49.96 50.41 50.99 51.20 51.35 51.28 50.11 50.40 50.94 52.88 58.86 60.28 60.58 57.37 54.93 57.67 56.88 57.18 56.34 55.74 54.40 52.90 50.62 50.55 51.02 47.19 43.45 43.02 36.28 37.70 40.13 37.21 45.39 38.28 42.25 40.31 40.46 40.45 47.68 47.90 46.56 48.83 48.55 47.26 46.09

GFSGBSN_sfc_wetblb_024.txt.gz
Wetbulb
55.61 56.21 56.86 57.22 57.14 57.14 57.82 58.38 57.87 56.58 56.07 56.73 56.86 56.81 56.42 56.51 57.08 56.42 55.59 55.92 56.18 56.31 56.38 56.61 57.18 57.90 58.44 56.61 54.44 59.32 62.46 65.05 60.58 60.48 57.72 55.46 53.41 52.28 49.06 49.73 49.77 48.04 47.76 48.67 49.41 49.48 50.19
56.49 56.78 57.11 57.04 56.77 57.34 57.94 58.06 57.53 57.32 56.89 56.60 56.46 56.20 56.16 56.27 56.85 56.32 55.59 56.04 56.16 55.98 56.55 56.86 57.10 57.13 58.21 52.18 58.74 59.66 58.98 58.98 58.73 57.93 55.91 55.61 53.93 53.86 50.24 49.55 49.45 50.36 49.84 49.58 50.00 50.25 50.31
56.39 56.78 56.90 57.07 56.91 57.62 57.70 57.33 57.22 57.26 56.88 56.46 56.26 56.08 55.90 56.20 56.42 56.70 56.70 56.06 56.02 56.22 56.45 56.86 57.11 58.58 58.43 55.05 58.81 59.51 58.83 58.05 58.78 58.58 56.39 56.80 56.64 53.32 53.28 51.11 52.75 51.53 48.63 50.34 50.70 51.00 49.80
56.30 56.58 56.75 56.72 56.88 57.31 57.02 57.14 57.28 56.85 56.45 56.33 56.37 55.98 55.37 55.61 55.90 55.90 55.96 55.92 55.68 56.05 56.50 56.79 57.08 59.48 55.23 59.36 59.86 57.97 58.11 57.03 58.53 59.22 58.28 58.10 57.86 56.22 54.67 54.50 50.89 48.78 49.78 45.99 50.00 51.30 51.86
56.34 56.28 56.56 56.54 57.23 57.17 56.98 57.10 57.02 56.33 55.99 56.13 56.25 55.91 55.52 55.23 55.23 55.41 55.48 55.37 55.46 56.05 56.47 56.88 58.44 59.68 54.45 59.34 55.54 57.19 57.50 55.63 57.11 58.23 58.77 57.52 57.14 53.63 52.81 49.04 47.02 48.03 44.09 46.21 47.69 51.13 50.84
56.26 56.21 55.88 56.72 57.53 57.31 57.33 57.25 56.72 55.80 55.55 55.59 55.74 55.62 55.57 55.34 55.05 54.83 54.74 54.85 55.72 55.77 57.45 60.46 60.87 55.94 55.00 52.32 55.23 55.82 57.56 58.06 55.99 56.61 55.09 54.68 53.76 50.50 50.25 48.18 41.79 43.69 44.04 45.24 44.95 48.85 48.19
56.18 55.71 54.94 56.22 57.42 57.56 57.28 56.92 56.40 55.64 55.20 55.30 55.78 55.90 55.69 55.46 55.18 54.79 54.00 58.07 55.92 55.36 57.85 53.15 52.41 52.78 52.35 54.46 55.90 55.41 56.96 56.33 56.46 54.99 50.76 52.68 49.02 47.02 47.70 48.45 47.54 47.00 45.49 44.71 47.28 49.49 47.44
55.46 55.04 54.36 55.92 57.01 56.97 56.71 56.60 56.06 55.39 55.19 55.04 55.40 55.65 55.33 55.43 55.34 55.46 57.92 58.41 59.11 59.31 51.29 54.48 54.30 54.03 55.05 56.54 51.80 54.06 57.56 53.44 52.37 49.25 51.59 48.56 46.37 49.34 49.78 48.98 47.82 47.17 45.73 45.69 48.12 49.11 47.63
55.30 54.26 54.12 55.55 56.63 56.44 56.42 55.84 55.61 55.43 55.20 55.31 55.38 56.20 55.66 54.82 54.72 56.97 60.65 61.53 64.47 64.04 51.19 51.58 54.10 53.04 53.77 55.80 52.24 52.30 55.28 53.78 50.73 49.15 47.90 47.32 48.10 49.72 48.67 47.99 47.05 47.54 45.66 46.31 45.18 48.10 49.27
55.34 54.02 54.21 55.25 56.07 55.99 55.49 55.23 55.05 55.13 55.02 55.31 55.37 55.72 55.17 53.91 55.65 63.03 60.63 63.29 65.46 65.21 47.21 46.41 49.97 51.69 53.90 54.55 50.59 55.36 55.69 53.76 50.16 47.25 48.37 48.57 49.97 48.46 47.83 47.10 48.00 44.24 49.26 47.80 46.15 45.08 41.13
55.12 53.13 54.26 55.14 55.66 54.86 54.54 54.62 54.52 54.60 54.73 55.23 55.35 56.49 53.75 53.37 61.42 59.07 62.33 65.06 66.27 63.93 38.31 48.76 49.88 56.48 54.06 52.00 52.36 52.34 55.88 53.26 49.30 48.47 49.08 47.05 47.74 47.88 47.21 47.58 48.87 46.40 49.59 47.43 47.11 45.40 44.98
54.62 53.30 54.18 54.95 54.98 54.50 54.46 54.00 53.87 54.15 54.59 55.18 56.15 55.59 53.89 57.90 64.72 63.51 65.47 66.55 64.59 49.02 38.26 45.96 50.40 50.31 49.90 51.29 51.75 53.15 52.61 55.49 54.67 49.29 50.56 49.06 51.68 50.63 49.46 50.01 49.54 50.08 49.12 48.68 47.99 45.96 40.60
53.67 53.67 54.37 54.75 54.78 54.52 54.10 53.74 53.45 53.86 55.23 55.45 55.09 54.80 56.51 64.57 61.18 66.02 67.49 62.20 45.53 42.34 48.56 45.11 47.04 49.90 49.55 48.36 49.70 50.92 50.01 49.48 48.18 44.70 45.00 47.89 48.32 51.03 50.88 48.14 50.88 49.67 46.35 41.10 38.97 39.46 38.63
53.09 53.87 54.43 54.48 54.62 54.07 53.68 51.59 51.57 53.26 54.46 55.53 55.57 55.39 60.37 65.10 66.08 67.00 63.52 52.90 41.83 46.05 45.66 49.50 48.90 49.55 46.93 49.00 48.57 49.30 48.80 46.78 49.85 49.47 46.43 43.59 41.24 47.96 50.50 48.23 45.79 47.24 45.62 41.52 32.63 34.55 37.68
53.48 53.99 54.19 53.80 54.02 53.72 51.90 51.32 51.45 52.47 54.19 55.52 54.64 65.41 64.89 66.18 67.46 66.62 56.96 46.44 45.90 46.17 49.03 47.59 48.37 46.00 45.93 48.21 48.65 48.62 48.28 46.64 47.90 49.88 45.41 43.58 43.36 49.34 49.66 50.21 49.02 46.26 43.73 46.60 41.43 38.93 37.17
53.88 54.13 53.68 52.63 51.23 52.79 51.03 50.96 51.42 52.31 53.44 55.32 60.78 60.53 60.90 66.23 67.52 62.66 53.93 46.60 48.87 51.00 49.95 49.55 44.76 47.47 44.27 45.94 46.37 47.58 46.85 48.67 47.27 49.71 50.92 46.35 42.65 46.99 48.12 49.62 50.80 47.02 47.93 41.60 44.35 33.54 31.21
53.78 53.74 52.94 51.08 51.01 51.00 50.69 51.02 51.24 52.07 52.96 54.72 62.69 54.32 62.68 66.66 65.10 55.42 48.90 50.20 49.32 51.53 52.01 48.68 47.41 46.13 47.45 46.22 47.55 46.69 46.74 48.26 50.07 48.88 50.71 47.91 45.40 44.41 46.96 45.79 43.33 45.32 44.37 44.57 43.43 41.39 33.86
52.76 53.02 52.43 50.73 51.00 50.60 50.82 50.87 51.17 51.51 52.85 55.82 62.81 50.00 63.96 66.13 50.98 52.54 50.12 50.63 48.38 50.50 52.91 51.53 51.64 49.32 48.16 48.14 46.90 46.64 46.22 48.49 50.88 50.36 46.28 47.14 45.53 41.96 42.42 46.86 48.39 46.91 44.65 44.25 39.49 36.04 39.76
52.06 52.41 52.27 51.15 51.11 50.46 50.66 50.68 50.93 51.54 52.20 61.73 54.75 56.70 63.10 63.16 49.07 52.83 51.80 50.30 51.41 50.20 50.36 50.34 49.46 50.92 51.69 48.74 45.20 47.97 48.18 50.69 51.00 50.48 47.45 47.87 45.32 39.52 40.41 44.49 47.15 43.42 45.29 44.73 43.67 41.20 35.49
51.72 51.88 52.00 51.12 51.09 50.46 50.57 50.71 51.21 51.73 52.96 58.70 57.79 51.85 54.58 56.49 57.08 51.72 50.00 49.01 48.60 52.95 51.46 51.85 50.88 51.72 50.14 48.36 49.99 47.08 47.26 49.73 51.38 49.71 46.37 48.77 45.25 41.38 37.25 39.98 43.12 40.43 42.37 43.85 42.42 37.05 37.06
51.60 51.92 51.51 50.65 50.72 50.34 50.51 50.89 51.34 51.77 52.43 58.44 58.34 53.66 53.97 49.07 51.62 52.41 51.87 50.36 48.55 47.42 51.69 52.22 49.79 49.80 48.93 45.89 47.05 46.65 48.74 48.26 49.77 46.02 48.90 48.81 41.84 43.57 43.44 43.12 42.87 41.82 41.44 42.15 40.58 41.26 36.13
51.65 51.45 50.83 50.48 50.49 50.82 50.31 51.18 51.42 51.49 51.52 58.85 55.68 54.15 55.98 54.01 53.78 52.08 48.40 49.75 49.01 49.18 49.95 48.47 48.37 50.08 50.43 47.50 47.41 45.96 47.93 47.59 46.53 48.49 48.07 48.67 42.19 42.48 39.47 42.81 41.98 39.24 41.35 41.87 42.07 42.07 41.76
51.58 50.99 50.68 50.72 50.12 50.24 50.57 51.12 50.96 51.27 53.07 60.82 59.84 60.51 56.97 49.35 52.50 52.14 50.48 50.26 49.98 51.45 51.33 52.41 51.47 50.43 47.96 49.68 51.60 51.59 51.79 50.89 49.64 47.82 46.39 45.85 44.45 39.95 35.96 39.57 38.75 36.23 40.91 41.81 42.44 43.61 42.76
51.42 50.86 50.35 51.61 50.15 50.61 51.11 50.78 50.75 51.27 52.49 62.54 61.41 59.72 56.49 50.27 52.28 50.62 51.41 51.68 50.67 51.08 49.35 51.81 52.73 50.28 51.98 54.10 53.13 51.96 50.44 49.36 49.08 48.53 49.45 43.89 41.92 39.43 35.09 35.61 29.78 41.66 45.67 45.28 42.94 43.71 44.63
50.62 49.73 50.28 52.15 49.89 52.01 51.44 50.94 50.74 51.06 52.53 62.15 61.07 60.07 55.00 40.45 52.50 51.46 51.44 50.88 52.18 52.21 51.26 51.05 51.91 53.85 55.34 52.32 48.27 40.47 41.07 38.12 41.94 46.11 46.09 48.15 43.27 36.48 35.00 34.15 37.57 40.81 43.61 42.47 40.33 39.78 45.61
49.52 49.79 50.36 51.51 52.35 52.06 51.45 50.91 50.47 50.84 51.91 61.70 60.07 61.85 59.04 46.76 51.74 53.32 51.35 52.24 50.46 50.42 49.96 49.56 53.40 56.05 54.34 51.13 44.24 37.40 37.87 40.20 38.86 40.58 45.52 45.47 46.38 41.06 35.48 30.18 28.75 41.09 45.06 47.00 45.69 35.51 46.30
49.92 49.70 51.77 52.28 52.37 51.84 51.63 50.92 49.31 50.46 51.61 60.01 59.71 62.46 60.13 55.45 54.70 55.22 52.53 51.95 53.95 52.55 49.85 50.28 50.20 50.41 53.71 45.38 36.82 41.17 40.30 42.78 37.52 35.40 34.73 36.04 38.10 36.37 34.24 31.77 36.21 44.06 46.30 47.02 34.12 37.37 45.75
50.18 50.85 51.38 51.94 52.09 51.96 51.53 50.99 49.36 50.81 51.35 57.61 59.65 62.19 60.13 54.55 54.34 56.15 55.78 53.96 53.56 54.27 49.88 51.72 49.82 51.47 51.18 38.09 39.91 42.57 38.08 42.75 41.43 42.67 37.71 35.27 34.62 32.78 34.93 32.78 29.64 46.87 45.47 38.23 44.07 47.15 45.95
49.87 50.23 50.54 51.03 51.65 52.14 51.96 51.43 50.98 51.02 51.16 52.92 58.52 61.17 62.61 57.92 55.34 59.01 57.49 57.82 56.40 56.42 54.45 53.93 50.76 50.68 51.14 46.01 44.32 44.87 35.66 37.06 39.20 38.53 45.24 39.15 42.60 40.59 39.46 38.71 46.98 47.90 46.85 48.06 47.72 45.15 44.07

GFSGBSN_sfc_wetblb_027.txt.gz
Wetbulb
56.53 56.19 56.71 56.93 57.60 57.73 57.41 58.32 57.92 57.36 57.23 56.44 56.19 56.85 57.18 56.84 56.94 57.01 56.44 55.18 55.97 56.29 56.60 56.83 57.24 57.43 55.69 54.21 53.50 56.96 63.24 62.74 60.13 57.33 56.38 55.67 51.81 48.27 45.70 45.66 45.68 43.36 44.00 45.68 46.09 46.81 46.22
56.54 56.83 57.17 57.48 57.40 56.96 57.40 58.12 57.57 57.08 56.81 56.89 56.47 56.37 56.25 56.25 56.20 56.50 56.10 55.03 55.64 56.11 56.31 56.68 57.14 57.15 54.93 49.54 58.23 56.84 56.14 57.03 57.32 56.82 55.98 55.00 51.45 50.63 48.24 47.10 45.37 46.18 45.09 44.80 44.31 45.47 46.76
56.61 56.95 57.22 57.01 57.19 56.86 57.39 57.20 57.10 57.15 57.03 56.81 56.39 56.07 55.79 55.93 56.11 56.19 56.47 56.11 55.68 55.48 56.31 56.81 57.13 56.72 55.97 55.39 55.25 54.51 56.14 54.78 55.16 55.27 53.89 53.91 53.21 51.02 49.75 47.77 49.63 47.77 44.33 45.22 45.31 46.26 45.32
56.63 56.69 56.91 56.93 56.57 56.70 57.02 56.85 57.05 57.15 56.89 56.61 56.45 55.89 55.44 55.26 55.34 55.66 55.69 55.62 55.48 55.89 56.26 56.55 56.99 55.60 53.06 59.40 54.13 55.83 54.63 54.26 55.92 56.44 56.26 55.47 55.27 52.76 51.03 49.13 47.87 44.66 43.86 39.83 45.43 46.95 46.90
56.81 56.78 56.72 56.86 56.25 56.86 56.81 56.95 56.97 56.87 56.39 56.03 56.09 55.67 55.26 54.71 54.61 54.85 54.89 54.77 55.04 55.77 56.17 56.33 54.33 55.05 52.00 57.74 53.30 54.32 53.50 54.23 55.68 55.85 56.08 56.14 53.22 50.11 48.77 43.44 40.57 41.63 37.69 41.02 43.31 47.73 46.81
56.56 56.69 56.66 56.19 56.61 57.04 57.16 57.08 56.83 56.29 55.65 55.77 55.66 55.39 55.08 54.96 54.69 54.30 54.20 54.73 55.39 54.98 55.70 57.41 57.87 51.80 56.19 52.11 53.48 53.41 53.32 56.37 54.24 54.63 53.68 51.59 48.94 45.01 43.76 41.37 36.04 38.77 39.97 43.26 40.88 43.00 43.11
56.50 56.33 56.23 55.67 56.61 57.34 57.43 57.21 56.53 55.58 55.40 55.76 55.38 55.55 55.16 54.80 54.76 54.30 51.91 51.77 51.34 51.42 54.24 50.97 51.47 53.06 51.71 52.44 53.58 52.34 54.14 54.29 53.45 51.85 45.97 48.94 43.57 40.17 40.84 43.46 44.44 43.38 42.26 40.52 41.90 45.34 42.53
56.49 55.87 55.51 55.51 56.68 57.09 57.01 56.87 55.91 55.52 55.42 55.61 55.56 55.30 54.97 54.93 54.87 54.63 52.19 54.44 55.57 54.21 47.65 55.36 53.84 52.92 54.46 53.97 50.06 52.20 55.17 50.63 50.15 45.78 48.30 44.71 41.22 45.68 47.31 46.57 45.46 44.48 42.85 41.90 43.30 46.13 43.75
55.83 55.38 54.65 55.20 56.22 56.69 56.33 56.14 55.64 55.38 55.31 55.49 55.50 55.35 54.81 54.32 54.33 52.65 54.28 57.29 60.55 59.77 46.39 50.50 53.43 51.52 53.48 54.20 50.80 49.40 52.98 51.37 48.15 46.25 45.79 42.53 44.96 48.96 47.41 46.25 44.77 44.41 42.48 41.83 41.82 44.42 43.81
55.57 54.91 53.89 55.03 55.80 56.03 55.65 55.32 55.16 55.26 55.45 55.47 55.38 54.82 54.39 53.64 52.71 57.07 54.24 59.68 61.38 60.04 40.46 45.73 49.01 50.89 53.13 53.22 49.25 52.90 52.88 51.28 48.17 45.50 46.01 44.84 48.05 47.42 46.10 45.43 44.97 41.92 47.06 45.82 44.01 40.67 35.20
55.08 54.64 53.54 54.62 55.26 54.69 54.49 54.53 54.55 54.77 55.15 55.58 55.19 55.36 53.40 54.52 53.72 56.56 58.48 61.29 60.64 56.96 27.99 46.65 49.17 52.39 51.26 50.81 49.84 50.38 51.70 51.32 46.72 46.32 46.40 43.73 44.91 45.70 45.52 45.29 46.61 44.23 47.17 45.07 44.20 40.16 37.65
54.47 53.76 53.79 54.54 54.61 54.37 54.21 54.01 53.73 54.12 54.80 55.13 55.36 54.99 53.41 54.04 53.85 60.13 62.30 61.91 57.00 42.38 29.90 45.95 49.29 48.75 47.08 49.98 50.62 50.31 50.50 52.36 51.74 47.26 46.61 45.39 48.85 47.09 45.77 48.30 47.77 47.82 45.91 45.21 43.94 40.37 31.19
54.22 52.92 54.27 54.49 54.35 54.31 54.01 52.43 52.11 53.64 54.08 54.86 54.59 54.27 54.44 59.59 56.98 61.46 61.40 56.50 38.79 33.90 47.86 43.15 45.12 48.47 47.50 46.59 48.01 48.60 47.06 45.39 43.23 39.49 39.91 44.75 45.57 47.43 48.94 44.80 47.45 45.43 40.89 31.59 30.50 29.56 29.59
53.69 52.54 53.99 54.37 54.23 53.93 52.61 51.50 51.03 52.55 53.88 55.15 54.47 54.04 58.25 62.82 63.11 62.36 58.88 47.43 34.84 45.27 43.81 47.38 47.22 47.82 45.00 47.06 46.59 47.62 45.62 42.32 46.17 46.07 42.30 39.22 36.46 44.30 48.41 45.04 42.12 43.03 41.17 30.27 27.38 26.97 30.76
53.32 52.91 53.57 53.82 52.06 52.60 50.93 51.20 50.95 52.34 53.47 54.55 54.87 58.99 59.89 61.24 63.02 60.29 51.92 38.91 40.56 44.96 47.44 46.04 46.57 43.87 43.71 47.23 46.47 46.26 43.76 42.99 44.13 45.35 40.82 40.11 39.66 46.44 47.44 47.22 45.89 42.25 37.66 42.33 35.12 31.84 27.77
53.14 53.30 53.59 52.61 50.62 51.49 50.22 51.04 51.17 52.18 53.05 54.63 55.87 56.70 56.91 61.66 62.33 57.53 47.58 42.56 46.65 49.22 49.06 47.96 42.55 45.05 41.07 43.44 43.75 44.21 43.96 46.76 45.29 47.00 46.99 43.50 37.98 44.88 46.45 46.84 47.94 44.01 45.02 34.79 34.88 26.40 26.39
53.05 53.36 53.34 51.57 50.48 50.66 50.02 50.93 50.88 51.70 52.71 54.02 56.52 48.98 57.92 62.37 59.62 49.84 40.94 45.45 48.55 50.55 51.17 47.94 45.64 44.47 45.50 43.34 44.58 43.94 44.07 46.49 48.24 47.22 46.19 43.60 41.34 40.16 43.80 41.62 39.76 41.02 39.77 40.52 39.42 33.14 26.29
52.75 52.67 52.23 51.13 51.02 50.52 50.00 50.85 50.93 50.93 52.84 54.58 54.56 44.17 59.31 60.80 44.44 45.81 42.82 49.45 46.98 48.80 51.44 50.57 49.57 47.53 46.06 45.45 44.60 44.19 43.83 45.75 48.81 48.11 43.11 43.59 40.47 31.07 39.19 44.08 45.65 42.92 41.48 41.30 29.13 30.80 29.52
52.17 52.22 51.89 51.44 51.12 50.26 49.99 50.46 50.54 51.33 52.38 56.58 50.28 51.51 59.05 58.65 37.95 38.92 48.09 49.61 49.92 48.32 48.49 48.86 47.74 49.34 48.93 45.86 41.40 45.51 45.35 49.00 49.52 46.88 43.63 44.21 38.60 29.76 35.12 40.38 44.06 40.33 42.54 42.92 39.84 32.36 29.38
51.55 51.63 51.81 51.17 50.90 50.15 50.08 50.18 50.71 51.71 52.67 54.87 52.64 43.50 50.27 51.79 50.97 47.45 46.83 46.13 46.91 50.82 50.04 50.45 48.86 49.34 47.04 44.98 47.34 43.84 44.54 48.74 48.94 46.75 45.40 45.98 41.78 35.27 29.50 35.31 38.45 35.95 39.23 40.20 38.06 28.17 29.61
51.27 51.51 51.27 50.32 49.97 50.05 50.31 50.17 51.48 51.78 52.18 54.89 53.57 47.69 48.00 40.17 43.47 46.63 48.11 47.72 46.43 45.85 49.97 50.17 47.36 47.76 46.10 39.59 43.36 43.19 45.60 46.17 47.91 45.76 46.20 44.12 36.32 39.30 40.00 40.00 39.97 38.63 38.11 38.51 36.98 36.51 29.87
51.21 51.44 50.69 49.99 49.55 50.16 50.15 51.16 51.21 51.30 51.26 53.92 52.14 50.84 48.96 45.62 46.94 46.39 45.22 46.02 46.59 47.62 47.59 46.37 45.63 47.67 47.20 43.18 44.02 42.16 45.26 44.01 43.28 44.92 44.19 44.80 33.69 33.84 32.65 39.56 38.88 35.50 37.76 38.62 38.87 39.14 37.89
51.40 50.97 50.37 50.28 49.46 50.15 50.66 51.20 50.76 51.17 52.61 54.04 54.67 55.14 52.15 46.25 43.83 43.64 44.31 47.29 48.19 48.76 48.98 50.62 48.19 45.55 41.74 45.56 46.65 46.50 46.61 45.86 46.35 43.85 42.03 41.17 33.82 30.00 27.89 35.57 33.58 27.91 35.32 39.15 39.55 40.24 38.42
51.12 50.72 50.18 50.66 49.88 51.06 51.63 51.06 50.61 51.01 52.65 58.05 56.24 55.40 46.52 39.42 45.31 46.39 49.41 49.45 48.22 48.44 46.31 49.17 49.35 44.50 48.00 49.84 46.64 45.35 43.55 43.56 45.98 44.21 46.90 36.45 34.17 30.22 23.76 26.97 17.62 37.96 42.59 41.88 40.07 40.69 41.24
50.56 50.32 50.46 50.94 49.73 51.94 51.19 51.20 50.71 50.83 51.83 57.01 56.43 55.77 46.30 35.89 47.49 48.12 47.99 48.07 48.50 48.82 47.23 47.88 49.41 50.18 50.24 48.24 37.88 32.88 32.41 30.70 36.78 43.28 42.86 44.10 33.35 26.24 27.09 25.74 31.56 37.44 41.26 39.16 36.03 36.41 42.90
49.77 49.33 50.52 50.11 51.74 51.40 50.90 49.78 49.33 50.97 51.82 57.00 55.91 57.21 51.98 41.18 42.37 51.57 47.49 47.76 43.82 43.37 44.53 46.43 50.93 51.45 50.94 38.10 31.31 26.30 27.11 32.78 33.12 37.93 41.42 42.12 36.81 29.58 23.45 22.12 17.27 33.55 42.05 44.58 42.67 28.54 42.60
49.25 49.48 51.43 52.17 51.88 51.28 50.82 48.62 49.78 50.92 51.68 56.95 55.50 57.44 55.99 45.64 49.60 50.95 46.37 45.85 49.39 46.64 42.63 45.33 45.89 44.14 48.46 33.05 32.52 30.52 29.67 38.65 31.45 30.47 28.28 27.87 31.86 27.88 22.28 21.52 28.59 40.05 43.59 44.74 29.01 30.62 42.05
48.82 50.41 51.30 51.65 51.74 51.30 51.00 50.54 50.68 50.74 51.40 55.97 54.39 57.35 55.12 47.31 49.35 53.11 53.30 49.62 49.35 47.75 39.95 45.65 41.52 41.41 36.71 35.65 32.55 31.60 29.85 32.01 32.58 37.30 33.04 28.89 27.04 26.72 29.87 28.32 22.11 43.83 43.03 33.64 37.77 42.28 41.86
50.02 50.39 50.90 51.27 51.54 52.19 51.16 50.80 50.87 51.07 51.50 52.61 53.33 57.41 57.92 52.59 50.68 53.99 53.43 54.53 53.59 52.99 49.18 47.39 43.79 46.34 44.52 37.46 34.18 34.93 32.58 34.74 32.16 27.87 40.32 31.50 34.74 31.20 32.33 30.70 40.01 43.47 42.26 44.35 44.12 41.51 41.17

GFSGBSN_sfc_wetblb_033.txt.gz
Wetbulb
59.28 58.58 58.03 57.48 57.22 56.99 57.29 57.43 57.43 57.09 57.06 56.82 56.66 56.82 56.96 56.85 57.06 56.98 56.56 55.81 55.98 55.17 55.88 56.04 56.29 56.83 53.69 50.17 49.90 54.83 62.70 62.85 57.84 54.58 51.32 51.03 49.91 48.52 44.59 43.46 42.86 41.28 42.20 43.76 44.05 44.02 42.17
59.11 57.99 57.32 57.01 56.79 56.60 57.31 57.34 56.94 56.82 56.66 56.48 56.34 56.36 56.40 56.48 56.42 56.38 55.90 55.39 55.23 54.42 55.59 56.00 56.23 56.63 50.38 44.15 54.29 55.20 56.82 56.79 55.32 53.66 52.67 52.43 51.00 50.55 46.12 43.94 41.64 43.23 42.42 42.06 43.06 43.81 43.81
58.97 57.49 56.92 56.56 56.71 56.83 56.92 56.55 56.40 56.70 56.58 56.58 56.46 56.16 55.93 56.03 55.89 55.69 55.47 55.21 55.03 55.03 55.53 55.80 56.42 54.91 52.27 49.94 54.81 55.17 54.47 54.65 54.68 53.90 51.96 52.70 52.84 48.73 47.21 43.54 44.94 43.00 40.59 41.37 41.51 41.78 41.54
58.08 57.29 57.00 56.61 56.42 56.42 56.10 55.90 56.38 56.68 56.80 56.68 56.56 56.05 55.35 55.15 55.07 55.07 54.95 54.64 54.56 55.37 55.51 55.92 56.29 53.13 48.70 56.20 55.74 55.98 52.76 51.53 53.36 54.93 53.44 52.74 51.82 49.56 46.16 45.54 44.64 41.81 40.53 36.85 41.18 42.68 42.66
57.59 57.24 57.01 56.77 56.50 56.16 55.68 55.61 56.12 56.56 56.70 56.52 56.08 55.37 54.93 54.40 54.12 54.01 54.05 54.01 54.23 55.07 55.50 55.48 52.03 51.99 46.52 56.74 52.59 52.30 51.47 51.04 53.05 53.31 53.02 53.38 51.08 46.14 45.56 40.51 37.40 38.85 34.82 36.81 40.41 43.22 41.70
57.57 57.00 56.72 56.57 56.38 56.18 55.58 55.94 56.04 56.08 55.97 55.61 55.25 55.11 54.64 54.34 53.93 53.52 53.30 53.97 54.70 54.11 54.13 55.39 54.89 47.86 51.48 49.49 51.86 50.46 50.72 52.96 51.33 51.30 49.85 48.83 45.36 41.43 40.04 38.02 32.62 35.02 36.13 37.65 37.91 40.54 41.34
57.51 56.94 56.90 56.67 56.44 56.25 56.03 56.62 56.16 55.51 55.23 55.23 55.13 55.07 54.52 53.97 53.85 53.48 51.45 49.08 47.48 47.22 50.58 45.52 46.70 49.27 51.50 52.22 51.02 48.76 50.54 51.30 50.73 48.44 42.74 45.78 40.81 37.05 37.46 39.69 41.11 40.04 37.31 36.70 37.48 40.98 40.15
56.93 56.64 56.94 56.85 56.67 55.77 56.38 56.77 55.87 55.19 54.80 55.13 54.84 54.56 54.42 54.19 54.11 53.74 50.33 49.16 50.17 52.05 44.76 51.59 52.47 52.17 53.42 53.30 47.45 48.51 51.82 47.23 46.56 41.87 44.88 42.09 38.58 42.19 44.77 44.67 42.86 41.70 38.53 37.09 40.07 42.81 40.86
56.13 56.07 56.59 56.73 56.37 55.51 56.42 56.61 55.49 54.82 54.62 54.50 54.36 54.30 54.12 53.84 53.74 51.32 50.07 52.02 56.66 54.49 46.55 48.72 49.97 49.20 50.33 51.41 46.77 46.02 49.90 48.00 44.78 42.89 42.03 39.22 41.59 46.02 44.66 42.87 42.72 41.00 38.63 37.96 38.53 40.45 41.01
55.50 55.25 55.78 55.92 55.63 55.18 55.80 55.76 55.13 54.82 54.42 54.30 53.88 53.84 53.09 53.06 50.30 51.04 48.36 53.67 57.07 53.29 37.73 42.32 45.96 48.33 49.96 50.12 45.83 49.35 49.66 47.95 45.68 42.16 42.23 41.56 45.59 44.65 43.07 41.87 41.72 38.35 42.89 41.90 40.00 36.60 32.36
55.11 54.80 54.88 54.88 54.21 54.09 54.29 54.23 54.40 54.42 54.20 54.23 53.86 53.68 52.87 52.78 51.12 53.26 55.60 59.76 56.98 51.65 25.98 42.56 45.76 49.87 48.07 47.42 46.44 46.33 48.88 48.72 42.83 42.79 42.81 40.14 42.08 42.54 41.68 41.50 42.65 40.70 42.99 41.02 40.29 35.95 34.13
54.76 54.54 54.34 54.23 53.12 53.48 53.75 53.67 53.33 52.12 53.57 53.74 53.50 53.48 52.57 51.66 49.75 54.27 58.79 55.65 51.54 37.93 26.55 40.87 46.24 44.28 44.61 46.19 45.75 46.40 47.55 50.07 47.86 44.08 43.45 42.39 44.87 43.52 42.41 44.36 43.79 44.25 42.42 41.15 39.25 36.44 29.06
54.21 54.13 54.07 53.33 52.86 53.58 53.71 53.15 51.08 50.62 52.44 53.11 53.07 53.32 52.09 55.81 55.14 58.60 56.94 47.75 35.23 30.66 43.33 39.85 41.89 43.64 43.32 42.51 43.93 43.88 43.85 42.36 40.50 36.60 36.41 41.64 41.88 43.69 45.11 41.60 43.59 42.37 37.66 28.81 28.54 27.18 27.68
53.78 53.54 53.40 52.71 53.27 53.53 53.08 51.43 50.82 49.98 51.76 53.44 52.69 52.34 52.32 54.33 59.78 57.33 50.12 41.08 32.17 40.88 39.91 43.66 43.70 42.75 41.16 43.22 43.00 43.50 41.69 39.43 42.46 41.28 37.29 35.67 33.62 40.97 44.57 41.36 38.97 39.04 37.91 28.27 27.83 24.88 27.59
53.68 53.21 52.78 52.82 53.24 52.55 51.42 50.66 50.27 49.62 52.26 52.96 52.41 51.52 56.03 57.70 58.84 53.75 44.97 32.99 36.43 40.77 43.51 42.70 43.36 40.01 40.05 43.10 43.17 42.17 39.42 39.21 40.43 41.67 37.71 35.92 36.13 42.94 43.17 43.61 42.68 39.25 34.24 38.58 31.65 29.18 25.55
53.64 52.99 52.03 52.78 51.22 51.06 50.54 50.17 50.15 50.36 52.69 52.83 53.74 53.01 52.69 57.86 56.29 51.52 42.70 38.04 43.22 46.43 45.50 44.70 39.12 41.35 37.79 40.26 40.36 40.23 39.81 43.00 41.64 43.09 43.35 41.01 34.87 41.15 42.77 43.65 42.92 39.86 41.93 33.37 30.65 24.49 25.00
53.07 52.24 52.48 51.63 49.93 50.17 50.24 49.93 50.17 50.18 52.53 52.80 51.63 44.71 50.25 58.48 49.74 43.97 35.96 40.55 46.66 47.39 47.94 43.59 41.58 40.42 40.86 39.78 40.68 39.54 40.02 43.01 44.04 43.87 43.14 40.94 37.13 36.42 41.16 37.98 36.31 38.13 36.17 35.67 35.04 29.66 24.80
52.05 51.69 51.93 50.67 50.38 49.92 50.03 49.94 50.18 50.85 52.08 52.52 47.76 40.42 53.86 49.27 39.52 39.48 39.96 45.34 46.35 45.32 48.14 46.99 45.94 44.18 41.49 41.63 40.96 40.20 40.16 42.01 45.93 44.76 38.73 40.54 35.82 29.43 35.37 40.60 41.79 38.87 37.40 35.93 25.98 28.45 26.56
51.35 51.72 51.39 50.87 50.29 49.67 49.67 50.23 49.91 50.81 52.20 51.56 46.11 49.53 55.75 46.86 32.50 33.55 41.52 45.75 46.40 44.73 44.68 44.95 44.04 45.68 45.05 42.32 38.90 41.48 41.85 45.52 44.38 43.53 40.31 40.22 34.56 27.75 32.41 37.36 39.95 36.75 38.53 37.48 33.81 29.77 27.94
51.21 51.08 50.71 50.91 49.96 49.60 49.67 49.87 49.97 50.33 52.06 52.05 47.37 41.32 45.96 48.12 41.82 40.38 41.12 42.88 43.02 47.10 46.18 46.35 45.06 46.07 43.61 41.77 43.51 40.17 41.39 44.79 44.11 42.70 44.29 43.38 37.08 32.02 28.13 31.70 34.98 31.84 34.91 36.89 34.37 26.18 27.78
50.97 50.74 50.45 50.37 49.82 49.57 49.56 49.42 49.74 50.00 51.53 51.84 48.06 42.55 43.87 37.95 41.37 43.82 43.52 43.91 42.70 41.84 46.04 46.10 43.83 44.02 42.54 37.83 39.69 39.59 42.28 42.77 43.76 43.96 42.63 40.37 33.58 35.24 34.65 35.33 35.10 34.00 34.30 35.14 33.96 32.93 29.01
50.79 50.29 49.63 49.48 49.36 49.37 49.15 49.97 51.06 51.22 51.20 50.40 48.21 44.40 43.84 39.60 42.37 43.53 41.65 43.19 43.22 43.91 44.02 42.79 42.40 43.96 42.98 40.04 41.21 39.52 41.88 39.81 38.00 41.07 40.07 40.45 31.40 32.43 30.29 35.18 34.68 31.66 34.02 33.86 33.79 34.00 34.27
50.54 49.96 48.99 49.36 49.52 49.41 50.15 50.90 50.92 50.89 52.17 49.15 49.96 50.39 45.69 40.34 38.97 39.07 40.28 43.62 44.68 45.70 45.80 46.35 44.95 41.57 38.59 41.75 43.07 42.77 43.00 43.49 43.06 40.54 38.90 36.03 31.05 27.33 23.78 30.59 28.79 24.08 31.31 35.44 35.76 36.27 35.26
50.29 49.15 49.68 49.72 50.06 50.44 50.67 50.09 50.25 50.70 51.40 54.74 53.10 49.23 43.15 36.31 37.61 40.32 45.04 45.44 44.90 44.99 43.76 45.58 45.06 41.62 44.56 45.31 41.89 41.61 40.09 41.55 42.78 41.31 41.67 33.35 29.94 24.71 20.50 23.03 16.10 31.92 37.32 38.09 36.27 37.50 37.58
49.44 49.43 50.08 50.31 50.39 50.56 47.65 47.85 48.00 49.96 51.61 56.46 53.33 49.47 42.08 33.35 41.56 43.43 45.25 44.76 45.03 45.11 44.07 44.81 46.39 45.85 46.19 40.69 32.90 31.44 29.74 31.29 34.42 39.67 38.95 38.28 29.56 25.12 19.56 22.00 27.14 32.92 36.89 36.76 34.76 34.01 39.19
49.18 50.02 50.42 50.40 51.67 47.33 47.82 48.94 49.85 50.59 51.72 55.45 53.66 50.87 45.83 41.29 41.71 47.03 44.49 44.49 40.80 39.66 40.99 43.33 47.76 47.67 42.79 31.29 28.73 24.94 24.36 28.84 30.23 34.96 38.84 36.23 30.72 25.97 24.32 15.62 15.09 29.70 37.55 40.66 38.94 29.47 40.24
49.09 50.16 50.58 50.70 51.28 47.82 48.79 49.90 50.06 51.03 52.76 53.29 53.21 53.15 48.86 42.82 46.15 46.93 43.21 43.12 44.21 41.40 39.11 41.90 42.63 41.33 40.76 27.29 23.55 24.46 27.73 33.27 29.03 27.96 26.27 27.18 24.19 22.68 15.68 15.98 25.71 34.21 39.74 40.74 29.16 28.99 40.06
49.47 49.95 50.03 50.10 50.89 48.97 48.11 48.59 49.82 50.75 52.68 53.33 52.30 53.16 50.15 44.26 47.27 49.44 49.81 46.03 44.88 42.66 38.02 42.05 39.72 38.31 32.57 28.53 25.69 27.04 22.13 29.88 29.88 33.09 30.96 29.31 26.13 25.54 21.81 18.16 22.62 37.92 38.43 33.37 36.36 38.08 40.87
49.51 49.75 49.74 49.63 46.66 48.57 48.21 48.75 49.26 50.33 52.09 52.24 51.45 54.45 53.11 49.15 47.96 50.55 50.67 50.85 49.80 47.17 45.17 41.76 41.52 40.19 39.21 32.33 29.16 31.65 25.39 32.27 27.61 25.78 35.58 28.50 31.26 29.63 31.15 30.67 37.06 38.71 38.41 39.70 41.12 40.28 39.45

GFSGBSN_sfc_wetblb_036.txt.gz
Wetbulb
59.66 59.30 58.94 58.54 58.10 57.58 57.10 57.16 57.27 57.07 56.89 56.77 56.74 56.70 56.89 56.89 56.52 56.97 56.56 56.08 56.08 56.20 55.34 55.89 56.15 56.50 52.30 48.80 48.42 56.27 62.86 61.93 54.56 52.44 50.06 49.59 48.03 47.01 43.82 42.63 42.47 40.14 42.05 42.86 43.16 43.07 44.40
59.26 58.75 58.58 58.14 57.71 57.28 56.78 56.99 57.20 56.75 56.31 56.40 56.40 56.30 56.40 56.42 56.54 56.48 56.16 55.48 55.11 55.34 54.59 55.64 56.03 56.49 49.58 43.05 52.20 56.91 57.41 54.92 53.50 52.12 50.81 50.22 49.47 49.80 45.52 43.38 41.91 43.09 42.23 41.71 41.58 41.73 42.27
59.38 58.89 58.38 57.56 56.97 56.71 56.61 56.56 56.55 56.41 56.15 56.48 56.38 56.30 56.08 56.12 56.08 55.90 55.74 55.13 54.91 54.91 55.27 55.52 56.02 54.46 50.88 49.37 53.35 53.84 54.25 54.61 53.87 53.19 50.33 51.62 51.54 47.92 46.27 43.82 43.59 41.82 39.64 42.07 42.14 41.65 41.58
59.14 58.73 58.56 57.11 56.34 56.09 56.06 56.24 56.20 56.01 56.37 56.48 56.66 56.24 55.38 55.24 55.16 55.09 54.97 54.63 54.39 54.97 55.52 55.72 56.00 52.20 47.37 54.93 54.32 55.40 53.08 50.91 53.83 53.71 52.16 51.96 52.52 49.18 45.56 45.10 43.86 40.75 39.35 35.65 39.93 41.56 41.36
58.47 58.39 58.18 56.97 56.29 55.98 55.82 55.72 55.70 55.99 56.49 56.38 56.20 55.70 54.79 54.37 54.25 54.04 54.00 53.84 54.18 54.81 55.24 55.40 50.46 50.44 46.43 55.39 52.16 52.75 51.36 50.46 51.75 51.76 51.57 52.60 50.33 45.66 44.09 39.65 37.28 38.08 35.09 35.14 38.27 41.50 40.62
58.63 58.17 57.62 56.97 56.52 56.23 56.12 55.76 55.21 55.48 55.98 55.70 55.64 55.32 54.67 54.22 54.00 53.60 53.11 53.89 54.58 53.79 53.69 54.70 54.28 46.80 49.14 47.63 52.22 50.44 49.79 51.20 50.29 50.31 48.66 48.25 44.08 41.37 39.74 37.94 32.52 34.56 34.63 36.21 35.81 38.70 40.79
58.58 58.05 57.34 56.93 56.60 56.51 56.31 56.17 55.42 55.44 55.44 55.48 55.32 55.03 54.59 54.26 53.88 53.37 51.43 48.42 46.27 45.41 49.16 45.60 46.23 46.33 49.97 52.79 50.51 47.60 49.22 50.21 49.43 47.68 42.51 44.68 40.62 36.69 39.03 38.70 39.00 38.14 36.06 34.94 36.01 39.66 38.58
57.96 57.56 57.30 56.85 56.69 56.54 56.52 56.28 55.54 55.36 55.25 54.97 54.91 54.63 54.34 54.14 53.87 53.67 49.17 46.56 47.46 49.39 44.97 50.17 50.09 50.59 52.21 51.87 46.98 47.49 50.79 46.11 45.61 41.29 43.79 41.47 37.18 40.64 43.39 42.39 41.37 39.41 36.82 35.48 38.07 40.70 40.17
57.06 56.80 56.79 56.71 56.69 56.62 56.54 55.94 55.76 55.27 54.75 54.41 54.39 54.24 54.16 53.61 53.51 50.83 47.55 50.26 55.56 53.22 45.66 47.73 49.98 48.24 47.98 51.27 46.14 45.12 48.89 46.99 43.48 41.33 40.49 38.49 39.93 44.36 43.50 41.91 41.36 39.48 37.54 36.11 36.90 38.72 39.77
56.57 55.87 56.05 56.34 56.48 56.33 55.97 55.39 55.90 55.23 54.38 54.12 54.02 53.57 53.02 52.79 49.21 48.91 47.67 51.96 56.60 51.82 37.07 41.21 45.17 47.78 48.87 49.01 44.97 48.21 48.29 46.85 44.16 40.47 41.03 40.68 43.94 42.89 41.51 40.62 40.43 36.54 41.06 40.00 38.23 34.90 32.00
56.25 55.62 55.19 55.50 55.66 55.11 54.34 54.42 54.99 54.85 54.29 53.98 53.80 53.55 52.76 52.57 48.78 51.24 52.84 58.84 56.84 48.95 25.60 42.25 44.55 48.47 47.02 45.55 44.99 45.20 48.18 47.33 41.68 41.47 41.23 38.93 40.38 41.11 40.35 39.66 41.13 39.09 42.14 40.17 38.32 35.21 32.72
56.08 55.26 54.99 54.85 54.59 54.10 53.44 53.53 53.98 53.68 52.37 53.52 53.51 53.41 52.75 51.03 48.76 53.20 57.25 52.86 49.07 37.25 27.84 39.96 44.72 43.17 43.39 44.59 44.16 44.75 47.17 48.99 45.96 43.17 42.58 40.84 43.22 42.14 40.71 42.75 42.45 42.79 41.26 39.66 37.70 35.08 28.41
55.38 54.93 54.56 54.44 53.98 53.53 53.11 53.47 53.60 51.53 50.57 52.91 52.92 53.19 52.12 52.65 52.75 57.16 53.99 46.45 35.48 29.78 41.88 38.16 39.91 42.42 42.24 40.86 42.44 43.15 42.62 41.18 38.60 36.04 35.55 40.49 40.49 42.73 43.62 40.41 41.83 40.93 36.58 28.21 27.78 26.46 27.12
54.59 54.55 54.20 53.88 53.51 52.83 52.93 53.47 52.32 50.45 50.05 52.09 52.30 52.22 51.79 52.94 56.11 55.54 47.94 40.16 30.21 38.52 38.68 41.56 41.29 41.24 39.71 41.52 41.40 41.97 40.28 38.30 41.26 39.20 36.04 34.33 32.66 39.43 43.12 40.01 38.22 37.57 36.36 29.26 27.17 24.90 27.40
51.12 54.31 53.63 53.38 52.99 52.64 53.04 52.96 50.94 50.39 49.39 52.27 52.03 49.89 52.22 56.46 53.96 51.37 43.21 31.35 33.46 38.68 41.90 41.19 41.23 38.45 37.97 41.16 41.49 40.39 37.86 37.98 39.01 39.85 36.93 34.36 34.61 41.07 41.81 42.27 41.15 37.72 32.79 36.68 30.83 28.38 24.92
51.24 53.97 53.28 52.83 52.31 52.34 52.72 51.22 50.27 49.99 51.28 52.21 51.41 50.99 52.37 56.66 54.52 49.56 39.19 35.33 40.66 45.79 43.69 42.55 36.86 39.57 36.00 38.51 38.57 38.47 37.98 41.29 39.87 41.21 41.87 39.59 34.03 39.19 40.95 42.30 41.87 38.23 40.69 32.35 29.66 23.57 24.10
52.62 53.57 52.92 52.19 51.85 51.58 51.10 50.18 50.18 49.87 51.95 52.24 48.55 45.96 49.88 55.02 48.65 42.92 34.02 37.01 44.79 48.26 46.14 42.20 40.17 38.74 39.07 38.28 39.05 37.87 38.38 41.15 42.28 42.31 42.29 39.10 36.06 35.30 39.27 36.36 35.39 36.99 34.96 33.86 33.56 28.63 23.78
52.99 52.65 52.01 51.72 51.50 50.63 50.00 49.93 50.08 49.91 52.02 51.73 44.69 39.90 53.31 47.98 39.74 38.32 38.42 43.55 45.84 44.14 45.88 45.41 44.40 41.81 39.74 39.86 39.21 38.60 38.98 40.70 43.92 43.15 38.03 39.01 34.92 29.75 33.91 38.39 40.08 37.38 35.96 34.19 25.08 26.98 25.92
52.27 51.64 51.40 51.17 50.35 49.94 49.51 49.83 50.07 50.20 52.38 50.46 46.59 48.66 54.16 46.42 33.84 33.35 39.94 43.63 45.00 43.13 43.42 43.38 42.59 43.87 43.50 40.82 37.54 39.57 40.42 43.86 42.71 41.63 39.22 39.39 33.54 27.81 31.63 35.26 37.95 35.20 36.82 35.19 32.02 29.29 27.26
51.35 51.06 51.22 50.84 49.89 49.49 49.45 49.80 49.90 50.45 52.06 50.27 47.01 41.75 45.62 45.52 40.51 38.88 39.43 40.62 41.50 45.48 44.59 44.94 43.75 44.58 42.30 40.22 41.92 39.14 40.10 42.98 42.56 41.50 44.31 42.10 35.28 31.65 28.53 30.23 33.62 31.15 34.54 35.08 33.33 25.57 27.14
50.98 50.94 50.87 50.50 49.33 49.31 49.71 50.04 49.99 50.51 51.45 51.05 45.90 41.82 44.50 38.73 40.87 38.00 41.51 42.18 41.56 40.47 44.41 44.93 42.52 42.93 41.02 37.09 38.15 37.88 40.82 41.11 41.76 43.36 41.51 38.52 32.64 33.27 32.57 33.42 33.29 32.19 32.40 34.14 32.88 31.76 28.79
50.79 50.63 50.10 49.61 49.15 49.17 49.67 49.84 49.58 50.21 51.35 49.86 47.36 42.41 40.93 38.90 43.82 41.55 39.65 41.39 41.79 42.34 42.87 41.06 41.48 41.89 41.38 39.01 40.12 38.58 40.63 38.65 36.51 40.27 38.42 38.79 31.20 31.54 30.28 33.09 33.01 31.20 32.66 32.67 32.85 31.79 32.53
50.67 50.17 49.29 48.63 48.81 49.24 49.49 49.23 49.99 50.70 51.28 48.35 48.74 48.46 43.98 38.53 38.87 38.66 39.52 42.24 43.12 44.83 44.19 44.33 43.36 40.86 37.97 40.77 42.12 42.01 41.64 41.50 40.67 39.22 37.07 34.48 30.58 28.00 25.06 28.69 27.35 23.56 30.50 32.17 32.76 34.29 33.52
50.06 49.06 48.56 48.63 48.99 49.19 50.35 50.53 50.42 50.97 51.38 51.69 50.78 48.19 42.38 33.53 35.63 40.63 43.14 43.75 43.26 43.26 42.79 43.79 43.41 40.05 41.96 43.07 41.73 40.85 39.53 40.97 41.48 39.90 39.20 31.83 28.99 23.54 19.70 21.89 15.76 30.58 35.37 35.29 34.64 35.23 35.98
48.48 48.57 49.07 49.24 49.81 49.65 49.47 49.60 49.94 50.68 50.85 53.49 52.03 48.28 41.62 32.11 37.11 40.12 43.19 43.47 43.54 43.65 42.70 43.58 44.86 44.06 43.83 38.68 33.30 32.45 29.72 32.01 33.50 37.81 35.61 35.56 28.55 22.69 19.31 20.54 26.85 31.67 34.84 35.07 33.91 33.39 38.41
48.36 48.97 49.17 49.45 47.67 47.54 48.25 48.57 48.86 50.35 50.91 53.82 52.22 49.36 45.91 39.11 39.25 44.48 43.12 42.79 39.61 38.56 39.74 41.80 46.29 44.74 40.57 30.20 28.88 25.20 25.40 30.05 29.37 33.81 37.46 34.34 30.12 26.41 20.00 15.76 14.49 29.45 35.32 38.94 37.76 28.92 37.61
49.01 49.32 49.60 48.27 47.56 48.32 49.53 49.71 49.88 50.62 51.85 54.24 53.43 50.99 47.79 42.48 44.76 44.79 42.04 42.06 42.76 40.29 38.31 40.94 42.33 39.80 39.12 26.80 22.77 23.66 25.86 31.13 27.89 26.89 26.38 28.73 25.74 21.20 14.04 14.78 24.48 32.52 37.37 38.95 29.03 29.55 37.90
48.87 50.27 50.33 48.52 47.58 48.27 48.66 49.44 50.27 51.18 51.93 54.91 53.04 52.52 48.65 43.73 46.07 48.13 48.51 44.40 43.40 41.56 37.48 41.36 39.33 37.98 31.84 29.10 26.09 25.56 22.42 29.13 29.35 31.93 31.02 29.61 28.08 28.04 22.08 15.17 21.94 36.29 37.80 32.80 36.11 35.63 38.74
49.29 49.28 48.46 47.96 47.99 48.50 48.59 49.03 50.30 51.67 51.50 54.34 52.89 53.58 51.52 47.95 46.95 49.35 49.56 49.59 48.41 45.69 43.82 40.52 41.30 39.53 38.19 31.22 26.08 27.58 25.83 31.36 27.16 25.52 33.88 28.46 30.98 27.68 29.72 29.72 35.74 36.78 37.29 39.11 39.16 38.51 38.77

GFSGBSN_sfc_wetblb_039.txt.gz
Wetbulb
59.99 59.76 59.35 59.10 58.72 58.36 58.06 57.72 57.15 56.81 56.85 56.64 56.54 56.70 56.91 56.88 56.30 55.86 56.34 56.08 56.06 56.16 56.10 55.38 55.81 56.33 53.77 50.55 50.26 58.90 62.47 62.30 57.12 53.30 52.50 50.84 49.43 49.31 47.33 47.32 45.92 44.85 44.52 44.48 45.12 46.50 49.59
59.70 59.29 59.03 58.72 58.59 58.53 58.11 57.68 56.83 56.61 56.58 56.42 56.00 56.32 56.36 56.58 56.70 56.62 56.34 55.72 55.37 55.29 55.54 54.93 55.84 56.37 51.35 44.96 53.91 59.93 57.17 54.73 54.44 53.20 51.97 52.10 50.81 51.59 49.12 46.65 45.40 45.44 44.57 43.58 43.88 44.99 45.89
59.88 59.38 58.74 58.21 57.99 58.07 57.82 56.81 56.49 56.59 56.44 56.08 56.02 56.04 56.02 56.30 56.24 56.02 55.86 55.25 54.79 54.83 55.17 55.50 55.83 54.69 51.55 50.07 55.32 57.16 56.09 55.26 55.15 54.16 51.91 52.58 53.39 51.32 49.92 45.69 46.08 45.08 43.69 44.98 45.23 45.88 45.50
59.81 59.36 58.96 57.93 57.52 56.97 56.55 56.09 56.12 56.24 56.22 55.96 56.28 56.26 55.60 55.46 55.11 55.19 54.95 54.61 54.38 54.83 55.27 55.54 55.85 53.89 48.65 55.68 56.34 54.91 54.87 53.84 55.23 55.09 53.83 54.53 54.74 51.89 48.87 48.19 46.29 44.02 43.78 40.90 44.43 45.19 45.02
59.54 59.34 58.94 58.27 57.41 56.57 56.00 55.68 55.72 56.02 56.08 55.86 56.10 55.76 55.29 54.57 54.16 54.22 54.00 53.73 54.00 54.81 55.29 55.36 52.64 52.21 48.32 56.34 53.53 54.98 54.93 52.67 52.99 53.87 54.34 53.22 53.86 49.05 47.23 44.03 42.71 42.78 38.91 40.68 42.53 45.51 45.18
59.64 59.04 58.74 58.17 57.35 56.59 56.05 55.78 55.47 55.33 55.33 55.31 55.76 55.60 55.09 54.40 53.96 53.61 53.07 53.71 54.30 54.50 53.83 54.70 53.85 49.14 50.73 50.20 53.48 52.25 54.19 54.08 53.21 52.38 51.70 51.03 47.71 45.34 43.87 43.17 38.08 39.61 39.84 40.64 41.24 43.84 45.06
57.60 59.11 58.70 58.11 57.36 56.88 56.70 56.19 55.53 55.01 54.93 55.47 55.70 55.23 54.91 54.40 53.95 53.32 52.07 50.35 48.27 47.49 50.66 47.17 47.66 47.93 49.62 53.47 53.37 50.73 52.67 53.96 52.53 51.07 46.91 47.59 45.14 42.32 42.97 43.36 42.36 42.14 41.16 40.72 42.00 43.15 44.30
54.16 58.90 58.46 58.00 57.29 56.92 56.96 56.62 55.62 54.93 54.93 55.39 55.05 54.85 54.65 54.28 53.85 53.51 50.73 47.27 49.05 52.58 48.06 50.32 50.32 50.46 52.36 53.13 49.24 49.83 54.23 50.40 49.83 45.74 46.86 45.36 42.06 44.36 45.62 44.66 43.32 42.21 41.36 40.82 42.14 43.49 44.53
54.12 55.53 57.99 57.94 57.43 56.94 56.90 56.54 55.62 54.75 54.81 54.99 54.40 54.46 54.34 53.75 53.47 51.46 49.45 50.62 55.59 56.96 49.39 48.48 50.49 49.61 49.37 52.07 48.98 48.22 52.34 50.77 47.38 45.20 43.52 43.10 44.15 46.04 45.54 44.30 43.94 42.67 41.66 41.11 41.31 43.08 43.67
53.38 53.03 54.20 57.36 57.09 56.60 56.33 56.21 55.74 54.95 54.93 54.34 53.86 53.92 53.13 52.85 50.27 49.87 48.75 54.04 54.67 55.78 40.21 42.90 46.41 48.83 50.06 50.79 48.02 50.46 51.86 50.49 47.09 43.90 43.54 44.85 46.28 44.68 43.79 43.06 43.96 41.15 44.47 42.82 41.22 40.85 38.85
52.53 52.49 52.43 56.10 56.17 55.56 55.27 55.21 55.05 54.93 54.83 54.36 53.60 53.72 52.74 52.98 50.00 49.24 53.24 59.37 56.51 51.51 29.34 44.08 46.13 51.07 49.27 47.66 47.85 48.58 51.46 50.03 45.03 44.19 45.08 43.06 44.25 43.68 43.14 43.12 44.70 42.67 44.88 43.45 41.59 40.35 40.18
52.38 51.96 52.09 53.09 55.35 54.91 54.59 54.32 53.81 53.89 53.92 53.42 53.38 53.47 52.75 51.92 50.28 52.96 57.05 55.54 51.97 39.61 30.37 41.60 46.00 44.96 45.75 46.78 46.95 48.39 49.92 50.52 48.55 45.68 45.85 44.19 47.19 45.86 45.03 45.08 45.00 45.63 44.55 43.06 41.77 40.80 36.18
51.59 51.36 51.67 52.28 55.03 54.60 54.28 53.81 53.22 53.34 53.10 51.43 52.19 53.21 52.61 52.40 50.85 58.61 56.15 49.63 38.38 33.28 43.28 39.99 41.51 44.50 44.60 43.96 44.76 46.06 44.56 44.20 42.90 40.31 40.18 43.22 43.53 45.61 46.81 44.60 45.74 45.08 42.12 35.65 34.46 35.12 33.63
51.09 51.31 51.24 52.79 54.64 54.14 53.67 53.20 52.60 53.02 51.96 50.46 51.61 52.16 52.04 52.72 55.39 55.80 50.34 42.64 33.92 38.87 39.91 43.35 42.42 43.24 41.97 43.89 43.87 43.97 43.13 41.91 44.25 42.77 39.90 38.39 36.64 43.25 45.54 44.57 43.20 41.83 42.13 36.89 29.50 31.15 34.43
50.94 51.34 51.16 53.33 54.32 53.85 53.18 52.70 52.71 52.37 50.97 49.86 51.92 50.74 50.72 54.26 54.14 52.84 45.12 34.91 35.77 38.47 43.61 41.87 42.61 40.72 41.55 43.95 43.41 42.83 41.34 41.16 42.64 43.85 40.47 38.85 38.12 44.72 44.64 45.99 45.40 41.42 38.41 41.03 34.77 31.77 32.09
50.63 51.31 51.42 50.36 53.68 53.41 52.48 52.27 52.51 51.34 50.19 50.85 50.45 49.39 50.97 57.64 56.03 49.22 41.41 36.41 40.00 45.46 45.24 43.73 38.68 41.48 38.85 41.38 41.31 41.47 41.71 44.05 43.00 44.26 46.01 42.46 37.74 42.33 43.88 45.56 44.79 43.63 43.27 37.55 36.39 28.93 27.50
50.07 50.36 50.90 50.70 52.88 52.43 51.99 52.33 51.59 50.53 49.70 52.05 50.84 47.74 52.30 57.09 50.65 44.49 36.84 37.59 44.09 48.66 46.97 43.34 41.37 40.72 41.02 40.91 41.47 40.73 40.98 43.93 45.07 44.41 45.73 42.75 41.01 39.69 42.61 40.76 40.88 41.23 39.38 37.48 37.81 34.35 29.86
49.42 50.11 50.15 49.94 52.39 52.19 51.93 51.57 50.57 50.06 50.45 51.24 46.62 41.70 54.62 49.78 41.62 39.96 38.80 42.11 46.15 46.28 47.39 46.80 45.53 43.78 42.08 42.44 41.52 40.95 41.32 43.47 45.99 46.57 42.83 42.47 39.47 36.01 38.84 42.50 43.71 42.42 40.34 39.33 33.60 30.91 31.17
49.15 49.75 49.96 49.61 52.16 51.61 51.27 50.98 50.07 49.84 52.30 50.05 43.87 48.65 55.05 47.89 36.42 36.38 41.89 44.77 46.40 44.94 45.36 45.66 45.25 45.98 46.06 42.66 39.96 42.03 42.86 45.70 45.16 44.90 42.82 42.81 37.97 33.70 36.09 39.86 41.96 40.38 40.31 37.77 35.70 34.99 31.90
49.38 50.04 49.71 50.80 51.93 51.03 50.79 50.24 49.72 49.89 52.42 52.05 48.42 43.21 47.64 44.78 42.52 40.91 41.22 42.16 43.67 46.79 46.44 46.12 44.98 46.14 44.45 42.71 43.43 41.10 42.22 44.90 45.44 44.70 43.82 44.21 37.92 37.10 34.49 36.19 38.43 36.51 38.49 37.71 38.18 33.60 32.63
49.52 49.22 50.47 51.47 51.04 50.41 50.16 49.79 49.50 49.79 51.94 51.54 46.47 43.72 46.86 40.11 40.65 40.61 42.89 43.39 42.83 42.52 46.63 46.50 44.79 44.80 43.12 39.67 40.89 40.39 43.00 43.20 43.92 44.43 43.77 42.77 37.35 37.07 36.00 36.42 36.84 36.58 36.47 37.26 36.42 36.54 35.17
49.61 49.64 51.16 50.25 50.06 49.84 49.81 49.29 49.45 49.94 51.40 51.14 44.87 42.95 41.79 41.36 43.64 41.60 41.55 42.24 42.68 44.17 44.86 44.04 43.41 44.24 44.79 41.36 42.68 40.54 42.51 41.51 40.18 43.42 42.09 40.70 36.55 36.15 34.47 35.33 35.05 34.83 36.18 36.18 36.69 36.48 36.85
49.84 50.85 50.44 49.79 49.63 49.81 49.65 49.18 49.22 49.87 51.61 49.74 49.92 48.09 44.67 38.67 40.50 38.76 39.85 42.63 43.58 45.61 45.62 45.52 45.15 43.26 41.81 44.28 44.93 43.87 43.68 43.36 43.18 42.32 39.30 37.87 35.85 33.57 30.41 31.17 31.22 29.70 34.55 36.68 36.38 37.37 38.89
50.74 50.45 49.94 49.47 49.42 49.38 49.06 48.83 49.06 50.59 51.12 52.15 51.33 47.66 41.50 34.88 39.15 39.50 42.51 44.99 44.12 45.05 44.09 45.22 45.33 43.26 44.35 46.15 44.49 44.34 42.49 42.43 42.31 39.64 40.53 34.91 32.16 28.96 29.07 26.69 25.57 36.15 39.12 38.44 37.05 37.82 38.94
49.62 49.56 49.20 49.15 49.07 48.93 48.51 48.50 48.79 50.53 51.06 54.49 52.52 48.53 41.75 33.44 38.25 40.43 43.45 43.71 44.43 44.78 44.14 44.74 45.67 44.96 45.40 42.31 38.62 36.30 34.66 35.95 36.61 38.20 36.74 37.43 32.92 27.73 29.72 27.40 31.04 35.19 35.27 37.25 36.56 37.78 40.63
48.71 48.64 48.75 48.72 48.79 48.39 48.72 49.13 49.30 50.82 51.00 54.54 52.64 50.46 45.79 38.81 38.44 43.81 43.87 44.14 41.51 40.91 42.13 43.88 46.44 45.73 42.21 35.14 34.35 31.78 31.68 35.01 33.34 36.46 38.78 35.90 34.48 34.70 27.22 27.12 25.01 33.93 37.82 42.13 41.66 34.62 40.93
47.96 48.70 49.04 48.82 48.13 48.13 48.65 48.82 49.47 50.87 50.98 54.49 52.90 51.47 49.77 43.89 46.89 46.04 43.62 43.19 43.91 42.14 40.44 42.22 43.40 42.93 42.75 33.86 32.53 32.66 33.03 33.89 31.80 29.70 30.43 32.54 31.51 31.56 22.78 29.34 30.88 36.12 39.25 42.06 33.03 35.56 40.37
48.31 48.42 47.75 47.85 47.67 47.75 48.01 48.91 49.91 50.67 50.70 54.20 52.46 53.21 50.75 44.91 47.52 49.84 49.64 44.42 44.14 44.07 40.78 43.24 42.47 41.65 36.79 35.00 35.22 32.39 33.05 33.65 33.51 34.67 33.66 33.18 31.34 30.15 25.43 26.79 28.05 38.72 40.94 37.70 42.02 41.03 41.71
48.73 47.58 47.18 47.54 47.75 48.48 49.02 49.68 49.92 50.75 51.25 53.53 51.85 53.95 52.07 48.79 47.82 50.44 50.41 50.78 50.58 48.41 45.05 42.68 44.26 42.04 41.77 36.35 32.85 31.79 32.00 32.79 31.26 32.45 36.19 33.11 36.20 34.15 33.82 35.09 40.21 40.24 41.87 43.13 42.29 41.96 42.58

GFSGBSN_sfc_wetblb_042.txt.gz
Wetbulb
60.98 60.76 60.21 59.85 59.28 59.07 59.23 58.61 57.76 57.19 56.84 56.86 56.76 56.74 56.58 57.01 57.07 56.63 55.63 55.91 56.25 56.45 56.18 56.00 55.73 56.30 56.87 53.41 52.67 62.34 62.67 61.73 59.32 56.95 55.16 54.73 52.13 50.83 48.27 49.37 50.09 48.62 48.58 48.64 54.43 54.13 53.28
60.69 60.02 59.71 59.51 59.13 59.13 59.23 58.59 57.95 56.87 56.44 56.51 56.39 56.01 56.27 56.65 56.91 56.91 56.53 56.05 55.67 55.71 55.63 55.39 55.90 55.93 55.49 48.44 56.39 61.64 61.30 59.52 58.22 56.14 55.48 55.59 52.87 53.06 51.93 50.58 49.31 49.64 46.68 47.81 50.19 52.75 52.46
58.60 60.07 59.51 58.83 58.65 58.73 58.66 57.94 57.45 56.85 56.42 56.39 55.99 55.79 56.13 56.45 56.41 56.45 56.13 55.75 55.28 55.20 55.35 55.61 55.81 57.00 53.43 52.69 58.20 61.54 59.25 57.66 58.86 57.39 55.35 56.86 56.06 53.54 53.55 49.47 48.19 47.76 44.27 45.82 47.36 50.30 50.26
57.54 59.12 59.73 58.72 58.03 57.55 57.37 57.26 56.92 56.67 56.28 56.03 56.23 55.79 55.69 55.65 55.49 55.02 55.04 54.74 54.70 54.88 55.26 55.59 55.73 56.53 51.20 57.89 59.86 58.24 58.95 58.00 58.83 58.83 57.57 56.95 57.21 54.22 52.18 50.35 48.06 46.15 46.82 43.36 47.30 50.82 48.48
57.25 57.70 59.71 59.06 57.99 57.47 56.88 56.66 56.38 56.36 56.28 56.01 55.79 55.57 55.48 54.96 54.56 54.25 54.27 54.13 54.27 54.72 55.07 55.76 55.89 55.05 50.79 59.01 55.50 57.80 58.52 54.45 56.62 57.15 57.06 56.20 56.13 52.78 50.35 46.42 44.82 45.97 42.17 43.31 44.28 48.42 49.37
56.57 56.78 58.05 59.27 58.21 57.53 57.10 56.44 55.85 55.75 55.81 55.53 55.41 55.57 55.57 54.76 54.43 53.99 53.72 54.06 54.51 54.75 55.38 56.89 56.25 52.63 55.24 52.02 55.62 56.86 56.32 55.62 55.22 54.82 52.59 53.22 52.77 48.73 48.00 45.76 40.48 42.99 41.95 43.88 43.55 46.82 48.23
56.10 55.59 57.22 58.97 58.53 57.91 57.51 56.99 55.81 55.28 55.18 55.20 55.29 55.69 55.22 54.82 54.37 53.82 54.11 56.19 53.51 52.71 53.75 51.61 50.35 51.91 51.82 55.87 56.80 54.00 54.73 55.50 55.25 53.45 49.13 51.86 48.51 45.15 46.95 47.41 46.97 46.51 45.54 44.03 45.95 47.53 48.04
55.27 55.25 55.63 58.05 58.77 58.32 57.96 57.18 55.91 55.14 55.14 55.10 55.00 55.32 54.86 54.61 54.31 53.68 55.41 52.63 53.75 56.93 51.04 54.22 53.12 52.85 54.50 55.25 51.42 52.84 55.69 51.44 50.60 47.00 50.40 49.21 45.90 48.23 49.05 48.25 47.11 46.13 45.25 45.28 46.26 47.24 48.75
54.22 54.95 54.93 56.68 58.77 58.24 57.84 57.28 55.91 55.18 54.96 54.71 54.76 54.82 54.61 54.09 53.62 54.08 54.54 53.91 60.30 59.13 53.36 51.23 53.58 51.98 51.88 54.41 50.96 51.02 54.06 52.58 49.17 47.19 48.48 46.89 47.44 49.37 48.99 47.90 46.61 46.57 45.61 45.48 45.12 47.09 48.98
53.43 53.86 54.17 53.49 55.79 57.93 57.25 57.03 56.16 55.32 54.69 54.29 54.53 54.25 53.67 53.10 51.72 55.76 52.60 56.54 57.96 58.06 47.47 45.62 48.62 51.22 52.03 53.99 49.71 53.57 54.67 52.40 50.35 47.50 48.63 48.16 49.00 48.11 48.33 46.88 47.89 44.44 47.57 46.87 46.14 45.59 42.53
52.74 53.22 53.26 52.92 52.68 55.73 55.95 55.89 55.71 55.45 54.76 54.51 54.25 53.92 53.13 52.86 55.72 52.59 56.90 59.35 61.38 58.25 34.16 47.10 48.92 54.56 53.23 50.64 50.64 50.94 55.39 52.84 47.92 47.72 48.00 46.33 47.51 47.35 46.57 46.30 47.66 46.10 48.26 47.44 46.30 46.05 45.03
52.08 52.79 53.14 52.43 52.64 51.86 55.24 55.02 54.82 54.61 54.23 54.25 53.65 53.58 53.08 53.30 55.39 58.17 61.54 63.19 59.72 45.85 34.10 44.44 49.25 48.11 48.67 49.68 49.25 51.39 52.31 53.73 52.63 49.14 49.83 48.61 50.86 49.71 48.57 48.87 49.17 50.16 48.64 48.18 47.85 46.51 39.92
51.44 51.96 52.64 52.12 52.11 52.07 54.37 54.74 54.25 53.96 53.57 53.29 51.62 53.09 53.96 57.08 53.31 63.06 61.91 58.00 44.91 38.23 45.93 43.27 45.13 47.63 47.34 46.72 47.49 48.88 48.83 48.29 46.44 44.00 44.65 47.23 47.26 49.58 50.35 48.05 49.69 49.29 45.99 40.33 37.89 38.32 37.13
50.78 51.21 51.84 52.00 51.79 51.50 53.76 54.33 53.58 53.07 53.07 52.12 50.69 52.29 54.08 56.77 59.85 60.73 59.03 50.69 37.94 42.33 43.53 46.70 46.45 47.06 44.56 47.18 46.94 47.76 47.93 46.06 48.37 47.78 45.80 42.66 40.51 46.47 48.97 48.23 46.31 46.42 45.23 40.06 31.17 34.58 39.39
50.10 50.41 50.80 51.72 51.51 51.76 53.13 54.19 53.23 52.56 52.20 50.98 51.61 53.87 54.66 57.28 58.15 58.34 53.28 42.75 41.87 44.29 47.28 45.42 45.90 43.75 44.27 46.63 46.51 47.23 47.00 46.73 47.79 48.90 44.07 43.11 41.86 47.98 48.04 49.70 48.94 45.66 43.82 46.40 40.40 37.41 38.03
49.34 49.91 50.46 50.97 51.19 50.82 52.84 53.60 52.88 52.40 51.29 50.85 54.67 53.61 53.93 59.06 60.40 54.75 49.58 42.71 45.73 49.05 48.27 47.35 42.13 45.19 42.56 45.04 44.46 45.65 46.07 47.69 46.89 48.47 50.52 47.11 41.43 46.21 46.89 49.04 49.02 48.04 48.50 41.41 42.99 32.27 31.02
49.00 49.55 49.86 50.38 51.05 50.47 52.83 53.48 52.40 51.80 50.84 51.48 54.26 49.78 58.42 62.43 60.17 51.94 44.76 45.46 46.95 51.67 50.64 46.62 44.74 44.33 45.38 44.88 45.63 44.66 45.50 47.16 48.49 48.08 50.33 49.21 46.02 43.88 46.18 45.14 44.70 45.10 44.35 43.77 43.92 41.40 34.73
48.27 48.76 49.16 49.87 50.94 50.66 52.61 53.00 52.04 51.19 50.52 51.07 53.34 46.34 59.98 59.52 49.04 51.34 46.51 47.88 47.77 49.98 51.94 49.28 49.32 47.44 46.02 46.95 45.74 44.93 45.05 47.03 49.69 50.06 47.40 47.73 47.02 42.50 43.69 46.53 47.71 46.96 45.38 45.16 39.10 36.21 39.43
47.97 48.37 49.02 49.69 50.44 50.52 51.28 52.30 51.35 50.56 51.01 53.63 50.15 52.75 56.34 55.90 45.82 46.22 48.25 47.64 50.35 48.41 49.43 49.36 48.28 49.37 49.93 47.79 44.42 46.69 47.45 48.17 49.03 48.96 48.26 48.02 44.83 39.84 40.68 44.14 46.30 44.47 46.09 45.23 42.86 42.49 37.89
47.73 48.16 48.74 49.65 50.22 50.04 50.62 51.80 50.72 50.34 51.49 55.49 51.75 48.07 52.70 52.08 52.35 48.88 46.30 46.05 46.65 50.36 49.89 50.23 49.38 50.53 49.28 47.28 48.39 46.21 46.85 47.37 48.19 48.52 43.92 47.74 45.74 43.53 39.45 41.58 45.15 41.93 43.59 44.47 43.57 38.52 38.84
47.44 47.96 48.50 49.20 49.83 49.48 50.45 51.46 50.47 50.20 51.28 54.01 53.33 49.18 52.19 46.72 47.82 47.91 48.76 47.53 45.83 46.56 50.14 51.21 48.95 49.90 48.67 45.33 46.01 45.72 47.48 45.98 47.60 45.20 48.43 48.53 43.08 43.17 42.07 41.77 41.98 42.42 42.49 43.28 41.95 42.87 38.94
47.41 47.87 48.31 48.96 49.37 49.63 50.35 50.88 50.07 49.97 51.03 51.34 50.77 49.92 50.90 50.79 50.17 47.25 45.24 46.33 46.21 47.59 48.99 48.26 48.75 49.80 50.24 47.62 48.14 46.39 47.89 47.32 46.90 47.92 47.75 46.49 42.74 41.93 39.71 40.45 40.45 39.51 42.42 42.77 43.69 43.74 43.37
47.52 48.27 48.45 49.18 49.73 49.76 50.25 50.20 49.73 49.88 51.50 53.18 56.69 53.59 53.41 43.74 47.64 46.15 45.81 47.19 47.24 50.93 48.75 49.41 51.53 49.93 48.67 48.92 50.74 51.88 50.66 50.23 49.47 48.24 46.47 45.40 43.29 40.29 36.50 37.46 37.77 35.88 40.99 42.86 43.19 44.35 44.11
47.83 48.09 48.90 49.64 50.15 50.53 50.40 49.47 49.34 49.72 51.81 57.85 58.62 54.76 50.97 43.36 46.38 45.29 46.75 49.03 48.79 50.55 49.32 49.11 50.68 50.34 48.59 52.35 52.22 51.33 49.95 48.42 47.84 45.82 46.84 42.65 42.05 39.07 36.94 33.53 31.63 40.66 43.39 43.21 43.56 44.95 45.91
47.79 48.37 49.74 50.36 50.44 49.96 49.26 49.15 49.20 49.42 50.61 56.04 59.51 54.85 50.46 40.90 47.17 46.16 47.66 49.25 49.61 50.08 49.33 49.63 48.97 50.21 52.47 49.76 47.23 43.41 43.56 43.27 43.27 43.95 43.62 44.71 41.68 35.16 36.90 34.41 38.00 40.35 40.22 39.69 39.72 41.11 45.65
48.56 49.35 50.08 49.85 49.44 49.03 48.86 49.01 49.11 49.15 50.58 52.81 58.84 56.74 54.90 47.13 45.33 48.98 48.53 50.49 48.54 49.03 48.37 46.66 48.50 50.78 48.79 47.60 45.40 40.83 38.78 41.63 39.51 41.15 43.28 42.39 42.84 42.16 34.99 35.34 33.41 39.81 42.82 45.91 45.18 38.38 45.57
49.10 49.58 49.44 49.12 48.74 48.61 48.54 48.85 48.90 49.25 50.81 54.78 58.73 57.13 56.79 51.31 49.75 51.56 48.90 49.16 51.96 50.47 48.77 46.96 46.90 46.85 48.18 45.92 43.44 42.70 40.96 40.79 38.20 36.71 35.49 38.84 39.00 37.82 36.19 36.71 38.64 42.72 43.16 45.88 36.14 38.72 46.06
48.56 48.65 48.44 48.34 48.14 48.13 48.27 48.60 48.69 48.83 51.08 54.29 57.15 57.86 58.01 52.27 51.90 53.08 51.97 50.60 50.39 52.33 48.95 48.13 47.85 47.46 46.92 45.12 44.92 42.47 42.12 40.66 40.07 40.90 39.09 39.08 38.18 36.99 35.30 35.00 32.96 43.91 44.44 40.77 45.77 48.20 46.75
47.97 48.02 48.22 47.90 47.97 48.17 48.52 48.74 48.94 50.07 50.86 52.70 55.99 57.33 58.66 54.91 52.16 54.64 53.77 54.47 53.86 53.43 52.42 50.45 51.05 49.37 50.49 47.37 44.81 42.65 38.73 37.13 40.88 39.34 41.96 38.62 42.99 41.90 41.14 42.02 45.06 46.20 47.71 48.72 48.36 47.75 48.34

GFSGBSN_sfc_wetblb_045.txt.gz
Wetbulb
58.72 60.05 61.25 60.64 60.31 59.89 59.79 59.32 58.71 57.84 57.45 57.15 57.08 56.94 56.93 56.72 56.98 57.30 56.93 56.43 56.63 56.58 56.38 56.21 56.30 56.48 57.26 54.83 53.44 63.19 63.56 63.09 60.30 57.62 56.37 54.96 52.56 51.32 48.51 49.73 50.83 49.45 51.05 50.99 54.97 54.56 53.92
58.11 58.09 59.89 60.20 60.08 59.86 59.84 59.21 58.70 57.85 57.39 57.03 56.56 56.48 56.40 56.56 56.90 57.01 56.85 56.49 56.21 56.11 55.81 55.95 56.08 56.05 57.45 49.75 57.82 60.16 61.40 60.44 58.57 56.95 56.44 55.70 53.77 53.66 52.13 51.27 50.00 51.53 52.10 52.50 54.02 53.91 54.28
57.50 57.90 57.98 59.58 59.40 59.29 59.22 58.61 58.38 57.81 57.39 56.93 56.44 56.09 56.01 56.41 56.61 56.53 56.51 56.07 55.80 55.50 55.41 56.03 56.28 57.60 55.09 52.71 59.15 61.56 61.13 58.97 59.84 58.78 56.15 57.36 56.92 53.99 53.93 51.72 51.63 50.96 49.86 50.35 51.23 53.85 53.20
56.75 57.47 57.71 58.08 58.74 58.31 58.05 57.95 57.91 57.81 57.35 56.73 56.50 56.07 55.65 55.62 55.74 55.54 55.30 55.14 55.22 55.33 55.37 55.87 56.18 58.09 52.74 58.66 60.44 59.06 60.45 59.45 60.20 60.19 58.61 58.46 58.37 55.31 54.26 52.29 49.13 47.52 47.15 44.42 49.82 52.57 53.30
56.39 57.08 57.47 57.49 58.51 58.16 57.68 57.46 57.38 57.59 57.29 56.62 56.34 55.83 55.36 55.36 55.08 54.98 54.91 55.02 54.90 55.17 55.40 56.02 56.97 56.89 52.17 59.23 56.09 58.66 59.76 56.56 57.51 58.51 58.81 57.14 56.87 53.61 53.20 47.38 45.20 46.86 41.59 44.18 46.48 51.91 51.27
56.12 56.49 57.20 57.14 57.54 58.31 57.82 57.36 56.92 56.68 56.42 56.26 55.95 55.61 55.46 55.56 55.08 54.69 54.33 54.41 55.10 54.48 55.50 58.63 58.00 54.02 56.97 53.36 56.37 58.11 58.73 56.93 56.50 56.61 55.07 54.64 53.82 51.04 49.82 46.32 40.33 42.57 43.38 45.35 45.57 49.20 49.72
54.89 55.92 56.28 56.13 56.36 58.46 58.52 57.92 56.98 56.09 55.81 55.95 55.81 55.67 55.69 55.36 55.28 54.57 54.14 57.00 55.01 54.38 56.15 52.92 53.01 52.24 53.77 57.23 58.28 56.33 56.72 55.74 56.56 54.57 49.45 52.74 48.50 44.97 46.86 48.53 47.85 47.00 44.82 44.53 46.66 48.38 47.37
53.68 54.97 55.59 56.08 55.98 57.38 58.98 58.27 56.89 55.80 55.65 55.69 55.37 55.29 55.56 55.30 55.16 54.57 56.14 54.53 55.89 58.99 53.32 54.88 53.61 53.85 55.53 56.38 52.48 54.65 56.68 52.13 52.56 47.68 50.32 49.77 46.02 50.08 49.91 48.85 47.28 46.44 45.49 44.69 47.41 48.36 48.81
52.95 54.14 54.92 55.62 55.51 56.14 58.55 58.53 56.91 55.64 55.34 55.18 55.18 55.39 55.12 54.77 54.33 54.64 55.81 55.79 61.83 60.89 54.68 53.21 53.93 53.05 54.02 54.99 52.46 52.42 54.84 53.06 50.54 48.40 49.15 46.13 48.51 50.98 49.02 47.79 46.49 46.40 45.42 45.64 45.84 48.04 48.65
52.75 53.34 54.02 54.87 55.25 54.71 57.72 58.06 57.18 55.82 55.20 54.91 54.65 54.98 54.47 53.46 51.95 57.48 55.51 59.02 60.25 60.59 49.14 48.00 50.04 52.18 53.33 54.64 50.74 55.25 55.66 53.13 50.79 47.09 48.29 48.84 51.51 49.61 47.78 46.62 47.94 44.93 49.14 47.86 46.75 46.50 42.14
52.43 52.60 53.07 53.90 54.12 53.69 53.51 57.03 56.79 55.99 55.30 54.94 54.37 54.69 53.62 52.87 57.51 54.82 59.69 60.90 62.00 61.40 37.30 48.48 49.60 56.57 54.33 51.54 51.53 51.74 55.84 53.33 48.77 48.69 48.98 47.44 48.67 47.91 46.80 48.05 49.58 47.06 49.77 48.44 47.81 46.10 45.40
52.05 52.35 52.62 53.13 53.40 52.86 52.43 55.46 55.80 55.36 55.00 54.47 54.16 54.23 53.46 54.45 55.88 59.36 62.06 65.00 61.31 47.52 37.14 45.10 50.38 49.52 49.63 51.11 50.29 51.98 52.01 54.06 53.88 49.43 50.62 46.86 53.10 51.19 50.68 50.21 50.06 51.24 49.06 48.85 48.48 46.61 40.91
51.00 51.74 52.39 52.55 53.24 52.51 52.39 54.08 54.92 54.88 54.39 54.08 53.83 53.78 54.33 58.67 55.23 61.98 62.11 60.52 46.59 40.45 47.74 44.42 46.44 49.15 48.59 47.55 48.33 48.82 48.60 48.01 46.20 43.33 44.70 48.45 48.76 51.32 51.89 48.63 50.79 49.93 47.17 40.48 39.02 39.40 38.30
50.65 51.10 51.71 52.18 52.72 52.33 52.16 52.62 54.34 54.11 53.72 53.36 52.02 52.58 54.39 58.11 60.65 62.90 60.87 52.85 40.53 44.77 45.72 48.38 47.84 48.12 45.86 47.91 47.73 47.79 47.49 45.35 48.71 48.45 44.94 42.96 41.83 48.58 51.21 50.08 47.76 48.01 46.88 41.17 33.06 35.42 39.23
49.92 50.34 51.08 51.37 52.12 52.15 51.90 51.96 53.95 53.59 52.81 51.99 51.30 55.45 56.87 58.42 60.40 61.10 54.86 44.87 44.33 45.83 48.11 46.28 47.09 44.62 45.09 47.08 46.97 47.13 47.06 46.48 48.18 49.43 43.09 43.89 42.92 50.09 50.11 50.96 50.21 47.48 43.94 48.82 42.32 42.60 38.60
49.48 49.85 50.37 50.57 51.07 51.62 51.49 51.39 53.53 53.39 52.04 51.07 53.67 54.95 54.92 60.92 60.57 58.39 50.89 44.26 48.06 49.97 49.33 48.65 43.63 45.95 43.29 45.25 44.84 45.61 45.96 49.15 48.41 50.82 52.76 47.85 42.57 48.17 48.95 51.14 50.94 49.07 50.38 42.72 43.47 33.83 33.08
47.41 49.40 50.22 50.17 50.43 50.78 51.14 51.40 52.80 52.84 51.50 51.22 54.06 50.89 58.21 61.56 59.83 52.91 45.78 47.56 49.95 51.27 52.15 47.80 46.20 45.12 45.66 45.09 46.24 45.19 45.80 49.41 51.00 50.81 52.84 49.85 47.04 46.10 48.01 46.55 45.75 47.22 45.48 45.61 45.18 43.68 36.40
44.30 48.53 48.99 49.36 49.78 50.73 51.02 50.83 52.10 52.41 51.16 50.85 53.26 46.92 59.06 61.71 46.63 49.98 47.66 50.02 49.39 50.23 54.10 50.91 50.02 48.17 47.29 47.49 46.30 45.94 45.24 48.51 52.88 52.40 48.17 50.53 47.92 43.23 45.24 49.43 50.36 49.46 47.04 46.89 40.94 39.14 41.09
43.25 48.21 48.64 49.16 49.86 50.25 50.76 50.70 52.03 51.73 51.38 52.35 49.54 51.80 59.62 58.96 43.71 47.91 50.80 50.48 51.20 49.37 50.91 50.45 48.26 49.57 50.37 48.16 45.04 47.35 47.65 51.84 52.01 51.78 49.56 51.01 45.47 40.50 42.49 46.34 48.54 46.19 47.52 47.29 46.71 44.56 40.16
42.89 47.56 48.35 48.86 49.56 50.00 50.47 50.56 51.34 51.24 51.50 55.04 51.55 47.38 51.48 54.63 51.62 50.31 48.70 48.65 47.81 52.00 51.42 51.88 49.67 50.56 49.20 47.33 49.54 47.33 47.92 50.08 51.64 51.75 45.87 49.77 46.75 43.91 40.02 43.20 47.05 44.92 46.08 47.28 45.85 40.72 40.47
43.62 47.28 47.93 48.32 49.09 49.88 50.24 50.54 51.59 51.07 51.17 53.59 51.30 49.17 51.63 46.49 48.89 51.11 51.04 49.51 47.08 46.68 51.71 52.73 50.14 49.95 48.92 45.93 47.12 47.23 50.10 49.19 50.42 46.55 49.78 50.78 44.70 46.25 46.35 46.24 45.86 45.58 45.01 45.51 44.34 44.78 41.84
44.58 46.32 47.78 48.19 48.73 49.34 49.96 49.95 51.07 50.84 51.04 49.69 51.12 50.28 52.52 50.53 50.65 50.88 48.30 48.50 46.92 48.16 50.24 49.32 48.63 49.79 50.89 48.41 49.13 47.31 50.16 49.91 48.82 50.69 50.61 50.75 44.95 45.62 42.72 45.63 45.08 43.24 45.21 45.38 45.07 45.29 44.49
46.14 47.00 47.64 47.96 48.62 49.11 49.46 49.65 50.52 50.62 51.23 48.33 55.02 56.86 54.03 49.25 50.75 49.41 49.52 49.15 48.19 50.37 52.01 53.04 51.67 50.30 50.39 51.33 54.65 55.01 54.54 53.61 52.83 50.84 49.78 48.88 46.28 42.72 38.60 41.94 41.63 37.40 43.02 44.40 45.25 46.36 45.93
46.71 47.16 47.62 48.01 48.50 48.96 48.95 49.08 49.46 50.31 50.89 54.46 56.55 56.53 50.77 47.78 50.77 49.10 49.71 50.30 49.23 49.80 50.58 52.12 54.43 52.40 53.03 56.43 55.80 54.63 53.08 51.69 51.21 50.43 52.26 47.52 46.34 43.68 39.08 35.81 31.88 42.83 45.82 45.24 44.53 45.98 47.31
46.39 47.20 47.73 48.05 48.42 48.64 48.80 48.42 48.92 49.91 50.48 55.47 61.72 57.42 52.52 45.55 50.82 48.66 49.79 49.75 50.61 52.08 52.38 52.49 51.96 54.93 56.74 54.68 49.26 45.31 45.73 44.58 45.56 47.17 46.99 48.97 45.68 38.85 37.91 36.69 40.68 42.48 43.64 42.58 41.74 42.40 46.59
46.79 47.23 47.61 47.95 48.20 48.32 48.86 48.82 49.55 49.64 50.14 54.31 57.59 60.55 55.60 51.85 49.93 50.70 49.15 50.27 49.48 50.35 50.82 49.25 54.44 55.37 53.59 52.66 48.53 41.65 39.58 42.90 42.16 44.20 46.60 45.33 46.61 43.19 37.79 35.25 32.42 42.14 45.19 47.65 47.00 39.36 46.81
46.76 47.20 47.76 47.97 47.86 48.74 48.63 49.18 49.40 49.54 50.15 53.88 56.89 61.00 56.97 52.10 52.65 52.86 49.34 50.43 52.43 52.49 51.08 49.86 50.19 49.95 52.68 50.20 44.27 44.40 42.73 45.86 41.02 40.28 37.44 41.22 41.53 39.30 39.02 38.03 41.42 46.05 45.97 47.83 38.10 40.86 47.86
46.95 47.31 47.03 46.43 48.21 48.81 49.10 49.12 49.18 49.43 49.85 53.38 55.83 61.47 58.17 54.75 53.56 54.90 54.56 52.41 53.74 53.46 50.29 51.78 50.30 50.62 50.43 46.51 47.83 46.36 44.38 44.89 43.70 44.92 42.13 40.94 40.53 37.94 41.18 35.10 33.76 46.73 46.51 41.68 47.55 49.10 49.27
46.86 46.80 47.64 48.76 48.88 48.80 48.73 48.76 49.03 49.19 49.49 52.73 53.56 61.10 61.55 57.61 53.80 57.77 57.14 57.24 56.72 57.65 55.41 53.36 52.48 52.21 52.83 50.00 49.65 49.83 42.20 40.82 45.06 40.56 46.96 41.48 45.56 44.60 43.66 43.64 48.18 48.54 47.64 50.14 50.22 49.05 49.63

GFSGBSN_sfc_wetblb_048.txt.gz
Wetbulb
57.91 58.56 58.48 59.23 60.97 60.43 60.47 60.05 59.16 58.48 57.92 57.67 57.39 57.15 57.11 57.01 57.02 57.12 56.91 56.80 56.78 56.81 56.66 56.69 56.62 56.72 56.31 54.44 54.15 61.24 64.43 62.36 59.64 56.11 55.63 54.32 52.08 50.56 47.47 49.00 50.20 49.24 50.47 51.76 52.52 56.09 54.73
56.89 57.48 58.05 58.16 59.85 60.57 60.64 59.96 59.15 58.29 57.85 57.59 57.22 56.72 56.56 56.66 56.80 57.03 56.97 56.56 56.30 56.34 56.27 56.35 56.53 56.37 55.28 49.21 58.38 60.52 61.08 61.55 58.75 54.99 55.14 54.95 53.06 53.27 50.73 50.93 49.19 51.02 51.62 52.25 53.84 53.59 53.50
55.97 57.12 57.74 57.43 57.72 59.76 60.02 59.17 58.79 58.39 58.11 57.67 57.00 56.48 56.25 56.33 56.41 56.61 56.47 56.20 55.90 56.04 56.07 56.35 56.51 56.48 53.78 52.04 59.49 60.57 61.14 59.45 59.27 58.31 55.10 56.82 55.92 53.48 53.11 50.98 52.58 52.41 48.81 50.53 51.64 52.93 52.45
55.41 56.50 57.18 57.21 56.97 57.55 58.71 58.52 58.26 58.43 58.11 57.65 57.27 56.40 55.74 55.46 55.52 55.62 55.54 55.27 55.39 55.82 55.91 56.21 56.24 56.43 51.77 59.68 60.02 58.08 59.28 59.61 60.51 59.60 58.46 58.75 58.60 55.04 53.26 54.43 49.46 48.29 48.63 43.84 49.18 51.64 53.01
54.56 55.45 56.76 56.94 57.00 56.81 58.00 58.11 57.91 58.16 57.99 57.51 56.88 56.18 55.50 55.01 55.31 55.23 55.13 54.95 55.25 55.65 55.80 56.30 55.83 55.84 51.69 60.60 55.83 57.97 58.80 56.41 57.48 58.25 58.77 58.18 56.50 53.56 53.06 48.33 45.51 46.26 40.19 42.91 46.11 50.76 50.90
54.21 54.82 56.04 56.40 57.18 56.52 57.71 57.95 57.55 57.45 57.40 57.20 56.70 56.12 55.48 55.26 55.23 54.83 54.46 54.93 56.08 55.00 55.77 57.29 57.27 52.30 56.15 53.06 56.09 56.71 58.92 57.38 55.81 56.80 55.07 54.08 53.14 49.94 49.64 45.82 38.30 41.70 41.93 44.27 44.52 48.34 49.56
54.31 54.29 55.43 56.26 56.51 56.43 56.84 58.18 57.69 57.00 56.81 56.80 56.42 56.18 55.69 55.60 55.40 55.23 54.39 56.18 54.03 53.18 54.27 51.82 53.08 51.83 53.80 56.91 58.25 55.88 57.91 55.30 55.32 54.57 49.73 52.44 48.11 44.29 46.79 47.94 47.16 46.45 44.93 44.04 46.52 49.15 47.37
53.13 53.67 54.45 55.54 55.85 56.29 56.22 57.52 57.62 56.74 56.46 56.35 56.12 55.98 55.61 55.68 55.50 54.99 54.84 54.02 55.88 58.11 51.96 56.95 53.91 54.01 55.32 56.61 52.15 54.02 57.23 51.81 52.04 48.76 50.29 48.57 45.48 48.92 49.64 49.02 47.30 46.21 45.10 44.57 46.40 47.71 46.69
52.85 53.07 53.53 54.22 55.39 56.04 55.77 56.45 57.45 56.66 56.20 55.90 55.75 55.75 55.86 55.26 54.58 53.84 54.69 54.52 59.27 59.85 52.28 54.56 56.09 51.18 52.83 55.10 51.98 52.19 54.44 52.72 49.70 47.95 48.07 45.56 46.33 50.52 49.79 48.43 45.80 46.11 44.73 44.81 45.13 47.21 47.43
52.64 52.45 52.77 53.30 54.61 55.05 55.42 55.48 56.93 56.94 55.92 55.43 55.15 55.14 54.99 53.77 51.06 56.83 55.04 59.24 59.10 60.76 46.50 49.33 50.72 51.57 53.88 54.05 50.71 55.30 55.43 52.62 50.09 47.06 48.85 46.34 49.76 48.64 48.45 46.24 47.28 43.80 48.84 47.77 46.28 43.73 39.91
51.96 52.22 52.26 52.68 53.79 53.87 54.28 54.03 53.93 56.90 56.10 55.43 54.69 54.62 54.08 52.58 56.21 55.89 59.70 61.67 61.78 59.79 36.93 50.13 50.22 55.65 54.27 50.87 51.59 51.92 55.51 52.71 48.33 48.09 49.04 45.91 47.25 47.42 46.93 46.82 49.42 45.36 48.93 47.91 47.21 45.01 43.92
50.86 51.84 52.17 52.36 53.03 53.13 53.64 53.38 53.11 55.66 55.60 54.81 54.18 54.16 53.77 54.17 55.15 57.60 60.59 62.58 59.32 46.42 35.92 45.36 49.24 48.77 49.29 50.16 50.36 51.74 51.35 53.77 52.89 49.04 49.65 47.48 51.71 50.48 49.34 50.22 49.61 51.01 48.59 48.02 47.60 45.69 38.26
49.98 50.65 51.72 51.99 52.19 52.65 53.15 52.99 52.44 54.57 54.93 54.48 53.73 53.96 53.46 57.73 54.38 61.05 61.08 58.35 45.14 38.50 48.52 45.30 45.76 48.51 48.06 47.55 48.21 48.38 48.06 47.02 45.21 43.09 43.40 46.98 46.80 51.03 51.71 47.52 49.98 48.56 45.62 39.06 34.31 35.50 36.71
49.07 49.83 50.68 51.32 51.88 52.43 52.92 52.72 52.10 53.99 54.35 54.03 53.15 53.17 53.66 56.40 60.08 62.07 60.32 51.04 38.44 44.31 46.05 48.18 47.43 47.90 45.44 47.70 47.24 47.44 46.08 44.40 47.45 47.16 43.76 41.93 40.30 48.00 50.56 47.83 44.60 45.59 44.99 37.64 31.82 34.32 38.43
48.24 49.02 49.63 50.76 51.49 52.08 52.56 52.26 52.02 53.40 53.41 52.89 52.27 53.37 54.06 57.18 59.02 61.16 53.75 42.92 41.83 46.52 48.88 47.51 46.70 44.59 44.63 46.94 46.74 46.60 45.45 45.09 46.89 47.70 43.13 42.31 42.20 48.66 50.77 50.24 49.80 45.75 43.84 48.20 42.04 43.19 39.72
47.13 48.00 48.14 49.86 50.40 51.41 51.92 51.79 51.75 53.10 52.98 51.50 51.91 51.74 51.82 59.20 60.74 56.76 49.22 43.41 46.48 50.56 50.44 48.84 43.33 45.48 42.60 44.61 44.47 45.24 44.84 48.08 46.80 49.04 51.33 46.57 39.05 46.36 49.82 50.52 50.17 47.53 49.19 42.56 43.35 33.90 32.13
46.86 47.33 48.37 47.61 49.86 50.41 51.47 51.53 51.40 52.90 52.13 51.78 51.57 46.96 56.15 61.14 59.11 50.83 43.71 45.55 48.47 52.52 52.25 48.40 45.69 44.84 45.12 44.74 45.58 44.59 44.46 47.57 49.33 50.25 51.37 47.84 43.22 45.38 48.21 45.90 43.81 46.33 44.67 44.60 43.90 43.55 36.27
46.03 46.61 47.43 46.56 49.60 50.11 50.93 51.27 51.31 52.32 51.72 50.81 49.15 42.91 58.18 60.25 46.88 46.17 44.55 48.08 49.11 51.24 52.53 50.62 50.06 47.94 46.23 46.58 45.20 44.68 44.37 47.44 51.92 51.33 47.39 49.79 47.29 42.98 44.63 49.22 50.12 48.46 46.18 46.21 41.74 38.63 41.99
45.19 45.55 45.40 45.95 48.99 49.39 50.12 50.91 50.93 52.03 51.68 50.73 45.31 49.40 58.86 57.52 41.51 42.91 46.67 48.34 50.01 49.90 50.61 49.89 49.05 49.40 49.86 46.97 44.55 46.76 47.35 52.51 52.45 50.82 48.52 50.49 46.02 39.80 41.60 45.96 48.94 45.73 46.12 46.25 46.45 46.05 40.35
45.11 45.12 44.66 44.74 46.30 49.44 49.83 50.55 50.60 51.45 51.79 52.21 46.69 44.35 50.05 53.26 51.38 45.48 44.47 46.22 47.13 52.29 50.52 50.92 50.05 50.36 48.50 47.17 49.26 46.71 47.13 50.72 52.42 51.79 47.38 51.88 47.19 42.84 38.70 41.85 46.05 44.41 45.60 46.20 45.59 40.88 40.35
44.70 44.94 44.63 43.50 44.21 48.69 49.31 50.29 50.35 50.99 51.31 51.24 48.78 46.65 49.97 43.20 46.61 47.31 49.02 47.82 46.05 46.72 51.10 51.53 49.25 48.95 47.61 44.94 46.27 45.93 48.50 49.79 50.85 47.04 50.00 50.20 42.83 44.15 44.47 45.64 45.86 45.18 45.09 45.35 43.62 44.58 40.52
44.05 44.87 44.25 44.49 44.45 48.00 49.04 49.73 50.19 50.71 51.25 49.29 46.35 47.67 51.50 49.03 48.98 47.29 45.93 47.57 46.77 48.47 48.60 48.07 48.39 49.17 49.02 46.98 47.13 45.76 48.61 49.71 47.82 50.22 49.50 50.67 44.34 45.53 43.43 46.23 45.44 43.04 44.49 44.80 44.69 44.66 44.14
44.41 44.63 44.88 43.91 47.00 47.98 48.89 49.54 49.60 49.81 51.04 48.30 51.88 53.17 50.75 46.96 47.66 45.60 46.20 48.46 48.92 50.73 51.01 50.96 51.08 50.09 48.93 50.55 53.64 54.68 54.98 54.12 52.30 50.27 48.79 48.64 46.73 43.72 39.49 42.72 40.98 35.49 42.51 43.46 44.30 45.82 45.45
43.39 44.40 43.77 46.44 46.65 48.31 49.02 49.12 49.45 49.97 50.70 51.77 52.81 53.90 49.97 45.70 47.00 46.31 47.87 50.34 49.90 50.33 49.68 52.19 53.42 50.93 53.82 57.26 56.41 55.00 53.62 52.81 52.84 51.96 52.81 48.70 47.39 45.10 39.78 35.72 30.82 42.57 46.49 45.09 43.50 44.44 45.46
44.48 44.15 44.58 46.40 47.82 48.36 48.64 48.86 49.27 49.56 50.81 50.73 54.19 53.62 51.84 44.13 48.23 47.87 49.14 49.92 51.76 51.98 50.82 50.67 53.82 56.27 57.59 55.36 49.46 45.27 45.08 43.34 46.58 48.93 48.89 50.97 46.94 40.80 37.10 36.18 40.25 42.39 44.10 43.35 42.42 42.18 46.52
44.77 45.09 45.51 46.56 47.38 47.77 48.09 48.56 48.91 49.37 49.78 50.55 52.08 53.30 54.40 50.55 48.21 50.28 49.91 51.50 48.62 49.79 50.67 50.23 55.42 58.61 57.70 53.73 49.14 42.05 39.93 42.72 41.84 43.49 47.19 46.79 49.15 43.62 38.66 35.96 30.74 42.95 45.45 47.49 46.37 38.56 46.55
45.46 45.61 46.31 47.20 47.47 47.83 47.79 48.35 48.44 48.45 48.81 48.62 49.40 52.51 52.38 49.08 51.87 52.77 50.27 49.52 53.47 52.30 48.85 50.25 50.01 50.90 54.14 50.34 41.42 45.32 43.28 45.92 41.05 39.92 36.81 41.03 41.75 37.98 38.21 37.29 40.93 46.79 46.90 47.67 37.66 40.65 47.95
45.77 46.19 46.67 47.05 47.38 47.64 48.06 48.28 47.96 48.12 48.31 48.45 47.47 51.31 50.19 53.29 54.53 56.45 55.62 52.53 53.13 53.91 45.17 50.00 50.31 51.57 52.35 46.62 47.15 47.92 44.45 46.49 44.82 45.52 42.08 40.06 40.38 36.54 42.01 34.82 33.01 47.36 45.85 41.70 47.25 49.84 49.11
45.89 46.31 46.71 47.03 47.28 47.55 47.94 48.27 48.34 48.65 49.23 49.52 46.70 53.26 55.20 51.43 55.12 58.19 57.44 58.08 56.22 57.27 54.28 53.46 53.12 51.88 53.21 50.53 49.77 51.30 40.75 40.19 45.57 41.20 47.75 41.83 45.74 43.84 43.25 42.38 49.18 49.27 48.32 50.46 50.45 48.98 49.30

GFSGBSN_sfc_wetblb_051.txt.gz
Wetbulb
56.78 57.42 58.04 58.49 58.52 60.11 60.84 60.31 59.52 58.58 58.14 57.75 57.55 57.26 57.26 57.29 56.97 56.71 56.22 56.28 56.42 56.70 56.76 56.67 56.80 57.10 53.68 50.16 52.25 58.54 62.91 61.92 58.01 54.84 51.89 51.78 49.97 48.00 43.90 44.39 45.41 44.56 46.66 49.31 54.56 53.13 52.83
55.62 56.29 56.89 57.56 58.06 58.38 60.77 60.59 59.41 58.47 58.07 57.63 57.24 56.92 56.71 56.43 56.39 56.39 56.16 55.99 55.85 55.91 56.20 56.57 56.68 56.69 52.15 46.20 57.40 60.79 61.66 58.34 56.43 52.83 51.86 52.26 50.59 50.50 47.72 46.82 47.00 49.39 49.24 49.15 50.99 51.71 51.43
54.82 55.32 55.84 56.77 57.41 57.53 58.00 59.59 59.14 58.66 58.25 57.78 57.32 56.73 56.27 56.21 55.88 55.80 55.75 55.71 55.39 55.41 55.87 56.25 56.47 54.86 51.16 48.63 55.48 54.91 56.22 57.81 56.76 53.26 51.16 53.20 53.45 49.86 49.55 48.23 50.54 48.73 45.26 47.49 49.11 49.97 48.73
54.96 55.04 55.54 55.93 56.56 56.68 56.33 57.72 59.02 58.90 58.24 57.88 57.54 56.86 55.88 55.50 55.11 54.99 55.21 54.94 54.88 55.25 55.73 56.10 56.36 52.76 48.22 58.38 56.08 56.45 56.06 54.76 58.27 57.14 55.76 56.22 55.50 52.14 50.06 50.46 48.86 45.64 45.30 40.61 48.03 50.87 51.42
54.62 54.68 54.89 55.13 56.30 56.53 56.19 56.53 58.04 58.70 58.44 57.84 57.48 56.69 55.80 54.92 54.46 54.50 54.72 54.44 54.64 55.41 55.84 55.62 52.24 50.94 49.12 59.96 56.24 57.09 55.01 54.33 56.34 56.29 56.22 57.21 53.59 49.72 49.30 44.61 42.36 43.25 38.74 40.51 43.48 51.29 49.95
54.58 54.63 54.30 54.50 55.45 56.21 56.39 56.34 57.06 57.74 57.99 57.71 57.23 56.53 55.74 54.91 54.39 54.28 53.85 54.25 54.81 53.97 54.62 55.02 54.56 47.53 52.59 52.14 55.05 55.26 55.32 55.99 53.76 54.40 53.58 51.70 48.24 44.89 45.49 41.82 35.37 39.24 39.52 41.17 40.62 46.39 48.86
54.48 54.29 54.44 54.30 54.90 56.14 56.66 55.96 56.39 56.92 57.34 57.40 56.95 56.51 55.86 54.89 54.74 54.58 52.89 51.90 50.06 49.10 50.22 49.04 49.82 49.75 51.57 55.01 56.54 53.57 55.19 53.41 52.41 51.62 45.53 49.32 44.07 40.38 43.10 45.85 45.18 44.07 42.93 40.24 42.96 46.29 45.05
53.85 54.02 54.03 54.16 54.58 55.74 56.55 56.21 55.60 56.26 56.55 57.16 56.76 56.27 55.76 54.93 54.92 54.78 50.83 48.36 51.89 52.38 47.60 54.07 53.10 53.65 54.21 54.52 50.68 52.85 54.59 49.22 48.23 44.72 47.73 44.68 42.15 47.34 49.09 48.34 46.12 44.34 42.53 42.42 45.20 46.34 44.02
52.82 53.63 53.72 53.88 54.10 54.80 55.66 55.88 55.30 55.83 56.44 56.60 56.30 55.88 55.48 54.83 54.40 51.05 50.37 50.72 54.87 53.98 47.21 51.58 54.45 53.94 52.98 52.48 49.76 50.24 51.92 49.51 46.46 45.60 45.22 41.89 46.03 50.17 48.28 46.35 45.42 45.04 43.69 42.29 42.50 45.13 44.15
51.19 52.38 53.17 53.33 53.62 53.89 54.44 55.29 55.11 54.97 56.25 55.79 55.57 55.17 54.44 53.29 50.42 52.05 50.76 55.81 55.16 53.08 41.94 46.52 50.32 53.39 53.24 50.86 49.07 53.59 53.78 49.85 47.54 44.74 46.07 44.35 48.70 47.48 46.09 45.17 46.56 41.92 47.33 46.57 44.43 41.54 35.57
50.68 51.22 52.25 52.90 52.76 52.67 52.80 54.05 54.86 54.58 55.95 55.69 55.15 54.72 53.72 53.13 50.28 50.97 56.03 57.56 55.56 53.39 30.49 49.72 50.16 53.63 50.61 49.35 49.99 50.45 53.71 50.10 45.07 46.11 46.53 44.16 46.07 46.28 44.75 45.91 48.24 44.27 47.70 46.05 45.73 42.06 39.82
50.32 50.46 51.20 52.29 52.07 52.04 52.38 53.35 53.89 53.33 53.49 55.29 54.81 54.28 53.54 52.27 51.36 52.45 54.70 55.83 55.27 43.27 32.23 46.02 49.17 46.84 46.92 48.79 48.94 49.84 49.08 50.69 50.03 47.18 47.33 45.82 49.29 48.16 47.42 49.92 48.42 48.53 45.98 45.75 43.79 41.59 32.96
48.83 49.70 50.53 51.34 51.67 51.94 52.19 53.10 53.50 52.78 52.77 54.89 54.29 53.85 53.02 54.48 50.06 56.96 54.36 52.68 40.94 35.91 47.13 44.18 43.75 46.29 45.79 45.10 46.12 46.88 45.38 43.18 40.77 38.32 39.25 44.38 45.62 48.48 49.93 45.06 47.64 45.91 41.45 32.93 30.79 30.38 30.71
47.92 48.35 49.11 50.22 51.03 51.67 51.90 52.40 52.47 52.14 52.18 54.09 53.69 53.05 52.59 53.32 54.01 54.92 54.87 48.98 36.37 41.83 43.24 48.35 45.97 46.01 43.02 45.37 45.23 45.74 42.96 40.43 44.04 42.99 39.58 38.20 36.86 44.46 48.59 45.99 43.96 43.91 42.36 33.15 28.13 29.43 32.22
47.48 47.82 48.36 49.23 50.29 51.19 51.69 51.61 52.29 51.77 51.96 53.57 52.99 52.38 51.09 52.00 53.46 53.18 51.40 40.00 37.00 43.40 46.41 46.51 45.14 42.26 41.75 44.87 45.77 43.89 41.75 40.99 43.26 44.11 37.82 39.39 39.49 48.35 49.86 49.66 47.33 43.72 39.30 45.33 37.28 35.45 29.10
47.00 46.98 47.38 48.15 49.24 50.22 50.90 51.38 52.08 51.83 52.18 52.68 51.67 50.37 49.47 53.66 55.32 52.00 47.17 39.78 43.74 48.55 49.25 48.52 42.07 43.22 39.48 42.02 42.86 41.87 41.65 44.92 44.27 46.00 46.71 44.69 38.24 45.33 47.90 49.42 47.99 45.33 46.83 37.01 36.25 27.73 25.98
46.22 45.70 46.40 46.77 48.06 49.28 50.22 51.11 51.75 51.49 52.57 52.68 50.81 46.45 50.91 54.77 54.76 49.23 39.09 41.28 45.29 50.41 50.69 47.61 44.77 42.75 42.99 41.90 43.18 41.08 42.44 45.46 46.82 48.57 48.88 45.47 40.76 41.34 46.36 43.94 42.21 42.39 40.40 41.10 39.97 36.51 28.35
45.13 45.40 45.49 45.94 46.19 48.30 49.54 50.74 51.53 51.28 52.02 51.41 49.40 41.77 52.57 56.21 43.92 42.44 40.07 43.65 46.09 48.28 50.60 49.41 48.36 47.11 45.05 43.61 43.84 41.83 42.34 44.77 48.45 49.73 45.14 46.92 41.26 36.61 41.15 46.74 48.09 44.97 42.71 42.39 30.69 33.05 33.95
44.32 44.48 44.99 45.12 46.37 47.35 47.76 49.99 51.03 51.38 51.41 50.56 45.78 46.43 54.19 53.26 35.85 38.32 42.76 43.41 46.44 47.06 47.29 48.25 47.01 48.30 47.85 44.18 42.10 43.58 44.09 50.15 49.07 47.80 45.30 46.80 40.52 31.80 36.58 41.19 45.16 42.31 43.48 43.23 42.16 38.07 33.78
44.20 44.42 45.04 44.50 46.12 47.23 46.31 49.76 50.44 50.92 51.41 51.76 46.19 40.93 48.14 49.69 44.00 40.61 40.62 40.88 42.25 48.56 48.01 49.33 48.90 48.70 46.26 43.29 45.58 44.40 45.20 50.04 50.28 48.41 45.97 47.95 43.29 38.12 31.72 36.82 41.30 40.02 42.55 43.34 40.64 30.52 32.87
44.20 44.30 44.73 44.54 46.71 47.48 46.08 49.62 49.82 50.86 51.00 51.12 46.57 43.22 47.73 42.17 42.99 42.76 42.58 42.66 41.71 43.31 48.86 49.61 47.61 46.88 45.20 40.70 42.57 44.17 46.25 47.18 49.24 46.92 47.16 45.22 38.35 40.12 40.88 42.49 43.26 42.58 41.83 42.07 41.12 40.04 34.15
44.11 44.11 44.37 45.24 45.66 45.75 46.45 48.33 49.36 50.37 50.90 47.94 43.87 43.49 47.74 45.77 46.48 44.35 42.72 41.13 42.54 45.01 47.00 45.86 45.50 47.13 46.30 42.59 43.67 42.45 46.03 45.68 44.21 45.91 44.00 46.00 38.10 39.49 37.66 43.07 41.92 38.59 41.11 41.34 41.03 41.26 40.06
44.29 44.72 44.69 44.88 45.47 43.95 43.84 44.81 48.99 49.76 50.11 44.30 48.11 48.43 47.59 43.76 44.40 42.48 41.73 42.89 43.44 47.10 48.43 49.42 47.76 46.31 44.45 46.08 48.68 48.17 50.01 49.49 48.33 45.21 42.78 43.19 40.05 34.87 31.79 37.11 36.79 29.61 37.83 39.75 40.98 41.60 40.24
44.16 44.81 44.83 44.86 45.14 43.63 43.79 44.85 48.47 49.38 49.20 48.31 48.71 48.92 46.31 39.66 43.80 43.14 44.03 45.21 45.24 46.17 45.98 49.71 49.06 46.30 49.84 52.78 51.44 49.72 47.99 48.16 50.21 47.35 48.14 42.67 40.61 34.18 29.70 29.64 21.79 38.06 43.36 42.18 40.60 40.98 41.45
43.86 44.52 44.90 45.07 44.95 44.43 44.49 45.60 48.15 48.82 49.74 46.69 49.65 50.20 45.94 36.16 44.91 44.95 44.52 44.98 45.94 47.77 47.80 48.66 50.67 52.31 52.73 50.43 43.20 39.70 37.36 37.33 42.51 46.52 45.44 46.89 39.10 32.35 27.61 27.25 34.84 39.09 41.07 40.56 38.55 37.41 42.03
43.98 44.28 44.37 44.64 45.12 44.89 46.12 47.05 47.82 48.42 49.83 48.51 47.17 51.42 49.61 45.34 42.96 48.19 45.04 45.94 43.96 45.07 45.95 47.89 52.33 53.50 51.84 47.15 37.92 33.53 32.01 37.74 37.50 40.08 44.87 44.81 42.23 32.66 29.52 25.62 21.05 36.21 42.15 44.87 43.05 31.09 43.13
44.13 44.09 43.28 44.18 45.43 46.45 46.82 47.28 47.89 48.76 49.47 48.59 47.44 50.75 47.85 45.21 48.93 48.52 44.61 43.91 48.35 47.57 46.29 46.63 47.48 48.52 51.04 35.87 36.27 32.25 32.52 42.63 33.72 33.48 31.94 31.31 30.62 28.13 25.21 24.70 32.07 44.00 44.27 45.23 30.12 32.39 43.69
44.23 44.16 43.63 44.27 45.98 46.62 47.36 48.08 48.65 48.94 49.42 49.09 46.79 48.95 47.60 46.12 47.78 51.96 50.29 47.38 48.77 48.06 41.54 46.19 44.57 46.67 45.38 37.60 38.16 33.22 31.63 36.13 36.75 41.75 36.65 33.76 31.69 26.97 31.18 30.84 27.77 44.65 43.16 36.50 41.21 43.56 44.30
44.23 44.64 44.81 45.52 45.97 46.86 47.35 47.80 48.44 48.71 48.90 48.81 43.22 49.16 51.14 45.97 47.24 51.38 53.79 53.52 53.37 52.34 47.51 46.65 45.70 46.99 47.14 42.73 40.66 38.14 36.71 34.42 35.16 30.27 43.15 34.18 39.63 34.82 36.22 34.87 43.39 45.00 44.36 45.66 45.83 44.26 44.41

GFSGBSN_sfc_wetblb_054.txt.gz
Wetbulb
55.85 56.16 57.05 57.85 58.36 58.31 58.83 60.81 59.76 58.74 58.20 57.77 57.41 57.18 57.29 57.51 57.29 56.72 55.88 55.49 55.98 56.34 56.32 56.31 56.70 57.12 52.34 47.61 49.65 57.14 62.33 62.00 56.52 53.69 50.83 49.49 48.40 46.80 42.80 43.14 44.70 42.21 44.21 50.62 51.84 51.82 50.97
55.29 55.51 55.86 56.61 57.15 57.84 58.43 58.78 59.96 58.69 57.87 57.58 57.26 56.90 56.68 56.64 56.58 56.31 55.82 55.33 55.47 55.51 55.72 56.19 56.46 56.53 51.28 43.99 55.24 60.19 58.07 56.81 54.13 51.48 50.34 50.41 49.44 48.97 46.13 45.55 44.03 46.85 50.36 50.40 50.31 50.20 51.44
55.27 55.02 55.05 55.36 56.17 56.93 57.70 57.10 58.09 59.04 58.35 57.76 57.31 56.85 56.49 56.29 56.05 55.80 55.52 55.03 55.07 55.07 55.45 55.97 56.22 54.45 49.85 45.37 52.84 52.38 53.76 55.26 55.05 51.82 49.72 50.90 51.24 49.06 47.97 46.78 49.39 46.92 43.85 47.04 47.10 46.75 47.46
55.22 55.13 55.13 55.01 55.33 56.13 56.37 56.29 56.47 58.46 58.76 58.05 57.68 56.95 55.98 55.60 55.23 54.74 54.50 54.32 54.48 54.93 55.33 55.82 56.01 51.62 45.41 56.32 54.86 55.21 54.31 54.11 55.36 53.38 52.27 53.28 53.56 50.98 48.58 48.81 47.63 42.54 41.67 37.79 46.83 49.24 49.99
54.91 55.01 54.96 54.85 54.53 55.24 56.02 56.14 55.97 57.00 58.58 58.34 57.43 56.89 56.08 55.09 54.48 54.01 53.95 54.00 54.48 55.13 55.56 55.36 50.63 49.08 46.90 58.22 54.83 57.01 55.55 53.14 54.12 54.45 54.21 55.50 52.14 47.99 48.01 42.81 40.59 42.43 37.79 39.29 44.27 50.11 48.62
54.22 54.87 54.77 54.67 54.26 54.40 55.64 56.00 55.90 56.27 57.42 58.08 57.75 56.99 56.22 55.07 54.32 53.50 53.49 54.11 54.50 53.99 53.77 54.75 53.39 44.25 49.97 50.11 54.26 54.78 54.08 54.27 51.90 53.17 51.66 50.04 46.39 43.50 43.27 41.08 35.73 38.67 39.36 41.27 40.15 46.48 47.13
52.99 53.40 54.66 54.42 54.39 54.42 54.97 56.09 55.90 55.19 56.34 57.36 57.56 56.96 56.24 55.29 54.46 53.97 51.72 50.44 48.45 48.31 48.99 47.53 46.45 46.53 49.17 53.51 55.15 52.01 53.38 52.03 50.85 50.00 44.19 47.33 43.07 39.93 42.27 44.72 46.09 44.23 42.26 38.86 42.42 45.58 44.98
52.69 53.24 53.90 54.53 54.21 54.37 54.79 55.80 55.56 54.75 55.62 56.22 57.16 56.74 55.96 55.07 54.22 54.09 50.26 46.28 49.39 49.17 43.88 51.40 51.99 51.36 53.11 54.27 49.19 50.76 53.51 48.06 46.60 43.40 46.21 43.60 41.15 46.68 47.68 47.76 45.63 44.21 41.38 40.16 43.26 44.86 45.94
52.13 51.52 52.73 53.62 54.33 54.23 54.36 55.12 55.28 54.64 54.89 55.53 56.26 56.46 55.72 54.38 53.58 50.59 48.60 49.29 52.92 52.19 44.34 49.28 52.49 51.99 52.84 54.52 48.94 48.40 51.41 48.22 44.80 44.01 43.93 40.18 44.23 49.17 47.09 45.55 44.04 42.93 40.81 40.95 40.73 42.88 42.10
51.27 51.86 51.50 52.70 54.02 53.79 53.81 54.10 54.86 54.87 54.24 55.30 55.43 55.68 54.54 53.18 48.85 49.52 49.36 54.50 54.63 51.74 39.88 44.44 48.97 52.02 53.79 51.44 45.68 51.42 52.06 48.90 45.93 43.40 43.80 42.81 46.56 45.74 44.07 44.42 45.12 39.98 45.70 44.67 42.82 38.16 33.63
50.58 50.51 51.12 51.27 52.61 53.15 52.70 53.03 53.69 54.81 54.17 54.26 54.88 55.23 53.74 52.71 49.53 48.66 54.17 53.16 53.08 51.58 23.20 46.12 48.97 55.31 51.88 46.50 48.26 48.79 51.66 48.64 43.28 45.19 44.02 41.21 43.75 44.16 42.69 43.99 47.01 42.36 45.58 44.44 43.72 39.29 37.38
49.93 50.26 50.68 50.77 50.45 51.67 52.38 52.34 52.75 53.87 53.81 53.71 54.64 54.90 53.28 52.04 50.39 50.57 53.74 52.37 53.45 41.51 28.50 45.22 49.03 46.16 44.28 45.59 47.27 48.27 48.22 49.07 48.63 45.98 45.20 42.82 47.10 46.67 45.26 48.44 47.14 47.05 43.95 43.47 41.59 39.11 32.26
48.69 49.76 49.78 50.22 50.11 50.36 51.57 52.03 51.90 53.21 53.14 52.49 53.87 54.40 52.89 53.67 47.42 53.08 53.82 52.21 39.77 34.57 45.31 43.31 42.61 44.39 44.17 43.30 44.81 45.42 44.03 41.85 39.81 36.82 37.22 42.46 43.33 46.28 48.33 43.87 45.63 44.03 38.59 30.20 28.28 28.53 28.97
47.65 48.68 49.03 49.34 50.14 50.15 50.38 51.53 51.38 52.24 52.91 52.25 52.84 53.32 53.15 52.80 51.15 52.73 52.90 46.07 34.14 39.39 41.46 47.74 43.98 43.68 40.86 43.54 43.29 43.92 41.62 39.01 41.60 41.48 37.54 36.27 34.80 44.05 47.53 44.17 41.57 42.71 39.76 30.36 26.60 26.40 29.36
47.47 48.23 48.42 48.78 49.18 49.73 50.52 50.98 51.09 51.76 52.12 51.63 52.79 53.07 51.94 52.37 52.34 51.97 49.07 38.52 34.90 41.20 45.04 43.78 43.19 40.11 39.65 43.01 43.34 42.41 40.36 39.44 41.96 42.12 36.94 37.05 37.84 46.27 47.61 47.76 45.72 42.13 37.91 42.40 35.25 32.22 28.23
46.98 47.76 48.63 48.06 48.05 48.40 49.41 50.36 50.84 51.47 51.64 51.46 49.79 50.82 50.73 52.99 53.61 51.00 45.71 37.63 41.60 47.12 47.68 46.86 39.72 41.63 37.47 40.16 40.09 40.46 39.84 43.18 42.03 44.43 43.65 42.61 36.47 43.94 46.16 47.43 46.08 43.27 45.16 36.57 35.05 26.84 25.24
46.58 47.58 47.18 47.12 47.24 47.52 48.16 49.25 50.65 51.11 51.45 52.04 49.35 46.38 52.07 54.45 52.75 46.41 38.38 38.96 42.75 47.62 48.37 46.11 43.59 41.78 41.07 40.09 41.20 39.26 40.59 43.74 44.67 44.77 45.35 43.79 39.90 39.30 44.35 42.06 40.38 40.40 38.82 39.23 38.35 33.79 27.75
45.82 46.87 47.09 47.37 47.00 47.17 47.95 48.40 49.80 50.76 51.09 50.47 47.76 41.09 51.65 54.24 41.39 41.07 39.35 42.12 44.21 45.36 48.20 47.45 47.37 45.50 42.83 41.89 40.68 40.23 40.26 43.10 46.74 47.55 42.92 44.65 39.95 34.47 39.84 45.09 47.09 43.26 40.70 40.68 30.08 31.19 31.35
45.54 46.10 46.24 46.40 46.43 46.53 46.96 47.82 49.00 50.40 51.09 46.67 44.42 45.37 51.09 51.09 34.93 35.55 40.86 42.53 44.46 43.66 45.19 46.12 45.63 46.96 46.31 42.62 38.82 41.69 42.36 47.42 47.21 47.37 43.97 45.05 38.43 31.77 35.78 40.86 43.64 40.80 41.72 41.52 39.89 34.99 31.50
45.25 45.68 45.90 46.44 45.53 45.46 46.63 45.37 48.25 49.92 50.81 47.85 46.01 39.38 45.93 47.15 44.04 38.37 37.78 39.72 40.24 45.30 44.43 45.80 46.17 47.32 44.90 42.57 43.92 41.27 43.23 47.70 48.33 47.61 46.22 46.22 40.75 36.03 31.97 35.88 39.18 37.42 40.68 41.13 38.32 29.05 31.24
45.01 45.35 45.40 45.79 45.89 46.02 46.22 45.90 46.92 49.27 50.26 47.67 45.84 40.30 43.20 38.54 40.27 40.39 39.73 40.00 39.06 39.48 44.28 47.46 45.50 45.07 43.84 40.13 40.65 41.11 44.92 45.30 47.34 45.76 46.04 43.57 37.63 39.07 39.77 40.66 41.25 39.69 39.37 39.57 38.32 37.89 32.86
44.77 44.79 44.65 44.91 44.94 45.10 45.57 45.82 45.47 48.36 50.14 45.34 42.79 40.74 44.97 42.20 42.94 40.43 38.70 37.99 38.92 40.88 43.01 41.43 42.96 45.84 45.66 41.89 41.99 40.33 44.73 43.53 42.47 44.37 42.97 43.94 36.72 36.41 35.30 39.06 39.15 36.69 38.79 38.89 39.35 39.42 38.66
44.58 44.58 44.38 44.43 44.53 45.09 45.41 45.80 46.46 46.90 49.02 42.63 46.87 46.35 45.74 41.94 41.52 40.03 39.42 39.09 40.35 42.93 44.60 45.88 46.28 45.56 44.19 45.64 46.56 45.80 47.89 48.09 46.79 43.37 41.36 41.10 38.25 32.65 30.83 34.71 35.02 29.53 36.20 38.47 39.27 39.48 39.27
44.29 44.36 44.22 44.26 44.67 45.16 45.12 44.90 46.52 46.48 48.75 46.79 45.37 47.30 43.63 37.50 42.95 41.47 42.43 43.43 41.84 43.21 41.13 45.83 46.59 45.55 47.70 50.62 48.55 47.06 45.78 46.77 46.82 44.34 45.59 39.53 37.33 31.36 28.09 28.50 22.09 37.40 42.26 41.12 38.45 38.58 39.46
44.14 44.38 44.41 44.32 44.56 44.87 44.36 46.13 46.33 45.44 48.83 46.33 48.32 48.32 44.04 37.25 43.29 44.34 43.70 42.89 44.63 44.81 44.26 45.52 48.33 50.26 50.96 47.96 41.41 37.93 35.27 37.06 40.54 43.30 43.94 44.81 36.35 31.00 27.02 26.97 33.16 37.74 39.55 37.84 36.52 35.45 40.45
44.06 44.24 44.36 44.18 44.34 45.20 44.36 43.72 43.45 44.30 45.89 47.10 46.12 49.60 48.19 40.18 40.84 46.31 44.10 43.76 41.45 41.68 41.59 45.44 50.93 51.69 50.36 44.46 36.66 32.57 30.72 36.06 36.66 39.99 43.78 41.73 38.78 33.57 28.47 24.91 21.87 34.62 40.02 42.57 41.23 30.19 41.11
44.01 44.20 44.44 44.40 44.68 44.99 44.59 44.25 44.04 44.78 46.34 47.41 45.43 48.47 46.00 44.19 45.09 47.13 43.95 42.28 45.68 42.70 40.85 45.55 47.23 46.00 49.20 35.69 33.67 31.38 32.22 40.10 32.65 32.45 30.77 30.80 30.60 27.80 22.91 23.32 29.12 39.25 42.72 42.75 29.92 31.03 41.86
43.93 44.09 44.35 44.37 44.51 44.53 45.07 45.00 44.94 45.20 48.72 47.20 44.43 49.87 46.03 44.39 45.51 49.57 48.72 43.70 45.63 44.95 39.96 44.14 43.89 43.92 40.98 35.32 36.40 36.30 31.65 35.21 34.62 38.34 34.88 32.83 29.68 25.87 28.34 24.49 25.86 43.34 41.82 35.60 37.81 41.56 42.65
43.76 43.84 44.11 44.33 44.57 44.86 44.88 45.65 46.16 48.16 48.63 48.06 43.17 48.84 50.21 43.88 45.27 49.64 49.69 50.42 48.93 48.77 47.00 45.11 44.92 45.01 45.36 40.41 41.15 38.57 35.02 33.38 33.59 30.97 41.13 33.09 35.60 32.59 34.24 32.74 41.11 43.08 42.38 43.49 44.00 42.75 42.70

GFSGBSN_sfc_wetblb_060.txt.gz
Wetbulb
55.02 55.35 55.53 55.13 55.80 55.75 55.79 56.86 57.29 57.58 57.88 58.62 58.43 58.10 58.01 58.18 57.92 57.22 56.33 55.60 55.68 55.60 55.65 55.89 56.06 56.50 51.56 42.81 43.92 49.95 60.32 61.15 55.52 51.38 47.71 46.77 45.55 43.92 40.61 41.21 41.11 38.20 43.60 47.81 49.18 49.20 48.35
54.21 54.67 55.24 55.36 55.34 54.61 54.61 55.52 56.25 56.61 56.60 57.43 58.12 57.77 57.37 57.30 57.22 57.00 56.39 55.62 55.01 54.91 55.18 55.58 55.92 56.21 48.46 38.59 48.82 55.61 51.64 51.95 52.17 49.30 47.37 47.12 46.66 47.01 43.80 42.43 41.75 47.19 46.04 46.86 47.24 47.57 49.12
54.41 54.43 54.66 54.76 55.05 55.01 54.71 54.83 55.17 55.61 56.21 56.29 57.31 57.74 57.35 57.31 57.07 56.63 56.17 55.38 54.63 54.48 55.05 55.40 55.57 53.83 47.49 42.69 49.18 50.84 53.45 51.92 51.94 50.65 46.69 48.44 49.09 46.15 46.24 43.07 47.06 45.74 43.47 45.04 45.07 46.57 45.75
54.60 54.34 54.22 54.35 54.30 54.34 53.82 54.41 54.94 55.32 55.81 56.11 56.30 57.27 56.98 56.62 56.18 55.82 55.42 54.53 54.16 54.38 55.03 55.19 55.17 50.23 41.75 51.04 51.31 53.21 52.46 53.01 52.91 52.51 49.43 50.22 49.56 47.34 45.33 45.85 43.98 42.37 39.60 37.20 42.79 45.46 45.59
54.44 54.38 54.16 53.91 53.50 53.66 53.99 53.31 54.11 54.79 55.04 55.66 55.88 55.74 56.60 56.20 55.54 55.06 54.37 53.90 54.08 55.05 55.44 54.79 49.05 45.83 42.70 53.60 49.40 52.23 53.93 51.69 51.61 51.41 50.28 52.24 49.13 44.92 45.25 40.03 36.38 37.48 32.79 36.22 39.61 47.30 44.01
52.20 54.29 53.66 53.85 53.75 53.35 53.70 54.25 53.90 53.97 54.42 54.87 55.38 55.64 56.36 56.32 55.70 54.39 53.29 53.59 53.89 53.60 53.73 53.91 52.05 43.47 45.19 46.20 50.49 52.51 52.89 52.70 49.31 49.15 48.83 47.07 44.12 40.81 39.82 37.17 31.44 33.77 34.67 38.68 37.35 43.59 44.40
50.89 51.47 52.74 53.21 53.41 53.54 53.33 53.99 53.98 53.60 54.09 54.79 55.29 55.46 56.10 56.34 55.84 54.12 51.22 48.14 44.08 45.80 48.92 45.36 44.91 43.03 44.03 50.81 53.33 49.66 50.60 49.94 49.10 47.47 41.62 44.27 40.49 36.97 38.86 40.25 41.80 41.18 40.21 38.65 40.08 44.43 40.66
50.59 51.15 50.64 51.49 53.31 53.14 53.49 53.39 53.76 53.56 53.69 54.69 54.89 54.54 55.15 56.32 55.86 53.85 50.53 43.79 45.36 47.35 42.40 47.44 48.47 47.81 49.43 51.49 47.62 50.11 50.48 45.67 44.43 40.14 43.07 41.02 38.04 42.66 43.37 43.67 42.09 41.26 40.43 38.83 41.69 42.18 41.58
50.19 50.22 50.89 50.15 51.27 52.88 53.02 52.99 52.73 53.48 53.21 53.83 54.30 54.07 54.50 55.46 54.35 51.68 47.14 47.22 51.44 50.84 41.96 43.89 47.98 47.45 48.39 50.67 47.01 47.31 48.79 45.41 42.29 40.31 40.92 38.16 41.24 45.37 44.09 41.79 40.87 39.53 38.80 37.52 38.67 40.18 40.59
50.21 49.96 49.89 50.67 50.42 50.70 52.44 52.27 52.25 52.91 53.11 53.19 53.32 53.42 53.54 54.46 50.75 49.08 47.05 52.09 52.27 50.26 34.53 38.67 45.11 47.77 50.43 50.48 45.57 51.93 49.42 46.59 42.74 40.51 40.38 39.42 42.80 42.98 41.48 40.88 41.30 36.34 42.52 41.88 40.34 36.72 32.13
50.11 49.68 49.62 49.75 50.15 49.96 51.48 51.10 51.55 52.22 53.21 52.84 53.11 53.15 53.25 53.52 49.32 48.24 51.17 51.82 51.95 48.12 22.44 40.65 46.29 52.45 50.13 45.63 44.71 45.54 48.65 45.93 42.00 42.02 41.60 39.34 40.64 40.71 39.66 40.85 42.85 39.54 43.02 41.66 41.16 37.20 33.97
50.33 49.90 49.62 49.21 49.43 49.42 49.50 51.24 50.75 51.44 52.57 52.59 52.85 52.93 52.59 53.26 51.50 50.69 52.19 52.33 51.62 35.91 24.37 38.18 46.36 44.93 43.56 42.39 43.13 44.51 45.32 46.60 45.91 43.21 41.47 39.96 44.02 43.34 42.38 43.80 43.72 43.87 41.19 38.96 37.33 35.66 29.58
50.34 49.98 49.57 49.25 48.60 48.87 49.18 50.20 50.96 50.77 51.36 52.18 52.12 52.61 52.66 54.25 49.90 51.18 52.22 49.48 40.18 29.88 40.32 38.83 41.72 43.28 40.76 39.36 40.30 42.14 40.94 39.93 38.05 34.94 34.42 39.04 40.34 42.54 44.87 40.10 42.02 40.08 35.60 28.32 27.04 26.83 28.00
50.10 50.05 49.63 49.34 48.76 48.48 48.85 49.53 50.42 50.05 50.39 51.72 51.18 51.45 51.28 52.80 53.14 51.42 51.88 45.19 32.67 36.39 37.68 44.09 42.02 41.45 38.36 39.51 39.59 40.55 38.61 37.12 38.27 38.40 34.12 33.70 31.71 40.40 43.53 41.42 38.48 38.33 36.89 29.36 25.20 24.61 27.23
50.28 50.16 49.81 49.38 48.84 48.39 48.68 48.93 50.01 49.68 49.84 51.06 50.84 46.37 47.60 49.81 53.71 51.14 47.11 36.75 32.93 36.87 42.11 40.31 40.08 36.35 36.31 39.69 39.02 38.95 37.21 36.70 39.03 40.14 35.36 33.08 34.08 41.98 44.27 44.36 42.23 38.26 34.95 38.06 31.54 30.37 27.08
50.16 50.24 49.88 49.43 48.70 48.26 48.17 48.56 49.75 49.66 49.86 50.10 47.09 43.43 43.44 50.43 54.57 49.86 41.23 37.26 39.45 43.01 45.08 44.35 36.35 38.04 33.67 36.28 37.20 37.33 36.27 39.81 39.44 41.54 41.06 38.65 32.64 40.52 43.19 44.36 43.38 40.05 42.22 33.55 31.88 26.70 25.26
49.59 49.53 49.85 49.49 48.49 47.78 47.80 48.35 49.10 49.38 49.28 49.85 45.72 39.74 43.36 50.85 53.19 46.01 35.52 36.91 42.28 45.72 45.76 42.78 40.64 38.51 37.55 36.56 37.75 35.80 37.14 40.08 41.71 40.67 41.33 39.78 36.11 34.79 40.65 39.45 38.32 37.99 36.25 35.46 35.31 30.50 26.52
49.20 49.15 49.09 49.40 48.48 47.98 47.61 48.01 48.92 48.94 48.66 47.27 43.29 33.37 46.13 52.21 41.50 42.88 38.99 38.53 43.31 43.81 45.41 43.40 43.11 42.83 39.75 38.40 36.53 36.73 37.65 40.78 43.21 42.56 39.08 41.41 36.06 30.78 36.73 40.43 42.01 39.65 38.49 37.08 29.57 29.64 29.29
48.96 49.07 49.10 49.20 48.67 47.95 47.39 47.63 48.69 48.60 48.45 43.86 39.15 37.56 50.45 49.27 34.81 37.63 41.57 39.86 41.69 41.89 42.04 41.02 41.13 43.37 43.20 38.50 35.18 38.24 39.42 43.68 43.11 42.47 40.72 41.60 34.55 28.70 32.10 36.23 39.70 37.94 38.96 38.41 35.49 31.87 29.64
48.56 48.81 48.86 49.16 48.58 47.89 47.42 47.39 47.94 48.32 48.59 45.19 39.08 31.46 41.93 44.47 41.82 38.15 38.58 38.49 37.38 43.86 42.20 42.49 41.25 42.77 41.70 38.90 40.25 37.82 39.47 43.75 44.98 43.79 44.87 44.06 36.98 33.44 30.31 33.13 37.16 35.66 37.97 38.46 36.91 28.88 30.35
47.37 48.80 48.75 48.61 48.50 47.88 47.32 47.47 47.83 47.97 48.41 45.18 39.44 33.46 39.87 35.32 36.22 38.45 39.73 39.63 36.87 37.34 42.38 42.50 39.54 40.44 40.12 36.36 37.49 37.97 42.02 43.18 44.49 44.49 42.38 41.48 35.22 35.82 36.25 36.95 37.62 37.13 36.97 36.17 35.18 34.77 31.74
47.45 47.78 48.59 48.53 48.10 47.43 47.03 47.27 47.32 47.63 48.16 43.39 35.62 35.60 40.85 37.59 39.12 38.34 40.12 37.87 37.55 38.65 40.04 38.73 38.29 40.32 41.04 37.73 39.40 38.40 42.70 41.30 40.21 41.28 40.49 40.07 34.97 34.45 33.55 35.39 36.55 35.08 37.85 37.05 36.75 35.84 35.14
47.58 47.39 47.83 48.68 47.93 47.18 46.89 46.89 47.18 47.47 46.74 38.85 40.91 41.14 41.21 38.32 38.80 36.34 36.97 38.10 38.43 40.86 42.09 42.61 41.73 40.61 39.12 41.29 43.99 45.05 45.35 44.69 43.54 40.28 38.43 37.95 35.01 31.68 30.30 32.54 33.29 29.25 34.29 37.06 37.47 37.25 37.34
47.16 47.09 47.02 48.57 47.49 46.94 46.37 45.99 46.35 47.12 45.99 42.22 41.06 40.68 38.87 33.54 37.47 36.28 37.69 40.46 38.85 40.43 39.21 42.85 43.48 40.43 43.05 47.08 46.90 44.99 43.41 43.15 42.81 40.89 41.62 36.05 34.01 30.29 27.10 27.46 21.28 35.35 38.04 38.51 37.29 36.82 36.61
46.81 46.97 47.25 48.11 47.05 46.54 46.14 46.05 46.48 46.60 47.12 42.81 41.69 40.80 40.57 32.88 37.83 39.00 38.47 39.34 40.81 41.47 41.19 42.23 43.75 45.56 46.99 46.52 40.16 36.42 33.65 35.54 37.37 41.09 40.80 40.16 33.62 29.61 27.23 26.95 30.96 34.57 36.40 36.12 35.25 34.52 37.68
46.39 46.54 47.92 47.02 46.34 46.15 45.78 45.65 45.96 46.54 47.32 43.86 42.30 42.40 42.04 38.55 36.43 40.84 39.13 39.79 38.10 37.46 37.90 40.78 44.94 47.24 47.27 39.78 36.00 31.95 30.74 34.29 34.86 36.58 40.49 38.40 36.15 32.15 26.18 24.62 22.78 33.51 38.28 39.19 38.15 29.98 38.47
45.80 47.01 47.07 46.49 45.89 45.87 45.73 45.78 46.06 46.46 46.94 43.61 41.67 43.48 41.09 37.70 42.47 42.85 38.53 38.27 42.04 38.79 35.91 38.56 42.81 42.86 45.03 30.99 29.14 29.87 32.00 38.32 32.35 32.78 32.49 30.95 29.73 28.25 22.81 23.85 30.06 37.94 38.86 39.51 29.84 32.44 38.09
46.88 46.31 45.85 45.60 45.62 45.56 45.61 45.78 45.90 45.79 46.10 42.20 40.73 45.05 41.81 39.84 43.31 45.64 44.88 41.16 41.86 41.60 35.14 39.12 42.91 40.80 36.25 33.19 32.72 31.14 28.73 35.06 34.05 36.93 35.23 34.97 31.87 27.83 25.72 23.26 27.52 39.84 38.44 34.66 37.17 37.73 39.39
45.55 45.39 45.39 45.25 45.33 45.36 45.07 45.03 45.53 45.69 45.19 42.87 37.85 43.67 47.41 43.34 42.54 45.79 45.61 46.79 46.67 46.13 43.16 42.26 39.86 41.68 41.76 38.47 35.34 33.03 31.20 31.66 33.77 31.05 38.68 33.96 37.08 34.08 35.06 34.17 39.54 39.97 38.72 39.42 39.95 39.85 40.58

GFSGBSN_sfc_wetblb_066.txt.gz
Wetbulb
54.54 55.12 54.68 54.44 54.75 54.95 54.59 55.03 55.28 54.85 54.89 54.93 55.30 55.90 56.83 57.72 58.71 58.62 57.56 56.90 57.02 57.07 56.76 56.71 56.51 56.73 56.26 50.48 50.35 58.36 62.82 62.39 60.34 57.21 54.47 52.22 50.83 51.89 49.25 50.54 50.76 48.62 51.12 53.20 52.81 53.86 54.78
52.95 53.67 54.62 55.16 54.65 54.57 54.00 54.79 54.82 54.53 54.31 54.66 55.08 55.24 56.11 56.46 57.07 57.99 57.60 57.02 56.55 56.33 56.35 56.34 56.08 55.71 53.35 46.03 53.67 58.56 58.24 57.78 57.21 56.37 54.26 54.20 53.45 54.01 51.76 51.04 50.28 53.34 52.97 52.70 53.83 54.30 55.01
51.45 52.60 52.62 53.31 54.52 54.69 54.24 53.68 53.90 54.29 54.13 54.18 54.54 54.74 55.24 55.87 56.04 56.44 57.23 56.87 56.31 56.13 56.07 55.96 55.71 55.60 50.65 49.73 54.78 58.60 57.40 57.13 58.17 56.58 53.52 55.17 55.14 53.83 53.82 50.83 54.50 53.77 51.42 53.21 54.23 54.72 53.07
50.96 51.02 51.23 52.51 53.37 53.92 53.98 53.75 53.51 53.55 53.96 53.90 54.08 54.29 54.17 54.61 54.92 55.22 56.03 56.09 55.83 55.97 55.81 55.85 55.56 54.88 48.00 55.21 56.57 54.89 56.70 57.79 58.00 57.78 56.42 56.38 56.24 54.58 53.61 53.66 51.26 50.14 49.99 45.70 51.74 53.49 53.14
51.79 51.27 50.89 51.23 51.88 52.81 53.51 53.62 53.33 53.45 53.50 53.63 53.58 53.50 53.80 54.00 54.41 55.02 55.55 55.63 55.69 55.69 55.35 55.01 54.58 52.58 47.59 55.82 53.07 55.11 55.77 54.20 56.32 57.49 57.35 55.22 55.85 53.45 52.92 49.41 46.85 48.03 43.80 44.23 46.60 52.90 51.58
51.97 51.94 51.66 51.90 51.76 52.05 52.65 53.28 53.30 53.09 52.89 52.95 53.53 53.27 53.43 54.03 54.07 54.26 54.73 54.79 56.38 53.85 55.47 55.63 55.04 49.23 51.76 49.65 53.65 56.46 58.32 55.56 54.90 55.18 53.60 53.56 53.25 50.54 50.34 47.79 40.59 42.96 43.45 44.70 45.06 49.29 50.70
52.23 52.36 52.44 52.23 51.90 51.42 51.66 52.66 53.34 52.85 52.74 52.74 53.07 53.34 53.29 53.76 54.13 54.62 55.21 57.56 52.81 50.08 52.47 49.94 49.58 49.57 49.78 54.15 56.83 55.51 57.52 55.76 54.78 53.66 49.61 52.57 48.75 46.30 47.12 48.54 48.08 46.91 45.13 44.24 47.07 49.72 48.59
50.74 51.87 52.19 52.18 52.19 51.41 50.96 51.62 52.01 52.72 52.56 52.55 52.41 52.96 52.92 53.43 53.90 54.92 54.61 52.86 52.37 51.92 45.41 51.55 51.18 51.98 53.94 54.36 50.50 54.58 56.58 51.56 51.07 48.25 50.73 49.46 46.48 49.92 49.96 49.27 47.87 47.00 45.11 45.12 47.50 49.09 48.79
50.88 51.11 51.43 52.17 52.06 52.00 51.18 51.17 51.16 51.92 52.71 52.23 52.04 52.67 52.73 53.06 53.87 53.87 54.89 54.43 54.85 54.74 46.14 48.33 51.67 49.98 50.75 53.05 49.41 51.70 53.94 52.09 49.63 47.89 48.35 46.81 48.09 50.17 49.07 48.22 46.58 47.08 45.48 45.11 44.84 48.22 49.36
50.38 50.31 50.88 51.39 52.37 52.17 51.86 51.67 51.10 51.10 52.33 52.10 51.64 51.87 52.17 52.42 51.30 55.22 53.16 55.93 56.94 56.48 43.15 43.53 45.97 49.82 51.09 51.99 48.17 53.90 55.28 51.93 49.06 46.72 48.20 48.08 50.68 47.99 47.66 46.39 47.94 44.21 48.27 47.31 46.01 45.22 42.39
50.04 50.23 50.48 50.84 51.05 51.43 51.16 51.20 51.16 50.67 51.10 52.17 51.45 51.56 51.69 52.21 51.10 51.73 54.46 58.08 56.31 54.27 30.90 44.49 46.10 54.40 52.15 47.90 48.79 49.88 55.72 51.67 47.76 47.49 48.35 46.26 47.17 46.71 46.05 47.02 48.94 45.67 48.44 47.23 47.16 46.02 45.04
50.06 50.25 50.49 50.80 50.76 50.65 50.91 50.74 50.64 50.50 50.31 51.14 51.42 51.12 51.44 51.05 52.32 54.73 56.80 57.94 53.86 40.81 30.52 40.92 48.03 46.93 46.42 47.75 48.08 50.67 50.47 52.67 52.49 48.64 49.25 48.39 50.72 49.79 48.62 49.13 49.74 50.01 47.91 47.10 47.32 45.93 39.60
49.68 49.77 50.23 50.30 50.35 50.33 50.76 50.66 50.51 50.15 50.08 50.32 51.05 50.85 50.91 52.36 48.75 56.64 57.21 52.90 40.39 33.75 42.54 39.98 44.04 46.05 45.72 44.30 45.76 47.62 46.68 46.32 44.92 41.86 42.63 46.38 46.99 49.82 50.21 47.57 49.19 48.80 46.30 40.00 38.01 38.33 37.86
49.62 49.67 49.88 50.08 50.22 50.46 50.54 50.48 50.22 49.91 49.47 49.92 50.52 50.16 50.70 52.00 53.18 54.52 53.21 43.82 33.03 38.02 39.77 45.21 45.51 44.99 42.63 44.86 45.31 46.45 45.49 44.09 47.79 46.34 43.66 41.40 39.58 46.91 50.08 48.38 46.32 47.16 46.40 40.94 32.23 34.12 38.07
49.91 49.85 49.79 49.97 50.20 50.30 50.53 50.50 50.27 49.91 49.31 49.40 50.25 49.56 47.92 50.76 53.53 52.21 46.49 35.46 36.10 40.39 43.25 41.68 43.63 42.03 40.60 43.61 44.49 45.15 45.06 44.17 46.83 47.93 42.46 41.86 41.50 47.81 49.26 49.95 49.68 46.16 43.37 47.25 40.98 40.48 39.45
49.70 49.70 49.78 49.83 49.89 50.06 50.10 50.35 50.19 49.94 49.23 49.18 47.68 45.07 44.82 50.82 52.97 47.93 40.43 36.77 40.45 45.36 45.44 45.55 39.21 44.34 39.24 40.23 41.62 43.65 43.48 46.23 46.01 48.59 49.89 45.94 40.74 46.50 48.69 50.32 49.35 48.22 49.48 41.73 43.67 33.60 32.34
49.05 49.25 49.41 49.58 49.79 49.79 49.89 50.15 50.04 49.71 49.11 48.98 45.65 38.78 47.12 51.29 51.75 41.26 33.25 36.94 42.17 47.43 47.68 44.24 42.55 42.04 42.06 41.01 41.86 42.54 43.03 44.94 47.94 47.50 49.48 47.86 45.26 43.69 47.57 45.97 45.54 45.84 44.88 45.41 45.10 42.60 36.19
48.64 48.78 48.97 49.29 49.61 49.88 49.71 49.82 49.92 49.61 48.88 47.99 42.94 33.58 49.53 51.21 36.12 37.29 34.59 40.91 43.43 44.78 48.64 46.36 45.53 44.20 43.87 42.07 41.59 42.01 42.66 45.12 48.79 49.11 45.12 48.58 45.74 41.13 43.18 48.30 49.53 48.98 46.96 46.93 40.60 38.86 41.36
48.73 48.77 48.60 49.05 49.06 49.40 49.51 49.58 49.60 49.28 48.83 46.72 37.33 38.18 49.93 48.66 30.35 31.45 38.76 39.89 42.92 43.53 44.36 45.15 43.97 45.14 46.95 44.80 39.82 43.63 44.21 48.75 48.26 48.37 46.77 48.20 43.94 38.83 40.27 43.97 47.26 45.43 47.01 47.29 46.28 44.40 40.42
49.18 48.85 48.66 48.87 49.18 49.34 49.64 49.45 49.36 49.21 48.79 46.41 38.52 32.05 39.37 41.10 42.74 36.49 35.52 37.02 38.34 44.60 44.41 46.20 44.93 46.11 43.95 43.18 46.12 41.98 43.39 45.75 48.26 48.75 47.29 48.75 45.73 42.28 38.12 41.11 44.57 42.65 44.68 46.29 45.35 41.01 40.70
48.50 49.16 48.88 48.88 48.96 49.41 49.57 49.63 49.28 48.96 48.40 44.75 38.51 35.74 39.94 31.47 34.83 37.96 37.77 38.47 36.63 38.11 43.85 46.30 44.54 44.15 43.39 40.79 42.44 42.06 43.81 45.56 45.86 45.56 48.42 49.01 42.77 44.50 44.45 44.79 44.72 44.01 43.44 44.34 43.36 43.96 40.77
47.65 47.98 48.17 48.43 48.29 48.62 48.81 49.54 49.01 48.68 48.28 41.70 35.21 37.67 41.48 38.13 38.78 37.47 37.13 36.77 37.24 39.62 42.10 41.27 41.98 43.95 44.60 41.66 42.98 40.79 44.13 45.30 45.45 47.25 47.37 48.79 43.02 44.77 42.14 44.59 44.05 42.24 44.24 44.79 45.21 45.35 45.42
47.45 47.51 47.38 47.71 47.84 48.38 48.65 48.96 48.89 48.43 47.41 40.34 43.20 44.77 42.51 38.65 37.67 35.68 36.66 35.95 37.87 41.69 43.73 45.39 44.80 43.46 41.65 43.81 46.82 46.99 48.05 47.60 47.36 46.06 46.42 46.30 44.65 42.37 38.73 42.63 42.27 37.32 42.31 44.55 45.74 47.03 46.53
46.69 47.04 47.30 47.52 47.65 48.01 48.03 47.68 48.58 48.04 46.68 45.46 43.02 43.36 39.26 35.01 37.40 35.23 37.08 38.00 38.40 40.82 41.03 44.83 46.67 44.05 46.38 49.13 48.49 47.63 46.86 46.33 47.13 46.81 48.41 45.24 44.63 44.11 39.50 37.54 33.03 43.66 46.98 48.31 46.66 47.56 48.92
46.18 46.45 47.01 47.23 47.59 47.59 47.56 47.49 48.19 47.57 46.87 45.80 44.94 43.95 40.79 36.18 38.29 38.08 37.50 37.21 40.05 42.07 42.72 44.04 46.72 48.67 50.31 47.00 40.91 36.55 38.33 41.54 43.76 46.32 46.77 48.38 45.50 40.49 38.35 37.41 41.58 43.34 42.64 45.06 44.83 45.40 49.95
46.44 46.15 46.62 46.89 47.33 47.33 47.39 47.62 47.85 47.28 47.03 45.54 47.31 48.31 44.98 39.22 38.36 40.60 38.57 39.26 38.29 40.05 41.45 44.05 49.11 51.26 48.94 43.74 41.51 34.28 29.78 38.82 39.09 41.35 44.97 44.67 45.11 43.66 38.10 36.03 34.30 43.36 47.46 49.68 48.80 41.18 49.96
46.39 46.33 46.42 46.76 47.02 47.15 47.12 47.93 47.37 47.14 46.89 45.85 46.71 49.65 45.35 39.33 42.00 42.68 38.78 37.35 42.35 42.41 42.30 43.98 45.95 46.30 49.29 41.73 38.32 36.67 34.15 40.26 37.17 37.61 38.25 39.50 39.92 39.46 38.98 38.78 42.04 47.13 46.18 48.55 39.64 43.55 50.82
45.55 45.25 45.98 46.55 46.88 46.98 47.37 47.38 47.04 46.88 46.93 46.00 45.32 49.38 46.41 41.30 43.51 45.03 45.14 42.29 42.40 44.39 40.75 44.12 43.70 45.46 44.38 39.85 39.50 39.33 38.43 39.29 38.99 42.53 40.40 39.64 39.22 38.51 38.92 37.81 35.91 46.07 44.51 43.69 50.08 51.02 51.60
46.37 46.14 46.39 46.44 46.38 46.34 46.56 47.17 46.90 46.56 46.61 45.92 41.70 47.81 49.32 44.18 42.86 47.03 47.60 48.99 47.98 48.58 46.28 47.74 44.58 45.33 46.13 42.44 43.18 43.81 40.30 40.69 40.17 35.62 44.91 37.92 43.88 43.36 42.69 44.06 49.03 48.87 50.54 51.73 51.43 51.87 50.20

GFSGBSN_sfc_wetblb_069.txt.gz
Wetbulb
52.53 52.69 53.41 54.75 55.23 55.00 54.18 55.04 55.06 54.94 54.77 54.44 54.80 54.92 54.49 54.93 56.57 57.07 57.11 57.50 57.77 57.89 57.61 57.52 57.53 57.01 56.72 53.32 53.30 61.10 62.78 63.06 60.09 59.02 56.60 54.01 52.12 51.57 50.14 51.21 51.64 50.32 52.26 53.52 54.10 54.29 54.70
51.79 51.91 52.31 52.86 53.49 54.59 54.83 54.85 54.51 54.05 54.28 54.19 54.13 54.55 54.77 54.82 55.53 56.23 56.33 56.56 57.14 57.36 57.37 57.33 57.21 55.80 54.76 48.59 56.15 57.39 59.64 61.49 59.97 58.19 55.87 54.83 53.72 55.04 52.77 51.64 50.86 53.92 53.75 53.72 54.42 53.97 54.98
52.03 51.58 51.49 52.47 52.98 52.81 53.49 54.71 54.20 53.96 53.87 54.14 53.95 53.86 54.24 54.59 54.55 55.13 55.64 55.90 56.38 56.80 57.14 56.97 56.62 56.62 52.69 52.07 57.71 58.45 58.73 58.80 59.37 57.63 54.92 56.85 56.81 54.63 54.75 51.66 53.87 53.74 50.75 52.43 52.86 54.28 52.53
52.21 52.04 51.85 52.06 52.25 52.41 52.66 53.71 54.24 54.03 53.85 53.67 53.87 53.86 53.45 53.79 53.79 54.28 54.87 55.17 55.94 56.82 56.96 56.32 56.15 56.71 51.30 57.87 58.72 56.32 57.89 59.15 59.87 59.06 57.69 58.20 58.31 56.15 54.23 54.98 52.36 49.75 50.88 45.88 49.41 53.50 53.30
53.19 52.67 52.24 52.42 52.25 51.95 52.06 52.31 53.53 54.02 53.95 53.53 53.38 53.28 53.14 52.92 53.46 53.93 54.00 54.81 55.74 56.88 56.18 55.70 56.23 55.50 50.38 56.54 53.84 55.73 56.08 55.80 58.75 58.47 59.10 58.29 57.42 54.21 54.28 49.29 47.35 48.79 43.95 46.06 48.28 52.64 51.87
51.56 52.09 53.58 53.29 52.85 52.70 52.15 52.10 52.02 53.48 53.60 53.35 53.29 52.98 53.08 52.94 53.25 53.55 53.47 54.55 56.76 55.70 55.84 58.15 57.06 51.18 53.70 51.33 54.73 55.15 56.14 56.32 56.09 56.62 55.74 54.88 53.62 51.03 51.15 48.63 41.96 43.18 44.86 45.30 45.54 50.40 51.28
50.81 50.89 51.14 52.65 53.40 53.03 52.54 52.41 52.11 52.39 53.19 53.44 53.10 53.07 52.73 53.16 53.11 53.65 54.82 57.87 54.30 53.71 55.41 50.27 51.53 49.85 50.98 53.97 57.32 55.12 55.70 54.86 55.86 54.68 49.87 52.79 49.20 47.16 49.17 50.53 49.21 47.82 46.59 45.91 48.38 50.81 48.79
50.23 50.13 50.37 50.72 51.39 52.90 52.31 52.36 51.94 51.63 52.32 53.11 52.98 52.48 52.46 52.99 53.00 53.95 56.10 52.94 53.45 54.40 47.52 52.98 52.88 52.83 55.29 55.57 51.68 53.72 57.67 52.00 51.67 48.86 51.63 50.50 47.09 51.13 51.16 49.31 47.93 47.35 46.10 46.32 49.01 49.89 49.10
50.75 50.73 50.09 50.29 50.47 50.78 52.10 52.62 52.14 51.74 51.69 52.05 52.84 52.63 52.33 52.51 53.13 53.48 54.48 54.65 58.76 57.55 48.89 48.60 50.96 50.66 51.47 53.55 50.93 52.05 54.68 52.84 50.36 48.69 49.17 47.53 49.72 51.89 49.96 48.65 47.30 47.86 46.70 46.94 46.13 49.41 50.16
50.13 50.13 50.30 49.96 50.18 51.03 51.68 52.74 52.45 51.93 51.34 51.27 52.38 51.94 51.65 51.80 49.29 53.71 53.46 58.25 59.35 58.67 43.65 43.89 48.83 51.19 51.68 52.23 48.82 54.42 55.56 52.60 50.91 47.97 49.29 48.62 51.31 49.64 48.96 47.75 49.00 45.47 49.97 48.13 47.38 46.57 39.92
49.73 49.92 50.07 50.49 50.66 50.70 50.81 51.38 52.15 52.01 51.57 51.13 51.95 51.86 51.40 50.84 49.89 51.80 56.26 60.15 60.04 55.98 30.36 46.26 48.35 55.26 52.37 49.27 48.48 50.22 55.94 52.29 48.36 48.75 49.13 46.63 48.12 48.59 47.25 47.95 49.82 46.90 49.85 48.44 48.48 47.12 46.51
49.37 49.69 50.05 50.33 50.31 50.29 50.71 50.77 51.09 51.34 51.25 50.81 50.79 51.62 51.21 49.85 51.28 51.46 56.95 58.75 57.51 41.79 30.99 42.91 48.94 46.88 47.57 48.57 48.47 50.70 51.52 53.76 52.94 49.26 49.44 48.78 52.34 50.93 49.74 50.51 50.75 51.09 48.64 48.85 48.98 47.45 41.01
49.09 49.40 49.78 49.98 50.12 50.40 50.65 50.74 50.80 50.87 50.80 50.76 50.40 51.01 51.02 51.50 46.84 54.57 55.30 53.05 40.15 33.55 43.23 41.55 44.96 47.27 46.64 45.65 46.51 48.17 47.38 47.16 45.41 42.80 43.48 46.88 48.11 50.68 51.52 48.28 50.78 49.67 47.17 40.96 38.85 39.30 38.68
49.18 49.20 49.48 49.67 50.05 50.03 50.38 50.59 50.63 50.37 50.63 50.35 50.11 50.43 50.20 50.13 53.56 53.25 50.38 43.21 32.54 39.35 40.67 46.72 46.20 47.47 43.31 45.92 44.88 46.91 46.14 45.03 48.20 47.23 44.71 41.90 40.53 47.93 50.86 49.26 47.37 47.60 47.40 41.52 34.09 36.12 39.66
49.37 49.40 49.52 49.61 49.93 50.04 50.20 50.35 50.56 50.45 50.34 49.99 49.75 49.66 48.47 51.42 53.46 52.11 42.85 33.42 35.32 40.09 43.82 42.70 45.06 43.97 42.42 45.13 44.46 45.31 45.59 45.21 47.01 48.42 43.57 42.58 42.67 49.75 50.34 51.04 50.53 47.79 44.87 49.61 43.71 43.51 40.05
49.63 49.59 49.61 49.70 49.66 49.86 49.97 50.06 50.21 50.46 50.18 49.77 46.72 46.62 45.82 52.59 53.49 49.61 37.97 34.28 40.00 43.86 44.09 45.50 40.13 45.13 41.44 42.43 42.14 43.18 44.49 47.17 46.78 49.31 50.59 46.85 42.16 47.52 49.06 50.98 50.89 49.21 51.18 43.23 44.20 35.46 34.09
49.27 49.38 49.42 49.33 49.39 49.35 49.61 49.97 50.14 50.33 49.95 49.66 45.04 40.46 47.67 52.67 51.59 42.72 32.02 37.05 41.64 45.58 46.25 44.52 43.35 42.23 44.28 43.82 43.46 41.89 43.69 47.00 48.39 48.56 50.09 48.88 46.23 45.24 48.59 46.53 45.68 46.52 46.01 46.95 46.69 43.80 37.65
48.55 48.76 48.98 49.06 49.27 49.23 49.49 49.91 49.99 50.25 49.81 47.95 42.54 35.12 48.35 52.55 36.02 37.68 34.11 39.38 42.70 43.74 47.05 46.61 47.45 46.72 44.38 45.36 43.53 42.21 41.19 46.46 49.48 49.71 46.46 49.24 46.71 42.21 44.46 49.33 50.18 49.92 47.22 47.34 41.94 40.27 43.17
48.36 48.56 48.87 49.13 49.17 49.18 49.18 49.56 49.81 49.75 49.60 45.39 38.44 38.99 49.78 49.66 31.57 34.04 38.84 39.09 41.89 42.49 43.75 45.45 45.09 47.15 48.46 46.28 41.89 44.13 44.22 48.51 49.63 49.29 48.05 49.13 44.56 39.85 41.88 45.71 48.71 46.58 48.41 48.87 48.19 46.92 41.93
48.23 48.28 48.58 49.23 49.31 49.26 49.13 49.35 49.71 49.54 49.78 45.98 38.71 33.20 40.14 42.68 42.58 38.31 36.68 37.08 37.60 43.23 43.43 45.20 45.79 47.55 46.31 45.19 47.70 43.23 44.41 47.24 50.56 49.87 48.35 50.21 46.14 43.22 39.11 42.51 46.20 43.59 45.46 47.43 46.86 43.22 42.41
48.16 48.47 48.71 48.87 49.23 49.23 49.38 49.36 49.50 49.58 49.41 45.39 38.58 36.84 41.05 31.72 35.25 39.35 39.51 38.70 37.15 37.20 42.95 44.57 43.78 45.58 44.98 42.47 43.64 43.76 44.65 46.29 47.57 48.38 49.76 49.28 43.27 44.84 45.03 46.24 46.17 45.21 44.99 45.39 44.57 45.35 42.36
48.53 48.60 48.51 48.56 49.21 49.45 49.13 49.02 49.32 49.32 49.37 42.77 34.89 38.68 40.46 40.30 39.65 38.39 38.37 37.25 37.23 38.97 40.65 40.16 41.60 44.48 45.94 43.57 44.73 42.70 44.37 44.73 44.78 48.36 47.97 49.68 43.60 45.07 42.81 45.59 45.57 43.62 44.93 45.52 45.27 45.19 45.00
47.52 47.49 47.74 47.78 48.15 48.68 49.18 48.66 48.67 49.08 48.88 41.26 42.49 46.15 43.24 38.30 38.07 36.67 38.17 38.23 37.99 40.67 42.45 43.95 43.82 43.69 44.21 46.35 49.27 48.32 47.72 46.79 47.17 47.82 47.06 47.11 45.79 43.19 39.36 44.50 44.49 40.55 43.68 44.99 45.73 47.08 46.67
47.11 47.39 47.53 47.74 47.86 48.24 48.37 48.64 48.56 48.90 48.66 44.72 45.99 44.64 40.33 35.22 37.23 38.16 38.89 39.82 39.21 40.04 39.68 43.54 45.57 44.23 47.44 52.24 50.53 49.03 47.37 45.60 46.00 47.02 49.25 46.52 45.53 44.73 40.88 40.01 33.89 44.44 48.93 48.47 46.61 47.55 48.87
46.24 46.41 46.90 47.30 47.56 47.70 47.77 48.03 48.52 48.79 48.90 45.15 47.27 44.84 41.06 36.92 39.28 38.58 39.50 39.84 41.25 41.88 41.13 42.69 45.78 48.64 51.99 48.89 43.28 39.49 38.08 38.99 42.68 45.99 47.10 48.89 46.45 43.26 39.05 39.27 42.13 44.44 46.13 45.85 45.65 45.43 49.63
47.09 46.52 46.50 46.42 46.74 47.13 47.30 47.37 47.60 48.09 48.96 45.83 46.69 50.18 45.34 39.76 38.59 41.66 39.19 40.91 38.69 39.10 40.27 43.13 48.49 51.60 50.44 45.57 41.42 34.81 31.60 35.33 37.45 41.63 47.38 47.64 47.94 44.69 41.70 36.08 33.46 43.74 48.10 50.42 50.40 42.67 50.71
46.28 46.77 46.63 46.56 46.10 46.64 47.15 47.30 47.49 47.51 48.59 46.03 45.25 50.44 46.47 40.26 42.97 42.94 39.50 40.09 43.25 42.04 40.50 42.45 46.37 47.21 50.46 43.28 38.86 36.95 35.35 40.84 34.73 36.87 38.55 41.04 41.35 40.35 40.27 38.89 42.26 48.15 49.76 51.51 41.26 43.18 51.54
45.93 46.07 46.33 46.56 46.31 46.29 46.87 47.20 47.25 47.02 47.90 45.85 44.76 50.18 47.50 41.92 42.90 45.36 45.37 42.76 43.38 42.85 39.99 43.71 43.65 44.40 45.12 40.57 39.45 39.85 40.08 39.71 38.73 41.00 41.22 40.63 39.53 39.73 41.90 39.42 36.60 50.28 47.54 44.55 50.37 53.44 53.26
45.24 45.29 45.96 46.24 46.22 46.45 46.68 46.98 47.25 47.15 47.69 46.79 43.36 49.82 50.52 45.20 43.65 49.10 49.34 49.49 48.91 47.64 46.04 44.94 45.15 45.68 46.26 42.93 44.23 43.95 42.69 43.04 40.59 35.99 44.64 38.09 44.87 42.61 44.17 44.28 51.75 51.29 51.35 52.62 53.64 53.19 54.03

GFSGBSN_sfc_wetblb_072.txt.gz
Wetbulb
52.47 52.35 52.41 52.83 53.23 53.71 55.12 55.26 55.17 54.61 54.25 54.27 54.29 54.22 54.20 54.29 54.31 54.85 55.50 55.76 56.39 57.12 58.23 58.35 58.20 58.12 56.90 53.64 53.40 60.11 63.62 62.44 59.00 55.57 54.33 54.41 51.83 50.98 47.86 50.03 51.44 49.48 50.39 52.33 52.52 52.39 52.32
52.32 52.03 52.05 52.00 52.09 52.60 53.17 53.85 54.61 54.68 54.15 54.10 54.00 53.36 53.79 54.51 54.61 54.60 54.49 55.12 55.70 56.03 57.11 58.05 58.04 56.65 55.93 48.45 58.73 58.48 58.69 61.73 58.84 56.90 55.67 55.18 52.48 53.16 51.64 50.94 50.27 51.63 52.75 52.36 53.17 53.30 53.87
52.62 52.86 53.06 52.97 52.61 51.65 51.87 53.27 53.07 53.97 54.42 54.13 53.57 53.45 53.71 53.85 54.18 54.17 54.02 54.61 54.99 55.54 56.83 57.67 58.01 57.39 53.63 51.42 59.07 59.22 57.94 58.12 59.87 57.85 54.82 55.64 55.16 53.75 53.45 51.22 53.81 52.27 48.59 51.03 51.70 51.92 50.78
52.99 53.53 53.08 53.30 53.03 52.68 52.59 52.31 52.78 52.97 53.84 54.48 53.91 53.31 52.96 53.20 53.23 53.48 53.44 53.83 54.10 54.97 56.71 57.53 57.26 55.89 49.32 57.46 59.40 58.10 58.22 56.24 59.05 58.78 56.54 57.44 57.27 54.45 53.09 54.14 51.91 49.15 48.80 44.43 50.33 51.37 51.98
51.91 51.94 52.72 53.89 53.41 53.12 52.73 52.29 52.35 51.96 53.03 54.08 54.13 53.46 52.73 52.53 52.93 52.94 52.90 53.34 53.93 55.08 56.84 57.53 55.24 54.64 48.99 57.85 55.31 56.93 56.74 54.36 57.65 57.78 57.39 57.50 56.52 53.13 52.84 48.70 46.50 47.21 42.73 45.05 47.61 52.31 51.98
51.52 51.56 51.45 52.47 52.89 53.54 53.10 52.88 52.52 52.41 52.43 53.20 53.71 53.45 52.90 52.57 52.41 52.57 52.54 52.95 54.40 56.53 57.00 58.31 56.34 49.58 52.56 49.28 54.76 55.94 56.35 54.78 55.00 55.65 54.05 53.84 52.33 48.58 49.15 47.09 40.55 43.06 44.33 45.89 45.33 49.77 50.92
50.86 50.78 51.00 51.18 51.85 52.00 52.42 53.23 52.69 52.41 52.36 52.91 53.21 53.71 52.99 52.50 52.39 52.74 51.92 53.67 52.11 53.08 54.97 51.03 50.49 49.53 50.57 55.30 56.00 54.08 55.40 52.96 53.69 53.27 48.43 51.48 46.83 43.92 47.20 49.63 49.38 47.82 45.90 44.83 47.12 50.64 49.11
50.07 50.12 50.37 50.49 50.66 50.68 51.01 51.74 52.61 52.30 52.49 52.16 52.66 52.88 53.19 52.64 52.70 52.97 52.09 49.52 51.37 54.42 46.69 52.18 53.51 53.23 54.35 55.39 51.47 53.28 55.80 49.13 49.73 46.80 50.28 48.40 44.64 48.81 50.76 50.91 48.01 46.85 45.02 44.86 48.48 50.71 48.52
50.54 50.05 49.71 50.02 50.24 50.46 50.87 51.31 51.56 52.37 52.24 52.11 52.03 52.68 52.82 52.24 52.30 50.76 48.88 50.45 57.22 57.28 46.87 47.02 49.54 48.68 49.95 52.36 50.44 51.32 53.37 50.15 47.98 46.87 48.25 46.13 48.17 51.41 49.81 48.81 46.56 46.54 45.52 45.91 46.07 48.91 50.21
50.07 50.09 50.17 49.60 49.63 50.23 50.96 51.35 51.43 51.86 52.28 52.09 51.55 52.01 51.97 51.59 48.15 51.52 49.61 55.76 56.92 58.56 41.74 41.41 46.29 49.20 50.26 50.61 46.94 53.78 55.30 51.59 48.75 45.92 47.68 47.68 50.51 49.77 48.85 47.26 48.28 44.33 49.40 48.64 46.74 45.24 41.07
49.56 49.67 49.80 50.22 50.26 50.33 50.62 50.81 51.07 51.44 51.97 51.97 51.43 51.79 51.73 50.75 49.50 48.61 53.91 54.22 57.98 55.60 27.79 44.33 47.00 55.36 52.31 47.32 48.47 48.84 54.67 52.26 47.11 47.04 48.04 45.94 47.51 47.31 47.00 47.35 49.42 46.44 50.00 48.57 47.64 45.34 44.87
49.26 49.43 49.76 49.80 49.80 50.02 50.32 50.46 50.61 51.01 51.17 51.70 51.56 51.33 51.33 49.68 49.82 50.65 54.45 54.06 54.52 39.38 28.46 41.93 49.13 47.54 47.37 47.49 47.32 50.07 49.80 53.08 51.81 47.79 49.05 47.86 51.41 49.53 48.50 50.38 50.01 50.41 48.40 48.08 47.40 45.73 39.23
48.84 49.04 49.27 49.46 49.55 49.85 50.13 50.43 50.58 50.74 50.95 51.25 51.12 50.89 50.39 49.83 46.20 53.72 54.13 48.62 37.30 31.12 42.30 39.97 44.21 47.22 45.93 45.60 45.61 47.04 45.89 46.31 44.26 40.59 42.77 46.12 46.71 49.61 50.69 47.24 49.95 48.69 45.66 38.92 37.73 37.98 37.81
48.54 48.71 48.92 49.30 49.46 49.69 49.76 49.89 49.95 50.21 50.37 50.51 50.47 50.33 49.75 48.83 51.85 53.39 49.09 41.03 29.68 37.04 38.93 46.26 45.26 47.01 43.51 46.37 45.79 45.58 44.97 42.76 47.61 45.66 43.36 41.00 39.35 46.41 49.93 48.05 46.25 46.65 45.79 40.51 31.97 35.25 38.96
48.41 48.72 48.98 49.11 49.37 49.55 49.74 49.87 50.00 50.09 50.19 50.47 50.33 49.43 48.23 50.10 51.76 51.75 42.58 31.16 32.64 37.65 42.06 41.49 44.84 42.97 43.71 45.84 45.64 44.98 44.68 43.65 46.35 46.83 41.83 41.73 41.43 48.31 49.79 50.02 49.19 46.69 43.26 48.49 43.20 43.75 39.95
48.68 48.59 48.95 49.07 49.32 49.43 49.57 49.76 49.99 50.20 50.22 50.19 47.35 45.22 45.30 52.13 52.34 47.46 37.30 31.15 36.88 42.57 42.81 42.95 38.88 43.76 41.91 43.93 42.87 43.16 43.19 46.50 45.66 47.86 49.34 46.41 41.51 47.36 48.72 50.18 49.72 47.76 50.17 42.48 44.04 35.23 33.20
48.44 48.64 48.99 49.04 49.23 49.20 49.52 49.65 49.85 50.00 50.12 49.92 45.33 39.43 46.12 51.53 51.37 41.28 31.55 33.09 37.77 43.01 44.90 41.50 39.85 40.90 41.61 43.48 44.21 42.30 42.40 46.00 47.86 47.76 48.74 48.04 46.14 45.03 47.61 45.45 44.48 45.35 44.39 46.73 45.80 42.91 36.02
47.71 48.20 48.33 48.51 48.89 49.21 49.43 49.57 49.55 49.88 49.86 48.29 42.87 33.73 46.28 50.93 36.56 37.14 32.65 36.96 40.57 40.67 43.71 43.07 43.98 43.28 42.97 43.53 44.42 42.74 42.11 44.74 50.02 48.37 44.85 48.56 46.30 41.56 43.67 48.42 49.32 48.00 46.08 46.70 41.15 39.54 43.17
47.58 47.74 48.04 48.23 48.56 48.76 49.07 49.33 49.49 49.53 49.59 45.90 38.41 38.46 46.86 47.71 31.03 31.63 36.95 37.09 39.81 39.55 40.80 41.88 41.58 44.13 46.55 44.85 41.60 45.33 45.18 48.81 49.13 47.31 45.58 48.25 44.10 39.03 41.16 45.24 48.27 45.11 46.57 47.52 47.32 46.05 41.33
47.22 47.32 47.73 48.18 48.66 48.73 49.07 49.26 49.14 49.35 49.59 46.72 37.46 31.91 39.51 42.36 41.67 36.80 34.57 35.23 35.79 41.25 40.64 42.92 42.82 44.09 42.67 43.43 46.10 44.03 45.00 47.23 49.77 48.53 46.77 48.18 46.23 42.90 38.58 42.12 45.55 43.10 45.03 46.69 46.67 40.93 42.06
47.15 47.40 47.76 48.04 48.43 48.61 49.00 49.25 49.14 49.18 49.39 46.40 37.47 35.70 40.22 32.29 34.58 37.18 38.05 36.81 35.55 35.70 40.56 42.18 40.93 41.67 40.14 38.55 42.09 42.55 45.62 46.19 47.12 47.71 48.27 47.60 43.01 45.12 45.03 45.41 45.61 44.74 44.52 45.07 43.86 44.94 41.94
47.40 47.63 47.56 47.75 48.05 48.57 48.80 49.10 48.93 48.88 49.26 44.07 33.21 36.89 40.85 38.89 38.04 36.18 37.06 36.23 35.86 38.03 38.58 37.66 38.64 41.85 42.40 39.26 40.88 41.36 44.36 45.31 44.22 47.89 46.03 47.02 41.13 44.31 42.63 45.21 45.43 43.25 45.63 45.73 45.12 44.98 44.72
47.60 47.74 47.88 48.02 48.46 48.60 48.78 48.64 48.86 48.82 48.44 43.08 42.09 44.61 41.33 38.29 36.92 34.93 35.21 36.83 37.45 39.82 41.12 41.94 41.24 41.46 41.13 42.52 45.24 47.46 47.97 48.20 47.20 45.14 45.74 44.84 42.91 41.03 37.49 44.09 43.11 37.46 43.47 44.72 45.09 46.40 45.81
47.45 47.54 47.68 47.74 47.70 47.86 48.52 48.80 48.87 48.70 48.45 45.79 44.34 42.85 38.56 34.31 37.32 36.73 37.57 38.51 38.48 40.08 39.08 41.88 43.45 41.56 46.60 50.29 50.20 47.54 46.04 46.30 46.28 46.05 47.10 44.04 43.33 41.64 37.83 38.26 31.69 43.57 48.80 47.78 46.10 46.40 47.71
46.14 46.43 46.71 47.11 47.18 47.37 47.64 47.91 48.22 48.63 48.80 46.21 46.05 42.60 40.93 36.51 38.48 37.27 38.94 38.87 40.03 41.59 40.74 41.24 43.77 46.20 48.50 47.16 41.56 38.01 37.88 40.08 42.40 45.19 44.79 46.66 44.63 37.75 35.94 36.40 41.27 43.84 46.43 46.24 44.95 44.56 49.15
46.37 46.47 46.72 46.71 46.70 46.75 47.04 47.20 47.52 48.29 48.98 47.25 45.22 48.17 44.41 38.93 38.05 40.86 38.65 40.19 38.08 38.99 39.84 42.47 46.24 48.31 48.10 44.73 40.40 33.78 32.02 36.15 36.74 40.42 45.92 44.96 45.92 40.76 38.60 34.34 31.61 43.26 48.25 50.95 49.86 39.97 49.64
46.27 46.55 46.92 46.75 46.68 46.60 46.67 47.15 47.45 47.67 48.14 47.37 44.77 48.45 44.37 39.31 42.28 42.66 38.79 39.53 42.48 40.98 40.03 42.00 43.23 43.42 48.96 40.87 36.49 33.96 34.10 40.35 34.68 35.87 36.91 38.31 39.75 37.47 36.69 35.14 41.03 47.85 48.94 50.24 38.99 41.52 50.51
46.18 46.41 46.76 47.13 46.88 46.56 46.43 46.96 47.42 47.68 47.53 47.35 44.61 48.32 44.31 40.87 42.81 45.05 44.65 41.56 42.62 42.69 39.26 42.85 41.20 42.01 42.58 37.81 37.20 38.00 37.06 39.21 37.59 40.64 39.87 38.82 37.29 37.14 38.53 35.53 34.12 50.25 48.84 42.81 47.30 52.46 53.20
46.11 46.21 46.21 46.04 46.27 46.34 46.14 46.52 47.12 47.35 47.07 46.96 42.14 47.30 48.98 43.53 42.97 48.30 46.81 48.68 46.01 47.08 45.01 45.73 42.44 42.82 43.48 41.44 41.66 41.74 40.47 42.04 39.91 33.80 42.71 33.62 40.96 40.98 42.03 42.33 51.35 52.37 50.48 51.85 52.69 52.98 53.89

GFSGBSN_sfc_wetblb_075.txt.gz
Wetbulb
52.42 52.22 52.28 52.27 52.45 52.97 53.53 53.89 54.44 55.15 54.84 54.34 54.14 53.92 54.06 54.22 54.46 54.69 54.39 53.96 54.51 55.41 56.15 56.84 58.06 58.34 54.63 50.82 51.03 58.37 62.95 61.48 56.19 53.11 51.42 50.78 49.56 48.83 44.33 45.34 46.24 46.63 47.83 49.09 50.68 50.90 50.59
53.71 53.62 53.64 52.91 52.14 52.12 52.17 52.64 53.70 53.87 54.43 54.33 54.16 53.88 53.59 53.50 53.74 54.07 54.03 53.86 53.61 54.43 55.18 56.25 57.38 57.29 52.74 45.98 57.19 57.64 59.30 58.81 56.18 53.31 51.31 51.47 51.39 51.52 47.45 47.87 46.23 48.36 48.15 48.24 49.44 49.87 51.16
53.07 53.75 54.07 53.60 53.61 52.88 52.27 52.66 52.29 53.36 53.46 54.01 54.39 54.13 53.25 53.23 53.32 53.44 53.75 53.69 53.30 53.51 54.75 55.67 56.87 56.73 51.25 48.36 55.44 55.16 55.84 55.02 57.97 55.90 52.69 53.81 54.48 49.70 49.04 47.43 51.04 49.59 45.37 46.51 48.07 48.02 47.89
52.26 52.19 52.66 53.64 53.94 53.63 53.44 53.19 52.90 52.37 52.76 53.21 53.68 53.78 53.26 53.11 52.61 52.42 52.94 52.89 52.87 53.28 54.20 55.51 56.90 54.24 47.12 56.10 55.46 55.61 55.54 54.54 55.33 57.54 55.96 55.74 54.83 50.84 49.63 50.51 49.18 45.81 44.01 39.25 45.04 49.19 49.84
52.22 52.09 52.07 52.56 52.97 52.98 53.55 53.49 53.28 52.71 52.69 52.75 53.14 53.18 53.44 52.78 52.31 52.02 52.02 52.45 52.60 53.45 54.46 55.13 53.99 51.12 46.56 57.31 52.48 54.27 54.67 53.04 54.07 54.56 54.77 56.10 52.96 49.36 49.02 43.76 41.08 42.82 37.88 39.97 43.82 49.28 48.40
51.82 51.26 51.50 51.92 52.52 52.49 52.78 52.73 53.34 53.28 52.93 52.81 52.76 53.22 53.42 53.18 52.53 52.10 51.68 52.45 52.61 53.27 54.45 56.42 55.63 46.98 50.84 49.49 52.89 54.33 54.73 54.01 51.44 52.98 52.04 50.29 47.50 43.82 42.56 39.99 34.90 38.84 39.87 43.83 42.19 46.67 47.88
51.15 50.82 50.94 51.04 51.38 51.11 51.33 51.92 52.19 52.45 52.91 52.83 52.76 52.93 52.82 53.01 52.78 52.18 50.50 47.68 47.07 47.53 50.54 49.02 48.66 47.12 48.95 53.96 55.70 51.77 53.70 51.44 49.54 48.60 44.66 47.46 41.42 39.75 41.02 44.04 45.53 44.90 44.24 40.67 43.29 47.11 45.63
50.38 50.25 50.29 50.25 50.40 50.54 50.67 50.98 51.50 51.55 52.18 52.54 52.62 52.33 52.60 52.37 52.62 52.23 49.03 44.07 48.08 48.64 42.85 51.79 52.65 52.13 53.09 54.83 49.36 51.41 53.23 46.80 45.33 41.28 46.34 44.61 40.78 45.67 47.60 46.81 46.19 45.98 41.71 40.56 43.97 48.64 46.21
50.57 49.91 49.78 49.96 50.01 50.05 50.13 50.43 51.27 51.32 51.45 52.16 52.37 52.18 52.23 52.11 51.96 48.48 44.86 45.48 50.81 48.70 42.77 46.07 49.19 47.22 48.73 50.77 48.24 48.32 51.51 48.22 44.01 41.58 43.17 42.10 45.13 48.85 47.10 45.44 44.93 43.60 41.92 41.60 42.59 46.08 45.09
50.11 49.94 49.56 49.41 49.58 49.69 49.72 49.74 50.61 51.18 51.18 51.58 52.14 51.90 51.19 51.43 46.97 46.32 45.29 52.22 52.51 52.70 38.32 39.40 44.04 46.37 48.17 47.73 44.93 51.25 52.40 48.65 44.47 41.58 43.56 43.32 48.05 47.24 46.13 45.06 46.24 40.86 46.88 46.57 45.29 41.17 35.16
49.65 49.45 49.58 49.13 49.39 50.08 50.19 50.25 50.50 50.99 51.18 51.22 51.27 51.78 51.15 51.40 46.05 43.06 48.54 50.38 52.03 52.05 20.99 40.86 43.66 51.14 48.40 44.52 46.27 46.76 51.59 49.21 43.01 42.95 43.47 41.97 44.53 44.98 44.27 45.99 47.61 43.91 48.47 46.72 45.43 41.11 38.69
48.92 48.73 48.68 49.16 49.32 49.53 49.81 50.02 50.34 50.62 50.87 50.89 51.09 51.57 51.20 47.24 46.45 47.04 49.76 50.74 49.48 36.85 25.76 39.47 46.88 45.89 44.62 44.25 44.92 47.02 46.27 49.32 48.93 44.54 44.90 43.88 47.97 46.67 46.26 48.51 48.23 48.95 46.05 44.66 43.50 40.15 32.71
48.27 48.54 48.72 48.83 49.07 49.32 49.62 49.75 49.92 50.25 50.65 50.86 50.83 51.12 50.02 48.43 40.29 48.71 50.31 46.25 33.82 28.29 39.76 36.56 42.25 45.41 44.17 41.73 42.26 43.38 42.42 41.60 39.57 37.34 37.99 42.91 43.52 46.93 48.68 44.36 47.15 45.60 41.11 32.83 30.75 29.93 30.32
48.17 48.28 48.62 48.67 48.90 49.18 49.50 49.72 49.89 49.98 50.22 50.41 50.46 50.44 49.48 48.23 46.95 47.19 46.35 39.76 27.46 33.21 34.62 42.79 42.16 42.46 40.89 43.25 41.89 42.34 40.80 38.67 43.70 42.24 38.22 36.12 34.89 44.11 47.40 45.29 43.30 42.22 41.41 34.02 29.03 28.89 35.01
48.06 48.15 48.30 48.33 48.77 49.01 49.34 49.58 49.88 49.97 49.95 50.13 50.31 47.64 46.59 47.70 47.40 44.89 41.15 29.82 28.59 33.09 38.88 37.63 38.71 36.24 39.47 42.84 42.76 41.38 40.15 39.74 42.77 44.10 37.66 36.61 37.48 46.26 47.28 47.92 46.76 43.30 39.30 44.83 39.52 39.18 34.83
48.08 48.07 48.24 48.33 48.39 48.72 49.06 49.31 49.66 49.79 49.79 49.75 45.90 44.63 43.66 48.57 48.04 44.03 35.78 29.52 32.41 38.70 39.53 39.11 32.57 37.11 33.84 39.31 40.04 39.92 39.62 43.68 42.46 45.36 46.81 43.03 38.01 45.47 46.25 47.32 47.10 44.88 47.19 37.94 39.06 30.54 29.42
47.64 47.79 48.00 47.96 48.21 48.40 48.85 49.29 49.59 49.80 49.81 49.94 45.12 39.20 44.90 49.04 47.79 37.71 29.18 30.54 34.53 39.64 40.25 36.99 34.90 34.83 36.90 36.48 38.36 38.53 39.87 43.84 44.91 44.43 46.94 44.62 41.35 41.29 45.63 42.76 42.24 42.29 41.25 42.68 42.52 38.71 29.67
46.94 47.13 47.39 47.55 48.06 48.46 48.83 49.26 49.56 49.70 49.74 47.95 42.69 33.17 46.05 47.52 35.65 34.71 29.50 33.59 37.95 37.12 40.13 38.44 38.42 37.48 36.97 38.11 36.99 36.85 40.28 41.91 46.32 45.80 43.01 43.91 42.50 36.99 39.98 46.09 48.04 45.93 42.33 42.67 35.82 35.74 36.77
46.54 46.78 47.10 47.47 47.84 48.08 48.70 49.00 49.38 49.62 49.65 45.26 37.36 37.56 45.70 44.68 30.38 30.68 34.12 34.29 35.88 35.70 36.92 37.01 35.95 39.38 39.79 37.72 35.32 39.50 43.07 46.54 45.95 44.78 42.77 44.23 39.94 33.64 36.75 41.82 45.53 42.50 43.62 44.47 43.45 40.83 36.07
46.51 46.76 47.06 47.40 47.92 48.33 48.45 48.76 49.14 49.47 49.83 45.97 35.66 31.12 38.46 41.09 38.98 34.44 31.88 32.32 32.90 38.18 36.80 38.41 37.58 39.17 37.33 36.91 41.04 37.77 39.10 46.51 46.56 45.98 46.78 46.40 41.55 37.84 32.96 37.91 43.25 40.02 42.88 43.79 41.85 33.95 35.86
46.81 46.91 46.97 47.31 47.49 47.82 48.19 48.64 48.96 49.31 49.60 45.90 37.09 33.01 37.38 31.64 34.39 34.80 34.80 33.95 32.15 32.27 37.58 38.74 35.59 35.78 36.01 33.85 37.12 36.12 42.09 42.91 45.70 45.81 45.72 44.69 37.66 40.16 41.77 43.44 44.75 43.07 42.35 42.11 40.51 41.72 38.93
46.57 46.67 46.69 46.97 47.23 47.65 47.97 48.30 48.62 49.06 49.26 43.51 32.78 34.87 38.04 35.47 35.73 35.16 34.20 33.59 32.70 34.23 35.69 34.60 33.92 36.08 37.13 34.27 37.99 35.76 39.87 41.94 41.06 44.17 42.18 43.96 37.36 40.36 38.46 42.89 43.08 41.59 42.88 42.79 42.66 43.20 42.17
46.64 46.81 47.02 47.24 47.41 47.80 47.99 48.04 48.27 48.61 48.50 42.09 41.55 41.88 38.85 35.57 35.02 32.34 32.45 33.13 34.65 37.18 38.21 38.55 37.98 35.87 34.26 37.25 43.62 44.97 46.48 45.03 43.94 42.19 41.27 42.15 39.39 37.68 33.68 40.75 40.60 33.19 39.21 42.72 43.10 44.75 43.10
47.03 47.30 47.56 47.47 47.78 48.07 48.08 48.01 48.13 48.48 48.33 45.35 42.99 41.46 35.37 32.32 33.14 33.92 35.10 35.42 34.90 37.16 35.85 38.87 39.97 37.09 40.03 43.59 48.70 46.57 44.90 44.97 43.50 41.32 44.18 40.66 40.74 37.96 32.64 34.73 29.11 40.14 45.03 44.75 43.32 45.03 44.73
46.43 46.57 47.04 47.22 47.36 47.57 47.64 47.78 47.86 48.11 48.57 46.17 45.36 41.15 36.97 30.87 36.03 35.13 35.80 35.73 36.87 38.32 37.57 38.28 41.01 42.60 42.62 41.56 38.76 35.81 35.73 37.08 39.15 42.13 42.34 43.36 41.04 34.33 32.33 32.62 37.44 41.46 43.68 42.48 41.69 40.81 46.14
46.01 46.40 46.52 46.43 46.48 46.60 46.81 47.25 47.69 48.25 48.64 47.38 45.48 45.24 40.49 34.19 33.34 38.97 36.41 37.49 34.19 33.92 35.37 38.02 43.22 43.35 41.36 36.60 35.15 29.22 27.73 34.44 34.73 38.80 43.71 43.54 42.27 36.06 33.46 29.42 27.18 38.99 45.58 47.29 46.48 35.17 46.29
45.92 46.10 46.54 46.82 46.82 46.55 46.51 46.81 47.12 47.84 48.31 47.51 45.19 46.68 41.58 35.74 38.86 40.14 36.03 35.29 39.41 37.18 34.39 37.59 39.23 38.74 41.61 31.86 29.16 28.20 30.08 37.42 31.45 31.86 32.69 32.73 34.78 33.10 29.56 31.00 35.20 45.05 47.29 47.65 34.97 35.08 47.19
45.82 46.40 46.65 46.72 46.75 46.76 46.80 46.60 46.76 47.22 47.88 46.98 45.25 47.04 42.68 38.28 39.91 41.88 43.43 39.61 39.02 38.89 34.04 37.38 37.50 36.96 34.81 30.06 30.66 30.52 27.63 34.59 34.14 37.35 36.58 34.71 32.59 32.54 33.71 31.78 30.78 47.23 45.93 40.90 42.93 46.35 48.52
46.19 46.35 46.35 46.66 46.59 46.54 46.70 46.63 46.62 46.95 47.39 47.26 42.11 46.93 47.08 42.18 40.37 46.05 46.38 46.00 44.19 43.27 40.81 40.09 38.25 37.42 37.86 34.58 34.46 34.65 30.23 30.40 32.23 27.64 40.97 35.00 38.99 36.62 38.76 35.95 44.91 47.85 46.64 48.96 48.93 48.35 48.72

GFSGBSN_sfc_wetblb_078.txt.gz
Wetbulb
53.36 53.06 52.86 52.71 52.58 52.56 52.34 52.72 53.93 53.91 54.25 54.49 54.60 54.75 54.58 54.61 54.25 53.93 53.80 53.86 54.07 54.30 53.97 54.04 55.57 56.09 54.33 49.32 49.85 55.73 62.37 60.73 55.12 52.02 49.01 48.57 47.14 46.26 43.05 43.84 44.07 43.17 45.43 47.59 48.55 49.57 47.70
53.72 53.99 54.02 53.40 52.90 52.63 52.64 52.10 51.88 53.04 53.47 53.61 53.94 54.13 54.43 54.34 54.10 53.67 53.37 53.07 53.33 53.80 53.80 53.79 54.86 55.83 51.19 43.49 53.84 56.00 58.57 56.79 54.23 50.77 49.45 49.64 48.32 49.44 47.03 45.04 43.56 47.02 46.63 47.08 47.55 48.20 47.81
52.60 52.75 53.25 53.39 53.46 53.46 53.10 53.32 52.82 53.06 53.08 52.87 53.26 53.65 53.43 53.74 53.89 53.46 53.09 52.67 52.44 52.79 53.49 53.53 54.23 54.52 49.52 46.19 53.17 52.10 53.00 53.02 55.34 53.72 50.54 51.29 51.00 48.64 47.19 45.09 48.58 47.86 43.60 44.66 44.68 45.60 45.64
52.29 52.52 52.46 52.76 53.20 53.27 53.45 53.78 53.70 53.06 53.23 53.02 52.79 52.95 52.97 53.20 53.45 52.83 52.76 52.29 52.16 52.61 52.98 53.93 54.24 53.23 45.41 54.86 53.71 53.64 53.71 53.15 54.28 54.64 54.64 54.57 53.25 49.73 46.66 48.17 47.01 44.10 41.94 37.28 44.35 45.26 47.64
52.06 52.24 52.06 52.50 52.52 52.67 52.63 52.77 53.06 53.06 53.25 53.34 53.07 52.97 53.06 52.93 52.73 52.54 52.25 51.97 52.20 52.62 53.51 54.21 51.44 50.62 44.65 56.11 52.08 53.84 53.05 51.00 52.98 53.49 53.58 56.56 52.19 47.12 47.22 41.58 38.55 39.42 35.70 38.24 41.91 45.95 46.24
51.64 51.69 51.69 51.60 52.15 52.01 52.22 52.27 52.06 52.39 52.74 53.20 53.14 52.97 52.76 52.79 52.13 51.98 51.76 51.62 51.67 52.18 51.83 54.30 54.82 45.98 48.59 46.45 51.45 52.59 52.15 52.69 50.36 50.60 49.25 49.15 45.69 42.37 40.61 38.09 32.70 35.48 36.89 40.69 39.87 43.96 45.52
51.27 51.30 51.45 50.85 50.70 50.79 50.92 51.02 51.63 51.91 52.16 52.35 52.91 52.80 52.56 52.39 52.34 51.65 50.39 45.95 45.97 45.35 47.57 47.00 48.23 45.91 47.27 51.39 55.14 51.60 52.25 50.97 49.03 47.18 42.54 45.72 40.02 38.30 39.45 41.29 42.91 41.88 40.83 39.49 42.89 45.47 45.09
50.85 51.01 50.85 50.72 50.03 50.23 50.39 50.33 51.06 51.36 51.76 52.02 52.12 52.76 52.45 52.23 51.86 51.74 48.16 42.69 44.55 46.50 40.31 46.37 47.83 50.16 52.59 53.25 48.37 51.28 52.24 45.98 44.61 40.24 44.52 42.84 39.61 43.69 44.96 44.14 43.05 42.22 40.40 40.41 43.62 46.01 44.58
50.12 50.44 50.51 50.19 50.05 49.74 49.68 50.05 50.65 50.79 51.13 51.49 51.58 52.19 52.06 51.53 51.17 46.92 43.74 44.29 49.55 49.80 40.41 43.54 47.54 47.35 49.17 50.60 47.60 48.07 49.87 46.22 43.12 39.95 40.98 40.02 43.53 47.04 45.05 43.79 42.62 42.18 40.15 40.56 40.48 43.59 42.77
49.80 50.20 49.39 49.43 49.37 49.34 49.27 49.50 49.56 49.94 50.39 50.74 50.87 51.34 51.49 50.42 45.23 45.46 43.33 48.81 49.12 50.22 35.11 37.07 43.08 44.60 47.29 47.38 43.45 50.22 49.82 47.39 43.14 40.23 40.81 40.16 45.32 44.98 43.88 42.84 43.73 38.53 44.83 44.74 43.38 40.00 34.34
49.35 49.20 49.20 48.67 48.70 49.09 49.44 49.20 49.30 49.21 50.08 50.68 50.69 51.16 51.36 50.70 43.34 41.98 46.32 48.11 50.33 48.89 17.94 37.58 42.14 49.48 47.40 42.24 43.76 45.39 50.18 47.28 41.50 41.49 41.17 39.31 42.18 42.42 41.98 43.48 45.65 41.88 46.45 44.89 44.00 39.88 36.33
48.68 48.60 48.27 48.24 48.31 48.78 48.98 49.21 49.38 49.79 50.12 50.55 50.64 50.98 51.17 47.13 43.98 44.66 46.69 47.51 49.73 34.92 21.52 36.14 43.68 42.00 41.28 42.70 43.61 45.56 45.06 47.69 47.80 42.54 42.09 41.53 45.26 44.63 44.83 46.58 46.72 47.60 44.37 42.75 41.42 38.52 31.48
47.71 47.49 47.59 48.15 48.46 48.72 48.28 49.05 49.39 49.59 49.82 50.23 50.63 50.70 49.52 48.02 39.05 44.15 45.90 45.36 35.12 26.96 38.85 35.43 40.81 41.27 41.73 39.38 40.81 42.03 40.59 39.63 38.23 35.80 35.85 39.74 40.94 44.09 45.75 42.56 44.82 43.98 39.07 30.81 29.34 29.03 29.26
47.74 48.14 47.88 47.37 47.81 48.52 48.48 48.86 48.98 49.35 49.59 49.80 50.00 49.86 48.25 47.52 45.04 44.08 44.68 38.50 26.62 32.47 33.98 40.24 38.73 38.69 35.21 39.39 39.94 40.98 39.08 36.07 40.68 39.91 37.00 34.63 32.33 41.50 45.36 42.88 41.61 40.75 39.72 31.65 27.54 27.51 31.88
47.18 47.44 47.43 47.81 47.98 48.29 48.46 48.70 49.03 49.10 49.20 49.88 50.06 44.50 43.23 45.48 46.55 43.41 39.07 28.27 27.72 32.17 36.47 36.43 37.34 34.30 35.00 38.87 38.27 38.85 37.72 37.36 39.61 41.41 35.80 34.74 35.45 43.89 45.25 45.86 45.52 41.11 37.07 43.04 36.64 36.20 31.51
46.46 47.37 47.51 47.76 47.92 47.96 48.24 48.39 48.67 49.07 49.37 49.70 45.24 43.81 42.14 45.93 47.22 41.22 34.35 28.64 30.87 36.93 37.61 36.84 30.25 35.11 31.73 33.79 35.09 35.82 35.33 41.38 40.30 42.78 44.44 40.01 34.02 42.83 44.22 45.80 45.17 43.92 45.51 36.26 36.85 29.73 28.39
46.78 46.76 47.36 47.64 47.52 47.52 47.92 48.27 48.35 48.91 49.35 49.21 44.26 38.59 44.48 47.69 47.00 38.56 26.47 29.47 32.84 37.17 37.67 34.98 33.23 32.02 32.94 33.04 36.28 35.19 35.58 39.18 41.73 42.76 43.83 42.82 37.84 37.82 43.23 40.56 39.50 40.59 39.74 40.16 40.07 36.92 29.59
46.26 46.65 46.91 47.07 47.18 47.41 47.62 47.91 48.33 48.77 48.93 47.60 42.39 33.42 45.62 47.05 34.85 35.07 28.77 31.00 36.63 35.09 38.17 36.34 36.06 34.40 32.64 34.66 33.40 34.26 34.28 39.13 45.03 43.80 39.37 42.98 39.43 34.53 37.68 43.71 44.32 44.64 42.33 41.25 33.31 33.45 34.91
46.14 46.36 46.53 46.71 46.90 46.91 47.33 47.60 48.05 48.33 48.82 45.44 37.80 36.76 45.66 44.06 29.24 30.73 34.63 33.12 33.82 33.72 34.59 35.21 34.81 36.59 37.49 34.62 31.05 37.21 38.47 43.73 43.53 43.93 41.27 41.24 37.98 31.07 35.45 39.87 42.87 40.60 41.91 43.04 41.87 39.25 35.05
45.90 46.14 46.29 46.65 46.76 47.02 47.08 47.57 48.25 48.39 49.00 45.91 34.13 30.84 37.85 40.28 37.04 33.64 31.97 32.07 31.22 36.25 33.44 35.12 34.82 36.53 34.41 32.90 36.75 34.48 37.89 41.95 44.63 44.53 45.83 44.85 38.97 36.90 31.99 35.57 40.07 38.49 41.84 43.39 41.92 34.17 35.06
45.94 46.08 46.32 46.51 46.77 46.88 47.33 47.78 48.01 48.45 48.59 45.87 33.78 32.45 37.39 30.57 33.04 33.77 33.70 33.71 31.27 30.84 36.82 36.98 33.41 32.97 32.02 29.93 32.52 32.64 38.56 40.61 42.43 44.53 44.60 43.49 35.53 38.03 39.64 41.45 42.07 40.81 40.50 42.11 40.62 39.71 36.20
46.44 46.72 46.81 46.95 47.12 47.38 47.45 47.58 47.81 48.29 48.57 42.36 31.77 34.38 37.57 32.72 35.71 33.77 33.52 32.30 31.51 33.00 33.09 32.14 31.99 34.29 34.33 30.78 32.72 31.48 37.91 39.22 38.88 42.14 41.95 42.77 34.68 37.62 35.85 40.71 41.52 39.15 41.64 42.68 41.90 40.71 39.78
46.00 46.19 46.19 46.38 46.63 46.89 47.32 47.52 47.57 47.86 47.35 40.97 41.38 39.34 38.38 34.72 33.69 32.51 32.01 31.91 33.65 34.89 36.23 36.80 35.89 34.73 32.96 34.94 38.40 39.23 42.25 43.82 42.80 40.08 38.99 39.20 37.48 34.14 30.82 38.97 39.21 32.76 38.39 42.28 41.87 42.28 41.41
46.41 46.72 46.85 46.97 47.13 47.11 47.30 47.30 47.32 47.59 47.58 43.90 42.57 40.60 34.70 31.17 31.78 32.17 33.65 35.27 34.06 34.86 33.20 37.46 38.38 34.90 38.14 41.71 41.97 43.94 43.75 43.09 42.52 41.27 41.39 37.28 36.66 34.45 30.02 33.99 27.54 37.70 43.94 45.31 43.12 43.34 43.49
46.63 46.76 47.07 47.21 47.43 47.51 47.30 47.34 47.47 47.58 47.99 44.90 45.02 40.64 36.34 30.66 34.81 33.89 34.07 34.14 35.73 36.65 35.18 35.67 38.67 41.66 41.63 37.85 34.26 32.37 33.13 35.18 37.77 40.41 40.05 41.59 38.17 31.12 30.16 30.48 35.23 39.14 42.62 41.80 41.45 40.41 44.03
45.79 45.93 46.10 46.24 46.52 46.70 47.04 47.18 47.34 47.71 48.25 46.29 44.55 45.60 40.10 33.98 32.37 37.37 34.92 35.53 32.34 32.46 33.49 35.79 40.93 43.43 39.84 34.86 32.49 26.27 23.15 31.28 31.92 36.55 43.08 42.22 40.54 34.59 30.47 28.66 24.67 36.39 43.61 46.73 45.59 35.19 44.98
45.72 45.89 46.10 46.19 46.28 46.17 46.38 46.61 46.98 47.54 47.92 46.87 44.69 46.53 41.79 35.45 37.66 38.26 35.31 34.85 37.40 35.19 31.77 34.90 36.57 36.78 39.44 30.61 27.44 24.82 26.22 34.59 29.01 29.45 32.64 32.77 34.19 31.28 28.95 30.20 33.34 42.51 45.24 46.84 35.77 34.96 45.05
45.34 45.70 45.86 46.23 46.42 46.58 46.49 46.37 46.57 47.01 47.60 45.93 44.16 47.19 42.08 37.63 38.35 40.08 41.98 38.21 37.44 36.96 31.66 35.36 34.49 35.13 32.72 27.97 28.31 27.04 24.61 31.81 33.30 35.92 34.89 33.45 31.76 31.85 32.77 30.08 28.86 44.68 45.08 39.43 42.12 44.27 46.85
45.44 45.72 46.02 46.33 46.30 46.26 46.58 46.63 46.56 46.78 47.10 47.05 41.27 47.30 46.55 40.54 39.68 43.31 43.62 44.99 43.53 42.72 38.26 37.38 35.64 36.10 36.23 31.83 30.05 30.31 27.16 28.41 32.12 28.00 38.21 31.85 38.06 34.90 35.10 34.54 44.00 45.08 45.74 47.61 46.79 46.47 47.66

GFSGBSN_sfc_wetblb_081.txt.gz
Wetbulb
54.43 54.07 53.57 53.06 52.82 52.59 52.68 52.53 51.95 52.76 52.98 53.49 53.62 53.38 53.19 53.27 53.90 54.68 53.90 53.29 53.36 53.49 53.14 52.96 53.66 54.62 53.24 47.50 48.05 53.95 61.55 59.81 54.37 49.48 47.01 46.95 45.92 44.88 41.69 42.15 42.53 41.54 43.24 44.82 46.67 46.56 46.66
53.12 53.11 53.11 53.42 53.58 53.60 53.46 53.10 52.62 53.13 53.16 53.00 52.98 53.35 53.82 52.96 53.34 54.19 53.94 53.47 53.06 53.08 53.07 52.65 53.26 53.92 50.36 41.50 51.38 53.44 54.21 55.41 52.31 48.59 47.47 48.01 46.30 47.20 44.88 44.03 41.53 44.55 44.73 45.36 45.27 46.05 46.23
52.54 52.42 52.51 52.91 52.38 52.40 52.57 53.03 53.21 53.19 53.41 53.18 53.22 52.93 53.00 52.62 53.37 53.51 53.57 53.26 52.69 52.75 52.90 52.61 52.91 51.80 47.65 43.94 50.90 51.49 52.54 50.05 52.49 51.64 48.24 49.10 49.03 46.44 46.25 44.21 46.69 45.29 42.11 43.37 43.43 43.35 44.75
52.17 52.38 52.48 52.76 52.72 52.63 52.55 52.94 52.18 51.99 52.88 53.31 52.96 53.06 52.75 52.79 52.82 52.63 52.29 51.83 51.92 52.50 52.65 52.87 52.93 51.29 43.74 53.43 52.38 52.23 51.84 51.45 53.28 52.28 51.40 52.54 51.15 47.87 46.23 46.86 45.27 42.17 39.74 35.76 41.46 44.53 45.83
51.64 52.11 52.12 52.44 51.98 52.10 52.06 52.02 52.11 51.58 51.53 52.34 53.29 53.20 52.59 52.28 52.16 51.97 51.70 51.34 51.42 52.19 52.61 52.98 50.41 48.84 42.81 54.75 50.79 53.72 52.78 49.67 51.31 52.29 52.08 54.99 50.82 46.88 45.90 40.28 37.05 37.39 32.84 35.97 40.46 44.33 43.49
52.15 51.83 51.71 52.12 51.61 51.56 51.39 51.59 51.69 51.71 51.85 52.02 52.29 52.64 52.85 52.38 51.83 51.52 50.98 50.87 51.24 51.84 51.35 52.50 53.02 44.39 46.50 45.77 49.99 52.01 51.67 51.21 48.42 49.11 47.98 46.97 44.75 41.16 39.36 37.53 31.14 33.21 34.51 38.18 37.76 41.05 42.95
51.02 51.70 51.23 51.19 51.25 50.77 50.49 50.49 51.21 51.24 51.41 51.64 51.83 52.21 52.50 52.55 52.07 51.35 48.52 44.85 43.57 42.81 45.34 44.25 45.37 45.11 47.36 51.91 55.12 51.10 51.91 49.40 47.77 45.60 40.58 43.74 39.04 37.48 39.79 39.98 40.79 39.57 37.91 36.33 40.62 44.12 41.41
49.69 50.39 50.99 50.73 51.05 50.67 50.13 50.37 50.77 50.71 51.05 51.05 51.48 51.69 51.92 52.22 51.93 51.03 45.64 41.27 44.28 45.25 39.26 46.30 46.40 45.55 49.13 51.31 45.78 49.08 52.58 45.45 43.79 39.28 42.27 40.39 38.47 42.54 43.26 42.38 41.18 40.05 37.67 37.65 40.83 43.64 42.32
50.25 50.15 50.09 50.36 50.54 50.39 49.77 49.91 50.04 50.46 50.50 50.51 50.85 51.13 51.47 51.37 51.26 45.83 43.34 43.40 48.55 47.93 40.42 42.06 45.55 45.11 45.99 47.42 43.87 45.45 50.10 45.82 42.05 38.96 39.81 37.81 41.54 45.61 43.29 41.71 40.25 39.55 37.80 38.25 37.93 42.04 42.20
49.56 49.72 49.63 49.78 49.76 49.70 49.38 49.38 49.35 49.22 50.00 50.07 50.39 50.85 50.80 51.04 43.05 44.25 40.93 46.81 46.75 47.54 33.58 35.67 41.37 43.58 46.54 47.20 42.39 49.62 50.64 46.76 42.76 39.59 39.37 38.27 43.64 43.02 41.48 40.86 41.71 36.93 42.92 42.19 40.64 37.86 33.56
48.78 49.72 49.09 48.83 48.88 49.39 49.01 48.81 48.79 48.88 49.39 49.87 50.09 50.77 50.70 51.20 43.13 40.32 43.06 46.17 46.87 46.38 18.43 36.57 41.36 48.95 46.69 41.22 40.58 44.23 49.45 45.65 40.40 40.06 39.33 36.97 39.35 40.07 39.52 42.10 43.35 40.35 44.34 42.28 41.29 38.72 34.46
48.55 48.21 48.60 48.88 48.74 48.37 48.07 47.80 48.21 48.36 48.71 49.52 49.92 50.57 50.32 46.71 44.11 44.78 45.46 45.26 47.81 32.50 20.60 33.87 41.71 40.80 41.00 41.63 41.76 44.25 43.79 45.34 45.79 41.84 40.13 39.52 43.73 42.63 42.75 44.73 44.91 45.94 42.01 40.78 39.01 36.56 30.15
47.40 47.86 48.12 48.04 47.67 47.66 47.42 47.73 48.56 48.82 49.02 49.48 49.68 50.44 48.78 47.33 39.65 43.83 44.88 42.82 32.66 24.31 37.05 34.18 36.44 38.40 37.89 38.52 39.79 40.37 39.14 38.27 36.49 33.96 34.91 37.94 39.50 42.11 44.43 40.80 43.35 42.03 37.04 29.45 27.79 27.67 28.34
47.72 47.68 47.23 47.50 47.83 47.79 47.55 47.62 48.31 48.51 49.14 49.41 49.49 49.50 47.58 46.99 45.08 43.88 40.99 35.42 25.63 31.72 32.82 38.96 36.78 36.94 34.07 38.26 39.02 39.24 37.11 34.24 38.70 38.28 34.58 33.27 30.89 39.12 42.36 41.56 39.46 39.09 38.15 30.16 26.62 26.08 29.67
46.46 46.64 46.85 46.96 47.08 47.17 46.97 47.39 48.28 48.50 48.69 48.75 49.12 43.36 44.32 43.96 45.38 42.90 34.81 25.83 25.14 31.31 35.80 33.36 34.95 32.49 32.93 35.72 37.15 37.69 36.44 35.94 37.17 38.91 34.69 33.05 33.55 42.10 43.01 44.11 43.86 38.84 34.82 41.43 33.94 33.84 29.99
46.55 46.44 46.87 47.09 46.82 47.06 47.33 47.23 47.62 48.19 48.16 48.48 44.17 42.50 41.00 44.65 45.03 41.73 32.06 25.40 28.62 35.65 36.16 35.29 28.48 32.16 28.84 30.78 32.51 34.97 35.18 39.70 37.87 42.00 41.67 38.59 32.91 41.10 42.65 43.75 44.18 41.92 43.39 34.57 34.67 28.07 27.17
45.59 45.72 45.86 46.48 46.40 46.59 46.83 47.22 47.34 47.85 48.04 48.85 42.10 37.73 42.26 45.95 44.99 37.86 25.97 25.51 31.04 35.48 35.78 33.33 31.46 29.98 30.64 30.22 32.63 33.72 34.57 38.28 41.44 41.36 44.03 39.64 36.78 36.60 41.08 38.26 37.91 38.53 37.95 38.00 38.44 34.11 28.44
45.68 45.69 46.25 46.41 46.68 46.51 46.64 46.89 47.27 47.56 47.82 46.40 40.89 32.17 44.00 45.80 34.04 34.33 28.30 29.42 35.60 34.16 37.06 34.55 34.55 32.37 30.81 31.83 30.50 31.39 32.90 36.79 42.42 42.69 37.85 42.05 37.02 32.83 36.48 42.00 42.88 41.99 40.42 40.32 32.56 31.69 33.05
45.08 45.29 45.70 46.12 46.22 46.43 46.42 46.76 46.99 47.36 47.95 43.61 36.73 37.10 45.13 43.44 27.53 29.05 32.92 32.28 32.80 32.04 33.30 33.56 33.57 34.73 34.88 31.26 27.84 32.02 33.83 41.98 43.73 41.90 39.35 41.48 35.46 28.94 33.05 37.93 41.65 38.49 39.94 40.97 39.38 36.89 32.53
45.39 45.63 45.98 46.03 46.20 46.44 46.46 46.51 46.72 47.29 47.91 43.89 34.66 30.25 37.58 39.70 36.05 31.02 30.52 31.54 31.47 35.31 32.61 33.82 33.43 34.76 32.40 30.68 33.46 31.19 33.96 40.42 43.79 43.38 44.91 44.05 38.80 34.97 29.54 33.29 37.85 36.08 39.53 40.66 40.22 32.06 32.66
45.14 45.53 45.74 46.05 46.29 46.48 46.63 46.63 46.67 47.09 47.48 43.82 35.73 31.76 36.79 29.81 32.27 33.36 32.54 32.66 31.41 30.47 34.57 34.55 31.54 31.00 29.98 26.94 29.33 29.32 33.15 35.51 41.78 43.30 41.30 42.10 34.58 36.80 37.79 39.16 40.38 39.49 38.68 39.30 37.80 37.79 34.61
45.35 45.40 45.57 45.66 46.09 46.33 46.87 47.01 46.89 47.06 47.42 41.74 32.47 33.66 37.63 31.86 34.33 33.64 32.84 31.35 30.73 32.56 32.86 31.82 31.75 33.75 32.47 28.60 30.02 28.25 32.38 32.69 36.20 40.75 38.58 40.05 34.33 36.16 34.10 38.31 39.66 38.44 40.51 40.71 39.36 39.34 39.73
45.50 45.78 46.15 46.34 46.41 46.71 46.93 46.83 46.98 47.02 46.78 40.44 40.94 39.41 36.55 34.13 32.51 32.27 31.55 31.35 32.26 33.83 35.44 35.81 34.69 33.07 31.40 33.33 36.08 36.68 36.73 37.32 39.12 39.38 35.04 33.93 35.06 32.14 29.72 36.91 38.08 32.40 37.42 40.12 40.86 40.30 39.66
45.24 45.55 45.90 46.17 46.32 46.60 46.64 46.72 46.92 47.39 46.96 43.23 42.12 39.96 34.73 29.97 31.47 31.56 33.59 33.72 32.93 34.79 32.31 36.33 36.75 33.31 37.05 40.83 39.42 38.32 37.38 36.91 37.64 39.85 40.62 34.54 33.03 34.01 28.23 30.75 27.10 36.68 42.63 43.13 41.70 42.43 43.57
45.87 46.45 46.82 46.54 46.47 46.63 46.61 46.64 46.79 47.12 47.37 43.63 43.84 39.87 35.70 30.21 33.91 32.44 33.52 33.91 35.14 35.90 34.57 35.41 37.49 39.93 41.31 38.52 33.42 29.51 29.17 32.11 35.09 39.44 39.76 39.52 35.04 31.49 29.70 28.36 32.58 36.80 39.99 39.86 39.78 39.17 44.74
45.83 46.09 46.28 46.59 46.68 46.45 46.56 46.88 46.86 47.07 47.57 44.95 43.33 45.18 39.41 33.67 31.55 36.31 33.22 34.27 32.02 32.44 33.14 35.08 39.83 42.12 38.28 34.72 31.63 27.53 21.09 27.77 28.87 35.94 40.55 39.27 38.78 33.63 31.88 28.81 23.44 33.46 41.36 45.39 45.01 34.50 44.54
45.71 45.68 45.85 45.87 46.04 45.99 46.31 46.46 46.80 47.22 47.28 45.30 43.17 45.38 41.23 34.56 37.41 37.24 33.56 33.59 36.37 34.51 32.14 34.58 36.17 35.10 38.03 31.26 28.91 27.73 25.90 32.11 25.53 28.24 31.21 32.87 32.95 31.32 31.79 30.83 31.46 39.43 43.69 46.00 34.07 34.17 45.36
45.15 45.19 45.40 45.62 45.94 45.97 45.99 46.10 46.43 46.83 47.46 46.14 42.91 45.88 41.87 37.10 38.83 39.39 40.10 37.02 37.08 36.46 31.38 35.14 33.99 32.76 31.67 26.99 27.74 27.27 22.71 28.32 29.01 32.94 32.17 30.93 30.08 29.89 32.36 30.01 26.98 42.55 43.69 37.85 41.16 44.87 44.95
44.94 44.84 44.96 45.21 45.42 45.76 46.03 46.15 46.36 46.57 46.92 47.13 41.75 46.16 45.79 39.50 39.57 43.08 42.36 43.71 42.88 42.15 38.25 37.93 34.69 34.80 34.24 30.11 28.76 28.45 24.71 24.47 29.29 25.34 36.45 31.26 34.73 32.91 35.31 33.97 41.71 43.55 43.78 46.95 46.92 45.18 46.30

GFSGBSN_sfc_wetblb_084.txt.gz
Wetbulb
53.68 53.38 53.37 53.71 54.06 53.78 53.55 53.47 53.02 52.92 52.33 52.33 52.43 52.18 52.21 52.47 52.53 52.56 53.45 53.73 53.83 53.20 53.05 52.93 52.95 53.41 51.29 43.72 45.01 51.78 60.92 59.11 53.22 48.82 45.95 45.44 44.44 43.60 40.84 41.23 41.34 39.48 41.66 43.34 44.67 44.86 44.02
52.76 52.88 52.71 52.61 52.54 52.97 53.01 53.21 53.07 53.57 53.28 52.93 53.07 52.89 52.33 52.27 52.17 52.18 52.74 52.80 52.68 52.76 52.39 52.55 52.96 53.44 47.75 36.77 48.48 50.99 51.62 53.69 49.82 46.97 46.04 46.09 44.38 45.98 43.21 42.74 41.45 43.08 42.74 43.75 44.04 43.59 44.15
52.56 52.44 52.29 52.64 52.34 52.11 51.98 52.16 52.11 51.98 52.14 52.75 53.40 53.38 53.01 52.26 52.08 51.99 52.33 52.29 51.85 51.76 51.93 52.05 52.44 50.39 46.06 40.92 47.68 48.88 50.88 49.51 48.97 49.37 46.43 47.50 47.74 44.94 44.82 42.22 45.22 43.64 40.13 41.72 41.89 41.23 43.27
52.59 51.74 51.83 52.59 52.65 52.01 51.80 51.58 51.48 51.38 51.46 51.58 51.52 52.35 52.85 52.77 52.50 52.17 51.90 51.50 51.39 51.58 51.83 51.83 52.07 49.18 41.61 51.88 51.09 51.03 50.18 49.94 51.31 50.14 49.26 50.33 49.89 45.88 44.19 45.39 43.88 40.17 38.96 34.37 39.25 41.84 43.17
52.33 52.46 51.68 52.48 52.17 51.68 51.60 51.43 51.24 51.16 50.98 51.14 51.22 52.01 52.14 52.25 52.32 52.08 51.59 51.15 51.01 52.14 52.35 51.93 48.86 46.45 39.60 53.31 49.93 50.98 51.68 49.57 49.63 50.43 50.07 53.65 49.29 45.14 43.77 39.30 36.23 36.59 31.90 33.31 38.69 42.95 41.62
50.97 51.64 52.01 52.18 52.13 51.84 51.72 51.10 51.24 51.32 50.88 50.97 50.92 51.62 51.85 51.71 51.76 51.96 51.17 50.83 50.46 51.06 50.86 51.03 51.23 40.25 41.71 41.75 50.42 51.49 51.29 51.20 47.32 47.83 46.93 46.36 44.44 39.93 38.00 36.18 29.97 32.71 33.43 35.96 36.03 39.55 40.60
51.15 50.87 50.12 50.95 51.59 51.75 51.34 50.88 51.18 50.88 50.92 50.26 50.50 50.46 51.41 51.46 51.34 51.75 48.76 44.57 41.19 39.83 42.92 41.64 41.94 42.13 45.23 51.69 53.82 49.85 49.85 47.81 46.58 44.43 39.47 42.20 37.45 35.39 38.27 38.83 39.00 37.74 36.59 34.87 38.02 41.14 39.75
49.74 50.03 50.55 49.55 50.48 51.07 51.37 50.80 50.82 50.84 50.45 49.86 49.80 49.78 50.76 50.85 50.84 51.23 44.67 41.61 42.83 43.42 37.54 43.58 43.64 44.02 47.11 49.50 43.56 45.85 50.94 44.25 42.62 38.72 41.08 38.84 35.91 41.36 41.95 41.16 39.90 38.35 36.53 35.99 39.04 41.59 40.46
48.38 48.89 49.59 50.45 50.60 49.96 50.85 50.64 50.49 50.35 50.16 49.84 49.61 49.41 50.28 50.67 50.66 44.65 41.24 43.50 46.77 45.44 39.40 40.59 43.93 43.63 44.94 46.07 41.57 42.25 46.31 44.95 41.52 38.48 39.20 37.87 39.78 44.08 41.81 39.36 38.40 37.35 36.72 36.15 36.50 39.32 39.93
48.48 48.83 48.72 49.19 50.04 49.93 49.75 49.80 49.46 49.79 49.58 49.76 50.00 49.89 50.43 50.45 43.45 42.47 38.94 44.77 45.56 44.97 32.97 33.93 39.99 42.14 45.02 45.28 40.31 46.97 47.71 45.28 41.66 38.29 39.34 38.15 43.05 41.28 39.96 39.29 40.09 34.87 40.56 40.20 38.99 35.91 31.37
47.80 47.91 48.22 48.85 49.00 49.35 49.63 49.04 49.02 48.68 48.77 49.07 49.62 49.68 50.35 50.28 43.83 40.22 40.98 45.54 45.30 46.36 18.72 35.29 40.31 47.01 44.72 40.75 39.99 43.73 48.46 44.66 38.00 38.82 39.07 36.16 38.36 38.60 37.50 39.68 41.51 38.82 42.47 40.31 39.54 35.91 33.45
47.69 47.58 47.83 48.42 48.58 48.63 48.66 48.40 47.89 47.68 47.88 48.43 48.93 49.62 50.16 45.45 42.71 43.49 44.59 44.78 45.08 32.34 20.06 33.38 41.26 40.47 39.61 41.15 40.63 43.16 43.48 44.49 44.20 40.21 37.84 37.84 42.13 40.49 40.00 43.38 42.87 44.58 40.44 39.59 37.54 35.22 28.36
46.61 46.71 47.24 47.55 47.84 47.91 47.92 47.61 47.87 47.58 48.17 48.54 49.02 49.43 47.91 46.86 39.21 43.88 44.06 40.67 31.82 23.05 35.23 33.23 34.98 37.17 37.13 37.36 39.26 39.96 38.45 37.33 34.70 32.27 32.87 36.68 38.23 40.59 43.13 38.68 41.40 41.01 35.94 28.41 27.11 27.19 27.63
46.67 47.15 47.23 47.06 47.39 47.34 47.43 47.87 48.24 47.95 48.09 48.39 48.85 48.58 46.58 46.31 45.03 44.57 40.80 33.36 24.41 30.41 31.96 36.41 34.90 35.96 33.95 35.35 37.89 39.11 36.45 33.00 37.23 36.78 32.33 29.86 28.57 37.71 41.05 40.22 38.09 37.85 36.67 28.89 26.04 25.78 28.80
45.78 45.86 46.03 46.65 46.93 47.19 47.58 47.38 47.24 47.39 47.72 48.18 47.83 42.35 43.18 43.42 45.38 43.37 34.86 21.52 25.61 29.41 34.38 32.20 33.15 30.93 31.36 33.53 34.73 36.19 36.12 35.65 37.33 37.90 33.01 31.52 31.17 40.77 41.71 42.58 42.55 37.13 34.70 39.78 32.14 31.40 29.32
44.70 46.04 46.16 46.44 46.31 46.39 46.51 46.62 46.93 46.62 47.26 47.65 40.24 40.25 39.00 44.10 45.69 41.19 31.96 24.56 26.01 34.43 35.00 34.13 27.47 30.50 26.13 28.59 29.16 30.99 33.16 38.48 38.03 41.57 42.18 36.11 31.37 39.68 41.27 41.33 41.24 39.49 41.80 33.50 32.19 26.66 26.09
45.02 45.31 45.51 45.77 45.97 46.55 46.17 46.32 46.75 46.78 47.20 47.63 41.06 36.43 42.22 45.14 43.63 36.59 25.11 24.59 30.20 35.09 34.31 31.41 30.51 28.67 29.13 28.43 29.69 29.41 31.06 36.90 40.20 40.18 42.09 40.13 33.43 33.60 39.07 36.96 35.83 36.52 36.31 35.95 36.55 32.49 27.85
44.96 45.10 45.51 45.32 45.48 45.58 45.61 45.71 46.38 46.70 47.03 44.16 39.03 30.94 41.54 44.82 33.04 33.18 27.67 29.28 34.65 32.41 35.94 32.97 33.66 31.61 28.89 29.88 28.32 28.39 30.59 34.41 40.46 41.78 37.35 40.53 37.12 29.65 34.27 40.60 41.95 39.18 37.51 38.30 32.64 29.92 31.03
44.59 44.51 44.61 45.00 45.07 45.17 45.62 45.99 46.03 46.46 46.53 38.78 34.95 35.37 42.69 41.83 26.97 27.23 31.38 31.20 32.85 30.79 31.78 32.23 32.02 33.69 33.37 29.22 25.75 29.36 30.94 38.12 41.93 41.32 38.58 39.30 35.96 30.42 30.44 36.32 39.35 36.31 38.32 39.00 37.95 35.28 31.54
44.08 43.98 44.23 44.59 44.56 44.87 45.30 45.91 45.79 46.10 46.62 40.89 35.50 29.29 35.68 38.63 34.17 29.07 27.90 28.87 29.00 34.96 31.50 32.31 32.29 32.97 31.19 28.89 32.32 29.40 30.51 35.45 38.06 37.04 44.69 41.70 35.82 33.89 29.90 32.40 37.16 34.74 37.45 39.51 38.11 31.37 32.98
43.98 44.08 44.74 45.33 44.96 45.44 45.80 45.53 46.38 46.48 46.27 41.15 35.70 31.19 35.04 25.02 30.78 31.26 29.91 29.80 27.83 29.25 33.14 32.67 29.52 29.81 28.76 25.92 26.93 26.99 30.49 32.29 35.08 38.93 40.86 39.60 31.66 34.49 36.06 37.70 37.49 37.17 37.09 37.74 36.85 36.95 33.29
44.35 44.62 44.98 45.17 45.29 45.69 45.61 46.37 46.29 45.84 46.53 38.81 32.33 32.21 34.76 34.93 31.93 31.92 31.96 29.10 28.65 30.60 31.69 30.13 29.01 32.18 30.93 27.08 28.54 27.17 30.95 31.56 31.19 38.24 37.68 38.65 31.17 33.41 32.30 34.65 36.53 35.05 38.06 38.57 38.41 37.26 36.83
44.71 44.98 45.11 45.17 45.50 45.80 45.97 45.69 45.60 45.85 44.92 37.43 38.29 39.79 36.21 33.12 30.91 31.14 30.22 30.88 30.72 32.66 34.58 35.25 33.95 32.72 31.12 32.58 34.60 35.41 35.33 35.11 34.36 32.28 34.38 35.66 34.06 31.37 27.26 32.99 34.29 30.57 35.02 38.38 38.49 38.88 38.25
44.84 45.12 45.19 45.31 45.50 45.92 45.89 46.08 45.97 45.84 45.35 40.96 40.83 38.83 33.71 28.69 30.84 29.85 32.10 33.40 31.83 33.33 31.29 35.63 36.83 33.62 36.46 40.58 40.34 38.17 35.91 35.33 34.76 34.26 35.58 33.03 33.47 31.35 29.06 31.99 26.51 35.90 40.40 41.28 39.46 40.41 40.27
45.22 45.38 45.36 45.50 45.56 45.68 45.40 45.70 46.22 46.29 46.44 42.71 42.31 39.81 35.38 29.32 32.22 32.12 32.67 33.30 34.76 35.23 34.11 34.70 36.40 39.45 41.19 38.59 34.47 30.55 27.58 30.03 31.59 33.62 33.31 37.04 34.20 30.68 27.97 28.81 33.10 35.43 38.78 38.07 37.38 38.32 42.75
45.13 45.10 45.47 45.94 46.31 46.18 46.25 45.96 46.24 46.43 46.76 44.53 43.13 43.67 39.61 31.85 29.71 35.10 32.62 34.33 31.92 32.42 32.94 34.70 39.86 41.97 39.89 34.41 31.41 25.85 21.73 26.84 26.78 31.45 36.43 37.30 36.46 32.14 30.88 26.82 24.61 34.49 39.70 43.53 42.81 33.34 42.43
45.69 45.59 45.38 44.69 45.30 45.54 45.56 45.71 46.26 46.50 46.87 44.97 43.15 44.61 40.15 33.74 35.80 36.02 32.46 32.23 36.27 34.95 32.54 34.77 36.02 35.70 38.11 31.41 27.14 25.57 25.15 31.62 25.03 24.82 30.43 31.23 32.47 29.31 29.83 29.47 31.98 40.14 42.21 43.45 31.77 32.77 43.16
45.43 45.61 45.21 45.47 45.63 46.01 45.84 45.75 46.10 46.33 46.93 45.21 42.34 44.80 40.48 35.57 37.44 38.67 38.99 35.84 36.37 35.96 31.43 35.36 34.69 33.90 32.62 29.19 28.54 28.08 25.12 27.72 27.30 29.96 30.03 28.56 29.14 29.29 31.96 29.24 26.49 41.78 41.20 37.91 40.71 43.16 44.42
45.02 45.20 45.27 45.24 45.40 45.40 45.87 46.06 46.20 46.38 46.34 46.77 40.19 45.16 44.82 39.10 38.32 41.97 42.17 43.10 42.05 41.12 37.71 38.25 35.76 34.70 33.64 30.73 27.94 27.92 23.84 24.27 28.00 23.86 32.28 27.83 32.62 30.20 33.24 33.32 40.95 41.52 41.86 43.73 45.76 45.45 44.53

GFSGBSN_sfc_wetblb_087.txt.gz
Wetbulb
53.07 53.07 53.20 53.12 52.92 52.94 53.04 53.25 53.54 53.31 53.27 53.28 53.24 53.04 53.02 52.59 52.47 52.30 52.69 52.75 52.56 51.96 51.97 52.25 52.76 52.98 51.15 43.02 43.61 52.38 57.78 59.40 55.49 51.89 49.39 48.40 47.61 47.32 45.29 45.43 45.13 43.35 45.61 46.13 46.92 46.52 47.49
52.98 52.47 52.82 52.61 52.42 52.21 52.23 52.14 52.08 52.09 52.42 52.58 52.69 53.00 52.71 52.58 52.40 52.48 52.73 52.60 52.19 52.21 51.75 51.63 52.01 52.38 48.81 36.00 47.70 52.78 51.92 54.49 52.19 49.58 48.42 48.52 47.86 49.36 47.08 46.14 44.86 46.75 45.48 46.41 47.64 47.84 47.50
52.94 52.54 52.54 52.69 52.11 52.00 51.67 52.01 51.64 51.53 51.50 51.63 52.06 52.16 51.79 51.29 51.50 52.27 52.79 52.71 52.13 52.12 52.02 51.79 51.73 50.04 44.61 42.43 49.63 50.73 51.65 50.72 51.85 51.15 48.30 49.41 50.38 48.72 48.26 45.88 47.83 47.05 44.59 46.11 46.66 46.54 46.75
52.03 52.62 52.78 52.63 52.43 52.30 51.91 51.60 51.75 51.24 51.36 51.19 51.25 51.68 51.92 52.07 51.98 52.11 52.19 52.04 51.90 52.13 52.81 52.71 51.71 48.44 40.13 50.77 52.89 51.41 52.05 50.88 51.95 51.71 50.72 52.72 52.42 49.33 47.89 48.70 46.87 44.42 43.54 40.74 44.06 46.26 46.90
51.54 51.45 51.47 51.86 52.70 52.55 52.12 51.65 51.24 50.71 50.90 50.74 50.59 51.41 51.54 51.69 51.55 51.45 51.26 51.39 51.80 52.19 52.15 52.00 48.09 45.92 38.93 51.36 48.98 52.22 52.48 49.19 50.60 50.56 50.59 53.27 51.56 48.46 47.21 43.64 41.32 41.54 38.07 38.94 41.90 46.14 47.03
50.71 51.24 51.45 51.35 51.08 51.86 52.24 52.18 51.61 50.64 50.55 50.25 50.19 50.86 51.12 51.30 51.13 50.85 50.54 50.99 50.64 51.56 51.05 50.95 50.12 41.16 42.54 41.50 51.42 53.34 52.82 52.44 48.65 48.35 48.66 48.26 47.67 44.39 43.42 41.67 34.80 37.11 37.95 39.25 40.33 44.53 44.66
49.11 49.63 50.28 50.80 50.88 51.24 51.02 51.56 51.80 50.68 50.36 50.08 50.12 50.10 50.51 50.79 50.94 50.68 49.31 45.34 42.63 41.28 43.19 41.54 41.34 41.31 43.34 49.74 53.05 51.33 51.69 49.60 48.74 46.16 41.62 45.58 41.70 39.28 42.15 43.48 42.22 41.32 39.60 39.56 42.30 44.68 43.29
48.12 48.62 48.98 49.41 49.72 50.38 50.29 50.67 51.50 50.99 50.25 49.82 49.74 49.54 50.11 50.65 50.96 50.63 46.08 43.12 41.06 41.65 36.36 43.12 42.68 42.51 45.53 47.12 41.86 45.92 51.41 45.93 44.34 40.40 43.07 41.64 38.67 43.08 44.12 43.67 43.29 41.69 39.89 39.74 42.62 43.92 43.21
48.07 48.71 48.63 48.87 48.91 49.37 50.31 50.11 50.65 50.42 50.29 49.97 49.18 49.05 49.60 50.22 50.41 45.94 42.84 43.27 46.03 44.91 38.44 40.19 43.52 42.77 43.63 45.22 40.94 42.33 45.67 46.41 42.86 40.07 40.73 39.37 41.67 44.48 42.92 41.37 40.60 40.87 39.80 40.07 39.85 42.57 43.83
47.83 47.83 48.60 48.63 48.70 48.85 49.16 49.48 49.44 49.59 49.78 49.53 49.63 49.74 49.63 49.95 44.05 44.60 40.52 45.74 46.33 45.41 33.87 34.63 39.92 42.89 45.56 45.43 40.31 46.93 47.10 43.98 43.43 40.15 40.78 40.31 43.59 42.47 41.60 40.45 42.03 37.65 42.83 42.25 40.79 39.68 35.48
47.98 47.63 47.91 47.46 47.26 48.38 48.62 49.57 49.02 48.61 48.34 48.05 48.73 49.29 49.00 49.93 44.41 40.82 42.98 46.39 46.54 44.99 20.98 35.99 39.98 48.10 45.61 41.81 41.91 43.79 47.87 44.51 38.12 40.55 41.05 38.85 39.77 40.46 39.48 40.81 43.03 40.42 44.18 42.29 42.00 39.59 38.56
47.45 47.05 47.45 47.37 47.32 47.78 48.10 48.10 48.33 48.06 47.70 47.48 48.60 48.50 49.04 45.68 43.76 44.93 45.70 45.68 46.17 33.36 20.89 33.66 41.34 40.54 39.62 41.49 41.65 43.89 44.46 46.46 45.15 39.75 40.89 40.63 43.59 42.69 42.40 43.61 44.19 45.28 42.77 41.93 40.84 39.79 33.53
46.56 46.05 46.62 46.19 46.32 46.68 47.26 47.59 48.09 47.97 48.20 48.03 48.35 48.28 46.95 47.64 40.24 45.41 45.63 42.48 32.74 24.19 35.09 32.90 34.42 37.35 37.35 36.20 40.07 41.18 39.26 38.22 36.32 32.47 33.25 38.45 39.48 42.63 44.64 40.63 43.51 43.56 39.77 33.19 31.89 32.02 32.04
45.93 46.35 46.06 45.92 45.95 46.53 46.98 47.19 47.45 47.96 48.17 47.74 47.99 47.61 45.70 46.07 46.16 46.26 42.50 35.41 23.46 29.32 31.35 36.50 35.08 35.96 34.45 34.72 37.05 39.22 37.36 34.93 39.75 37.98 34.90 31.37 29.77 39.39 42.83 42.32 39.87 40.54 40.39 34.13 27.58 30.02 34.03
45.61 45.48 45.73 45.86 45.96 46.22 46.38 47.07 47.45 47.89 47.63 47.27 46.63 42.44 43.23 43.63 46.12 44.89 36.83 24.72 25.82 29.60 33.91 32.38 33.66 31.92 32.10 33.38 34.57 35.58 37.09 36.17 39.34 40.81 33.83 33.39 31.76 41.42 42.12 43.91 44.20 39.56 36.26 42.43 35.31 35.69 34.38
45.00 44.86 45.51 45.91 45.62 45.62 46.16 46.22 46.43 46.57 46.69 46.69 40.99 39.86 39.73 44.80 45.94 42.28 31.43 24.52 27.18 33.84 33.86 33.92 28.25 31.43 27.20 29.77 30.50 31.47 34.07 38.99 38.52 41.10 43.22 38.41 31.54 39.89 41.48 43.06 43.41 42.48 43.81 35.72 36.52 28.83 27.95
44.42 44.64 44.74 45.13 45.65 45.69 45.67 45.93 46.34 46.52 46.61 46.15 39.91 34.81 40.66 45.36 44.39 36.64 24.66 25.41 29.54 34.70 35.46 30.89 30.65 29.50 29.52 28.99 31.06 30.32 32.87 37.35 39.68 39.20 43.28 40.12 36.38 35.59 40.29 38.33 37.80 38.78 37.97 39.38 39.45 36.54 31.65
43.57 43.83 44.26 44.85 45.27 45.48 45.50 45.65 45.35 45.90 46.74 42.65 37.65 29.76 41.83 44.92 31.42 32.64 26.89 28.91 34.06 32.26 35.68 33.79 34.22 32.15 29.82 30.49 28.91 29.19 30.18 34.33 38.28 42.30 36.56 40.62 37.99 33.50 35.44 41.95 43.08 41.31 39.02 39.35 33.82 33.01 35.84
43.61 43.66 44.32 44.77 44.73 45.24 44.88 45.07 45.50 46.22 45.82 39.20 33.75 33.75 42.47 41.62 26.20 25.99 30.52 30.26 32.37 30.75 31.11 32.34 31.95 34.07 34.10 30.51 26.53 29.79 31.77 37.38 39.23 38.64 34.61 37.57 34.18 27.44 32.99 37.46 40.93 38.41 39.53 40.35 39.81 38.93 34.47
43.56 43.88 44.20 44.37 44.64 44.82 44.86 45.00 45.45 45.21 45.72 41.53 33.98 27.88 34.20 37.43 35.87 30.01 27.85 28.54 28.51 34.56 32.34 32.72 31.90 33.84 32.40 30.80 33.18 30.14 30.88 34.93 37.39 36.16 39.65 42.03 35.27 30.30 26.95 33.11 36.32 33.43 36.59 38.83 38.28 34.43 35.39
43.46 43.66 43.81 43.93 44.12 44.15 44.31 44.88 45.15 45.40 45.33 41.05 34.10 30.46 32.80 27.13 29.85 30.93 30.59 29.46 27.24 27.29 33.48 33.82 30.03 30.71 30.54 27.51 28.37 28.25 31.19 33.17 36.46 39.25 38.11 39.86 32.27 34.46 35.46 36.15 36.54 36.08 35.53 36.60 36.09 37.82 34.45
43.01 43.34 43.55 43.56 43.75 44.02 44.37 45.08 45.28 45.61 45.75 38.18 29.71 29.81 34.13 32.65 32.06 31.21 31.41 28.30 27.96 28.85 31.27 30.09 28.66 31.36 31.25 27.82 29.60 27.87 31.60 32.47 32.25 37.44 38.37 39.51 31.99 33.28 30.74 35.43 36.15 33.87 36.38 37.48 38.28 39.12 39.07
43.03 43.49 44.07 44.49 44.66 44.31 45.06 45.68 45.28 45.61 45.04 36.78 37.35 38.51 34.58 30.86 29.73 29.68 29.21 29.72 29.50 32.08 33.48 34.51 33.09 31.59 30.88 32.86 35.40 36.38 36.59 36.31 35.68 33.37 32.12 32.73 31.77 30.24 27.83 33.73 34.10 29.97 35.47 37.64 39.20 41.52 40.85
43.54 44.31 44.63 44.89 44.99 45.15 45.28 45.41 45.51 45.23 44.82 39.41 37.49 36.64 31.33 26.78 28.02 28.37 30.07 32.50 31.45 32.12 30.39 35.19 36.25 33.57 36.93 41.08 40.24 38.95 37.32 36.34 35.87 35.26 36.03 32.72 31.78 30.82 26.95 30.38 22.60 35.53 41.54 42.22 39.72 41.64 43.61
44.38 44.54 44.94 45.11 45.28 45.27 45.28 45.35 45.56 45.67 45.37 40.65 40.63 36.13 32.57 25.51 29.93 30.18 31.77 31.27 33.51 34.64 33.55 33.75 37.09 39.70 41.96 37.60 33.72 30.14 30.33 30.89 32.72 34.71 34.38 35.56 32.37 27.78 25.65 26.72 32.05 34.43 39.99 39.15 38.09 38.59 43.96
44.23 44.28 44.54 44.85 44.90 45.11 45.38 45.33 45.30 45.65 46.33 42.65 40.60 40.81 36.59 29.79 26.50 32.82 31.85 33.72 31.41 31.75 32.45 34.63 40.19 42.62 39.82 35.70 32.28 25.81 23.65 27.83 28.00 31.73 35.78 34.49 34.78 30.47 28.67 24.91 23.75 34.67 41.74 43.66 43.97 35.38 43.86
44.39 44.86 45.25 45.35 45.59 45.70 45.68 45.61 45.54 46.00 46.37 43.82 41.41 42.34 37.41 30.73 35.63 35.00 31.57 31.97 36.14 35.02 32.74 35.00 35.99 36.34 38.66 31.76 28.15 26.34 24.61 31.76 26.71 26.78 30.11 29.66 30.12 27.22 26.34 24.58 30.61 40.62 42.80 45.10 33.17 35.05 42.51
45.05 45.17 45.07 45.18 45.41 45.14 44.68 44.86 45.36 46.23 46.02 44.80 41.85 44.19 38.16 33.21 34.74 38.29 38.56 35.52 36.19 35.84 32.20 36.11 34.89 34.91 33.02 29.63 29.23 28.58 28.12 30.35 29.33 31.78 32.18 30.29 29.43 28.69 28.76 26.29 25.23 42.54 42.21 36.98 40.55 43.47 43.46
44.94 44.83 45.33 45.51 45.20 44.79 44.78 44.54 44.94 45.03 46.00 45.81 40.22 44.36 44.43 36.81 36.82 40.98 41.57 42.65 41.75 40.86 37.77 37.83 35.73 35.27 36.08 32.82 31.85 32.63 29.06 29.74 30.73 25.94 34.31 29.07 34.88 33.54 34.14 34.26 41.84 43.14 43.05 45.47 45.46 43.98 44.30

GFSGBSN_sfc_wetblb_090.txt.gz
Wetbulb
53.21 52.69 52.59 52.83 52.70 52.48 52.38 52.29 52.26 52.33 52.39 52.44 52.21 52.19 52.09 51.98 51.81 51.83 52.69 53.04 53.06 52.69 52.49 52.41 52.48 52.42 51.88 47.41 45.26 54.34 59.11 60.97 60.52 57.61 54.11 53.70 52.29 51.28 48.37 49.60 50.38 48.42 49.18 50.25 50.81 50.76 50.82
52.94 53.37 52.88 52.73 52.04 52.20 52.46 51.65 51.67 51.96 52.03 52.11 52.27 52.12 51.69 51.57 51.69 51.69 52.16 52.39 52.56 52.85 52.79 52.69 52.65 51.74 49.13 41.57 49.14 53.89 54.71 56.90 55.63 56.41 55.15 53.75 51.70 52.69 49.70 49.27 48.82 49.82 49.63 49.77 50.56 50.44 51.18
52.35 52.62 52.70 53.51 52.62 52.53 51.87 52.02 51.71 51.77 51.74 51.83 51.98 51.98 51.70 51.20 51.37 51.37 51.56 51.75 51.67 52.00 52.91 53.41 53.09 51.65 46.73 44.73 51.26 54.97 53.91 53.84 56.20 53.80 52.41 54.45 54.22 50.60 50.69 48.56 51.73 50.17 46.98 48.69 49.36 50.23 49.58
52.31 51.91 51.89 52.28 52.31 52.76 52.76 52.10 52.16 51.45 51.43 51.48 50.98 51.56 51.66 51.60 51.65 51.75 51.52 51.15 50.89 51.87 52.83 52.96 52.61 51.21 44.54 50.92 53.85 52.37 52.22 50.74 52.39 54.02 53.46 54.16 54.35 52.00 50.95 51.43 49.37 47.34 48.04 44.34 47.98 48.78 50.01
50.61 51.20 51.57 51.77 52.42 52.40 52.69 52.48 52.46 51.10 51.07 50.51 50.68 51.28 51.33 51.13 50.96 51.11 50.93 50.62 51.19 51.54 52.07 52.09 50.35 48.49 42.96 52.23 48.66 52.89 53.40 49.25 51.17 50.63 54.51 54.90 53.98 50.34 50.21 46.15 44.55 46.33 42.64 44.71 46.11 49.33 48.46
49.46 49.65 49.82 50.23 50.90 51.22 51.92 52.12 52.52 52.11 51.36 50.49 50.32 50.57 51.01 50.81 50.65 50.51 50.43 50.83 51.77 51.52 52.74 53.29 51.33 43.94 46.85 43.21 51.48 54.80 56.77 55.03 51.92 48.97 49.54 50.76 50.25 47.46 47.26 44.69 38.83 42.66 43.12 44.07 44.07 47.45 48.55
49.65 49.63 48.56 49.26 49.85 49.89 50.39 51.12 51.39 51.77 51.20 50.42 50.09 50.10 50.33 50.55 50.19 50.43 49.92 51.26 46.63 46.29 46.26 43.78 44.65 44.35 45.57 50.01 53.04 52.54 54.89 53.48 51.57 47.96 42.23 48.03 44.77 42.42 44.59 45.53 46.20 45.32 44.29 43.34 45.89 47.79 46.25
49.19 49.10 48.38 48.90 48.62 48.71 49.43 49.94 50.57 51.18 50.86 50.16 50.13 49.89 49.91 50.11 50.06 50.23 50.27 46.27 42.77 44.37 38.33 45.40 45.23 45.26 47.48 48.71 42.91 47.50 53.47 49.11 47.84 43.66 45.10 45.02 41.70 46.02 46.93 46.85 45.12 44.85 42.82 42.95 45.92 47.55 46.20
49.33 48.90 48.24 49.13 49.82 49.45 49.31 49.41 50.03 50.27 50.12 49.69 49.15 49.03 49.22 49.81 49.39 49.69 46.95 45.77 49.27 48.33 39.20 42.72 46.02 45.06 45.87 47.68 42.61 43.69 48.06 49.72 46.58 44.59 43.22 42.79 44.51 46.68 45.35 44.30 42.48 43.86 42.94 43.40 42.97 46.31 47.46
48.40 48.51 48.32 47.65 48.02 48.45 47.83 48.60 49.50 49.58 49.87 49.57 48.34 48.38 49.62 48.94 46.12 47.68 45.90 49.24 50.27 49.37 35.79 39.12 42.12 45.90 47.82 46.83 42.32 48.54 49.04 46.50 46.58 43.12 44.29 43.32 46.45 44.78 43.93 42.40 43.37 40.55 46.01 44.92 43.81 43.05 39.73
47.86 47.68 47.83 48.05 47.87 48.40 48.40 47.39 47.70 48.42 48.83 48.75 48.10 47.48 48.74 47.95 45.67 44.30 46.24 49.99 50.38 47.12 25.36 38.46 42.65 51.08 48.52 44.07 45.29 45.74 50.10 45.57 40.34 43.69 44.45 42.16 43.11 42.46 41.85 42.89 44.08 42.01 46.09 44.44 44.57 43.29 42.71
46.16 47.54 47.68 47.50 47.71 47.24 47.58 47.65 47.77 48.10 48.58 48.50 48.35 47.55 48.22 46.71 47.72 47.57 50.09 50.31 48.90 34.70 24.53 36.32 43.65 42.01 41.41 43.50 43.89 46.27 45.39 48.11 45.17 41.31 43.75 44.31 46.54 45.41 44.87 45.95 46.47 46.77 45.10 44.57 44.81 43.45 36.31
46.28 46.58 46.80 46.36 46.68 46.66 46.34 47.02 47.52 47.98 48.32 48.38 48.39 47.91 46.95 47.88 43.77 50.03 49.99 45.26 33.13 26.58 36.91 35.07 37.38 39.81 39.30 38.92 41.48 42.87 41.76 41.33 39.72 34.03 34.63 39.62 41.26 44.95 45.95 42.65 45.28 44.95 41.67 36.52 34.66 35.42 34.76
45.80 45.76 45.80 46.32 45.85 46.28 46.19 46.88 47.29 47.60 47.87 47.49 48.20 47.09 47.14 47.00 49.42 49.58 46.54 36.50 25.32 31.47 33.89 39.43 37.76 38.02 36.42 36.50 38.54 41.05 40.34 38.46 42.77 40.61 37.96 34.40 32.62 40.05 44.31 43.00 41.68 41.57 41.45 37.93 31.07 33.82 37.17
45.09 45.54 45.70 45.47 45.35 46.03 45.93 46.36 46.73 47.32 47.51 47.90 46.40 46.68 45.14 46.67 48.94 48.43 39.98 27.17 28.81 32.52 35.87 35.55 36.42 34.09 35.67 35.50 36.11 38.92 39.79 39.02 40.09 41.92 36.67 36.07 34.42 43.33 43.31 44.58 44.33 42.38 39.88 45.12 39.72 40.12 36.59
44.92 44.86 44.89 45.14 45.26 45.31 46.08 45.70 45.95 46.71 46.72 46.87 44.69 43.02 41.91 48.26 49.87 45.23 34.06 27.89 31.98 36.60 36.79 36.29 30.86 34.09 32.38 32.95 33.17 34.66 37.99 41.40 39.43 41.27 45.48 39.35 34.39 41.61 43.57 45.27 44.78 43.05 45.73 38.14 40.06 30.93 30.76
44.28 44.16 43.95 44.46 44.72 45.41 45.60 45.82 46.14 46.19 46.62 46.08 43.35 37.31 44.85 48.87 48.43 38.56 27.65 29.51 32.25 36.47 37.24 33.67 33.03 31.89 32.38 31.44 32.62 31.85 34.35 39.30 39.97 40.57 43.66 41.57 39.52 38.61 42.39 41.31 40.79 41.22 40.24 41.87 42.40 39.90 34.37
43.66 43.89 43.95 44.09 44.39 44.89 45.34 45.34 45.65 45.82 46.47 44.52 40.15 31.72 45.26 48.05 33.94 34.19 29.04 32.37 34.77 34.25 37.29 35.74 35.72 33.00 32.08 32.20 30.90 31.22 31.12 35.35 40.21 39.33 35.93 39.27 39.54 34.66 37.46 44.16 45.98 44.29 42.01 42.52 37.30 36.82 39.93
43.50 43.82 44.10 44.06 44.19 44.51 44.92 45.31 45.02 46.25 45.85 43.04 36.32 36.14 44.82 44.95 28.23 28.80 32.33 32.59 34.09 33.07 33.80 33.76 33.27 35.30 35.74 32.12 29.21 31.83 33.62 39.50 40.98 39.72 36.83 38.96 36.85 31.76 33.90 40.03 42.98 40.02 41.58 42.38 42.24 41.88 37.29
43.27 43.86 43.88 44.18 44.37 44.30 44.40 45.14 45.22 45.43 45.47 44.12 36.69 30.29 36.68 37.41 37.70 32.39 30.06 30.34 30.46 35.73 34.53 35.18 33.57 35.70 33.51 31.65 34.70 31.27 33.66 38.45 40.24 39.54 39.13 40.43 35.89 32.56 29.42 33.96 39.09 36.38 39.23 41.20 40.28 36.75 38.04
43.46 43.54 43.84 43.83 44.27 44.39 44.81 44.90 44.56 45.24 45.44 42.42 34.52 32.67 35.55 28.18 31.65 32.29 33.29 31.15 28.73 29.20 35.45 36.27 32.99 32.68 32.20 29.33 31.51 31.79 34.81 37.05 38.97 41.31 41.17 39.20 31.92 35.38 36.36 37.02 37.31 37.03 37.08 38.80 38.25 39.93 36.74
43.14 43.27 43.57 43.71 43.98 44.12 44.33 44.38 45.01 45.00 45.05 39.07 33.97 33.43 36.61 33.89 34.81 32.41 32.22 30.74 29.85 32.10 32.93 32.13 31.75 33.58 33.95 31.23 32.67 30.69 34.26 34.76 34.66 38.60 38.41 39.89 33.44 34.88 32.87 36.93 37.24 35.29 37.60 38.50 39.38 40.51 41.29
42.69 43.13 43.51 43.40 43.54 43.88 44.18 44.39 44.90 45.00 44.47 36.94 38.21 41.37 36.95 32.64 32.59 30.81 31.33 31.99 32.19 34.72 35.46 36.20 35.86 34.52 33.10 34.96 38.02 38.95 39.32 39.24 38.89 36.68 34.57 34.65 34.01 30.59 28.32 35.35 35.38 31.00 36.59 37.90 39.38 41.86 42.67
42.94 43.04 43.22 43.64 43.63 44.10 44.59 44.78 44.83 45.16 44.52 41.88 41.40 39.66 34.21 28.24 31.07 31.25 32.03 32.97 32.83 34.04 33.16 36.46 37.66 35.18 38.34 42.55 42.04 41.39 39.91 39.10 38.99 38.60 39.65 34.53 32.42 31.53 29.27 30.99 22.39 35.65 42.23 42.97 40.90 43.26 45.35
42.87 43.14 43.81 44.25 44.61 44.90 44.76 45.04 45.06 45.13 45.56 43.75 43.49 38.85 33.92 27.96 31.80 31.65 32.61 32.64 34.64 36.33 34.89 35.73 37.97 40.96 43.08 39.30 34.16 31.04 31.29 32.19 35.15 37.82 38.14 38.95 35.30 29.43 27.72 28.35 32.59 35.48 40.35 39.36 40.89 40.79 46.11
43.83 43.49 44.15 44.64 44.86 44.76 44.92 44.95 45.11 45.40 45.71 44.58 43.84 43.00 38.77 31.28 30.33 33.99 32.45 34.50 32.62 32.64 33.30 36.05 41.56 43.21 41.12 36.80 33.52 26.70 26.84 30.38 30.78 34.28 39.68 38.31 37.77 32.24 30.05 24.92 23.09 37.43 42.59 46.83 46.07 36.37 46.11
43.48 43.69 44.04 44.66 44.88 45.24 45.31 45.28 45.54 45.54 45.75 45.20 41.95 45.48 40.20 32.12 35.76 36.31 32.03 32.34 36.69 35.37 33.54 36.98 37.75 38.21 39.82 33.05 30.43 28.36 28.48 33.58 29.00 29.55 30.16 30.91 30.46 27.57 28.15 26.51 32.01 39.51 42.16 46.22 34.10 37.20 44.99
43.86 43.91 44.49 44.92 45.50 45.66 45.87 45.85 45.80 45.55 45.86 43.93 41.17 43.90 40.53 34.41 36.41 38.64 38.64 36.37 36.39 37.08 33.17 36.54 35.81 36.25 34.94 30.82 31.06 31.33 30.72 32.79 31.54 34.73 34.05 31.64 30.27 29.42 30.54 27.89 25.31 42.88 43.25 37.13 42.57 46.02 46.35
43.98 44.24 44.87 45.41 45.57 45.40 45.35 45.71 45.90 45.92 45.70 45.60 39.33 43.66 42.70 37.85 37.48 42.22 41.63 43.74 42.99 41.88 39.21 39.44 36.91 36.35 36.85 33.47 35.59 35.64 32.19 34.81 33.26 28.91 38.33 31.84 37.15 35.25 35.61 35.43 42.56 44.69 43.26 45.81 47.41 46.37 45.89

GFSGBSN_sfc_wetblb_093.txt.gz
Wetbulb
52.99 53.11 53.75 53.18 52.99 52.57 52.73 52.79 52.17 52.17 51.91 52.13 51.98 52.04 52.00 51.78 51.84 52.04 52.63 52.59 52.29 51.82 51.91 52.45 53.33 53.39 52.74 48.24 50.09 56.55 59.27 60.91 60.33 58.81 56.09 54.27 52.94 51.89 48.92 50.66 51.30 49.80 50.59 51.88 52.55 52.15 51.75
51.80 52.77 53.11 53.14 53.24 52.68 52.23 52.10 51.80 51.85 52.20 52.05 52.10 51.89 51.30 51.35 51.51 51.65 52.02 52.13 51.98 52.19 51.61 52.20 53.63 53.20 51.60 43.69 52.92 52.39 53.65 54.09 55.54 57.79 56.66 55.63 54.33 55.24 52.23 51.28 50.31 51.88 51.59 51.51 52.57 52.12 52.07
52.50 52.72 52.50 52.55 52.50 52.75 52.76 52.45 51.71 52.57 52.04 51.86 51.96 51.99 51.34 51.06 50.98 50.95 51.39 51.57 51.52 51.54 51.56 52.67 53.99 53.31 49.68 47.50 52.38 54.08 54.91 53.20 55.17 54.91 54.84 56.86 56.69 53.07 52.63 49.94 52.70 51.45 48.73 50.51 51.19 51.74 51.00
50.88 51.08 51.81 51.83 52.02 52.97 52.62 52.83 52.30 51.91 52.20 51.81 51.20 51.65 51.67 51.44 51.27 51.11 51.04 50.86 51.06 51.59 52.65 53.22 53.48 53.21 46.45 52.50 54.21 52.24 53.40 51.77 54.23 55.84 55.02 56.53 56.68 53.92 52.14 53.00 51.13 48.28 48.97 45.03 50.48 51.94 51.81
50.05 49.88 50.35 50.45 51.23 51.75 51.95 52.45 52.58 51.89 52.43 52.31 51.50 51.54 51.31 51.36 50.77 50.73 50.44 50.22 50.56 52.51 52.77 52.31 52.99 51.26 46.08 52.36 49.00 51.88 53.61 48.77 50.21 50.80 51.67 52.65 53.94 51.23 51.75 47.47 45.19 46.98 42.70 45.60 48.40 51.61 50.37
49.62 49.58 49.99 49.84 49.46 50.16 50.60 51.62 51.78 52.28 52.14 52.40 50.97 51.40 51.27 50.70 50.32 50.34 49.91 49.69 51.90 51.47 52.90 54.69 53.71 46.70 49.99 45.11 50.70 53.45 57.72 55.71 51.15 50.69 47.41 49.25 49.23 46.60 46.93 45.82 39.43 41.34 43.30 46.01 46.19 50.23 49.58
49.39 49.78 49.57 50.09 49.18 49.03 49.62 49.77 51.10 51.04 51.21 51.69 51.30 50.98 50.95 50.53 50.26 49.97 48.93 51.80 48.59 48.63 50.90 45.85 46.83 47.22 47.78 50.37 52.57 50.20 54.86 55.18 54.67 50.38 43.00 47.24 43.96 42.59 45.17 46.79 46.95 46.55 45.77 45.74 48.45 50.55 47.68
49.32 49.52 50.28 49.68 48.95 49.68 50.41 49.44 50.47 50.70 50.74 51.00 50.02 49.51 49.25 49.40 49.75 49.47 49.45 47.76 45.56 46.68 40.08 46.53 46.33 46.49 48.44 49.36 44.41 48.51 53.97 49.64 50.02 45.59 46.15 43.79 41.33 46.04 48.67 47.97 47.06 46.05 44.74 45.02 47.66 49.68 48.38
48.40 48.23 48.96 49.14 48.52 48.57 49.10 50.09 49.43 50.12 50.36 50.51 49.91 49.18 48.55 48.91 48.91 48.67 48.43 48.23 52.05 50.84 41.23 43.27 47.29 47.01 48.48 49.55 44.76 45.77 49.08 50.17 47.67 45.59 45.80 42.67 44.58 48.08 46.17 46.40 44.71 45.34 44.03 44.53 44.54 48.39 48.83
48.07 48.58 48.38 48.30 48.21 48.91 48.38 48.53 48.51 48.52 49.22 49.86 49.68 48.36 48.08 48.65 45.47 49.53 46.96 51.24 52.50 51.58 37.76 40.48 44.21 47.08 48.72 48.65 44.21 50.08 49.49 47.70 46.55 44.29 45.28 45.25 47.29 46.31 45.70 44.48 46.02 42.96 47.14 45.14 45.11 44.87 41.25
47.79 48.23 47.62 47.74 47.94 48.27 48.73 48.36 48.43 47.94 48.01 48.97 49.80 48.27 47.86 46.60 45.48 44.85 48.53 51.11 51.73 48.05 26.59 41.40 43.99 52.76 50.69 46.28 47.34 46.71 50.95 46.13 42.23 44.17 44.72 43.21 44.36 44.14 43.75 44.90 46.77 44.43 46.99 45.39 45.36 44.58 44.01
47.11 47.24 47.16 47.68 47.78 47.83 47.75 47.51 47.40 48.12 48.12 49.11 49.44 48.23 47.42 47.28 47.77 48.68 51.17 51.68 49.18 35.00 26.32 38.43 45.00 44.00 44.35 46.41 45.93 47.72 46.70 49.54 47.31 42.48 44.77 45.17 49.11 47.16 45.83 46.96 47.16 47.55 45.36 45.13 45.17 44.45 38.30
46.42 46.51 46.86 46.70 46.35 47.16 46.53 46.92 47.33 48.13 47.98 48.78 48.71 48.05 47.02 48.59 44.35 51.15 50.95 46.77 33.49 27.73 38.24 36.74 39.69 43.00 41.75 42.03 43.54 44.57 42.87 41.82 40.28 35.68 36.74 41.90 43.83 46.98 47.53 44.08 47.42 46.05 43.09 36.20 33.03 35.25 36.13
46.07 44.90 45.01 44.95 45.55 45.79 46.11 46.30 46.67 47.70 47.91 47.88 48.01 47.40 47.83 48.13 50.01 49.38 47.16 37.95 26.25 34.09 36.37 41.70 40.36 41.26 39.13 40.92 42.20 42.76 42.24 40.28 44.33 41.94 39.65 35.49 34.11 43.36 46.32 45.22 43.34 43.46 43.14 37.39 29.52 33.23 37.90
45.05 45.01 44.92 45.34 45.77 45.76 45.17 45.46 45.72 46.26 47.65 47.27 47.05 46.90 46.54 47.88 50.22 48.46 40.72 29.21 30.14 34.02 37.84 37.32 39.51 37.25 38.76 39.22 39.26 42.24 41.53 41.79 43.25 43.32 39.19 38.07 36.55 43.52 44.09 44.93 45.30 42.67 39.94 45.51 39.69 41.72 38.31
45.00 45.00 45.15 44.96 44.92 45.19 44.92 45.50 45.77 46.29 46.45 46.70 44.43 43.45 43.06 49.43 50.18 44.85 36.10 29.80 34.16 38.13 39.00 37.94 33.63 37.15 35.77 37.84 36.99 37.60 40.77 43.57 41.22 43.09 46.87 42.73 37.58 42.89 42.97 44.97 45.01 42.94 45.77 38.90 40.74 32.60 31.17
44.67 44.74 44.79 44.80 44.52 44.53 44.73 44.43 45.22 46.44 46.33 46.29 43.91 38.12 45.53 50.11 48.31 39.47 30.66 32.23 35.11 38.42 38.06 36.49 35.50 35.12 36.78 35.63 36.98 35.59 37.84 41.63 42.62 42.08 45.59 43.07 41.88 40.84 43.48 41.61 40.50 40.98 40.06 41.84 42.87 40.97 35.02
44.08 44.13 44.21 44.41 44.39 44.45 44.58 44.97 45.01 45.55 46.14 44.09 40.69 33.14 47.48 48.55 35.47 35.67 32.62 35.28 38.12 36.20 38.56 38.20 38.35 37.09 36.06 35.63 34.15 33.80 34.12 38.08 41.48 41.06 38.57 42.27 41.32 37.79 39.88 45.12 46.50 45.37 42.74 42.29 37.59 37.03 40.59
43.90 43.89 43.99 44.15 44.40 44.43 44.48 44.89 45.05 45.45 45.57 44.79 37.08 37.69 47.33 46.25 30.06 31.11 35.02 35.00 36.80 35.55 35.62 36.21 35.86 37.87 38.08 35.31 31.60 34.03 34.95 40.32 42.33 40.92 39.38 41.04 38.25 34.31 35.55 40.96 44.09 42.49 44.20 44.43 44.22 43.24 38.84
44.07 44.14 44.03 44.11 44.50 44.46 44.78 44.66 44.66 45.01 45.44 44.58 38.40 32.15 38.30 41.26 39.21 34.62 32.59 32.53 31.98 37.56 36.10 37.09 35.97 37.91 36.09 34.59 36.62 33.19 33.99 38.59 42.14 41.69 40.61 41.40 38.56 36.07 32.15 35.91 39.78 37.89 41.40 43.47 41.84 37.82 38.93
43.63 43.85 44.07 44.12 44.43 44.54 44.61 44.66 44.96 44.37 45.35 42.94 36.75 33.82 37.29 31.25 33.38 34.28 34.50 33.54 31.62 31.24 36.53 37.67 34.84 34.82 33.74 30.95 32.44 32.44 35.39 36.69 40.13 41.36 41.99 40.68 33.67 36.85 37.05 37.72 38.79 38.44 38.64 40.08 39.19 40.40 37.60
43.27 43.58 44.01 43.82 43.92 44.34 44.57 44.41 44.86 45.24 45.10 40.48 34.22 34.19 37.58 35.42 36.28 34.03 33.34 32.16 31.77 33.52 34.32 33.22 33.35 35.62 36.26 32.50 34.22 33.22 35.77 36.79 36.08 39.81 39.56 41.01 34.77 36.52 33.64 37.23 37.70 35.98 38.25 38.96 39.27 40.35 41.34
42.89 43.31 43.35 43.31 43.85 43.81 43.83 44.52 44.84 45.00 44.16 38.32 40.06 41.40 37.25 33.98 34.09 32.25 32.80 33.38 33.14 35.69 36.60 37.76 36.64 35.87 34.85 36.54 39.34 40.79 40.63 40.19 39.49 38.00 36.39 36.69 36.09 33.14 29.84 36.26 36.26 32.68 37.42 38.83 39.45 40.71 40.97
42.96 43.33 43.32 43.40 43.64 43.83 43.96 44.19 44.88 44.79 44.28 41.63 40.49 40.73 35.30 29.74 32.05 32.50 33.95 33.93 34.25 35.02 34.23 37.39 38.58 35.87 39.87 43.84 43.33 42.69 41.08 39.64 39.12 39.15 39.97 35.05 35.14 34.18 30.46 32.56 23.53 36.51 41.89 41.89 39.94 42.39 43.58
42.60 43.18 43.25 43.55 43.64 44.14 44.28 44.36 44.35 44.83 44.57 44.60 43.71 40.02 36.38 30.66 33.41 33.15 34.04 34.22 35.81 36.99 36.02 37.01 38.75 41.98 43.45 41.00 35.11 32.52 33.19 33.56 36.33 38.76 38.67 39.40 34.69 31.05 29.02 29.85 34.02 36.73 40.69 41.84 39.55 39.62 47.10
42.61 42.67 43.18 43.53 44.21 44.31 44.67 44.93 44.91 45.17 45.39 44.81 43.72 44.57 39.83 33.88 31.86 35.70 33.69 35.07 32.90 33.37 35.32 37.57 42.00 43.94 42.67 37.08 33.86 27.18 27.29 31.49 31.44 34.71 40.32 38.97 37.70 33.08 30.92 26.32 25.12 39.04 42.52 44.82 45.03 36.44 46.06
42.44 42.86 43.16 44.00 44.26 44.58 44.74 45.05 45.13 45.31 45.52 45.78 42.62 45.96 39.71 33.78 37.41 37.44 33.58 33.66 37.67 36.27 34.68 37.14 39.14 39.43 41.90 35.03 30.36 29.11 29.51 35.41 30.64 31.24 32.15 32.32 32.78 29.99 30.86 28.13 33.31 41.33 43.28 44.81 34.36 37.45 45.87
43.23 43.66 43.69 44.01 44.25 44.49 44.67 45.03 45.34 45.48 45.61 45.00 43.12 46.41 40.94 35.32 37.71 39.56 39.88 37.11 37.39 36.81 32.96 36.72 37.55 38.07 36.08 31.58 31.89 32.47 32.31 34.63 33.91 36.22 34.97 33.03 31.20 29.95 31.28 28.26 26.17 43.71 43.82 38.34 43.43 46.42 46.91
43.23 43.45 43.85 44.09 44.40 44.65 45.13 45.40 45.77 45.83 45.86 45.55 39.34 45.50 47.08 38.75 38.31 43.05 43.35 43.43 42.87 42.59 38.89 38.75 37.87 36.38 39.13 35.31 36.41 36.66 33.93 36.31 34.78 30.13 40.47 31.96 37.08 34.98 35.73 35.13 43.64 46.29 45.48 47.37 47.49 46.26 46.86

GFSGBSN_sfc_wetblb_099.txt.gz
Wetbulb
52.83 53.11 53.29 53.28 53.00 52.91 52.95 53.16 53.27 53.35 53.29 53.09 53.09 52.58 51.71 51.56 51.37 51.49 51.82 51.69 51.65 51.51 51.30 51.35 51.51 52.90 50.74 44.79 45.37 54.91 61.40 61.64 59.35 56.23 52.47 50.39 48.74 47.60 44.84 46.67 46.73 45.47 46.72 48.49 49.21 48.59 47.40
51.93 51.44 51.31 51.86 51.97 52.07 52.48 52.73 52.50 53.01 53.03 53.13 53.05 52.94 52.71 51.95 51.29 51.35 51.61 51.25 51.02 50.93 51.56 50.99 51.39 53.03 48.49 39.17 50.73 51.47 54.65 55.66 54.31 53.05 51.88 51.65 50.19 51.05 48.25 47.45 45.37 47.78 47.78 47.77 47.33 46.98 47.30
51.04 50.73 50.55 50.42 50.55 50.98 50.84 51.06 51.41 51.85 52.70 52.71 52.90 52.69 52.63 52.53 52.09 51.92 51.54 51.02 50.47 50.53 50.95 50.84 51.58 51.83 46.25 42.10 49.01 49.59 50.07 50.14 50.62 49.86 47.32 50.94 52.48 49.46 48.75 46.48 49.98 48.64 44.53 47.01 47.54 46.57 46.51
50.93 50.75 50.39 50.18 50.88 51.24 50.89 50.19 49.90 50.66 51.62 51.82 51.15 52.19 52.17 52.09 51.90 51.52 51.00 50.30 50.06 50.51 50.89 50.79 53.12 49.27 41.84 51.50 49.83 51.10 51.20 48.40 49.56 49.62 49.09 51.34 51.27 49.85 48.23 49.42 48.20 44.43 43.21 38.24 44.73 46.98 48.57
50.77 51.01 50.40 49.99 50.76 51.35 51.08 50.86 50.86 50.29 50.37 51.46 51.90 51.63 51.77 51.74 51.55 50.79 50.36 49.68 49.68 50.51 51.35 52.63 48.91 46.22 42.30 54.77 49.62 51.92 52.10 47.96 47.66 47.69 48.63 50.87 49.40 45.85 47.04 41.88 39.08 40.04 36.30 38.55 42.02 47.45 47.03
49.34 50.10 50.26 49.83 50.23 50.27 50.67 50.71 50.87 50.55 51.21 51.10 50.63 51.42 51.76 51.42 50.96 50.08 49.54 49.35 48.81 49.61 49.77 50.80 50.80 43.06 47.92 46.12 49.01 49.34 49.83 50.82 49.62 47.69 45.27 44.43 41.34 38.82 40.17 37.60 32.94 35.16 37.30 40.39 40.20 45.15 46.95
49.13 49.16 49.69 49.71 49.35 49.32 49.88 50.22 50.28 50.26 50.27 49.80 49.53 50.00 51.23 51.19 50.75 49.96 47.31 41.80 42.09 41.30 45.36 44.47 45.50 43.73 46.36 51.36 53.05 46.51 49.12 48.54 47.23 48.08 38.25 41.41 35.21 32.62 35.33 40.35 41.76 41.40 40.27 39.34 42.34 45.84 45.75
48.40 49.76 49.29 49.34 49.47 49.62 49.52 49.54 50.06 49.98 49.95 49.23 49.67 49.57 50.32 50.88 50.46 49.82 45.50 38.15 43.60 43.00 36.55 43.89 44.05 43.41 46.83 49.85 43.36 45.54 47.04 41.45 43.21 41.72 43.95 38.64 34.51 38.89 40.16 40.71 41.10 40.74 38.79 38.20 42.05 45.11 45.60
48.51 48.60 48.45 48.40 48.36 48.43 48.82 48.97 48.86 49.31 49.38 49.60 49.40 49.51 49.64 50.16 50.02 44.88 41.16 42.86 48.90 46.69 34.83 38.41 42.34 41.78 43.03 44.01 39.90 40.26 44.04 42.53 40.31 41.06 42.57 38.86 41.20 42.86 40.20 38.97 38.41 38.65 38.23 38.66 39.37 43.79 46.45
47.70 47.22 47.33 47.43 48.10 48.23 48.29 48.40 48.21 48.10 48.30 48.48 48.96 49.40 49.02 49.09 43.70 41.42 39.25 47.39 49.31 46.38 30.65 34.25 39.17 41.80 43.31 44.27 41.58 46.47 45.78 42.77 40.63 37.82 41.26 41.44 45.42 42.93 39.16 38.28 39.91 35.69 41.14 41.89 42.13 41.27 35.07
47.34 47.20 47.04 47.24 47.27 47.28 47.77 47.89 47.63 47.56 47.54 47.54 48.25 48.91 48.78 48.13 42.05 38.30 42.95 47.02 48.28 43.10 17.59 37.52 40.51 48.42 45.24 42.56 44.87 44.70 47.82 43.99 38.09 38.58 40.39 38.18 40.77 40.56 39.92 41.05 41.66 38.97 42.45 42.04 42.04 39.99 37.12
46.13 46.38 46.69 46.43 46.93 46.70 46.48 47.13 46.66 46.57 46.94 47.00 47.27 47.43 48.29 43.89 42.36 43.25 45.91 45.06 42.58 28.27 18.40 34.53 43.61 41.88 41.46 42.83 43.30 45.18 44.20 45.61 44.41 39.54 39.56 38.66 42.69 41.01 40.68 43.57 43.69 44.86 42.09 41.80 41.85 38.18 31.94
45.47 45.87 45.77 46.08 46.35 46.22 46.21 46.45 46.80 46.47 46.56 46.56 46.65 46.73 45.45 45.01 38.21 45.56 46.74 40.38 25.90 20.57 34.95 32.62 35.62 41.88 40.63 40.18 41.26 42.24 41.28 37.80 34.45 31.07 31.70 36.31 37.02 40.30 42.62 38.48 42.22 41.38 37.39 30.08 29.65 27.41 27.73
45.23 45.30 45.33 45.47 45.89 46.13 46.29 46.26 46.17 46.13 45.90 46.14 46.03 46.30 44.71 44.77 45.15 44.51 42.76 32.01 20.78 28.90 29.13 36.53 37.44 38.27 37.17 39.98 40.54 40.96 38.85 36.05 39.68 37.88 32.80 29.59 28.46 36.84 41.31 38.97 38.24 39.37 38.13 31.09 25.06 26.62 30.26
45.25 45.29 45.59 45.22 45.52 45.85 45.78 45.81 45.42 46.09 45.82 45.55 45.21 40.04 40.24 42.58 45.65 42.98 36.12 22.52 22.98 28.98 34.29 33.48 34.59 33.27 34.32 38.30 37.71 39.45 37.82 37.00 39.78 40.42 33.59 32.95 33.33 43.10 41.41 41.48 42.10 39.52 35.73 40.75 36.11 37.11 31.80
44.34 44.94 45.02 45.01 45.18 45.40 45.44 45.63 45.42 45.58 45.30 45.83 37.89 37.60 38.08 44.30 45.68 42.04 32.67 25.03 28.53 34.91 35.82 34.03 28.22 34.21 30.42 33.01 35.26 34.29 35.98 40.82 39.52 42.32 42.09 39.59 33.38 42.00 43.51 41.76 41.70 41.51 43.51 35.27 36.72 27.47 25.01
44.45 44.24 44.60 44.72 44.71 44.82 44.94 45.18 45.22 45.31 45.29 45.54 37.06 34.09 39.28 44.35 44.24 35.92 25.01 25.36 30.55 35.76 37.04 33.43 31.20 30.27 31.84 32.58 33.64 34.60 34.75 37.89 38.79 39.13 39.55 39.11 36.47 37.24 41.28 37.31 37.25 38.00 37.63 38.43 38.91 35.31 27.44
44.32 44.12 44.66 44.87 44.64 44.71 44.88 44.92 44.87 45.15 45.16 41.88 37.29 27.44 41.98 45.66 33.04 32.10 26.07 30.34 34.97 33.57 36.95 35.49 34.96 32.80 31.19 32.73 32.60 32.95 32.13 36.62 40.38 40.12 35.63 37.48 35.59 33.57 37.15 41.31 42.97 41.77 38.53 38.04 31.77 30.14 33.59
44.15 44.14 44.32 44.51 44.79 44.91 44.85 44.74 45.14 44.99 44.75 39.85 33.94 31.08 41.07 38.27 27.27 25.10 30.88 31.87 33.19 32.42 33.67 34.10 33.93 34.61 34.54 31.32 28.27 34.31 33.92 41.48 41.48 39.12 35.14 36.06 33.04 29.34 33.89 36.79 40.63 39.82 41.67 42.42 38.86 36.60 32.35
43.69 43.91 44.29 44.59 44.57 44.66 44.80 44.93 44.90 44.89 44.89 39.25 35.00 27.55 31.91 35.40 36.27 31.52 29.76 30.66 30.46 36.50 34.67 35.64 34.43 34.78 31.98 30.23 33.74 31.70 33.80 39.16 40.73 40.78 42.18 39.91 33.35 30.01 26.25 32.04 36.12 33.29 36.66 40.64 37.40 31.25 32.27
43.46 43.84 44.27 44.30 44.27 44.39 44.41 44.76 44.95 44.82 44.71 39.12 34.64 27.11 33.55 27.81 30.52 31.25 31.71 31.33 29.47 29.88 35.51 35.54 32.73 31.94 30.21 26.52 28.95 29.25 32.94 34.55 37.36 40.99 38.48 36.21 29.82 32.96 34.25 35.35 34.95 34.17 34.08 36.67 34.21 37.01 34.57
43.18 43.76 44.11 43.96 43.92 43.71 43.90 44.20 44.52 44.74 44.68 38.08 31.06 27.53 31.53 29.76 32.18 31.02 31.72 29.76 29.40 31.23 32.29 31.49 30.45 32.95 32.02 27.96 29.43 28.08 31.57 31.56 33.09 37.02 34.85 36.83 30.74 33.76 31.32 35.60 35.65 32.65 34.91 35.20 35.78 36.25 35.69
43.02 43.27 43.59 43.59 43.52 43.67 43.79 44.17 44.52 44.54 43.15 36.26 36.77 36.41 32.87 28.87 27.59 25.63 26.99 30.38 31.18 32.70 34.44 35.98 34.80 32.72 30.37 33.55 36.17 36.45 37.24 36.34 36.31 34.23 33.50 34.34 31.63 30.13 27.64 34.10 33.12 27.19 33.15 35.13 35.71 36.94 35.58
42.47 42.96 43.32 43.45 43.38 43.51 44.01 44.30 44.73 44.86 43.66 38.12 35.80 34.99 30.50 23.39 26.17 27.56 30.56 31.74 31.52 32.82 31.20 34.90 35.65 33.55 36.82 40.87 41.31 39.67 37.71 37.33 36.02 35.81 36.20 33.30 31.61 31.77 27.74 30.24 20.94 33.79 40.56 39.22 36.94 39.07 39.75
41.93 42.60 43.02 43.22 43.14 43.22 43.81 44.16 44.10 44.59 44.52 38.33 37.77 36.37 32.20 22.91 28.56 29.42 30.63 31.84 33.40 34.05 32.61 33.86 36.39 38.79 40.15 37.39 31.15 28.80 28.09 28.80 31.85 34.63 33.88 35.39 33.40 28.31 25.82 24.77 30.83 34.33 38.35 38.85 37.88 37.43 42.06
41.36 42.01 42.72 43.07 43.18 43.10 43.93 43.78 43.84 44.09 44.00 39.53 38.23 39.62 36.59 29.64 25.21 31.72 30.33 31.60 28.71 30.10 30.14 33.67 38.79 40.22 40.71 34.54 30.77 23.46 20.31 26.62 26.05 30.72 35.80 35.20 34.61 29.46 27.53 22.94 20.53 35.24 40.37 42.31 41.11 33.29 42.92
41.26 41.86 42.35 42.73 42.73 43.05 43.24 43.59 43.90 43.96 44.08 40.35 36.74 40.38 37.31 31.95 32.11 33.37 28.26 29.58 33.24 32.17 29.58 33.25 34.35 34.81 37.77 24.83 24.91 24.41 23.93 31.82 26.59 26.67 26.41 27.75 28.61 26.12 26.23 26.68 30.60 39.29 41.29 42.97 30.06 33.05 43.02
40.95 41.77 42.32 42.40 42.50 43.16 43.18 43.50 43.82 43.99 44.44 42.42 38.84 40.31 37.23 32.12 32.09 34.76 34.97 31.83 32.75 32.13 29.11 31.99 30.13 32.76 32.71 29.28 26.56 26.23 23.80 29.91 31.12 33.41 31.10 27.52 26.59 25.36 27.89 23.74 22.90 42.17 41.33 36.36 40.33 41.28 41.64
40.88 41.48 41.86 42.07 42.65 43.25 43.51 44.10 43.80 43.84 44.15 44.07 37.42 41.53 42.03 35.34 33.40 38.21 38.73 39.45 38.14 37.11 33.77 34.22 33.36 32.77 34.23 31.00 28.97 30.41 26.71 31.02 31.19 27.53 35.06 29.12 32.73 30.58 31.03 29.78 39.20 42.87 42.80 44.61 43.75 41.89 41.25

GFSGBSN_sfc_wetblb_102.txt.gz
Wetbulb
52.56 51.94 51.68 51.97 52.13 52.21 52.34 52.42 52.72 52.73 53.08 53.20 53.20 52.77 52.24 52.08 51.70 51.76 52.03 51.82 51.82 51.56 51.04 50.98 51.35 51.80 50.06 43.13 43.15 51.13 60.42 61.20 59.47 55.24 51.49 50.08 45.57 44.06 41.62 43.66 44.97 43.19 45.44 46.98 47.27 47.18 47.02
50.92 51.10 50.73 50.44 50.31 50.81 51.32 51.11 51.01 51.69 52.27 52.51 52.59 52.53 52.43 51.48 51.55 51.58 52.01 51.76 51.34 50.98 50.99 50.26 50.97 51.49 47.32 37.24 47.67 49.93 49.66 51.42 55.78 53.37 51.66 50.75 48.16 48.98 46.26 45.41 43.85 46.59 46.06 46.20 46.11 45.59 45.43
50.79 50.72 50.53 50.27 50.22 50.38 50.64 50.26 49.95 49.95 50.77 51.37 51.60 51.80 51.80 51.47 51.95 51.91 51.84 51.51 50.56 50.45 50.65 50.09 50.61 49.60 45.19 40.57 45.58 46.70 48.20 48.03 48.71 49.54 46.56 48.73 51.24 47.44 47.59 44.43 47.93 46.56 42.79 43.93 44.35 44.70 44.54
50.67 51.15 50.75 50.49 50.30 51.06 50.89 50.49 50.05 50.22 50.76 50.63 50.49 50.94 51.45 51.93 52.22 51.93 51.13 50.56 50.11 50.28 50.56 50.23 50.69 49.24 40.30 50.25 48.45 48.59 48.03 48.30 49.30 48.24 47.42 47.99 48.13 46.41 46.02 47.64 46.53 43.15 41.24 36.36 43.24 44.45 45.94
49.40 49.92 50.68 50.29 49.85 50.26 50.82 51.13 50.46 49.92 49.73 50.16 50.41 50.58 50.82 51.18 51.57 51.18 50.68 50.12 49.92 50.26 50.23 50.45 46.95 45.40 39.02 53.15 49.36 50.92 50.34 47.57 47.92 46.94 45.58 48.58 46.75 44.24 44.81 40.53 37.65 38.18 36.23 36.97 39.90 45.02 43.98
49.01 49.43 49.36 49.83 49.97 49.86 49.65 50.32 50.52 50.11 49.86 49.47 49.85 49.88 50.26 50.12 50.85 50.45 49.88 49.36 49.13 49.92 48.92 49.50 49.50 42.06 44.90 43.97 48.74 50.03 48.76 50.35 46.78 47.57 43.09 42.45 40.59 37.20 38.06 37.32 32.31 34.86 35.27 37.75 36.82 41.58 43.66
48.88 48.69 50.07 49.46 49.31 49.33 49.76 49.95 50.11 50.11 49.56 49.70 49.55 49.41 50.03 49.97 50.09 50.27 47.38 40.20 40.05 39.30 41.78 40.77 43.02 42.61 44.60 49.09 52.52 48.05 47.83 45.06 44.45 43.36 38.50 39.33 33.38 31.73 34.42 39.70 41.50 40.43 38.27 36.70 38.09 43.40 41.06
48.33 48.53 48.72 48.57 48.49 48.79 48.68 48.84 49.13 49.36 48.69 48.84 49.09 48.89 49.22 49.97 49.71 49.82 42.76 37.58 40.64 42.96 34.96 42.79 42.76 42.62 45.16 46.99 41.60 44.91 47.40 39.99 39.76 36.18 40.65 36.64 32.47 37.41 38.89 38.48 38.36 39.30 37.21 36.72 40.57 42.58 41.83
47.85 47.82 47.50 47.62 47.71 48.09 48.65 48.65 48.41 48.48 48.43 48.15 48.22 48.25 48.68 49.20 48.87 42.80 39.09 39.42 45.91 45.59 35.35 37.47 40.47 39.83 41.07 43.06 38.54 39.57 42.63 39.28 36.75 35.38 38.93 37.33 38.78 40.58 38.18 36.52 35.79 36.26 35.93 36.51 36.70 40.69 41.90
47.83 47.63 47.49 47.47 47.62 47.58 47.94 47.88 47.84 48.04 47.85 47.82 47.97 48.10 48.60 48.71 41.67 40.38 36.75 43.56 46.13 45.47 28.08 31.25 36.71 38.82 41.83 42.15 37.57 42.74 43.20 39.87 37.24 34.45 36.32 39.40 44.01 42.25 38.77 35.69 36.66 32.15 38.35 38.28 37.85 36.24 31.45
46.33 46.36 46.56 47.00 47.12 46.96 47.06 46.85 46.91 47.64 47.24 47.20 47.39 47.46 47.89 47.70 39.64 37.80 40.25 44.55 45.21 43.25 14.76 34.25 37.35 43.76 42.02 38.87 41.25 42.70 42.86 39.51 35.20 36.50 37.05 35.10 39.45 40.06 38.96 39.16 38.98 35.23 39.58 38.57 38.05 35.32 33.13
45.48 45.20 46.01 46.19 46.19 46.26 46.54 46.29 46.69 46.97 47.29 47.08 46.91 46.99 47.34 43.03 39.31 41.32 43.36 42.97 41.92 26.42 15.20 30.38 40.33 39.26 36.90 38.25 41.01 43.21 41.21 42.10 41.10 36.38 37.07 36.67 40.64 39.07 40.11 42.44 41.82 41.20 38.08 38.13 37.73 35.08 29.62
45.11 45.18 45.42 45.65 45.73 46.11 46.20 46.11 46.54 46.59 46.67 46.75 46.22 46.38 45.35 44.72 35.73 41.32 42.93 39.16 24.86 18.18 32.20 29.57 32.76 35.93 36.54 37.09 37.93 39.60 38.48 35.69 32.49 28.65 29.75 34.25 36.00 39.32 39.99 35.80 38.85 38.40 34.11 27.47 26.24 25.91 26.22
45.14 45.09 45.01 45.50 45.65 45.84 46.22 46.39 46.19 45.91 46.12 46.31 46.35 46.15 43.75 42.98 41.87 41.85 40.06 32.18 19.27 24.96 26.05 33.45 33.77 34.51 33.02 38.61 38.69 38.58 36.71 32.57 36.20 34.34 30.11 27.67 26.01 35.19 38.89 36.65 34.71 35.82 34.80 27.25 23.54 24.36 27.89
45.32 44.70 45.01 45.64 45.20 45.43 45.70 45.79 45.61 45.89 45.78 45.95 45.78 38.97 37.61 40.06 42.29 41.66 35.30 21.97 22.76 26.95 31.92 29.87 32.18 31.06 30.91 33.44 35.04 37.09 36.43 35.35 36.73 37.56 31.12 30.50 29.25 40.20 38.78 39.70 39.01 35.70 33.71 38.26 31.84 33.62 28.39
44.88 44.62 44.45 44.79 44.87 44.94 45.14 45.27 45.32 45.52 45.49 45.54 40.23 37.76 35.78 40.37 42.24 38.37 31.26 24.54 26.90 32.54 32.41 32.16 26.13 31.07 26.39 28.76 31.47 34.02 33.01 37.87 36.00 38.49 39.33 36.96 31.44 40.09 41.88 41.68 39.20 38.44 40.78 32.68 32.26 24.82 23.38
44.34 44.23 44.58 44.25 44.74 44.92 44.96 44.96 45.15 45.20 45.46 45.55 34.66 31.19 35.91 41.52 41.34 33.64 24.77 24.52 29.20 33.99 34.11 30.45 28.10 27.60 29.69 28.91 30.10 32.85 31.57 36.72 38.82 37.35 39.09 36.24 35.17 34.50 39.57 35.71 33.17 34.47 35.08 35.62 36.16 32.25 26.70
44.05 44.32 44.42 44.26 44.89 44.78 44.71 44.95 44.78 45.08 45.38 40.90 36.14 26.98 37.36 42.76 31.42 30.39 28.38 30.02 34.21 32.12 34.75 32.06 33.07 31.62 30.55 30.65 29.54 31.98 31.35 33.26 40.03 38.56 34.52 36.62 33.59 30.39 36.64 40.48 41.74 39.61 36.77 37.86 30.31 28.97 31.82
43.31 44.35 44.49 44.30 44.51 44.77 45.01 45.00 45.01 45.15 44.72 35.26 32.50 29.42 37.61 37.27 21.47 27.53 29.77 30.85 32.94 31.93 32.55 31.44 31.25 32.88 33.97 30.76 26.99 31.82 33.76 38.38 40.15 37.36 33.98 35.19 31.87 26.73 33.15 37.19 39.25 35.60 37.88 40.66 37.93 34.98 30.45
43.30 44.08 44.01 44.10 44.44 44.70 44.58 44.70 44.95 45.16 44.60 38.58 32.71 25.29 28.37 36.61 35.03 30.00 29.70 28.60 28.98 35.24 33.39 34.70 33.20 33.83 30.18 28.22 32.22 29.29 31.88 36.55 38.65 38.31 38.56 37.84 32.67 27.83 25.00 31.92 35.24 31.04 33.63 37.66 36.73 29.16 30.71
43.20 43.42 44.04 43.87 44.45 44.26 44.22 44.35 44.42 44.74 44.50 37.51 33.01 26.71 28.74 18.27 24.83 29.41 31.32 29.90 28.51 28.67 34.07 34.71 31.26 31.37 28.98 24.39 26.16 25.85 30.60 32.49 35.56 39.53 39.41 35.79 30.02 31.87 32.37 34.46 35.43 33.04 33.09 33.30 34.03 33.75 29.87
43.37 43.46 43.43 43.90 44.06 44.16 43.81 43.74 44.07 44.22 44.30 34.20 29.65 30.30 30.09 27.96 30.41 27.76 28.47 28.27 28.96 29.57 31.25 30.64 29.60 31.81 31.32 27.21 28.65 27.63 31.26 31.26 30.75 36.23 34.95 37.32 30.84 31.98 28.53 33.67 34.50 32.92 34.47 34.41 35.05 34.76 34.14
42.29 42.99 43.00 43.78 43.82 43.75 43.75 43.88 44.10 44.41 42.80 35.32 36.60 34.97 32.15 27.40 26.12 22.69 25.19 28.39 28.95 31.22 32.99 34.41 33.38 31.50 29.72 32.52 34.93 35.31 35.41 34.82 34.00 33.42 31.89 33.51 31.22 28.66 25.89 32.23 32.67 26.12 31.69 34.04 35.04 36.70 36.08
42.12 42.52 42.77 43.33 43.54 43.70 43.57 43.80 44.26 44.19 42.54 35.71 33.89 35.84 31.26 22.11 25.49 26.10 28.45 29.41 29.69 31.33 30.36 33.30 33.90 31.60 36.35 40.00 38.42 36.96 35.79 35.16 34.50 34.25 35.54 31.02 30.10 28.10 25.18 28.10 20.41 33.39 38.89 37.81 38.26 39.17 39.53
41.68 42.22 42.39 43.05 43.42 43.47 43.99 44.21 43.80 44.38 44.11 36.15 35.53 34.89 31.59 20.63 26.84 27.20 28.90 29.27 30.73 31.98 31.38 32.11 34.77 36.90 38.70 36.08 28.62 27.31 26.38 27.44 29.88 33.06 31.98 33.35 30.08 23.49 21.97 22.67 28.89 32.94 37.19 36.33 36.29 36.15 41.02
42.34 41.85 41.54 41.78 42.58 43.15 43.65 43.52 43.61 44.07 44.16 37.34 35.47 37.19 36.11 29.57 24.67 30.28 28.37 30.01 27.16 26.98 29.13 32.19 36.99 38.46 38.05 31.21 25.52 23.47 19.55 25.41 24.62 28.21 34.32 32.22 31.56 25.83 24.20 21.05 18.33 32.90 38.58 41.13 39.61 32.21 41.60
41.82 41.97 41.51 41.68 42.53 42.92 43.04 43.26 43.43 43.51 43.79 38.24 35.41 37.80 35.94 30.07 30.27 30.50 26.22 27.12 31.61 30.41 26.90 30.62 32.17 31.76 37.59 27.37 25.16 22.68 22.45 30.45 24.97 25.92 25.07 24.49 24.31 23.94 22.77 21.19 28.55 37.15 40.26 41.41 28.61 30.99 41.33
41.19 41.40 41.09 41.68 42.31 42.64 42.91 42.85 43.01 43.48 43.75 40.38 35.59 38.17 35.95 30.14 30.83 33.26 33.79 29.33 29.50 29.46 27.46 30.52 28.57 31.58 29.65 27.68 27.21 25.17 23.14 28.85 28.03 31.63 30.78 25.22 21.71 19.60 23.50 20.94 20.95 39.62 40.23 34.04 38.20 39.85 40.59
40.91 40.93 40.97 41.52 42.16 42.49 42.60 42.69 42.93 43.40 43.58 43.39 37.17 40.94 38.95 33.85 30.29 36.61 37.07 37.45 36.52 35.54 31.43 32.32 30.52 31.17 34.21 29.31 29.60 29.68 26.91 29.94 29.89 26.27 33.46 27.62 29.19 27.51 28.42 28.22 37.70 40.41 40.80 44.65 43.52 40.52 39.46

GFSGBSN_sfc_wetblb_105.txt.gz
Wetbulb
51.17 51.36 50.89 50.64 50.38 50.55 51.20 51.22 50.98 50.47 50.70 50.93 51.26 51.29 51.16 51.25 51.14 51.48 52.03 52.03 52.05 51.40 50.84 50.62 50.55 50.99 48.60 40.93 39.68 47.52 58.14 59.08 57.01 52.41 47.95 47.72 43.64 41.59 38.83 40.45 42.73 41.33 43.01 45.35 45.91 45.62 44.59
50.50 50.42 50.21 50.08 49.89 49.97 50.49 50.38 49.91 50.00 50.71 50.84 50.84 50.62 50.58 50.64 50.37 50.86 51.86 52.01 51.65 51.44 51.29 50.38 50.40 50.45 46.01 35.15 45.12 47.03 46.45 46.82 52.40 52.06 50.05 49.12 46.60 45.86 42.60 42.18 41.78 44.60 44.82 45.41 45.85 45.86 45.28
50.97 50.44 50.34 50.12 50.01 50.73 51.06 50.57 50.19 50.07 50.12 50.06 50.62 50.72 50.51 50.19 49.73 49.90 51.50 51.63 51.17 51.09 51.29 50.62 50.54 47.51 43.11 38.94 44.85 47.20 48.15 45.95 45.44 50.66 48.53 49.06 50.33 46.79 45.73 43.26 46.44 44.93 41.08 42.89 42.65 43.73 43.28
49.84 50.21 50.88 50.52 50.03 50.13 50.15 50.23 50.98 50.38 49.98 49.93 49.81 50.43 50.75 50.41 50.18 50.44 50.82 50.80 50.57 50.85 51.42 50.87 49.80 46.97 38.32 48.84 47.69 48.20 46.39 46.18 47.22 47.44 46.83 47.16 46.78 44.26 43.21 45.24 44.50 41.85 40.53 35.78 42.26 43.89 44.66
48.63 48.92 49.26 49.53 49.93 49.89 49.87 49.85 49.80 50.14 49.96 49.87 49.66 50.07 50.52 50.31 50.17 50.05 49.80 50.20 50.01 50.94 51.74 49.24 45.94 44.28 36.35 50.70 47.38 50.48 48.52 45.73 46.85 46.45 45.13 47.67 44.28 41.45 41.70 38.22 35.30 37.13 33.37 35.45 39.08 44.49 42.86
48.49 49.00 50.05 49.54 49.39 49.30 49.37 49.61 49.77 49.60 49.44 49.32 49.51 49.64 49.81 50.04 50.03 49.61 49.42 49.06 49.34 49.71 48.45 48.60 48.91 40.30 42.67 41.93 48.19 50.29 48.24 49.15 45.61 44.28 43.44 40.05 38.50 35.39 35.30 34.97 29.96 32.83 33.92 36.65 36.70 40.81 41.95
48.31 48.07 48.44 49.25 48.66 48.51 48.47 48.62 48.89 48.95 48.78 48.80 48.78 48.99 48.76 49.54 49.27 49.14 46.54 39.86 38.29 37.94 40.16 36.53 38.53 41.12 42.41 47.17 49.16 47.59 48.48 46.46 43.18 40.90 36.53 37.95 31.57 30.58 34.52 37.35 38.92 38.07 36.31 34.96 37.16 42.44 40.26
47.04 47.47 47.29 47.67 47.69 47.69 48.02 48.65 48.35 48.59 48.54 48.54 48.41 48.39 48.35 48.50 48.64 48.92 40.88 36.16 39.01 40.48 33.88 40.99 41.03 40.84 43.25 44.41 38.29 41.66 46.34 40.43 38.03 33.99 37.49 36.29 31.72 35.33 36.80 36.67 37.17 36.91 35.83 35.34 38.19 41.17 40.44
47.49 47.11 47.16 47.24 47.40 47.36 47.48 47.80 47.37 47.72 48.06 47.74 48.04 48.16 48.20 47.90 48.20 42.29 37.71 38.19 43.28 44.23 34.60 36.74 40.24 39.23 40.09 41.82 36.92 37.50 42.37 39.35 35.99 33.47 34.82 33.43 37.26 41.03 36.69 34.84 33.75 33.33 33.49 34.01 35.81 39.74 39.18
46.47 46.33 46.27 46.64 46.89 46.85 46.83 47.24 46.95 46.92 47.85 47.52 47.41 47.44 47.88 48.20 39.83 38.85 35.41 42.39 44.13 44.60 28.25 30.29 34.93 38.25 39.53 40.45 35.10 40.65 42.20 38.74 34.56 32.99 34.19 34.88 39.65 39.20 35.56 33.89 34.23 30.22 35.64 36.26 35.45 34.07 29.05
45.41 45.00 45.32 45.94 46.12 45.95 46.21 46.56 46.43 46.86 47.17 47.28 47.19 46.90 46.74 46.88 40.47 36.37 39.26 42.94 43.79 42.49 13.51 32.51 35.24 41.94 39.66 36.31 37.29 39.35 40.18 38.19 33.23 33.23 34.40 31.98 37.89 37.02 36.16 37.77 36.30 33.00 37.65 35.22 34.62 31.66 28.74
44.56 44.61 44.68 45.30 45.34 45.55 45.98 46.27 46.18 46.54 46.67 46.61 46.95 46.57 46.41 42.27 38.13 39.68 42.04 41.50 39.18 25.29 15.18 28.15 35.56 34.94 35.19 36.81 37.30 39.95 37.15 38.96 37.42 32.75 34.71 34.22 38.23 39.47 39.08 41.58 40.46 39.08 35.48 34.58 33.53 31.25 24.48
44.72 44.65 44.46 44.63 45.20 45.39 45.83 46.21 46.48 46.24 45.87 45.93 46.42 46.48 44.74 43.63 35.62 39.37 41.42 36.16 22.51 16.42 30.03 26.80 28.75 32.14 33.13 33.51 36.07 35.93 34.98 32.71 29.56 26.07 26.72 32.12 33.60 35.81 38.51 33.73 36.55 36.20 31.90 24.72 23.92 24.14 24.01
45.17 45.08 44.19 45.14 45.57 45.30 45.33 45.67 45.77 45.64 45.98 45.85 46.04 45.88 42.76 42.33 39.90 40.37 37.58 30.67 13.31 23.78 24.53 30.90 30.38 31.08 30.63 33.13 33.50 34.97 34.32 30.53 34.44 32.48 27.46 25.16 24.41 33.36 37.04 35.44 32.10 32.70 32.42 25.98 22.23 23.00 26.07
44.47 45.38 44.38 44.34 44.84 44.57 44.88 45.02 45.20 45.36 45.49 45.54 45.41 37.65 35.82 38.08 39.82 39.72 33.48 12.94 19.62 25.21 30.14 28.03 29.75 27.67 27.59 31.63 31.27 32.31 34.11 33.37 34.90 34.94 28.57 26.84 27.27 35.98 36.79 38.28 37.50 34.06 29.72 36.39 30.09 30.20 27.07
44.10 44.77 43.92 44.75 44.07 44.55 44.63 44.74 44.86 45.05 45.29 45.51 39.96 34.32 33.67 38.91 41.16 37.24 29.88 23.11 24.88 31.57 31.16 30.83 23.20 27.95 22.86 27.51 27.97 28.42 32.84 34.63 35.50 38.26 37.91 33.76 28.48 37.20 39.55 37.64 36.85 36.20 38.06 29.98 30.37 24.32 23.56
44.13 44.03 43.76 44.74 44.08 44.25 44.84 44.56 44.78 44.76 44.94 44.96 33.78 29.34 34.18 39.82 39.89 34.09 19.40 24.06 28.23 33.25 33.35 28.72 26.53 25.51 26.77 27.16 28.31 27.42 31.96 34.07 37.35 36.42 37.75 33.40 31.48 32.89 37.75 34.53 32.40 31.60 32.19 33.74 34.62 29.89 26.24
44.08 43.70 44.40 44.35 44.17 44.60 44.56 44.56 44.84 44.64 44.75 39.60 33.93 18.77 35.08 39.30 26.54 29.23 25.32 29.57 33.29 31.46 34.23 32.02 31.26 30.25 29.03 29.50 27.32 27.71 31.79 32.82 38.85 38.08 33.42 33.72 30.89 26.65 32.98 38.98 38.93 36.38 33.52 34.53 28.41 27.90 29.28
44.26 43.41 43.64 44.57 44.44 44.36 44.53 44.84 44.85 44.87 43.91 34.14 30.43 30.94 35.91 36.54 22.42 21.43 30.43 30.26 32.03 30.58 31.47 31.07 30.12 32.43 32.31 29.62 26.07 29.31 31.08 37.67 38.33 36.64 33.56 34.19 29.70 24.70 29.18 33.98 37.51 33.51 34.79 37.70 35.68 34.12 29.81
44.68 43.93 43.60 44.47 44.13 44.20 44.62 44.85 44.54 44.60 44.40 36.25 30.99 23.61 25.76 36.55 34.11 27.04 26.54 27.40 27.90 34.08 32.26 33.37 32.28 33.47 30.56 28.08 31.84 28.30 29.63 34.93 36.88 36.49 37.79 36.94 31.29 27.99 23.70 27.07 35.41 31.55 32.37 36.33 35.05 28.68 29.11
44.32 43.56 43.52 43.54 44.03 44.26 44.58 44.51 44.20 43.95 43.96 37.13 31.65 27.12 28.49 16.68 24.78 27.95 29.43 28.31 26.87 27.24 33.03 33.93 30.20 30.68 29.09 25.17 26.53 27.55 31.47 32.68 35.77 39.06 36.19 33.83 27.93 30.37 31.67 33.86 34.71 33.85 31.99 32.68 33.43 32.83 28.86
43.90 43.80 44.34 44.16 43.79 44.06 44.37 44.31 43.98 43.94 43.96 34.66 28.21 26.83 33.03 27.56 28.40 26.54 26.45 24.66 26.41 27.48 29.93 29.78 29.25 30.67 30.16 26.88 28.70 27.16 30.24 29.87 29.43 33.88 32.72 36.63 29.13 30.99 28.86 33.25 33.77 32.54 33.56 34.40 34.85 35.70 35.37
43.05 43.53 43.36 43.33 43.72 43.89 44.16 44.06 43.96 43.87 42.21 34.46 34.74 35.94 31.81 26.17 25.79 22.12 24.50 27.55 26.85 29.41 32.19 33.49 31.73 29.67 28.87 30.52 33.85 34.23 34.00 33.84 32.75 31.03 29.98 32.19 31.28 28.67 23.68 31.08 30.04 26.55 31.72 33.58 34.19 36.34 36.99
43.11 42.95 42.25 43.05 43.37 43.66 43.91 44.04 44.15 43.81 42.03 34.23 33.40 34.28 30.19 23.43 26.29 25.87 27.23 28.02 28.21 28.96 28.34 32.11 32.65 29.55 33.90 38.38 37.17 35.32 33.51 33.92 33.30 32.39 33.54 29.77 29.99 29.73 26.28 27.75 18.45 32.22 38.47 38.84 37.32 37.83 38.49
43.14 42.80 42.64 42.94 43.07 43.54 44.04 44.42 44.30 44.03 43.80 35.38 34.41 35.20 31.23 20.28 26.59 26.65 26.98 26.72 29.06 30.03 29.71 31.03 33.19 35.21 36.58 34.43 27.59 26.40 25.64 26.60 28.55 31.48 30.92 32.30 30.06 26.02 24.21 24.22 27.34 31.56 36.45 34.40 35.74 35.70 40.54
42.24 42.05 42.03 42.36 42.59 43.12 43.48 43.72 43.60 43.72 43.99 36.88 34.23 36.41 35.09 27.71 24.98 29.26 27.44 27.90 25.24 25.81 27.31 29.82 35.78 36.09 36.48 29.60 23.46 19.39 19.03 24.76 24.46 27.73 32.03 31.05 30.03 27.51 24.97 20.24 14.96 28.74 36.99 39.63 40.18 31.37 41.54
42.67 41.77 42.67 42.41 42.37 42.62 42.88 43.24 43.53 43.54 43.58 38.23 34.74 36.60 34.24 28.39 29.55 29.72 25.79 25.44 29.47 27.41 25.75 28.44 30.41 31.07 34.03 25.12 22.48 21.60 21.41 28.16 19.74 23.64 27.31 23.83 24.44 23.11 22.21 19.33 25.83 34.41 38.68 39.81 28.76 32.18 41.51
42.50 42.11 41.81 42.38 42.01 42.37 42.76 43.12 43.22 43.26 43.43 38.53 34.33 37.86 35.02 30.04 29.37 32.16 32.83 28.63 28.12 28.38 23.55 28.09 26.68 28.18 27.92 24.55 26.93 26.54 21.91 25.98 25.42 29.28 28.91 26.29 20.70 17.43 21.63 19.53 19.30 37.25 38.64 32.12 36.87 40.17 41.52
42.35 41.95 42.00 42.18 41.63 41.98 42.73 43.03 43.09 43.00 43.36 42.08 34.99 38.17 38.45 34.17 29.33 35.22 35.57 36.34 34.59 33.49 30.23 30.05 28.23 26.97 32.54 28.30 28.47 27.21 23.66 28.80 28.69 23.77 32.41 26.93 29.14 25.60 26.36 25.54 34.09 38.44 38.84 42.16 41.36 38.94 39.22

GFSGBSN_sfc_wetblb_108.txt.gz
Wetbulb
50.42 50.81 50.21 49.88 50.01 50.05 50.51 50.43 49.87 49.94 50.48 50.56 50.63 50.82 50.99 50.80 50.32 49.91 50.35 50.64 50.75 50.40 50.93 51.10 51.25 50.85 46.90 38.35 36.98 44.66 54.57 51.02 55.44 52.18 47.49 45.90 42.28 41.15 37.66 38.77 40.47 39.68 40.64 42.80 43.51 43.90 42.79
49.95 49.75 49.57 49.61 49.80 50.28 50.88 50.68 50.13 50.00 50.08 50.12 49.92 50.16 50.54 50.33 49.95 49.78 49.73 50.62 50.58 50.69 50.79 51.13 51.26 50.33 44.06 32.84 42.17 44.36 46.70 46.73 46.71 50.06 48.02 47.09 44.81 43.82 40.53 39.26 39.91 42.00 42.39 43.80 43.78 43.68 43.98
50.18 50.64 49.85 49.44 49.68 49.98 49.96 49.78 50.73 50.50 50.08 49.94 49.84 49.84 49.92 49.92 49.36 49.47 49.90 50.38 50.28 50.44 50.75 51.47 51.47 47.38 41.70 36.86 43.30 46.20 46.51 44.75 44.01 45.41 42.22 48.20 48.71 44.97 44.36 41.62 44.83 43.35 39.71 41.26 41.24 42.16 42.13
48.70 49.35 49.64 50.00 49.18 49.19 49.29 49.46 49.67 49.88 49.94 49.77 49.84 49.81 50.04 49.82 49.76 50.22 50.02 49.38 49.59 50.48 51.09 51.85 50.18 45.04 35.71 46.71 46.85 46.99 46.24 45.52 47.11 46.07 44.39 46.98 46.77 43.93 42.88 43.45 41.33 39.53 38.65 34.01 40.32 42.59 43.68
47.88 48.13 49.08 48.58 49.84 49.47 49.32 49.43 49.34 49.43 49.19 49.06 49.04 48.98 49.30 49.47 49.80 49.76 49.01 49.24 49.78 50.35 49.89 49.96 43.78 41.85 33.81 47.75 45.23 48.99 48.34 45.08 47.05 45.10 44.30 48.02 43.15 39.49 39.35 35.89 33.08 34.62 30.70 33.17 37.33 42.82 42.59
48.16 47.84 48.63 49.11 48.89 48.67 48.40 48.38 48.80 48.76 48.76 48.91 48.93 48.74 48.53 48.80 49.40 49.09 48.80 48.27 49.12 48.31 47.28 48.33 47.88 38.41 40.52 40.34 46.67 47.19 47.53 48.11 44.40 43.28 41.68 38.98 37.14 33.83 32.72 32.82 26.95 29.96 31.29 34.55 34.09 38.64 40.77
47.58 47.76 47.63 47.83 47.69 47.56 47.59 48.01 48.18 48.21 48.40 48.27 48.27 48.33 48.45 48.42 48.63 48.97 43.81 39.06 36.09 34.71 38.33 34.03 35.50 36.32 38.09 42.32 45.89 43.09 46.09 43.48 42.45 39.10 34.48 36.36 30.78 30.01 33.16 34.40 35.80 35.58 33.60 32.64 34.29 39.95 37.87
46.63 46.61 47.00 46.74 46.65 46.79 47.26 47.36 47.41 47.22 47.73 47.78 47.58 47.70 47.94 47.91 47.99 46.66 40.14 35.50 37.57 38.60 32.97 39.31 39.18 39.02 41.44 42.40 36.44 39.66 43.67 36.64 37.92 32.57 35.86 34.26 30.16 34.27 34.95 34.92 35.33 34.72 33.49 33.42 35.75 39.65 39.56
46.67 47.57 46.83 46.60 46.29 46.71 46.76 46.90 46.69 46.67 47.76 47.35 47.36 47.30 47.21 47.22 47.17 40.63 36.86 37.41 42.41 42.19 32.35 34.96 38.56 37.89 38.72 40.39 35.23 36.04 40.54 38.11 34.84 33.06 33.42 31.81 34.69 39.87 36.18 32.99 32.51 33.10 32.85 33.01 33.69 36.38 38.07
46.50 45.69 45.58 45.78 46.11 46.05 46.21 46.18 46.27 46.43 46.82 46.89 47.27 47.04 46.53 46.64 39.55 38.24 33.87 41.10 41.63 40.71 26.04 28.17 34.19 36.85 38.93 39.37 33.96 39.99 40.89 38.12 33.98 32.64 32.37 32.73 37.44 36.41 34.24 33.46 33.56 29.52 34.42 35.09 33.78 31.53 25.90
44.91 44.57 44.01 44.82 45.11 45.10 45.37 45.94 46.04 46.31 46.71 46.25 46.40 46.66 46.55 45.58 37.63 34.83 37.89 41.29 41.03 38.67 10.21 30.93 33.59 40.37 38.25 34.69 35.87 36.65 38.95 36.29 31.44 30.29 32.57 31.89 32.54 32.93 32.84 34.81 34.84 32.08 35.89 33.65 32.65 29.62 26.34
44.29 44.38 44.06 44.20 44.28 44.76 45.36 45.90 46.11 46.48 46.13 45.82 45.83 46.22 46.03 41.63 37.82 38.10 40.32 40.14 36.68 21.62 11.67 26.58 33.55 31.70 31.15 33.51 36.15 38.39 36.22 37.68 35.68 30.85 31.17 32.13 35.75 36.21 35.32 37.46 37.36 36.88 33.91 33.03 31.18 28.78 22.43
44.17 44.39 44.22 43.75 43.87 44.69 44.93 45.56 45.86 45.58 45.60 45.79 45.88 45.98 43.56 42.94 33.96 37.99 39.20 33.96 18.08 13.59 28.15 24.84 27.17 30.02 29.27 29.68 33.30 34.24 32.80 30.08 27.26 23.57 22.89 28.96 30.68 33.60 37.65 33.59 37.00 35.43 30.92 24.39 22.26 21.25 22.51
44.16 45.40 44.42 43.54 44.90 44.72 44.25 44.60 44.94 45.04 45.18 45.43 45.53 45.00 40.97 40.98 38.70 38.77 35.50 22.59 6.94 21.92 22.92 30.70 29.70 28.05 26.24 29.81 31.24 31.96 33.24 29.44 33.64 31.70 24.83 21.81 21.53 31.36 35.00 33.91 31.36 32.82 33.48 25.87 21.64 22.01 24.52
44.13 44.58 44.72 43.83 43.81 43.84 43.90 44.22 44.36 44.47 45.07 45.38 45.07 36.03 34.81 36.55 38.46 37.76 27.07 8.87 17.22 22.87 28.13 26.86 27.90 24.81 26.20 28.74 28.52 31.31 29.53 32.21 35.81 36.02 27.91 24.58 24.54 33.01 35.04 35.61 36.15 31.49 29.31 34.77 27.57 28.69 25.77
44.07 44.12 44.81 44.08 44.24 43.12 43.95 44.18 44.26 44.36 44.62 45.12 35.28 31.98 31.99 37.91 39.27 35.05 24.71 22.39 23.49 30.46 30.53 29.95 22.32 26.58 21.64 24.43 26.75 28.45 28.69 33.00 33.07 36.74 37.46 32.29 27.20 35.71 36.48 35.53 35.23 33.94 36.30 27.90 27.85 22.70 21.44
44.03 44.43 43.57 43.64 44.31 43.55 43.62 44.35 43.89 44.47 44.34 43.98 32.54 26.62 33.59 38.89 37.98 29.54 17.75 22.54 26.76 32.04 32.09 28.44 25.90 24.80 25.90 25.29 28.65 27.42 27.88 32.87 34.44 34.10 37.93 33.24 30.14 31.21 35.84 32.27 29.22 29.76 29.40 31.00 31.28 27.89 23.75
44.17 44.29 43.55 43.96 44.10 43.86 43.95 43.73 44.02 44.48 44.27 38.89 30.56 17.59 36.73 37.16 23.45 27.99 23.99 28.14 33.08 30.90 33.53 30.91 30.99 29.41 27.75 29.17 28.32 27.49 27.25 30.04 35.89 35.17 33.15 34.55 30.10 26.77 30.43 37.27 37.73 33.67 30.91 32.50 26.33 25.97 27.68
44.61 44.23 43.65 43.23 44.41 44.15 44.02 43.92 44.28 44.10 43.70 33.06 27.08 27.93 34.70 36.39 20.77 19.08 27.37 29.51 31.25 29.78 30.15 30.54 29.36 31.61 32.33 29.03 25.42 28.71 29.71 34.68 35.67 35.14 32.35 34.19 28.83 24.77 26.67 32.19 35.70 31.97 32.94 35.33 33.01 31.05 27.43
45.50 44.52 43.80 43.36 43.68 44.51 44.02 44.07 44.33 44.06 44.22 34.41 27.96 18.83 25.12 35.58 33.69 27.44 20.10 24.77 26.38 32.84 31.21 32.07 31.28 32.62 30.18 28.09 31.14 27.85 29.65 34.41 36.51 36.23 38.71 36.52 32.02 27.17 23.29 26.32 31.56 30.37 31.31 32.17 31.87 26.74 27.94
44.58 44.87 44.48 43.77 43.23 44.14 43.89 43.94 44.23 44.10 44.53 35.79 28.25 20.18 29.25 20.17 22.25 26.48 25.98 27.31 25.00 24.67 31.63 32.99 29.64 29.43 28.45 25.79 26.64 27.24 30.97 32.25 35.00 37.80 37.12 34.41 28.25 30.05 30.22 32.18 33.31 33.44 33.23 31.66 31.86 30.60 28.12
45.24 44.91 44.06 43.55 43.13 43.80 43.84 43.89 44.42 44.18 43.83 33.30 27.61 23.50 30.62 28.07 27.67 26.40 24.51 23.80 25.53 25.74 27.84 28.01 27.51 28.62 29.64 26.93 27.68 26.12 29.22 30.02 29.27 33.69 32.39 35.22 26.46 30.58 26.98 30.94 30.28 30.52 32.73 32.31 33.30 33.93 33.66
44.96 44.37 43.69 43.84 43.81 43.90 43.71 43.96 44.44 43.98 41.35 35.05 31.44 32.34 28.65 25.27 25.43 21.83 23.37 25.97 25.11 27.90 29.95 31.83 30.75 28.70 27.63 29.59 31.52 32.63 33.84 33.10 32.69 30.72 29.64 30.39 29.17 26.33 23.29 28.91 28.14 24.88 30.68 32.75 33.87 35.88 34.60
44.39 43.74 43.20 43.80 43.39 43.56 43.54 44.05 44.34 44.25 42.03 33.09 31.73 32.36 28.04 20.57 25.12 25.43 26.70 26.60 26.04 27.11 25.89 29.83 31.69 28.99 32.24 35.60 35.68 34.16 32.93 32.95 32.30 31.77 33.32 28.42 27.60 28.13 25.71 27.66 17.46 30.48 37.29 35.83 35.25 37.24 36.74
44.34 43.91 43.45 43.24 42.67 43.31 43.43 43.80 44.37 43.81 43.28 34.46 32.82 32.81 30.28 20.15 26.59 26.20 26.27 26.36 27.46 28.01 27.77 29.59 32.02 33.82 34.92 33.08 27.46 25.68 25.40 26.74 28.20 30.32 29.63 30.84 28.38 23.96 23.16 23.82 26.83 29.91 36.09 34.65 33.57 35.02 39.29
44.20 43.28 43.44 42.94 43.14 43.17 43.53 43.47 43.83 43.80 43.63 37.72 34.67 35.57 34.31 24.92 23.46 28.23 26.56 27.44 24.71 24.23 26.57 28.55 33.61 34.87 33.87 28.50 21.76 19.53 18.15 24.10 24.00 26.82 30.79 29.80 29.23 25.62 24.91 21.16 17.52 28.47 35.10 38.21 38.70 30.22 41.31
43.95 43.43 42.99 42.69 42.79 42.72 42.79 43.16 43.32 43.66 43.47 37.67 36.09 37.00 34.97 26.52 27.91 29.65 25.85 25.44 27.96 26.91 24.60 27.28 29.23 29.35 31.61 23.26 21.80 20.60 21.42 26.61 18.97 21.80 25.91 24.41 23.56 22.62 23.02 21.71 26.54 32.69 36.62 38.62 28.11 29.89 41.04
43.76 43.24 42.89 43.17 42.85 42.87 42.51 42.43 43.02 43.37 43.54 38.13 34.80 37.98 35.53 29.24 27.93 30.99 31.90 28.46 27.86 26.73 22.42 26.47 24.74 26.73 27.33 21.22 22.97 24.62 23.76 25.36 24.96 25.90 25.84 26.19 23.12 18.20 21.16 18.31 18.41 35.26 36.92 31.91 36.04 39.37 41.89
43.22 43.07 42.78 42.63 42.81 42.30 42.11 42.72 42.71 43.20 43.15 40.26 31.58 37.28 39.22 34.07 28.81 33.14 33.95 34.73 33.02 32.22 27.60 28.96 26.29 25.26 29.40 24.79 26.09 26.65 23.69 28.01 25.65 22.10 31.86 22.95 29.97 26.39 26.08 24.41 32.52 36.46 37.30 40.53 41.52 38.88 39.31

GFSGBSN_sfc_wetblb_111.txt.gz
Wetbulb
51.23 50.73 50.08 49.78 49.80 50.07 50.56 50.42 50.02 49.97 50.41 50.24 49.99 49.95 50.35 50.29 49.99 49.80 50.07 50.64 49.81 49.94 50.13 50.65 51.33 51.32 47.39 38.07 38.27 45.72 52.15 50.67 53.52 54.83 50.59 47.29 45.49 45.60 41.94 43.05 44.39 42.69 44.24 45.45 46.81 46.82 46.78
50.42 50.17 49.75 49.60 49.53 50.54 50.37 50.19 51.11 50.52 50.37 50.07 50.05 49.96 49.92 49.73 49.75 49.53 49.45 50.24 50.29 49.71 50.37 50.96 51.72 50.13 44.08 33.06 43.32 46.67 46.86 46.35 46.13 50.74 50.04 48.22 46.45 46.63 43.91 42.50 42.69 44.44 44.76 45.41 46.24 46.29 46.15
50.77 50.68 50.39 50.06 49.51 49.19 49.29 49.35 49.41 49.82 49.81 49.41 49.34 49.04 49.17 49.43 49.45 49.37 49.35 49.87 50.34 50.38 50.71 51.97 51.68 47.58 41.25 37.35 47.06 47.84 47.31 45.55 46.23 45.73 43.56 45.90 47.83 47.02 46.63 43.44 46.60 45.39 41.99 44.46 44.82 45.69 45.84
49.17 49.17 49.40 49.57 49.20 49.15 49.81 50.03 49.92 49.68 49.04 49.04 48.97 48.82 48.78 49.03 49.14 49.30 49.56 49.72 49.63 50.05 50.90 51.16 51.38 45.38 36.05 45.91 47.97 48.24 49.33 49.03 49.11 47.97 45.47 45.51 46.21 44.74 45.49 46.72 42.53 41.31 41.77 37.61 43.72 45.32 46.39
48.43 48.18 48.69 48.80 49.51 48.93 48.59 48.37 48.67 48.74 48.65 48.63 48.19 48.54 48.32 48.89 48.92 49.43 49.03 48.87 49.15 50.80 50.27 50.34 45.50 41.55 35.83 48.26 45.78 49.47 49.91 47.33 48.47 46.73 46.02 47.79 46.50 43.44 42.76 39.09 36.75 38.16 34.27 36.67 39.86 45.17 45.50
48.48 48.49 48.59 49.53 48.60 47.82 47.52 47.79 48.33 47.99 48.26 48.06 47.71 47.95 48.25 48.29 48.68 48.89 47.74 47.00 48.32 46.97 46.83 48.66 47.27 39.07 42.29 39.94 44.17 46.22 46.74 48.66 44.35 45.33 42.81 42.65 41.18 38.48 37.98 37.23 30.08 32.89 34.18 36.52 37.37 43.29 44.01
48.44 48.09 47.82 47.81 46.96 46.70 46.56 46.80 47.37 46.88 47.54 47.00 47.63 47.79 47.87 47.61 47.62 47.41 42.97 40.06 36.85 36.55 38.85 34.16 35.32 35.18 37.16 42.02 44.99 42.68 45.96 43.41 43.58 42.18 38.10 39.35 35.35 32.80 35.97 38.06 38.30 37.46 36.56 36.21 39.74 43.59 42.50
47.63 46.83 47.47 46.83 46.32 45.69 46.02 46.07 46.54 46.40 46.96 47.30 47.41 47.57 47.19 47.11 47.18 45.88 41.33 36.79 37.13 38.13 32.01 38.30 38.61 38.44 40.97 42.13 36.00 40.53 44.00 37.11 36.65 32.87 38.54 36.54 32.90 38.39 38.00 37.91 36.91 36.29 34.79 34.83 38.25 41.62 41.54
47.29 47.60 47.34 46.62 45.91 45.73 45.29 45.84 45.92 46.22 46.72 46.73 47.07 46.95 46.86 46.63 45.29 41.20 38.30 38.47 42.82 41.16 32.29 33.63 38.48 37.79 39.52 41.10 35.99 37.38 41.05 38.50 34.54 32.43 34.25 34.44 37.12 40.29 36.92 34.85 33.95 34.94 33.93 34.39 34.41 39.34 41.90
47.10 46.69 46.03 45.57 45.76 45.35 45.02 45.31 45.48 45.71 46.46 46.21 46.45 46.54 46.40 46.06 39.03 39.28 36.07 41.31 41.95 40.96 25.43 28.09 34.38 37.81 38.58 39.61 34.80 41.07 41.72 38.93 35.89 32.19 33.38 34.05 38.63 37.94 36.53 34.79 35.73 31.83 36.82 36.13 35.54 34.89 30.60
46.25 45.56 44.52 44.99 45.11 44.54 45.05 45.30 45.34 46.32 45.94 45.80 46.11 46.22 45.97 44.81 38.92 35.77 39.34 41.43 42.32 39.46 17.49 30.18 33.94 42.29 39.14 34.59 35.19 37.93 43.14 38.65 33.05 32.76 33.90 32.21 34.63 34.90 34.53 36.12 37.15 34.55 38.02 36.57 36.24 34.36 33.73
45.51 44.96 44.50 44.69 44.47 44.35 44.62 45.86 45.78 45.49 45.52 45.86 45.70 45.91 45.48 41.36 39.39 39.31 40.60 41.12 38.55 23.24 15.10 25.85 33.43 31.41 31.45 33.81 35.57 38.77 39.35 41.26 38.86 33.45 33.54 32.74 36.59 37.56 37.19 38.39 38.91 38.86 36.56 35.52 34.98 33.54 26.65
45.00 44.43 44.63 44.36 43.90 44.63 44.38 44.81 45.24 45.10 45.10 45.17 45.37 45.20 43.03 43.14 35.24 40.15 40.77 35.30 22.18 16.19 28.24 25.39 26.63 30.39 29.74 29.86 31.97 31.89 31.01 32.29 30.37 25.94 27.13 31.24 31.18 35.49 39.89 35.72 38.04 36.85 34.22 27.47 25.99 25.53 26.30
44.74 44.44 44.91 44.12 44.65 45.44 44.16 44.00 44.22 44.36 44.95 45.25 45.38 43.36 40.50 41.00 40.56 41.12 36.82 25.29 13.27 22.37 23.41 30.13 29.27 29.50 26.49 30.70 29.66 30.08 30.34 28.66 35.37 32.13 28.92 26.29 25.32 31.45 35.75 36.59 34.66 34.18 34.40 28.05 21.21 23.56 28.02
44.80 44.37 45.14 44.65 44.28 44.37 43.82 43.64 43.75 44.10 44.48 45.07 43.67 37.10 36.45 38.03 40.27 39.76 30.28 16.55 19.20 22.83 28.05 26.82 28.09 24.65 25.33 28.91 28.88 29.76 30.01 30.07 32.49 32.32 28.21 28.21 26.47 34.16 34.80 37.61 39.95 34.76 31.33 38.14 31.34 32.26 29.62
45.04 44.33 44.58 44.59 44.37 44.10 43.33 43.72 43.55 44.04 44.16 44.59 36.61 34.02 33.82 39.06 40.84 36.67 26.33 23.13 23.78 29.30 30.43 29.37 22.55 25.99 22.35 25.71 25.70 28.36 29.16 31.95 31.48 33.42 33.87 32.64 27.47 36.59 37.16 36.58 38.07 37.50 40.09 30.72 32.26 24.58 23.55
44.94 44.65 44.29 44.09 43.82 43.91 43.26 44.14 43.45 43.91 44.29 43.11 34.08 30.19 37.70 40.53 40.16 31.33 21.56 23.68 27.12 31.94 32.15 28.31 26.25 25.08 26.03 25.59 28.07 27.70 28.24 31.00 34.08 32.90 35.40 33.68 30.99 32.97 37.12 32.93 31.27 32.79 33.39 35.36 35.81 32.70 26.95
45.08 44.52 44.35 44.06 43.46 44.41 43.70 44.62 43.56 44.24 43.92 38.68 32.32 22.93 38.76 39.77 26.58 28.71 24.29 27.25 32.43 31.03 33.93 31.52 31.23 28.94 27.17 28.44 27.71 27.83 27.10 29.84 35.84 34.87 29.91 34.88 32.00 27.98 32.38 38.36 39.51 36.63 34.37 35.72 31.11 28.89 32.67
46.18 44.84 44.50 44.01 43.75 44.60 44.19 44.27 43.88 44.51 43.40 34.78 29.23 29.13 36.68 38.53 20.54 22.81 27.53 28.85 31.38 30.15 30.71 30.83 29.79 31.53 32.56 28.76 25.55 29.16 29.90 35.56 36.55 34.81 32.32 33.90 30.71 25.82 29.08 34.28 36.54 33.25 34.89 35.64 35.77 34.69 31.19
45.76 45.56 44.56 43.80 43.64 43.91 44.59 44.17 44.24 44.50 43.85 36.16 29.55 20.79 27.81 35.32 33.63 27.01 24.34 24.88 26.18 32.03 31.09 32.15 31.20 32.54 29.62 27.82 31.10 27.82 29.28 34.00 35.82 35.66 38.66 35.87 32.20 28.74 24.59 27.86 32.27 30.82 33.97 35.63 34.53 30.01 31.23
46.01 45.98 45.26 44.31 43.89 43.89 44.46 44.30 44.51 44.55 44.38 35.76 27.52 23.34 29.09 21.33 26.27 27.60 27.30 26.80 24.68 25.15 30.04 32.10 29.81 29.17 28.13 25.45 26.78 27.59 30.00 31.04 34.05 36.88 35.23 35.05 27.63 29.98 30.63 32.13 33.34 33.05 32.54 33.33 32.05 33.67 30.68
46.33 45.80 44.21 45.13 43.98 43.41 44.20 44.14 44.62 44.69 43.94 33.96 26.81 26.59 29.96 27.43 28.37 26.83 26.32 24.38 24.78 25.59 27.30 26.86 28.13 28.91 29.23 26.48 27.59 25.96 28.16 28.53 28.98 33.70 31.75 34.04 28.92 30.26 27.74 31.55 31.23 29.50 33.58 34.03 33.42 35.72 35.45
45.64 45.96 45.55 45.40 44.31 43.41 43.66 44.14 44.31 44.38 41.73 35.54 33.05 33.66 30.14 25.95 26.42 24.74 24.74 26.03 25.49 27.37 29.46 30.89 29.38 27.37 28.38 30.02 31.94 32.38 33.07 32.56 32.36 30.52 29.77 29.78 28.94 27.63 23.98 30.27 29.29 26.94 31.66 33.24 33.69 35.48 36.10
46.23 45.80 45.27 44.48 43.56 43.60 44.28 43.94 44.33 44.42 40.58 34.74 33.27 32.57 26.93 21.11 25.23 25.37 26.74 27.42 26.21 27.00 25.56 29.06 30.59 29.28 33.44 36.55 36.31 36.22 33.89 33.02 32.91 32.36 33.27 29.19 28.15 28.67 25.82 28.56 19.14 31.54 38.64 37.77 34.32 35.43 39.42
45.75 45.48 45.24 43.95 43.33 44.06 43.67 43.64 44.04 44.25 42.76 35.81 34.21 33.45 29.92 23.18 27.08 26.76 26.90 26.90 27.93 28.99 27.38 28.16 31.51 34.72 36.25 34.76 30.46 27.49 27.42 28.72 30.47 31.71 31.40 32.84 29.78 26.33 23.69 24.02 28.03 32.77 34.96 34.78 33.35 35.29 40.24
45.57 45.14 44.65 44.36 44.57 43.87 43.93 43.87 43.87 43.91 44.04 37.35 35.00 36.44 34.59 25.88 24.69 28.83 26.58 27.82 25.52 25.36 27.17 29.50 34.10 36.13 35.25 30.92 26.89 21.89 20.33 24.36 24.52 27.90 32.42 31.31 31.47 27.77 25.31 21.36 18.79 30.05 35.95 39.13 39.32 32.40 42.29
45.08 44.57 43.77 44.16 43.92 43.39 43.38 43.30 43.55 43.77 43.74 38.14 37.71 38.37 36.18 28.68 29.77 30.34 27.33 27.08 29.23 28.33 26.54 28.21 29.71 30.12 33.24 27.06 25.42 24.07 23.33 28.18 23.15 23.70 25.98 27.53 27.21 24.33 24.13 22.42 27.17 34.81 36.74 40.65 29.72 32.58 42.86
44.70 44.72 44.11 44.02 43.70 43.55 43.06 43.05 43.38 43.47 43.37 39.53 37.67 38.10 36.60 30.37 29.61 31.49 32.27 29.08 29.74 29.31 25.45 28.16 27.22 29.63 28.80 25.06 24.69 24.63 24.08 26.23 26.14 27.36 26.98 26.95 25.39 23.76 25.54 22.67 19.40 36.78 38.12 33.92 38.11 42.02 43.04
44.56 44.34 43.66 43.71 43.57 43.20 42.89 43.18 42.97 43.28 43.18 40.35 33.93 37.87 40.71 33.95 29.98 33.96 34.88 35.60 35.13 34.23 30.55 30.47 27.90 28.80 30.91 27.67 27.83 27.31 25.09 27.41 25.59 22.93 31.31 26.31 30.28 27.34 27.62 27.72 34.35 40.27 39.68 42.07 42.24 41.45 41.77

GFSGBSN_sfc_wetblb_114.txt.gz
Wetbulb
52.53 51.82 50.78 50.35 50.05 50.40 50.74 50.30 49.97 49.92 50.45 50.32 50.12 50.08 49.95 50.10 50.29 50.21 50.01 50.40 50.37 50.46 50.74 51.24 51.55 51.72 50.24 43.38 42.13 48.58 54.51 53.95 53.06 55.76 52.30 49.26 48.12 48.89 46.08 47.75 49.05 46.85 48.11 49.66 50.01 49.98 50.01
51.76 51.26 50.65 50.37 50.20 50.34 49.61 49.38 50.07 50.10 50.08 49.63 49.42 49.33 49.61 49.75 49.91 50.12 50.10 50.76 50.84 50.14 50.52 51.50 52.05 50.85 47.74 39.82 46.05 49.33 48.73 48.64 47.90 46.49 49.68 51.22 48.31 49.46 47.30 46.89 46.26 48.55 48.56 48.95 49.92 49.45 49.94
51.41 50.92 50.83 50.57 49.82 49.33 49.00 49.44 49.57 49.74 49.33 49.37 49.16 49.11 49.26 49.41 49.84 49.61 49.56 50.72 50.60 49.91 51.28 52.08 52.27 50.80 45.79 43.33 48.27 51.39 52.65 52.49 52.69 51.42 46.89 49.05 51.52 48.68 49.16 45.94 48.94 47.54 44.52 47.09 48.05 48.82 48.44
50.51 51.39 51.19 50.69 49.47 49.44 49.42 49.11 49.30 49.00 48.77 48.77 48.44 48.64 48.71 48.95 49.11 48.82 49.86 49.61 49.45 50.76 50.87 51.90 52.14 49.25 42.99 47.80 51.27 52.99 53.61 51.72 52.15 52.81 50.51 50.19 48.12 45.65 44.32 47.82 47.29 44.37 45.44 41.89 47.70 48.48 49.10
49.93 49.60 49.81 49.92 49.90 48.98 48.23 48.22 48.31 48.22 48.44 48.13 47.89 48.29 48.49 48.50 48.50 49.21 48.96 48.67 50.42 51.01 51.06 51.27 49.81 46.40 42.41 51.45 45.33 47.67 48.71 45.75 46.61 49.99 50.42 49.88 47.26 43.48 44.63 41.37 40.26 42.44 37.78 40.30 43.24 48.10 48.25
49.65 49.62 50.38 49.99 49.09 47.90 47.38 48.11 47.90 47.19 47.57 47.16 47.67 47.92 48.09 47.80 47.96 48.74 48.00 46.86 47.48 48.32 49.20 50.25 50.29 42.62 44.55 40.47 45.52 46.64 48.52 47.23 44.98 46.18 45.34 44.49 44.50 41.25 40.71 39.34 33.80 37.43 38.12 39.29 39.60 44.28 46.37
49.61 48.73 49.09 49.11 48.22 47.18 46.65 46.63 46.64 46.39 46.84 46.99 47.64 47.82 47.72 47.54 47.85 47.20 47.78 47.84 44.05 44.16 42.79 38.31 38.65 37.41 41.06 45.01 47.87 45.80 47.17 45.25 44.53 42.89 38.30 42.68 37.89 36.17 38.61 40.25 39.72 39.45 39.32 38.88 41.69 44.51 44.77
49.47 48.99 48.64 48.25 47.54 46.33 46.06 46.07 45.99 46.04 45.64 46.92 47.12 47.08 47.33 46.89 47.08 46.34 47.48 41.90 39.16 40.33 35.21 40.76 41.45 41.39 43.89 44.75 39.91 43.51 46.30 40.97 40.37 36.52 39.16 37.91 35.31 40.16 40.83 40.11 38.94 38.55 37.92 38.17 40.77 42.75 42.76
48.55 48.07 48.42 47.85 47.04 46.44 45.61 45.35 45.59 45.60 46.09 46.15 46.51 46.76 47.01 46.49 45.22 46.32 43.51 41.72 45.75 44.49 36.40 37.23 40.73 40.70 40.87 42.50 38.53 40.44 42.81 41.70 38.90 36.20 36.99 34.51 37.70 40.84 39.77 39.32 37.17 37.79 36.85 37.66 37.95 40.93 42.58
48.13 48.18 47.97 47.41 46.63 46.19 45.52 45.49 45.46 45.48 45.88 45.59 46.10 46.17 46.50 46.44 43.67 44.46 41.73 45.29 46.23 45.90 34.28 32.80 36.72 39.73 40.91 41.46 37.29 44.14 44.71 42.87 39.39 35.50 36.67 36.77 39.26 36.92 37.35 37.80 39.18 35.07 40.09 39.18 38.24 37.28 34.39
47.80 47.34 46.76 46.15 46.41 45.43 45.42 45.41 45.68 46.16 45.32 45.52 45.75 45.90 45.76 45.06 44.32 42.41 43.07 46.61 47.09 45.19 24.79 33.02 35.37 43.14 41.83 38.28 39.29 40.01 45.08 42.43 36.50 36.49 37.44 34.56 36.78 36.36 35.45 36.46 40.05 37.30 41.08 39.42 38.75 37.38 37.55
47.21 46.25 45.61 45.96 45.63 45.31 45.42 46.18 45.73 44.91 44.92 44.99 45.33 45.43 45.04 45.23 46.90 44.76 46.61 47.04 44.83 31.56 23.59 29.85 35.38 35.26 35.79 37.64 38.32 40.41 39.98 44.01 43.25 38.02 37.92 37.20 41.31 39.45 38.33 39.57 39.73 41.62 39.75 39.35 39.45 37.79 31.52
46.66 45.82 45.45 45.69 45.21 45.35 45.19 45.46 45.25 44.71 44.56 44.89 45.29 44.88 44.53 47.15 42.39 46.64 46.95 42.51 30.81 26.61 31.60 28.83 29.92 33.99 33.89 33.68 34.91 36.01 35.94 36.22 32.50 28.37 30.03 35.29 36.06 39.28 40.04 36.44 40.08 39.19 36.69 29.79 28.15 29.15 28.88
46.12 45.44 45.25 45.42 44.89 45.30 45.30 44.86 44.48 44.03 44.33 44.63 44.85 42.83 42.81 44.89 46.46 46.79 43.96 36.30 21.64 26.51 27.67 33.18 32.44 33.27 29.83 33.39 33.80 34.38 34.41 30.65 35.00 31.88 28.88 28.23 27.33 37.00 39.88 37.26 35.53 36.87 36.46 30.53 24.43 27.20 31.02
45.91 45.19 45.59 45.11 45.24 45.92 44.72 44.58 44.12 43.88 44.05 44.97 42.73 44.90 45.36 45.01 46.68 46.83 39.55 29.23 26.17 27.76 28.67 29.56 31.99 28.97 30.15 32.69 32.62 33.17 33.20 31.10 33.14 33.66 26.86 26.06 29.70 39.54 40.08 39.86 39.07 36.22 34.12 39.08 33.65 35.20 32.45
46.20 45.35 45.38 45.82 44.96 44.86 44.34 44.45 44.25 43.94 43.89 43.84 43.74 43.30 42.47 45.74 47.16 43.76 37.06 27.39 29.48 32.14 32.74 31.69 25.55 29.26 26.58 29.53 30.08 31.09 30.65 34.43 32.44 35.44 35.81 31.59 25.17 37.42 40.39 39.48 39.82 38.27 39.93 32.14 33.75 26.06 25.66
46.08 45.38 45.08 45.65 44.90 44.99 44.13 44.65 44.09 44.13 44.39 42.72 42.86 38.47 43.30 47.62 46.04 40.20 31.54 29.68 30.67 34.79 34.56 30.69 28.95 27.86 29.87 28.79 30.62 29.93 30.97 34.20 35.36 34.96 36.49 33.44 31.74 34.01 37.95 34.32 33.98 36.26 36.22 36.41 36.22 34.68 29.39
46.69 45.89 45.66 45.11 44.84 44.89 44.23 44.70 44.33 44.52 43.90 42.09 40.31 33.49 44.32 45.69 35.20 36.00 32.12 30.98 32.74 33.30 35.78 33.47 33.83 32.30 29.80 30.84 29.69 29.93 30.59 32.88 37.65 36.93 31.41 33.96 31.62 29.41 33.11 40.14 42.00 39.01 37.54 38.05 32.18 31.06 34.42
46.51 45.81 45.94 44.74 44.54 44.22 44.58 45.00 44.30 44.90 44.19 42.17 36.81 35.61 43.84 42.78 29.25 30.15 32.05 31.17 33.05 31.80 32.26 32.51 31.75 33.59 34.72 31.45 27.07 31.38 32.64 37.29 37.80 35.62 33.14 34.80 30.41 26.73 29.98 36.24 37.72 34.82 37.60 39.53 39.68 38.26 33.83
46.69 46.20 46.27 44.75 44.59 44.85 44.87 44.95 44.61 45.09 43.72 42.84 36.77 30.35 34.97 37.40 37.81 27.64 26.85 28.85 28.68 33.52 32.47 34.26 33.17 34.94 32.63 30.99 33.75 30.16 31.89 35.64 37.64 36.08 38.12 37.17 32.71 28.86 23.30 28.84 35.42 31.57 33.20 37.97 36.62 33.33 34.12
46.32 46.13 45.95 45.51 44.23 44.79 45.18 44.96 44.78 45.11 44.13 42.14 37.46 31.95 34.59 29.69 30.51 31.43 31.23 29.83 27.74 26.10 32.25 33.44 32.32 31.99 30.07 26.76 29.66 30.02 32.73 33.68 35.77 36.50 36.15 35.04 27.24 31.70 31.70 33.01 34.67 34.50 34.98 34.38 34.64 36.28 33.63
46.62 46.19 45.94 45.62 45.03 44.63 45.39 45.02 44.92 45.18 43.72 40.55 33.10 32.56 34.31 31.85 32.42 31.13 29.55 28.56 27.55 28.70 29.22 29.09 29.87 31.85 31.59 29.26 30.48 28.42 31.39 31.80 30.35 33.90 33.03 35.39 27.47 31.56 28.45 31.69 34.87 32.06 35.67 36.30 36.58 36.84 38.04
46.81 46.44 46.07 44.86 44.33 44.49 45.34 45.44 45.23 44.95 43.70 39.10 39.38 39.08 36.08 30.50 30.42 29.19 29.55 29.13 28.62 30.01 31.48 33.37 32.45 30.57 30.06 33.23 35.90 35.88 36.41 36.12 35.55 32.77 30.93 31.67 29.94 27.72 25.80 32.49 31.81 29.71 34.77 35.88 36.69 38.96 39.20
46.70 46.70 46.15 44.89 45.46 45.57 44.75 45.15 45.25 44.72 43.45 41.15 39.16 38.50 32.73 27.74 29.93 29.36 28.93 30.07 29.53 30.58 28.74 32.21 33.71 31.34 35.30 39.46 38.82 39.72 39.27 38.19 37.75 36.36 36.34 31.89 30.95 29.51 26.70 30.40 20.68 33.08 40.05 39.72 37.34 38.83 41.52
46.32 46.62 46.08 45.66 45.67 45.06 44.64 44.88 45.00 44.74 43.14 41.13 41.15 38.33 34.34 28.62 30.70 29.69 29.76 30.40 31.39 32.18 31.01 31.55 33.91 36.94 39.42 36.78 32.75 30.37 31.21 31.90 33.26 35.36 35.94 35.94 32.57 28.13 24.58 26.14 29.81 32.67 35.41 36.12 35.45 36.88 42.20
45.95 46.28 46.01 45.55 45.20 44.64 44.79 44.69 44.57 44.48 44.07 42.04 41.57 43.56 38.39 31.85 29.71 31.90 29.93 30.95 28.84 29.66 30.73 32.22 37.09 39.33 38.65 34.57 30.36 24.70 23.06 26.92 27.37 30.59 36.38 34.55 35.08 30.46 27.76 21.57 21.03 31.65 37.74 41.02 40.78 33.31 43.41
45.67 45.76 45.83 45.19 44.77 44.72 44.67 44.52 44.71 44.06 44.38 43.22 41.37 43.97 38.65 31.61 34.02 33.74 30.67 30.69 33.71 31.62 29.69 32.16 32.83 33.21 37.33 32.02 27.47 25.82 24.55 30.68 25.20 25.30 27.45 29.68 31.03 27.45 27.65 24.53 28.70 36.16 39.51 43.28 31.52 34.07 43.26
45.27 45.57 45.26 44.69 44.72 44.65 44.42 44.26 44.36 43.85 44.21 43.30 41.21 43.73 39.02 34.06 34.89 35.05 35.25 32.46 32.85 32.31 28.27 32.46 31.60 32.70 33.51 28.33 28.55 27.98 26.94 29.38 27.96 29.20 28.44 27.96 27.53 28.79 28.99 24.82 22.17 39.23 39.86 34.15 39.07 43.67 43.29
43.28 45.26 44.52 44.24 44.57 44.21 43.89 44.09 43.58 43.75 43.88 43.50 38.84 42.76 42.47 36.16 35.62 38.38 39.09 39.72 38.36 37.37 34.19 34.10 31.70 30.66 34.09 30.59 32.14 31.54 27.89 29.99 28.62 23.99 34.02 28.05 30.66 29.65 30.28 31.36 39.06 41.32 39.33 42.28 43.74 42.33 43.45

GFSGBSN_sfc_wetblb_117.txt.gz
Wetbulb
54.43 53.18 52.09 51.37 50.95 51.02 51.02 50.48 50.39 50.05 49.93 49.74 49.82 49.85 50.04 50.37 50.59 50.59 50.46 51.17 50.71 50.90 51.41 51.73 52.17 52.72 53.19 47.69 45.14 49.95 55.41 56.58 50.14 50.01 51.35 50.58 48.11 48.61 47.42 49.07 50.12 48.80 50.16 51.75 52.50 52.35 51.73
53.44 52.55 51.63 51.13 50.85 51.51 50.35 49.35 49.48 49.61 49.16 49.28 49.46 49.46 49.66 49.77 49.99 50.07 49.84 50.63 51.03 50.16 51.30 52.29 52.95 52.48 51.88 43.12 49.40 52.00 53.53 53.33 52.09 51.54 48.44 47.01 49.30 49.47 47.30 47.25 47.45 50.11 50.18 50.80 51.88 51.76 52.03
53.01 52.20 51.45 50.89 50.72 50.01 49.61 49.51 49.61 49.03 48.83 48.94 49.06 48.83 49.26 49.43 49.65 49.32 49.37 50.33 50.27 50.10 52.04 52.42 52.74 52.98 49.05 46.08 52.18 56.07 53.63 51.97 54.70 52.60 51.04 52.51 48.62 48.04 48.95 46.39 50.12 48.77 46.05 48.12 49.12 49.98 49.84
52.18 51.66 51.49 51.09 50.28 49.90 50.02 49.11 48.70 48.39 48.31 48.52 48.43 48.74 48.90 48.99 48.83 48.77 49.39 49.81 49.69 50.86 51.54 52.40 52.57 52.68 46.12 49.90 52.86 50.52 50.89 49.48 50.46 50.96 51.06 52.88 51.94 47.32 45.75 47.29 45.67 43.37 46.13 42.71 48.15 49.60 50.07
51.96 52.26 51.96 51.05 50.21 50.05 48.88 48.48 47.98 47.76 48.11 47.80 47.95 48.50 48.58 48.37 48.59 49.39 49.48 49.47 49.69 50.93 51.10 51.83 52.25 49.82 44.33 52.38 47.58 50.06 50.52 47.53 48.68 49.54 49.52 51.56 50.31 46.09 44.66 40.83 39.21 41.46 37.52 40.76 43.81 49.10 49.54
51.20 50.91 50.80 50.61 50.07 49.02 48.29 48.54 47.26 46.92 47.05 46.92 47.71 48.24 48.34 48.03 48.52 49.07 48.54 48.88 48.55 49.70 51.16 51.99 52.14 44.11 45.58 42.94 47.35 49.00 50.34 48.52 46.90 47.11 46.17 45.94 45.63 42.69 42.68 39.10 33.73 35.58 37.68 40.37 41.37 45.39 46.76
50.75 50.32 50.59 50.59 49.37 48.31 48.07 47.70 46.63 46.25 46.50 46.79 47.72 47.88 47.70 47.68 47.67 48.67 49.13 50.21 46.06 47.00 46.14 41.00 41.09 41.11 43.33 46.40 48.82 46.26 48.37 46.42 46.86 45.54 40.64 43.78 39.52 37.82 39.96 41.44 40.62 38.43 37.76 37.25 41.27 45.61 44.69
50.31 50.07 50.61 49.95 48.88 48.08 47.51 46.72 46.10 45.94 46.09 47.06 47.16 47.36 47.44 47.47 47.32 47.90 50.77 44.85 42.10 43.92 40.37 43.49 44.16 43.97 45.30 45.84 40.94 43.40 47.48 42.35 41.56 38.66 41.81 39.97 36.68 40.76 41.39 41.79 40.56 39.34 36.78 37.55 40.75 42.43 42.46
49.92 49.58 49.48 49.30 48.27 47.51 47.09 46.63 46.03 45.85 46.13 46.33 46.65 46.99 47.21 46.67 46.75 48.74 46.61 44.21 48.38 47.38 41.76 39.58 42.94 42.27 42.15 44.13 40.38 41.59 44.67 43.08 40.07 37.94 38.73 36.85 39.36 41.71 39.80 39.06 38.27 39.03 37.53 37.79 37.56 40.61 42.47
49.84 49.09 49.13 48.59 48.00 47.39 46.74 46.32 45.99 45.74 45.96 45.57 46.25 46.58 46.60 46.06 44.11 47.76 45.43 47.21 49.38 49.12 38.35 35.29 38.39 42.05 42.42 43.43 39.67 44.96 46.23 42.33 40.07 36.96 38.01 37.60 40.86 38.74 38.14 37.11 38.49 35.75 41.03 39.75 37.80 36.72 34.20
48.81 48.50 48.65 47.96 47.32 46.92 45.97 46.04 46.18 46.37 45.51 45.78 45.95 46.18 46.22 45.66 46.86 45.45 45.57 48.67 49.85 48.12 28.77 35.88 37.36 44.13 43.14 39.97 40.71 41.61 46.11 42.78 37.95 38.66 39.13 36.00 37.46 36.34 36.63 37.79 39.78 36.51 41.04 40.47 39.77 37.57 36.87
48.58 48.36 47.67 47.17 46.94 46.03 45.95 46.13 46.29 45.84 45.13 45.00 45.69 45.96 46.09 47.85 48.99 47.12 49.35 49.41 47.57 36.22 26.36 33.24 37.33 37.31 37.67 39.64 39.49 41.36 41.70 44.97 44.17 38.75 39.11 38.09 41.77 40.47 38.27 39.68 40.34 41.12 38.93 39.83 40.14 38.36 31.41
48.04 47.26 46.56 46.58 46.28 45.81 45.88 46.73 45.96 45.20 44.66 45.10 45.40 45.37 46.41 48.88 46.00 49.71 50.06 45.97 35.17 29.98 34.70 32.08 32.86 36.42 36.30 35.81 37.00 37.91 37.29 37.15 34.53 29.37 30.36 35.49 37.18 40.06 41.21 37.21 39.93 39.30 36.22 30.11 28.89 30.18 29.98
47.43 46.48 46.14 46.14 45.92 45.79 45.68 45.49 45.09 44.59 44.44 44.78 45.40 43.74 45.64 48.19 50.15 49.84 47.63 40.53 27.10 30.93 31.42 36.09 35.13 36.04 32.89 35.39 35.64 36.29 35.96 33.91 37.17 34.77 30.73 28.38 27.15 35.06 37.89 35.94 35.57 36.53 35.80 31.17 24.50 26.83 30.93
46.80 46.08 45.71 46.24 45.59 45.67 45.76 45.06 44.78 44.27 44.22 44.69 44.14 48.04 49.36 48.75 50.14 49.41 42.81 32.99 32.16 31.71 33.05 32.36 34.82 31.60 32.19 35.13 34.93 35.29 34.78 33.68 35.30 35.79 27.95 27.34 28.07 36.89 39.59 40.81 39.63 36.05 33.90 38.83 34.23 35.93 32.32
46.89 46.03 45.98 45.84 45.64 46.19 45.42 44.90 44.66 44.43 44.19 44.79 46.10 45.91 46.45 48.93 50.26 47.05 39.88 30.69 32.94 35.12 35.27 34.83 28.88 31.95 29.36 32.32 32.37 32.88 32.36 36.26 35.29 37.29 38.32 32.70 25.24 35.88 38.44 41.43 41.62 38.56 39.92 32.96 34.77 26.48 26.42
46.81 46.17 45.85 46.30 45.74 45.34 44.81 44.78 44.69 44.52 44.29 44.49 44.96 41.69 45.67 49.45 48.72 42.98 35.02 34.10 33.89 37.04 36.85 33.70 31.88 31.14 32.41 31.34 32.69 31.83 31.22 35.70 37.82 36.82 37.58 35.21 31.60 30.85 35.06 34.70 34.70 36.55 34.89 36.31 36.22 34.82 28.95
47.12 46.89 46.26 46.31 45.65 45.48 44.90 44.84 44.84 44.61 44.56 41.95 44.45 37.10 46.43 47.81 38.49 39.85 35.85 34.31 33.16 35.89 37.86 35.91 35.80 34.65 32.85 33.13 31.64 31.99 31.51 34.49 39.11 38.20 32.35 34.99 31.65 27.34 29.42 38.27 41.33 41.38 37.15 37.16 31.58 30.79 34.32
47.14 46.78 46.51 46.06 46.02 45.54 44.91 44.71 45.24 45.08 44.82 45.31 39.86 40.78 46.10 44.65 33.58 33.84 35.48 33.98 35.36 34.81 35.00 34.51 33.91 35.69 36.76 33.39 29.50 33.38 34.42 38.76 39.18 37.26 33.75 34.59 30.25 24.17 30.22 33.52 36.73 35.69 39.08 37.74 37.74 37.68 33.27
47.39 46.71 46.59 46.32 45.82 45.07 44.98 45.36 44.87 45.17 45.03 43.55 41.19 34.47 38.66 40.39 41.17 35.70 31.48 32.25 32.10 36.33 34.70 35.86 35.35 36.72 34.93 32.63 35.31 32.36 33.64 37.60 39.09 38.20 37.97 37.57 32.07 27.63 23.66 28.57 32.25 30.13 34.82 38.48 37.27 33.89 34.03
47.20 46.66 46.36 46.22 45.89 44.99 45.48 45.16 45.02 45.26 45.06 43.10 40.68 36.00 39.15 31.10 34.13 35.29 34.96 33.14 30.98 30.24 35.38 36.85 33.94 34.67 33.06 29.16 31.15 31.58 34.81 35.86 37.65 38.08 37.42 35.88 28.21 31.03 31.93 33.66 34.14 34.47 35.09 35.83 35.89 36.41 33.79
47.04 46.78 46.26 46.30 45.84 45.59 45.51 45.63 45.34 45.46 45.08 41.99 36.20 36.49 37.86 38.08 36.76 34.83 31.92 31.59 31.15 32.56 32.71 32.04 32.20 34.16 34.67 30.68 31.91 30.54 33.95 33.82 32.57 37.10 35.28 37.13 29.43 31.85 29.67 34.86 34.99 34.07 36.41 36.29 36.53 37.12 38.30
47.04 46.67 46.33 46.28 45.93 45.42 45.46 45.99 45.75 46.06 44.46 40.32 42.49 42.87 39.16 34.70 34.30 33.01 33.21 32.48 31.53 33.40 34.45 35.29 34.51 33.61 32.03 34.10 37.27 38.02 38.05 37.54 37.19 35.24 33.49 33.40 32.05 30.33 26.07 33.03 31.92 30.39 34.56 36.68 37.51 39.43 39.06
47.06 46.81 46.37 46.20 45.92 45.60 45.52 45.77 45.80 46.05 44.28 43.22 42.89 42.13 36.72 31.95 33.25 32.51 32.00 32.72 32.39 33.75 32.03 34.85 35.82 33.27 36.66 40.84 40.27 39.78 39.86 39.47 39.76 38.73 39.29 33.34 31.85 31.53 26.88 30.37 22.75 33.87 40.28 40.05 38.82 40.10 41.36
46.73 46.75 46.66 46.50 45.61 44.12 45.56 45.46 45.44 45.55 45.15 42.94 44.22 40.60 37.26 31.54 33.96 32.82 32.52 32.69 34.34 35.19 33.30 33.87 36.22 38.54 41.06 37.62 32.88 31.05 32.37 33.88 35.58 37.72 37.55 38.62 33.94 29.47 25.96 26.30 30.98 33.39 37.08 36.86 36.27 37.37 43.70
46.52 46.61 46.54 46.37 45.85 45.11 45.55 45.22 45.15 45.24 45.08 43.21 42.59 43.52 39.37 33.51 32.96 35.21 33.27 34.14 31.95 32.94 33.62 35.09 39.02 41.27 39.50 35.21 31.81 25.09 23.83 28.62 28.12 31.68 38.14 37.79 37.40 31.92 29.14 23.66 21.39 32.84 38.52 42.05 41.90 33.83 41.58
45.95 46.19 46.17 46.32 45.53 45.39 45.41 45.01 44.87 44.81 44.80 43.00 41.86 45.05 39.19 33.68 36.78 35.65 32.91 33.09 36.39 34.42 32.71 34.57 35.30 35.81 39.12 32.91 28.33 26.91 26.25 30.74 26.03 26.43 28.24 30.76 32.10 29.05 29.35 27.30 30.77 38.26 39.99 43.13 31.31 32.25 41.56
45.58 45.60 46.04 46.18 45.16 45.25 45.08 45.05 44.87 44.84 44.93 44.10 42.86 45.30 40.19 34.80 37.86 37.64 37.91 35.00 35.36 35.13 31.24 35.34 33.96 35.32 34.25 29.90 29.47 30.01 28.87 30.81 29.43 31.38 29.53 28.01 27.93 29.12 30.45 27.00 24.51 39.86 38.74 32.71 37.46 42.27 40.07
44.95 45.62 45.64 45.61 45.02 44.94 44.81 44.82 44.65 44.75 44.86 44.74 41.06 44.66 44.74 38.39 36.69 42.34 41.91 42.05 40.22 39.39 36.11 37.28 34.36 32.12 35.68 32.24 33.46 32.29 29.12 31.54 30.02 25.75 35.16 28.25 31.02 29.31 30.05 30.35 37.33 38.00 36.50 40.39 40.39 39.25 38.77

GFSGBSN_sfc_wetblb_120.txt.gz
Wetbulb
55.36 55.19 54.92 53.22 52.04 51.42 51.57 50.79 50.55 50.45 50.48 50.13 50.00 50.09 50.26 50.53 50.74 50.68 50.21 50.90 50.25 50.25 50.93 52.38 53.32 53.92 53.36 50.18 44.92 50.87 58.58 58.87 52.69 49.44 47.07 45.75 45.12 46.80 43.84 45.67 48.23 47.36 48.04 49.83 51.26 51.82 51.94
55.65 55.05 53.52 52.34 51.70 51.51 51.96 51.12 50.56 50.07 49.62 49.66 49.78 49.31 49.71 49.95 50.08 49.86 49.75 50.41 50.33 49.92 50.95 53.00 53.46 53.45 52.83 44.58 50.28 55.28 53.56 51.81 53.45 52.25 50.73 50.59 47.06 45.97 44.73 45.04 44.38 46.61 47.05 48.14 49.89 50.42 51.23
55.57 54.14 52.85 52.14 51.50 51.98 51.16 49.85 49.65 49.62 49.08 49.11 49.16 49.20 49.35 49.58 49.60 49.45 49.58 49.71 50.16 50.10 51.77 52.83 53.47 52.82 50.51 45.93 52.61 51.85 51.13 49.79 50.01 50.06 47.74 49.74 51.43 48.23 45.26 43.27 47.63 46.76 44.06 46.07 46.74 48.54 48.40
54.89 53.65 52.70 51.75 51.39 50.78 50.11 50.24 49.84 48.90 48.75 48.98 48.68 48.72 49.03 49.22 48.92 49.18 49.50 50.11 49.83 50.88 52.44 52.80 53.13 53.97 46.79 50.48 52.42 50.14 50.94 49.32 50.52 50.34 48.95 49.05 50.89 48.42 45.85 46.11 43.79 41.45 41.62 38.21 43.86 46.87 48.43
53.97 53.09 52.33 51.58 51.23 50.17 50.47 49.52 48.64 48.22 48.48 48.17 47.83 48.53 48.82 48.66 49.20 49.48 49.67 49.86 49.91 51.11 52.13 52.42 52.28 50.86 44.66 51.70 47.74 49.42 50.68 46.43 47.68 49.68 50.08 48.45 49.14 45.46 45.06 40.29 37.34 38.85 34.87 36.57 39.55 44.82 44.67
53.18 52.33 51.99 51.64 51.02 50.65 49.72 48.96 48.40 47.54 47.65 47.61 48.04 48.38 48.34 48.23 48.89 48.95 49.36 49.70 51.50 50.05 50.61 52.48 51.81 44.75 46.35 43.61 46.26 48.44 49.54 48.45 45.97 47.22 46.12 45.79 44.80 41.32 41.48 38.43 31.36 34.19 35.06 38.12 37.58 41.59 43.92
52.48 52.68 52.54 51.91 50.89 50.23 49.44 48.98 48.02 46.81 47.32 47.19 47.94 47.97 47.92 47.77 48.15 48.94 48.44 49.18 44.69 46.38 46.28 41.24 41.96 42.28 43.81 46.95 47.63 45.48 47.86 46.06 45.86 43.85 39.58 43.19 38.94 36.49 38.70 40.66 40.37 39.04 37.45 36.15 39.08 41.96 41.53
51.84 51.52 51.18 50.99 50.75 49.71 48.97 48.54 47.32 46.19 46.85 47.15 47.33 47.39 47.55 47.65 47.59 48.98 49.54 44.42 43.11 43.96 40.48 44.63 44.82 44.92 46.07 45.85 41.48 44.26 47.27 42.33 41.62 37.75 40.67 38.80 35.68 40.23 41.18 40.42 38.91 38.16 36.81 36.91 39.96 41.06 40.04
51.08 50.63 50.65 51.12 50.18 49.13 48.21 47.75 46.94 46.23 46.61 46.80 46.60 47.05 47.08 47.23 47.58 47.12 46.29 44.53 48.58 48.36 41.80 41.56 43.46 42.64 41.88 44.02 40.83 41.57 45.22 42.71 39.12 36.99 37.77 35.13 37.67 40.81 38.86 37.81 36.70 37.15 35.80 36.29 36.80 39.72 40.62
50.25 49.93 50.10 50.53 49.51 48.24 47.70 47.24 46.68 46.25 46.72 46.37 46.69 46.70 46.74 47.07 44.70 48.22 45.71 47.86 49.49 49.56 38.52 37.38 40.32 43.05 42.80 43.18 40.30 44.92 46.13 42.29 39.48 36.60 38.51 37.56 40.63 38.70 37.77 36.15 37.18 33.05 38.78 38.28 37.12 36.32 31.75
49.85 49.86 49.79 49.87 49.07 48.00 47.23 46.75 46.43 46.28 46.63 46.28 46.27 46.31 46.56 46.56 46.78 46.06 46.44 49.20 49.35 48.43 28.20 37.30 38.88 44.67 43.09 40.11 40.44 41.45 45.52 42.58 37.18 38.07 37.94 34.63 35.92 35.37 34.66 35.45 37.59 35.23 39.94 37.91 37.10 35.21 35.84
49.76 49.47 49.37 48.97 48.32 47.54 46.75 46.24 46.43 46.63 45.94 45.67 45.86 46.23 46.48 48.27 49.28 48.18 50.01 49.66 47.77 36.77 26.98 34.38 38.26 37.42 37.75 39.97 39.79 41.90 41.61 43.99 42.98 39.08 38.89 36.73 40.11 38.41 37.38 39.03 38.94 39.70 37.40 36.34 36.92 35.34 28.86
48.84 48.62 48.77 48.21 47.55 46.63 46.18 46.20 46.58 45.91 45.33 45.20 45.74 46.05 45.43 48.22 46.34 49.95 50.44 46.64 34.52 29.31 36.23 33.72 34.32 36.66 36.54 36.39 37.21 38.02 37.06 36.87 34.54 29.19 29.30 33.78 35.45 38.60 40.15 34.68 37.77 36.35 32.87 25.53 24.73 26.42 26.82
48.28 48.09 47.55 47.35 47.00 45.99 45.86 46.63 46.32 45.22 44.65 45.03 45.44 45.35 48.37 48.57 50.62 50.41 48.27 40.12 27.91 33.49 32.83 37.02 35.63 35.97 34.23 36.01 35.98 36.43 35.71 32.91 37.18 35.01 30.24 27.13 25.42 34.57 38.12 34.67 33.15 33.22 32.44 26.32 18.84 23.36 27.82
47.98 47.33 46.78 46.70 46.46 45.73 45.56 45.67 45.36 44.79 44.34 44.62 45.27 46.47 47.88 49.18 50.43 49.55 42.89 33.00 32.47 33.99 35.07 33.34 35.07 33.01 32.86 35.38 35.09 35.15 34.15 33.27 35.58 36.22 27.92 26.63 26.65 36.53 38.11 38.92 37.21 34.97 30.74 36.00 30.73 32.62 28.69
47.74 46.89 46.26 46.22 45.85 45.14 46.22 45.41 44.91 44.42 44.35 44.45 43.68 45.43 46.13 49.26 50.32 46.66 39.19 33.89 34.34 36.48 36.10 35.58 29.79 32.96 29.69 32.59 32.05 32.56 32.20 35.72 34.78 37.94 38.33 32.72 25.06 34.19 36.56 38.69 40.19 37.28 39.49 29.87 31.21 22.25 21.35
47.15 46.47 45.95 46.14 46.34 46.10 46.17 45.21 44.75 44.54 44.39 44.35 42.48 40.67 46.12 49.20 48.33 42.44 34.31 35.40 35.90 38.33 37.31 34.33 33.03 31.80 32.66 31.40 32.58 31.45 31.79 35.72 37.59 36.54 37.80 35.81 30.67 29.39 34.29 31.72 31.39 33.32 33.06 34.96 34.06 31.81 25.26
47.58 47.05 46.88 46.33 45.82 45.96 45.24 44.90 44.79 44.55 44.39 41.77 43.60 37.67 46.36 48.08 38.29 39.47 35.79 36.40 34.17 37.23 38.70 36.35 36.10 34.40 33.06 33.46 31.65 31.68 31.21 34.40 38.86 38.39 32.48 36.09 31.50 24.82 28.85 35.35 38.41 37.23 32.79 34.18 29.14 27.50 32.31
47.33 47.01 46.81 46.06 46.19 45.96 45.18 44.94 45.08 44.55 44.88 43.83 39.07 40.44 45.84 45.39 33.64 34.68 37.43 35.76 36.30 35.85 36.00 35.37 34.51 36.04 36.53 33.11 29.52 32.69 33.56 38.26 38.90 36.83 34.14 34.83 28.70 23.14 25.97 31.87 34.94 32.32 34.69 35.57 35.65 35.84 30.95
47.07 46.96 46.74 45.95 46.36 45.45 45.70 44.94 45.30 44.66 44.99 42.98 40.81 34.87 38.57 39.06 39.69 36.12 35.42 33.97 33.29 37.17 35.98 36.42 35.23 36.70 34.23 32.89 35.28 31.51 32.43 36.75 38.87 37.95 37.81 37.93 31.34 26.96 21.96 26.23 31.54 28.82 32.51 34.48 35.07 29.43 31.56
47.48 47.25 46.78 46.46 46.50 45.81 45.38 44.96 45.54 44.80 44.88 41.92 40.85 36.15 39.34 32.53 34.33 35.80 36.89 34.83 32.71 31.92 35.90 36.58 34.26 34.16 33.01 29.93 31.35 30.48 33.43 34.62 37.13 38.90 37.14 36.06 28.00 30.42 31.48 32.67 33.15 33.01 33.64 35.15 34.21 35.48 30.65
47.50 47.23 46.63 46.58 46.26 46.32 45.20 45.45 45.58 45.08 45.07 40.95 37.03 36.30 38.59 36.11 37.54 35.32 33.57 33.33 32.85 34.16 34.13 32.46 32.25 34.30 34.59 31.16 31.90 29.23 32.24 32.58 31.92 35.12 34.16 36.55 28.45 31.61 29.47 33.13 34.13 31.44 34.67 35.77 36.11 36.55 35.77
47.47 47.27 46.76 46.58 46.23 46.07 45.84 46.09 46.04 45.61 44.60 39.05 41.98 42.14 38.61 36.28 35.45 33.78 33.79 33.58 33.45 35.36 35.50 36.16 34.71 33.13 31.97 33.97 36.25 36.41 37.12 36.38 35.39 33.39 33.28 33.78 31.19 29.15 25.26 31.86 31.76 29.05 32.23 33.62 34.60 38.37 38.70
47.38 47.24 46.94 46.81 46.47 46.16 45.74 46.01 46.12 46.10 44.82 43.04 42.60 41.31 35.68 31.15 33.75 33.46 34.78 35.69 34.51 34.31 32.60 35.63 36.38 33.47 36.49 40.43 39.46 38.33 37.53 37.20 37.87 37.63 38.87 33.86 32.42 31.22 26.70 29.67 21.62 32.49 38.64 37.76 36.38 35.95 38.69
47.06 47.03 46.97 46.65 46.49 45.92 45.66 45.80 46.09 46.05 46.40 42.12 43.69 40.44 37.25 31.91 35.05 34.47 34.79 34.11 34.92 35.54 33.62 34.10 36.03 38.64 40.85 37.26 31.23 28.94 30.30 32.21 34.52 36.98 37.40 37.90 34.18 28.62 24.91 25.38 29.76 32.41 35.83 34.93 33.47 34.37 37.76
46.75 46.82 46.87 46.46 46.32 45.72 45.08 45.70 45.93 46.07 45.61 43.43 43.59 44.24 39.34 33.49 33.15 36.80 34.47 34.78 31.61 32.23 33.29 35.39 39.82 41.11 39.35 33.47 30.18 23.96 22.55 27.52 27.57 31.28 38.19 37.09 37.04 30.61 28.70 23.03 21.15 30.59 36.77 40.75 41.23 31.03 38.43
46.67 46.84 46.59 46.69 46.26 45.67 44.87 44.91 45.82 45.79 45.06 43.32 42.65 45.58 40.01 34.52 36.87 37.05 33.35 33.24 36.48 34.21 31.87 35.23 36.21 35.73 38.93 31.55 27.15 25.44 25.11 31.39 25.19 25.59 27.46 29.67 30.83 27.68 27.84 25.94 30.06 33.47 37.75 41.14 26.02 28.81 38.72
45.90 46.16 46.21 46.21 46.11 45.74 45.20 45.10 45.49 45.44 44.80 43.63 42.37 45.75 40.56 35.51 36.85 39.02 38.46 35.44 36.07 35.16 31.33 35.34 34.07 35.05 33.25 28.94 28.25 28.68 27.72 29.86 28.61 30.65 29.32 27.91 26.43 26.29 27.37 25.79 23.04 34.57 35.64 29.61 34.58 37.61 37.24
42.48 45.67 46.02 45.88 45.90 45.68 44.64 45.27 45.34 45.15 44.94 44.70 40.85 44.93 44.98 38.86 36.88 41.86 42.05 42.70 40.78 39.56 35.96 36.60 34.44 33.80 34.82 30.77 32.20 31.43 28.50 30.71 29.07 24.13 34.10 27.36 31.02 29.63 30.18 28.61 34.22 34.15 32.63 34.51 36.28 35.64 35.78

GFSGBSN_sfc_wetblb_126.txt.gz
Wetbulb
58.43 58.19 57.70 57.42 56.82 56.17 55.12 54.12 52.68 51.77 51.43 50.79 50.47 50.30 50.62 50.66 50.85 50.87 50.44 50.35 50.63 50.79 51.10 51.90 53.26 54.38 50.33 45.04 40.51 48.22 57.86 55.25 49.54 46.80 44.57 43.71 42.79 41.35 37.43 39.57 38.45 36.42 38.82 40.96 41.85 42.30 41.97
58.01 57.41 57.36 56.96 56.49 55.88 54.86 53.52 52.56 52.43 51.98 50.40 49.91 50.04 49.93 50.33 50.38 50.42 50.08 50.61 50.59 50.78 51.29 51.98 53.51 54.78 47.62 38.79 46.33 47.01 47.09 47.29 45.88 44.53 43.88 43.16 41.15 41.85 40.74 39.59 37.22 38.74 39.12 39.00 38.96 39.68 40.61
57.98 57.15 57.01 56.37 55.90 55.51 54.24 53.53 52.95 51.76 50.98 49.82 49.26 49.59 49.43 49.80 50.12 49.97 49.78 49.95 50.23 50.72 51.14 52.05 53.71 51.56 46.70 41.87 45.84 45.99 47.03 45.20 45.02 44.86 42.82 44.18 43.56 40.25 40.49 38.92 41.95 40.25 35.09 37.32 37.88 37.79 39.12
58.03 57.19 57.11 55.87 55.65 54.41 53.60 53.47 52.30 50.85 50.66 49.38 48.72 48.85 48.85 49.76 49.66 49.33 49.53 50.29 50.46 50.61 51.49 52.16 53.40 49.29 43.61 49.23 46.50 44.98 45.27 45.96 46.68 46.15 44.31 44.80 44.40 40.88 38.87 41.02 39.51 36.14 33.07 27.66 33.98 37.08 38.29
57.80 57.13 56.85 55.85 54.99 53.69 53.25 52.94 51.65 51.25 49.95 48.72 48.07 48.02 49.05 49.58 49.52 49.76 50.12 50.05 50.54 51.87 52.04 52.37 47.60 46.71 41.56 51.89 43.79 44.71 45.28 44.31 44.65 44.76 44.04 47.42 42.49 37.58 38.77 33.07 28.70 30.06 26.31 28.22 33.45 36.63 36.34
57.92 57.15 56.57 55.85 54.40 53.37 53.22 52.02 51.56 50.31 48.92 47.96 47.37 48.07 48.62 48.52 49.22 49.26 49.46 49.65 50.16 50.22 49.91 49.42 49.37 41.77 45.02 42.17 43.99 44.98 43.50 44.83 42.61 42.30 40.82 39.81 36.48 33.37 31.67 29.23 22.60 26.33 27.09 30.44 30.01 34.58 35.32
58.08 57.14 56.36 55.54 54.11 53.56 52.29 51.31 50.78 49.35 48.05 47.48 46.95 47.85 47.96 48.27 48.32 48.97 47.19 43.82 40.09 42.71 42.54 38.65 39.49 40.71 42.37 44.43 44.98 42.00 44.43 42.91 41.47 38.36 31.91 35.68 30.18 26.03 29.04 31.88 33.24 31.93 30.26 29.14 32.92 36.66 33.77
57.62 56.93 56.13 55.07 53.88 53.22 51.72 51.22 50.17 48.67 47.69 47.37 47.15 47.04 47.39 47.97 48.08 48.57 45.47 39.72 41.02 40.72 35.56 43.58 43.22 43.27 45.23 43.51 38.33 40.86 44.54 38.25 36.24 30.68 33.93 31.13 27.42 34.16 35.92 35.09 33.11 31.71 29.17 28.63 32.70 35.89 35.04
57.00 56.36 55.75 54.76 53.84 52.85 51.65 50.91 49.90 48.40 47.33 47.62 47.07 46.26 47.18 47.39 47.76 45.72 40.42 40.61 44.78 44.01 34.87 41.65 43.05 42.49 41.18 41.65 37.58 37.55 41.35 38.76 33.76 31.80 31.44 27.94 33.07 37.90 35.00 32.46 31.17 30.42 28.51 29.13 29.39 33.57 34.64
56.50 55.43 54.80 54.17 53.10 52.40 51.79 50.57 49.63 48.23 47.32 47.25 47.07 46.59 46.86 47.14 45.04 43.67 40.97 44.08 44.97 44.67 29.31 35.10 38.49 41.20 41.49 40.01 36.66 40.49 42.90 38.03 34.71 31.50 32.09 31.68 36.38 34.45 32.43 30.79 31.81 26.72 33.93 32.56 30.49 27.93 22.28
55.87 54.80 53.89 52.94 52.41 51.79 50.71 49.57 49.04 47.99 46.91 47.29 46.66 45.87 46.05 46.43 40.66 40.92 43.91 44.96 44.52 43.72 22.42 37.27 38.66 42.70 39.73 36.58 37.29 38.50 40.22 38.22 32.49 32.66 32.39 29.46 31.99 31.61 29.66 30.91 33.85 29.86 34.05 31.75 31.12 28.37 27.08
55.25 54.04 52.84 52.42 51.88 50.00 49.95 49.39 48.34 47.37 46.85 47.20 45.91 45.36 46.05 45.52 42.68 44.06 45.56 45.78 43.56 30.69 23.14 33.19 36.95 36.21 35.01 36.97 37.31 38.07 38.01 39.73 38.66 34.61 33.55 31.54 35.84 32.89 32.18 34.91 34.14 34.46 32.15 31.42 30.86 28.30 20.61
53.47 52.52 52.36 51.12 50.32 50.14 49.50 48.49 47.63 47.10 47.27 46.33 45.33 45.04 43.79 44.94 41.37 45.28 45.24 42.25 31.57 24.46 35.86 31.14 32.89 35.32 33.77 33.25 34.78 34.77 33.39 30.95 28.36 24.45 23.92 29.95 30.53 33.32 35.96 30.31 32.82 31.28 27.68 20.55 18.39 18.28 18.69
52.09 50.91 50.51 50.43 49.80 49.51 48.46 47.75 46.79 46.81 46.54 45.41 44.99 44.95 43.86 44.92 45.12 45.65 43.52 35.21 25.79 33.59 32.17 36.53 34.53 33.75 31.27 33.82 32.96 33.28 30.85 27.16 31.67 29.41 24.40 22.45 20.60 29.38 34.38 30.78 27.60 28.53 28.92 23.32 16.64 18.21 20.69
50.62 50.28 50.27 49.82 49.31 48.47 48.00 47.00 46.73 46.59 45.36 44.51 44.25 39.96 41.15 44.98 45.62 44.95 38.23 27.14 27.32 32.09 35.25 33.25 32.82 29.97 30.89 33.16 32.12 31.21 28.80 26.86 30.64 30.97 22.18 22.76 23.58 33.21 34.03 34.11 32.17 30.03 25.79 31.89 27.32 28.60 23.32
49.35 49.43 49.34 49.03 47.93 47.44 46.63 46.95 46.60 45.50 44.52 44.59 39.05 40.17 41.60 44.74 44.95 42.43 33.70 31.32 33.20 36.71 35.94 35.36 29.02 31.83 26.75 28.65 28.30 27.80 27.30 32.34 31.77 34.10 32.65 28.07 21.12 30.83 32.74 34.08 34.69 32.30 34.31 25.28 27.17 20.07 17.86
48.76 48.67 48.18 47.64 47.03 46.32 46.89 46.43 45.46 44.95 44.81 44.57 38.08 36.56 41.91 44.56 43.57 37.62 28.21 30.64 34.67 37.61 37.57 33.67 31.23 30.06 29.70 27.92 29.01 26.53 27.05 32.08 34.44 33.49 33.25 28.46 25.14 26.28 29.71 26.12 25.63 27.15 28.03 29.53 29.38 27.26 22.12
47.37 47.55 47.11 46.63 46.25 45.88 45.52 45.43 45.03 44.86 44.82 40.91 36.96 31.76 42.18 42.76 32.69 34.54 29.95 35.89 38.03 35.49 37.53 35.57 34.45 32.82 29.58 30.24 27.83 26.75 26.78 30.23 35.57 34.00 28.09 29.99 23.95 20.95 24.36 31.41 33.25 30.50 28.62 29.89 24.65 22.24 26.41
46.26 46.08 46.18 46.04 45.79 46.52 46.01 45.41 44.57 44.84 44.35 38.83 35.30 35.60 40.97 41.09 26.53 29.51 35.24 34.78 35.80 35.26 35.15 34.28 33.29 35.19 33.86 29.45 24.96 29.45 30.20 35.13 34.62 33.05 28.24 29.21 21.67 18.30 21.60 26.64 30.58 27.38 30.16 31.12 32.00 31.01 25.57
47.01 47.01 47.09 46.63 46.14 46.60 45.67 45.15 44.49 44.36 45.03 39.58 36.30 29.14 32.25 33.04 35.05 32.72 32.29 32.20 31.65 36.31 34.58 35.09 33.35 33.57 30.86 28.30 30.88 28.07 29.73 33.88 34.69 33.05 39.39 33.50 25.20 18.29 14.91 20.63 25.84 23.50 28.18 31.84 32.00 26.87 26.35
46.85 46.68 46.56 46.73 46.68 45.85 45.36 44.37 44.45 44.59 44.91 39.02 35.35 31.47 33.52 25.75 28.31 32.43 33.28 34.46 31.62 30.31 34.58 34.75 31.66 31.10 28.84 25.10 26.40 26.14 28.76 29.73 32.27 35.07 31.27 29.24 19.60 22.55 25.08 26.81 27.93 28.10 29.91 30.06 30.38 30.02 26.59
46.64 46.46 46.64 46.55 46.40 46.10 45.45 44.52 44.71 44.52 44.35 36.79 31.51 32.12 34.42 32.74 34.88 31.61 32.73 31.55 31.57 32.94 32.21 30.83 29.28 31.59 29.54 25.61 26.62 23.91 27.29 26.44 26.24 29.45 27.16 28.42 21.30 25.67 24.06 27.90 29.40 28.40 30.65 30.58 32.04 30.57 29.25
46.55 46.62 46.72 46.59 46.59 46.17 45.61 45.07 45.36 44.76 42.26 33.60 35.64 36.53 34.37 31.98 30.08 29.33 29.57 31.98 32.24 33.79 34.21 34.52 31.93 28.93 27.51 29.46 30.73 30.96 31.16 30.52 30.15 27.18 24.98 25.96 24.39 23.34 20.48 26.91 27.11 26.59 27.91 28.92 31.30 31.26 30.86
46.55 46.01 46.18 46.64 46.72 46.37 46.11 46.29 45.66 45.12 42.54 37.51 37.58 36.35 30.16 25.89 28.93 29.86 34.14 34.79 32.76 33.12 30.14 32.75 32.43 29.05 32.49 35.22 33.84 32.34 31.03 31.17 30.41 29.88 31.25 25.78 24.86 24.33 21.16 25.02 14.66 27.67 32.89 31.88 30.12 32.22 32.48
46.30 46.25 46.11 46.02 46.42 46.32 46.05 46.07 45.87 45.63 45.01 38.46 37.93 35.98 32.03 26.70 30.26 31.28 32.13 32.11 31.92 31.99 29.78 30.71 32.77 34.19 34.77 32.19 26.09 24.07 24.21 26.55 29.68 33.86 32.41 32.99 29.66 24.43 23.28 22.10 26.24 26.72 28.66 27.52 27.32 29.00 32.14
46.42 46.29 46.22 46.33 46.34 46.03 46.08 46.05 45.93 45.00 45.19 40.22 38.09 39.48 34.75 29.12 28.43 33.30 30.13 30.54 26.12 25.46 26.77 30.10 35.57 35.43 33.48 27.40 23.82 20.37 18.28 23.68 24.17 27.91 34.40 33.19 31.96 26.13 24.18 19.73 17.43 24.14 30.09 33.00 32.30 24.81 31.94
46.56 45.84 46.33 46.33 46.15 46.05 46.12 46.21 46.22 45.42 45.24 39.59 37.99 39.80 36.09 28.56 31.55 33.39 28.27 27.88 30.68 27.28 24.85 28.70 31.61 30.27 32.04 20.83 21.23 20.82 19.83 28.18 22.49 22.54 24.56 25.42 24.80 23.16 22.70 20.40 23.48 28.59 30.31 32.24 22.84 22.40 32.39
46.31 46.26 45.89 46.10 46.17 46.01 46.03 46.08 46.31 45.91 45.38 39.59 36.57 40.12 36.17 30.36 32.12 36.19 36.22 30.73 30.40 28.23 24.91 28.21 26.79 28.21 25.43 20.30 21.82 19.82 21.79 25.05 23.81 26.96 26.29 23.33 22.66 18.01 21.80 19.04 15.30 30.43 30.09 23.71 28.39 32.08 33.67
45.49 46.14 46.12 45.79 45.82 45.84 45.86 45.91 46.12 45.93 45.66 41.73 35.19 40.30 40.82 33.28 32.12 36.74 37.13 37.64 36.20 34.45 29.27 28.72 28.19 28.49 28.87 24.50 25.61 25.52 23.68 21.34 23.34 17.49 27.69 17.78 23.02 20.53 22.30 22.56 31.89 31.94 29.90 32.19 33.67 31.72 32.81

GFSGBSN_sfc_wetblb_129.txt.gz
Wetbulb
59.31 59.21 58.82 58.22 57.85 57.45 56.78 55.83 55.03 53.65 52.22 51.41 51.25 50.70 50.45 50.18 50.55 50.64 50.63 50.44 50.42 50.86 51.37 52.10 53.22 54.17 49.35 44.36 39.81 46.38 56.75 53.69 46.06 45.13 42.87 41.72 39.75 38.03 35.26 37.47 38.18 34.27 36.19 38.68 39.12 38.76 38.53
59.02 58.50 58.22 57.88 57.69 57.53 56.87 56.19 55.23 53.73 52.48 51.69 51.03 50.33 50.08 49.67 50.19 50.38 50.08 49.86 50.23 50.80 51.35 51.96 53.20 53.98 46.67 40.05 45.75 46.13 45.56 45.75 44.38 43.29 41.38 41.03 39.43 40.15 37.15 38.04 35.49 38.02 37.83 38.61 37.47 37.20 36.36
59.30 58.57 58.04 57.40 57.24 57.03 56.66 55.64 54.92 53.54 52.65 51.87 50.63 49.82 49.57 49.43 49.72 49.99 49.41 49.65 50.04 50.51 51.37 51.98 52.95 50.61 45.82 43.20 44.19 44.12 45.44 43.50 42.82 42.73 40.34 41.64 41.96 38.87 39.29 36.11 40.47 39.54 34.38 35.01 34.09 34.38 35.42
59.11 58.62 58.13 57.09 56.71 56.23 55.86 55.16 54.24 53.36 52.23 51.21 50.31 49.61 48.66 49.46 49.42 49.31 49.08 49.37 49.97 50.67 52.02 51.90 52.14 48.09 43.51 48.30 45.35 43.62 44.63 44.72 45.13 43.93 42.61 43.31 43.59 40.35 38.09 39.25 37.91 34.05 31.33 26.44 34.16 36.50 36.33
58.84 58.66 58.29 57.29 56.62 56.01 55.26 54.61 53.75 53.44 51.70 51.10 50.01 49.11 48.24 49.16 48.87 48.93 48.96 49.60 50.39 51.50 52.28 51.79 48.20 46.49 40.74 51.11 42.48 42.71 42.84 42.46 43.66 44.42 44.02 46.31 41.99 36.80 37.23 31.11 27.04 28.33 23.77 27.33 30.07 36.17 34.92
59.17 58.60 58.02 57.33 56.53 55.84 55.19 53.91 53.43 52.58 52.17 50.40 49.43 48.48 48.33 48.23 48.45 49.04 49.23 49.51 49.70 50.18 49.81 49.10 48.46 41.22 44.56 41.16 43.29 44.67 43.49 44.78 42.02 41.54 39.71 38.52 34.44 31.10 29.51 27.62 20.67 23.99 24.23 27.67 27.69 31.60 33.48
59.46 58.88 58.28 57.45 56.64 55.98 55.24 54.05 52.85 52.15 51.50 49.72 49.03 48.25 47.89 47.63 48.32 48.63 46.50 41.40 38.68 41.66 42.05 39.98 40.33 40.59 41.38 44.12 44.52 41.65 44.05 42.08 39.86 37.12 31.07 34.28 29.08 25.50 27.30 29.52 30.98 29.71 27.08 26.27 30.38 33.07 31.42
56.84 58.76 58.40 57.72 56.77 56.08 55.17 54.10 52.35 51.75 50.40 49.22 48.44 47.88 46.95 47.70 47.69 48.21 45.17 38.94 40.04 40.47 34.91 42.09 42.11 42.15 44.42 42.30 37.45 39.67 43.40 37.18 35.03 29.89 32.35 29.89 26.55 31.93 33.77 32.83 30.81 29.25 27.33 26.75 30.73 33.47 33.13
54.21 57.02 58.04 57.62 56.83 55.94 54.91 53.62 52.32 50.88 49.60 48.58 47.79 47.18 46.50 46.85 47.27 44.96 39.99 40.72 44.61 43.19 32.51 40.85 42.07 42.02 41.69 41.49 36.72 36.39 40.66 37.37 32.69 30.12 29.15 27.02 31.11 35.90 33.50 30.56 29.10 27.75 26.52 27.31 27.34 31.39 32.73
53.71 54.68 57.34 57.29 56.48 55.31 54.31 53.14 51.90 50.59 48.77 47.80 47.85 47.04 46.75 46.28 43.10 41.70 39.66 43.94 45.71 45.86 30.86 34.38 37.65 39.68 39.70 38.88 35.23 39.69 40.93 37.27 33.49 29.68 30.95 30.33 34.27 32.84 30.26 28.84 30.05 24.54 31.59 30.55 28.63 26.40 21.19
53.30 53.78 56.31 56.84 55.75 53.95 52.90 52.27 51.44 49.66 48.37 48.04 47.57 47.20 46.47 45.52 39.71 39.87 42.43 44.53 45.06 44.40 21.62 36.87 37.37 42.60 39.31 36.50 36.74 36.96 39.17 37.58 32.04 31.27 31.12 27.26 30.00 29.47 27.46 29.20 31.94 27.35 32.14 29.86 29.34 26.08 25.04
53.51 54.05 56.20 55.93 54.54 52.89 52.01 51.22 50.32 49.16 48.03 47.63 47.41 46.72 46.60 43.98 39.86 42.02 44.73 45.26 43.03 30.48 22.05 33.23 36.43 35.52 35.00 36.03 35.64 37.21 37.36 39.44 37.86 32.60 31.33 30.25 33.12 31.19 30.25 32.98 32.36 33.09 30.05 30.12 29.20 25.35 18.64
55.00 54.28 56.02 55.12 53.42 52.03 51.47 50.74 49.49 48.84 47.79 48.20 46.93 46.26 44.14 43.74 39.10 43.33 44.14 42.02 29.67 24.34 35.59 30.75 32.23 35.56 33.04 32.47 34.03 34.47 32.87 31.03 27.29 23.22 23.13 27.61 28.73 31.89 33.78 28.88 30.77 29.30 26.00 20.32 19.14 18.85 19.08
54.82 54.76 55.37 53.73 52.29 51.54 50.58 49.75 49.09 47.69 47.45 46.95 46.42 45.64 43.78 43.24 43.21 43.39 42.23 34.85 25.24 31.61 31.93 35.45 34.19 33.12 30.30 32.84 32.43 32.75 30.18 26.78 30.08 28.09 22.44 20.94 19.82 27.87 33.01 28.14 25.95 26.08 27.77 21.36 14.88 16.55 19.36
55.00 55.49 53.75 52.04 51.10 50.30 49.66 49.18 48.27 47.49 47.39 46.16 45.24 39.34 39.56 42.37 43.39 42.83 36.95 22.53 26.28 32.79 34.78 32.64 32.65 28.92 29.21 32.26 31.50 30.38 28.27 26.01 29.11 29.25 21.67 21.87 22.09 30.55 31.94 32.26 30.11 26.05 23.39 29.89 24.45 25.45 22.06
54.84 53.06 51.66 50.38 49.69 49.21 48.68 48.18 47.90 47.16 45.75 45.65 38.40 39.23 40.09 43.39 44.75 41.22 32.23 29.47 33.10 36.71 35.74 35.11 27.98 30.36 25.76 28.00 27.45 27.46 26.79 30.86 30.14 32.56 30.72 26.86 19.27 28.96 31.43 31.90 32.88 30.27 31.84 22.86 26.55 17.43 15.15
51.72 50.56 49.64 49.17 48.47 48.12 47.59 47.51 47.23 46.05 45.24 45.02 40.10 36.41 40.57 44.43 43.03 35.73 26.18 29.73 33.70 37.24 37.46 33.51 30.77 28.77 28.75 27.18 27.81 25.76 26.08 30.54 32.58 31.95 31.42 27.04 24.00 25.02 28.12 23.95 23.81 24.17 23.07 26.94 27.75 24.65 19.89
46.48 46.89 47.64 47.58 46.87 46.51 46.94 46.46 45.58 45.31 46.00 42.67 38.59 31.31 41.74 43.05 34.19 32.34 29.21 34.85 37.47 35.01 37.63 35.28 34.17 31.80 29.45 29.55 26.93 26.67 26.98 29.00 33.62 32.20 25.79 27.10 23.43 20.16 23.08 30.03 31.65 28.95 28.14 27.75 23.14 20.63 24.50
45.33 45.84 45.65 45.92 46.13 46.36 45.93 45.37 44.81 44.70 44.43 38.42 35.81 35.62 40.90 40.84 27.24 29.01 34.47 33.86 35.74 34.64 34.59 34.44 33.28 34.73 33.93 29.34 25.54 29.24 29.58 33.18 33.10 31.05 27.63 28.38 20.67 16.30 20.61 24.61 28.14 25.41 27.83 29.85 31.47 30.54 25.06
45.88 45.46 45.32 45.62 45.86 45.71 45.31 44.44 44.84 44.57 44.58 40.21 35.36 28.07 32.18 34.25 34.64 32.85 31.38 30.78 30.85 36.41 34.32 35.26 32.78 33.55 30.48 28.45 30.73 27.97 28.82 32.36 33.16 31.55 37.11 32.98 24.54 16.42 11.49 18.20 23.67 21.02 25.18 29.41 30.18 24.08 24.71
45.76 45.50 45.38 45.77 45.98 45.46 44.67 44.63 44.39 44.46 44.99 39.27 34.42 30.61 32.32 24.45 29.13 31.71 32.73 33.30 30.27 29.74 34.38 34.84 31.44 31.17 28.92 25.81 26.56 25.61 27.83 28.29 30.81 33.91 29.87 28.03 18.65 22.47 24.67 26.12 25.50 24.36 26.73 28.66 27.61 29.09 24.60
45.84 45.24 44.93 46.25 46.14 45.75 45.04 44.34 44.36 45.14 44.24 36.36 32.06 31.63 34.30 31.54 32.68 31.34 32.20 31.08 31.00 31.83 32.06 30.36 29.97 30.61 29.99 26.11 26.59 24.22 26.20 26.20 25.51 27.92 25.91 26.63 19.95 24.19 22.62 26.15 26.51 24.79 29.39 27.79 30.74 30.16 27.43
45.32 45.72 45.91 45.98 46.08 45.07 44.43 44.43 44.27 44.85 41.42 33.52 35.86 36.45 34.50 30.97 29.30 28.54 29.43 31.71 32.04 32.63 32.93 34.22 32.18 28.95 27.61 29.10 30.67 30.45 30.24 29.40 28.77 26.43 24.57 24.92 23.77 22.40 19.59 25.06 24.98 24.53 24.93 26.39 27.53 30.66 28.65
45.96 45.72 45.56 45.65 45.73 45.44 44.65 45.13 44.56 44.36 41.65 37.66 36.81 35.50 31.44 26.32 28.93 28.88 33.55 33.88 32.17 31.99 29.68 32.45 32.03 28.58 32.24 35.04 32.57 30.48 28.88 28.81 28.19 27.61 29.20 25.24 24.45 23.73 20.26 23.96 11.63 24.58 32.90 30.09 27.53 31.27 29.95
45.79 45.91 45.98 45.86 45.88 46.16 45.90 45.50 45.39 44.63 43.78 38.04 37.54 35.59 31.94 26.02 29.31 30.75 32.25 31.33 31.69 32.57 30.10 30.71 32.05 34.10 34.07 31.27 25.27 23.89 23.69 25.69 28.54 30.55 27.39 29.02 26.17 21.39 21.10 21.63 24.51 26.44 29.15 26.57 25.65 26.29 29.41
45.09 45.44 45.86 46.26 46.23 46.09 46.13 45.85 45.17 45.05 43.65 38.53 37.65 38.41 34.56 29.33 27.67 32.58 29.69 30.71 26.81 26.76 27.54 30.22 34.62 33.71 32.33 26.91 24.06 20.13 16.74 22.83 23.44 26.20 32.73 31.67 30.24 24.50 22.78 18.58 12.43 22.63 29.74 30.92 30.52 21.83 29.21
45.74 45.55 45.51 45.57 45.85 45.95 45.86 45.65 45.18 45.01 43.72 39.06 37.35 38.84 34.76 28.57 31.57 33.23 28.23 28.84 30.59 27.90 25.34 28.98 30.48 29.20 30.80 21.64 21.92 20.78 19.64 26.29 21.36 22.00 24.42 24.51 24.49 22.19 21.86 21.01 21.12 28.15 29.37 31.00 21.80 18.96 30.30
45.86 45.93 45.60 45.57 45.76 46.09 46.11 46.04 45.67 45.17 43.50 39.12 36.81 39.53 34.96 30.61 32.68 35.81 35.92 31.04 29.79 28.11 25.59 28.54 27.56 28.13 25.41 20.89 22.24 20.17 21.01 24.82 23.58 26.12 25.71 22.20 20.17 16.37 20.67 17.83 14.48 29.42 29.53 23.58 27.54 30.80 31.54
45.70 45.78 45.72 45.65 45.90 45.85 46.11 46.06 45.88 45.20 43.45 41.07 36.12 40.38 39.91 33.67 32.83 36.50 36.71 37.18 35.63 33.43 29.53 28.47 28.12 28.28 28.61 25.01 24.84 24.56 22.30 20.18 22.70 16.86 26.97 18.64 22.18 19.50 21.54 20.30 29.14 30.59 29.93 31.82 32.45 30.59 31.38

GFSGBSN_sfc_wetblb_132.txt.gz
Wetbulb
60.06 59.89 59.46 59.06 58.78 58.38 57.74 57.09 56.46 55.34 54.21 53.07 51.80 51.48 51.01 50.64 50.13 50.52 50.46 50.29 50.06 50.54 51.03 51.85 52.57 54.07 48.51 41.40 39.35 44.33 56.55 52.97 44.25 43.69 41.49 40.30 38.10 36.40 33.28 34.63 36.19 32.64 33.93 36.87 37.65 37.39 35.43
59.88 59.37 59.16 58.86 58.64 58.55 58.19 57.15 56.56 55.39 54.15 53.00 51.96 51.47 50.69 50.21 49.82 50.25 50.29 49.75 49.91 50.36 50.97 51.81 52.57 54.21 45.02 35.60 44.80 44.39 43.74 43.83 42.93 41.63 39.27 39.36 38.06 38.33 35.01 34.87 33.26 35.45 35.39 36.31 35.06 35.66 34.84
59.99 59.46 58.91 58.41 58.29 58.07 57.93 56.85 56.42 55.58 54.25 53.10 52.29 51.54 50.31 49.73 49.31 50.04 49.69 49.50 49.59 50.25 51.20 51.92 52.43 50.16 44.46 38.50 43.76 42.80 45.24 42.59 41.84 41.22 39.05 40.06 40.42 37.52 36.75 33.63 37.96 36.80 32.05 32.82 33.08 34.60 32.57
60.16 59.66 59.25 58.14 57.75 57.28 56.99 56.58 56.27 55.60 54.45 52.81 52.46 51.07 50.06 48.88 49.22 49.53 49.31 49.27 49.73 50.57 52.08 52.13 52.13 47.61 39.92 50.06 45.14 42.13 41.99 41.90 43.17 42.21 41.04 41.20 41.91 38.79 35.92 37.46 35.03 31.54 29.34 25.88 32.73 34.13 34.85
57.43 59.72 59.36 58.61 57.55 57.06 56.59 56.36 55.90 55.45 54.40 53.14 52.29 50.90 49.74 49.01 49.00 49.02 49.09 49.60 50.45 50.65 52.22 51.99 46.38 43.83 39.26 50.70 41.79 42.24 42.08 41.35 42.17 42.18 42.14 45.47 40.54 35.52 35.38 30.08 26.73 27.57 21.70 24.24 28.38 33.58 32.28
54.92 56.21 58.93 58.78 57.90 57.09 56.58 56.14 55.41 54.78 53.69 53.18 52.20 50.50 49.03 48.94 48.56 49.23 49.38 49.61 49.61 49.50 49.51 48.35 47.87 39.58 42.70 39.77 41.55 42.31 41.37 42.84 40.29 39.46 38.73 38.27 33.68 30.93 29.75 27.28 20.65 22.44 22.55 25.91 25.66 29.14 30.25
54.64 55.13 55.42 58.40 58.22 57.63 57.07 56.44 55.41 54.04 53.47 52.75 52.04 50.25 49.05 48.60 48.23 48.51 47.57 43.23 39.38 37.44 39.71 38.26 38.60 39.38 39.61 42.06 42.60 40.14 42.72 41.16 39.71 37.74 32.14 34.13 29.95 25.50 27.05 28.73 29.74 28.34 25.41 23.65 27.72 31.08 28.55
53.66 54.41 54.53 54.88 58.27 57.87 57.42 56.56 55.16 53.90 53.12 52.64 51.37 50.10 48.98 48.14 47.83 48.41 43.44 39.98 39.82 40.50 32.78 39.86 40.94 40.93 42.84 40.49 35.78 38.25 41.84 35.94 34.86 29.69 31.71 29.71 25.91 30.57 32.58 30.99 29.40 27.73 24.96 24.09 28.36 30.73 30.99
53.22 53.82 53.99 54.18 54.68 57.89 57.49 56.97 55.08 53.41 52.61 51.75 50.74 49.70 48.40 47.69 47.20 44.57 38.74 40.17 43.52 42.14 30.94 36.89 40.85 40.41 41.41 40.37 35.99 36.47 40.28 36.69 32.48 29.83 28.61 26.42 30.36 34.81 31.72 28.89 27.38 25.64 23.55 24.26 25.39 29.52 29.78
52.48 52.87 52.75 53.14 53.94 55.18 57.36 56.69 55.06 53.48 52.31 51.18 50.20 49.16 48.43 47.24 44.15 42.22 37.85 42.58 43.88 41.75 26.14 31.54 36.27 39.06 38.78 38.65 34.09 38.41 39.26 35.95 32.06 28.71 29.76 29.25 33.60 31.25 28.96 27.62 27.55 22.47 29.18 28.64 26.68 23.79 18.09
51.66 51.21 51.29 51.77 52.73 53.13 55.69 55.77 54.76 53.21 51.93 50.62 49.41 48.82 47.83 47.52 40.59 38.24 41.76 41.60 43.77 39.61 18.92 34.81 35.94 40.40 37.37 35.93 36.45 36.58 39.51 37.35 31.42 31.14 30.15 27.56 29.17 28.64 26.65 28.20 29.75 25.67 30.66 28.30 27.51 24.06 21.07
50.52 50.26 50.72 51.46 51.77 52.64 54.41 55.16 53.62 52.20 50.92 50.10 48.77 47.34 46.55 44.04 41.92 43.05 43.47 43.86 42.38 25.52 18.88 31.52 35.41 34.28 33.78 35.83 35.88 37.45 37.33 39.12 37.12 32.36 31.46 29.63 32.51 31.25 30.30 32.31 30.46 32.09 28.15 27.21 26.47 23.55 17.55
50.70 49.80 49.65 50.97 51.29 51.91 53.58 54.94 52.79 51.39 49.96 49.35 47.79 46.42 44.12 44.94 40.84 43.85 44.48 41.29 25.84 19.44 33.15 29.15 30.78 34.10 32.44 31.34 32.77 33.47 32.88 31.11 27.35 24.23 24.23 28.02 28.36 31.13 32.50 25.87 28.94 27.50 24.27 17.54 17.05 17.52 17.29
49.69 48.27 49.44 52.47 51.71 51.89 53.26 54.31 52.12 50.40 49.38 48.67 47.22 46.12 45.31 44.07 44.27 42.98 42.24 33.76 20.66 28.35 29.90 33.76 32.79 31.94 29.79 32.06 32.15 32.02 29.78 26.33 29.00 28.00 22.45 20.84 19.69 26.95 31.35 26.08 24.03 25.59 24.67 15.62 5.90 14.78 17.52
47.88 49.73 50.90 54.05 52.69 52.12 53.14 53.41 50.99 49.46 48.67 47.46 45.38 40.79 41.37 43.02 44.53 44.06 37.09 24.24 25.51 30.15 32.94 31.70 31.47 27.72 28.21 31.16 31.24 30.64 28.27 25.93 29.06 29.66 22.00 21.40 21.59 29.90 30.70 30.40 28.46 23.69 21.38 28.06 15.56 23.08 19.95
48.29 53.07 53.56 54.14 53.52 52.56 53.30 50.97 49.44 48.73 46.68 44.83 37.48 37.64 38.90 44.92 44.43 41.92 32.96 27.76 29.70 34.80 34.57 34.65 27.70 29.71 25.53 28.35 28.01 28.06 27.00 30.74 30.09 32.29 30.30 26.89 19.23 27.98 29.81 30.59 30.03 27.44 29.87 18.76 22.85 13.48 13.88
47.48 54.14 54.06 53.72 53.10 52.34 50.17 48.81 48.47 47.28 45.92 43.38 38.46 33.66 42.08 44.14 43.76 36.19 26.48 27.56 32.43 36.08 36.51 33.17 30.54 28.53 29.04 27.45 28.11 26.21 26.61 30.41 32.48 31.66 30.92 27.55 24.18 24.34 26.41 21.80 22.20 23.71 20.70 23.87 25.20 22.96 18.26
44.26 49.55 53.16 51.88 50.83 49.36 48.59 48.24 47.16 45.61 44.56 42.27 38.21 30.80 42.45 43.29 33.47 31.93 27.46 32.01 36.66 34.25 36.40 34.14 33.61 31.33 29.40 29.58 27.74 27.25 26.27 29.30 34.06 32.25 25.40 27.51 24.52 19.44 21.78 28.19 29.76 27.23 25.18 25.74 19.18 16.88 25.01
45.03 43.71 47.72 49.04 48.76 48.22 47.76 46.75 45.37 44.33 44.23 40.55 34.69 34.67 40.92 40.49 27.37 29.23 31.78 33.99 34.41 33.50 33.89 33.06 32.35 34.16 33.33 29.73 26.12 28.82 28.92 32.81 32.11 29.98 27.70 28.58 21.20 14.37 18.68 23.06 25.71 23.63 25.33 27.39 27.12 26.98 22.52
44.98 44.91 44.46 45.28 45.67 45.63 45.38 44.61 44.10 44.98 44.31 41.31 35.27 29.37 33.45 35.78 33.47 32.08 30.00 29.23 30.00 35.58 34.14 34.08 32.70 33.42 30.49 28.30 30.53 28.03 28.60 31.97 32.19 32.48 36.88 32.43 23.87 14.12 8.48 15.32 22.03 20.17 24.13 25.69 27.08 22.60 24.18
44.55 44.33 44.20 44.20 44.11 44.39 44.13 43.70 43.14 45.43 44.96 40.05 35.16 29.43 31.82 25.87 26.09 32.39 31.37 31.86 30.07 29.14 33.91 34.15 31.09 31.35 29.22 25.95 27.00 26.13 28.19 27.90 30.28 35.35 29.11 26.66 17.73 21.35 23.27 23.89 23.71 24.02 23.08 26.33 19.83 26.09 23.92
45.41 44.81 44.60 44.28 44.39 44.00 43.74 42.92 43.81 44.73 44.72 36.81 32.55 31.00 33.64 30.72 33.00 31.59 32.28 28.69 30.07 30.28 31.47 29.86 29.35 31.14 30.49 27.10 28.03 24.68 26.32 26.91 25.78 27.45 25.83 25.87 19.19 22.76 21.46 24.62 23.91 23.63 28.19 26.89 26.62 29.10 26.40
45.13 45.60 45.41 44.90 44.01 43.96 43.89 43.25 43.80 44.75 41.14 35.26 35.42 36.24 34.07 31.01 29.52 29.12 27.81 31.46 31.35 32.33 33.05 34.16 32.01 29.32 28.37 29.38 31.13 31.32 30.87 29.48 28.45 26.26 24.20 23.83 22.44 21.48 19.08 23.85 24.27 20.14 24.63 24.72 21.65 28.38 27.75
44.62 45.37 44.89 44.89 44.79 44.26 43.97 44.28 44.60 43.73 41.97 37.58 36.71 35.23 31.87 25.94 28.57 28.90 32.52 32.83 31.18 31.83 29.54 32.26 32.71 29.80 32.18 34.69 33.32 31.69 29.28 27.93 27.51 25.34 27.52 24.13 23.72 23.28 20.46 23.61 10.08 22.73 30.18 28.74 25.66 28.95 29.10
44.86 45.19 45.03 44.91 44.55 44.50 44.36 44.64 44.46 43.52 43.24 37.82 37.51 35.27 32.07 25.63 29.20 31.56 31.33 30.98 31.63 32.65 30.01 30.96 32.27 34.13 34.85 31.67 26.38 24.15 23.68 25.39 27.63 27.70 25.45 27.43 25.17 20.50 17.94 21.08 23.75 23.85 27.73 25.28 24.20 24.13 28.66
45.05 44.98 44.77 45.15 45.38 45.57 44.96 45.03 44.58 43.60 43.30 38.75 36.65 37.29 34.52 29.59 27.13 32.09 29.28 30.94 28.07 26.71 28.26 30.65 33.82 34.55 33.16 28.12 24.86 19.98 16.99 22.39 22.49 26.50 29.94 27.18 28.60 26.76 23.14 18.74 10.69 21.89 28.27 30.08 29.49 20.53 28.97
45.29 45.24 45.34 45.15 45.46 45.57 44.69 44.64 44.38 44.38 43.67 39.09 36.74 38.48 34.92 29.52 32.08 32.31 27.76 28.31 30.21 28.28 26.78 30.06 30.73 30.09 30.63 24.08 23.07 20.89 19.27 25.70 21.11 22.11 24.14 24.78 25.22 22.22 21.77 19.05 20.81 26.76 29.01 30.36 21.13 18.26 30.04
44.94 45.05 45.20 45.46 45.46 45.45 44.58 45.03 44.43 44.07 43.85 39.29 36.81 38.83 34.88 31.36 32.13 35.04 35.63 30.52 29.64 29.80 27.36 29.41 28.51 28.28 26.00 22.58 23.38 21.07 21.48 24.84 23.49 25.72 25.10 22.15 19.09 15.50 20.44 18.11 14.56 28.41 27.72 23.63 26.05 30.58 30.74
45.15 44.81 44.29 45.31 45.60 45.55 45.46 45.55 44.29 43.85 43.63 41.29 35.22 38.87 38.96 34.24 32.39 36.00 36.26 36.89 35.49 33.60 30.28 28.83 29.08 28.91 28.82 24.97 24.72 25.31 23.12 21.27 22.40 17.00 26.16 17.65 21.66 19.77 21.49 19.39 27.79 28.77 27.81 30.70 30.40 30.91 31.23